<?xml version="1.0" encoding="UTF-8" standalone="no" ?>
<gpx xmlns="http://www.topografix.com/GPX/1/1" xmlns:xsi="http://www.w3.org/2001/XMLSchema-instance" xsi:schemaLocation="http://www.topografix.com/GPX/1/1 http://www.topografix.com/GPX/1/1/gpx.xsd" version="1.1" creator="VisuGPX - https://www.visugpx.com">
  <metadata>
    <name>Trail GR des 6 monts</name>
    <desc><![CDATA[Fait le 11/01/15]]></desc>
  </metadata>
  <trk>
    <name><![CDATA[2015-01-11T08:20:06Z]]></name>
    <trkseg>
      <trkpt lat="45.8346" lon="4.82347">
        <ele>254</ele>
        <time>2015-01-11T08:20:06Z</time>
      </trkpt>
      <trkpt lat="45.83457" lon="4.82342">
        <ele>254</ele>
        <time>2015-01-11T08:20:11Z</time>
      </trkpt>
      <trkpt lat="45.83454" lon="4.82337">
        <ele>255</ele>
        <time>2015-01-11T08:20:14Z</time>
      </trkpt>
      <trkpt lat="45.83453" lon="4.82334">
        <ele>255</ele>
        <time>2015-01-11T08:20:15Z</time>
      </trkpt>
      <trkpt lat="45.8345" lon="4.82327">
        <ele>253</ele>
        <time>2015-01-11T08:20:18Z</time>
      </trkpt>
      <trkpt lat="45.83445" lon="4.8232">
        <ele>253</ele>
        <time>2015-01-11T08:20:21Z</time>
      </trkpt>
      <trkpt lat="45.83437" lon="4.82311">
        <ele>254</ele>
        <time>2015-01-11T08:20:26Z</time>
      </trkpt>
      <trkpt lat="45.83436" lon="4.82309">
        <ele>254</ele>
        <time>2015-01-11T08:20:27Z</time>
      </trkpt>
      <trkpt lat="45.83429" lon="4.82299">
        <ele>253</ele>
        <time>2015-01-11T08:20:32Z</time>
      </trkpt>
      <trkpt lat="45.83428" lon="4.82298">
        <ele>253</ele>
        <time>2015-01-11T08:20:33Z</time>
      </trkpt>
      <trkpt lat="45.83422" lon="4.82295">
        <ele>253</ele>
        <time>2015-01-11T08:20:36Z</time>
      </trkpt>
      <trkpt lat="45.8342" lon="4.82294">
        <ele>253</ele>
        <time>2015-01-11T08:20:37Z</time>
      </trkpt>
      <trkpt lat="45.83416" lon="4.82293">
        <ele>269</ele>
        <time>2015-01-11T08:20:39Z</time>
      </trkpt>
      <trkpt lat="45.8341" lon="4.82288">
        <ele>268</ele>
        <time>2015-01-11T08:20:42Z</time>
      </trkpt>
      <trkpt lat="45.83403" lon="4.82283">
        <ele>268</ele>
        <time>2015-01-11T08:20:46Z</time>
      </trkpt>
      <trkpt lat="45.83395" lon="4.82276">
        <ele>269</ele>
        <time>2015-01-11T08:20:51Z</time>
      </trkpt>
      <trkpt lat="45.83387" lon="4.8227">
        <ele>269</ele>
        <time>2015-01-11T08:20:55Z</time>
      </trkpt>
      <trkpt lat="45.83386" lon="4.82268">
        <ele>270</ele>
        <time>2015-01-11T08:20:56Z</time>
      </trkpt>
      <trkpt lat="45.83378" lon="4.82257">
        <ele>271</ele>
        <time>2015-01-11T08:21:01Z</time>
      </trkpt>
      <trkpt lat="45.83373" lon="4.82253">
        <ele>272</ele>
        <time>2015-01-11T08:21:04Z</time>
      </trkpt>
      <trkpt lat="45.83369" lon="4.82248">
        <ele>263</ele>
        <time>2015-01-11T08:21:07Z</time>
      </trkpt>
      <trkpt lat="45.83362" lon="4.8224">
        <ele>265</ele>
        <time>2015-01-11T08:21:11Z</time>
      </trkpt>
      <trkpt lat="45.83358" lon="4.82236">
        <ele>265</ele>
        <time>2015-01-11T08:21:13Z</time>
      </trkpt>
      <trkpt lat="45.83351" lon="4.82228">
        <ele>266</ele>
        <time>2015-01-11T08:21:17Z</time>
      </trkpt>
      <trkpt lat="45.83344" lon="4.82219">
        <ele>264</ele>
        <time>2015-01-11T08:21:22Z</time>
      </trkpt>
      <trkpt lat="45.83342" lon="4.82217">
        <ele>264</ele>
        <time>2015-01-11T08:21:23Z</time>
      </trkpt>
      <trkpt lat="45.83332" lon="4.82202">
        <ele>279</ele>
        <time>2015-01-11T08:21:30Z</time>
      </trkpt>
      <trkpt lat="45.8333" lon="4.822">
        <ele>279</ele>
        <time>2015-01-11T08:21:31Z</time>
      </trkpt>
      <trkpt lat="45.83324" lon="4.82194">
        <ele>278</ele>
        <time>2015-01-11T08:21:35Z</time>
      </trkpt>
      <trkpt lat="45.83315" lon="4.82186">
        <ele>277</ele>
        <time>2015-01-11T08:21:40Z</time>
      </trkpt>
      <trkpt lat="45.83313" lon="4.82185">
        <ele>277</ele>
        <time>2015-01-11T08:21:41Z</time>
      </trkpt>
      <trkpt lat="45.83306" lon="4.82178">
        <ele>278</ele>
        <time>2015-01-11T08:21:45Z</time>
      </trkpt>
      <trkpt lat="45.83297" lon="4.82168">
        <ele>280</ele>
        <time>2015-01-11T08:21:52Z</time>
      </trkpt>
      <trkpt lat="45.83291" lon="4.8216">
        <ele>270</ele>
        <time>2015-01-11T08:21:57Z</time>
      </trkpt>
      <trkpt lat="45.83285" lon="4.82153">
        <ele>271</ele>
        <time>2015-01-11T08:22:01Z</time>
      </trkpt>
      <trkpt lat="45.83283" lon="4.82151">
        <ele>271</ele>
        <time>2015-01-11T08:22:02Z</time>
      </trkpt>
      <trkpt lat="45.83282" lon="4.82149">
        <ele>271</ele>
        <time>2015-01-11T08:22:03Z</time>
      </trkpt>
      <trkpt lat="45.83277" lon="4.82144">
        <ele>271</ele>
        <time>2015-01-11T08:22:06Z</time>
      </trkpt>
      <trkpt lat="45.83274" lon="4.82139">
        <ele>272</ele>
        <time>2015-01-11T08:22:09Z</time>
      </trkpt>
      <trkpt lat="45.83271" lon="4.82136">
        <ele>271</ele>
        <time>2015-01-11T08:22:11Z</time>
      </trkpt>
      <trkpt lat="45.83268" lon="4.82133">
        <ele>271</ele>
        <time>2015-01-11T08:22:13Z</time>
      </trkpt>
      <trkpt lat="45.83262" lon="4.82129">
        <ele>272</ele>
        <time>2015-01-11T08:22:16Z</time>
      </trkpt>
      <trkpt lat="45.83251" lon="4.82123">
        <ele>272</ele>
        <time>2015-01-11T08:22:21Z</time>
      </trkpt>
      <trkpt lat="45.83244" lon="4.82114">
        <ele>290</ele>
        <time>2015-01-11T08:22:26Z</time>
      </trkpt>
      <trkpt lat="45.83236" lon="4.82105">
        <ele>289</ele>
        <time>2015-01-11T08:22:31Z</time>
      </trkpt>
      <trkpt lat="45.83224" lon="4.82095">
        <ele>291</ele>
        <time>2015-01-11T08:22:37Z</time>
      </trkpt>
      <trkpt lat="45.8322" lon="4.82091">
        <ele>292</ele>
        <time>2015-01-11T08:22:39Z</time>
      </trkpt>
      <trkpt lat="45.83215" lon="4.82085">
        <ele>294</ele>
        <time>2015-01-11T08:22:42Z</time>
      </trkpt>
      <trkpt lat="45.83205" lon="4.82076">
        <ele>286</ele>
        <time>2015-01-11T08:22:47Z</time>
      </trkpt>
      <trkpt lat="45.83204" lon="4.82074">
        <ele>286</ele>
        <time>2015-01-11T08:22:48Z</time>
      </trkpt>
      <trkpt lat="45.83201" lon="4.8207">
        <ele>287</ele>
        <time>2015-01-11T08:22:50Z</time>
      </trkpt>
      <trkpt lat="45.83201" lon="4.82067">
        <ele>286</ele>
        <time>2015-01-11T08:22:51Z</time>
      </trkpt>
      <trkpt lat="45.83197" lon="4.82054">
        <ele>286</ele>
        <time>2015-01-11T08:22:56Z</time>
      </trkpt>
      <trkpt lat="45.83192" lon="4.82048">
        <ele>286</ele>
        <time>2015-01-11T08:22:59Z</time>
      </trkpt>
      <trkpt lat="45.83189" lon="4.82046">
        <ele>287</ele>
        <time>2015-01-11T08:23:01Z</time>
      </trkpt>
      <trkpt lat="45.83186" lon="4.82043">
        <ele>287</ele>
        <time>2015-01-11T08:23:06Z</time>
      </trkpt>
      <trkpt lat="45.83186" lon="4.82051">
        <ele>288</ele>
        <time>2015-01-11T08:23:10Z</time>
      </trkpt>
      <trkpt lat="45.83186" lon="4.82055">
        <ele>289</ele>
        <time>2015-01-11T08:23:11Z</time>
      </trkpt>
      <trkpt lat="45.83188" lon="4.82075">
        <ele>292</ele>
        <time>2015-01-11T08:23:17Z</time>
      </trkpt>
      <trkpt lat="45.83188" lon="4.82078">
        <ele>292</ele>
        <time>2015-01-11T08:23:18Z</time>
      </trkpt>
      <trkpt lat="45.83192" lon="4.82094">
        <ele>301</ele>
        <time>2015-01-11T08:23:23Z</time>
      </trkpt>
      <trkpt lat="45.83195" lon="4.82104">
        <ele>300</ele>
        <time>2015-01-11T08:23:27Z</time>
      </trkpt>
      <trkpt lat="45.83195" lon="4.82108">
        <ele>300</ele>
        <time>2015-01-11T08:23:28Z</time>
      </trkpt>
      <trkpt lat="45.83198" lon="4.82119">
        <ele>301</ele>
        <time>2015-01-11T08:23:33Z</time>
      </trkpt>
      <trkpt lat="45.83202" lon="4.82125">
        <ele>301</ele>
        <time>2015-01-11T08:23:36Z</time>
      </trkpt>
      <trkpt lat="45.83202" lon="4.82127">
        <ele>301</ele>
        <time>2015-01-11T08:23:37Z</time>
      </trkpt>
      <trkpt lat="45.83202" lon="4.8213">
        <ele>301</ele>
        <time>2015-01-11T08:23:38Z</time>
      </trkpt>
      <trkpt lat="45.83205" lon="4.82136">
        <ele>301</ele>
        <time>2015-01-11T08:23:42Z</time>
      </trkpt>
      <trkpt lat="45.8321" lon="4.82138">
        <ele>300</ele>
        <time>2015-01-11T08:23:45Z</time>
      </trkpt>
      <trkpt lat="45.83214" lon="4.82141">
        <ele>300</ele>
        <time>2015-01-11T08:23:46Z</time>
      </trkpt>
      <trkpt lat="45.83217" lon="4.82143">
        <ele>299</ele>
        <time>2015-01-11T08:23:47Z</time>
      </trkpt>
      <trkpt lat="45.83224" lon="4.8215">
        <ele>298</ele>
        <time>2015-01-11T08:23:51Z</time>
      </trkpt>
      <trkpt lat="45.83231" lon="4.8216">
        <ele>296</ele>
        <time>2015-01-11T08:23:57Z</time>
      </trkpt>
      <trkpt lat="45.83232" lon="4.82162">
        <ele>295</ele>
        <time>2015-01-11T08:23:58Z</time>
      </trkpt>
      <trkpt lat="45.83237" lon="4.82169">
        <ele>301</ele>
        <time>2015-01-11T08:24:02Z</time>
      </trkpt>
      <trkpt lat="45.83245" lon="4.82184">
        <ele>303</ele>
        <time>2015-01-11T08:24:08Z</time>
      </trkpt>
      <trkpt lat="45.83246" lon="4.82186">
        <ele>304</ele>
        <time>2015-01-11T08:24:09Z</time>
      </trkpt>
      <trkpt lat="45.83251" lon="4.82199">
        <ele>290</ele>
        <time>2015-01-11T08:24:15Z</time>
      </trkpt>
      <trkpt lat="45.83256" lon="4.82208">
        <ele>291</ele>
        <time>2015-01-11T08:24:19Z</time>
      </trkpt>
      <trkpt lat="45.83257" lon="4.82211">
        <ele>292</ele>
        <time>2015-01-11T08:24:20Z</time>
      </trkpt>
      <trkpt lat="45.83259" lon="4.82218">
        <ele>293</ele>
        <time>2015-01-11T08:24:23Z</time>
      </trkpt>
      <trkpt lat="45.83261" lon="4.82221">
        <ele>294</ele>
        <time>2015-01-11T08:24:25Z</time>
      </trkpt>
      <trkpt lat="45.83262" lon="4.82229">
        <ele>296</ele>
        <time>2015-01-11T08:24:29Z</time>
      </trkpt>
      <trkpt lat="45.83263" lon="4.82231">
        <ele>297</ele>
        <time>2015-01-11T08:24:30Z</time>
      </trkpt>
      <trkpt lat="45.83264" lon="4.82233">
        <ele>297</ele>
        <time>2015-01-11T08:24:31Z</time>
      </trkpt>
      <trkpt lat="45.83271" lon="4.82242">
        <ele>297</ele>
        <time>2015-01-11T08:24:36Z</time>
      </trkpt>
      <trkpt lat="45.83281" lon="4.8225">
        <ele>303</ele>
        <time>2015-01-11T08:24:40Z</time>
      </trkpt>
      <trkpt lat="45.83286" lon="4.82253">
        <ele>302</ele>
        <time>2015-01-11T08:24:42Z</time>
      </trkpt>
      <trkpt lat="45.83289" lon="4.82256">
        <ele>301</ele>
        <time>2015-01-11T08:24:44Z</time>
      </trkpt>
      <trkpt lat="45.83293" lon="4.82262">
        <ele>300</ele>
        <time>2015-01-11T08:24:47Z</time>
      </trkpt>
      <trkpt lat="45.83297" lon="4.82266">
        <ele>300</ele>
        <time>2015-01-11T08:24:49Z</time>
      </trkpt>
      <trkpt lat="45.83305" lon="4.82274">
        <ele>298</ele>
        <time>2015-01-11T08:24:53Z</time>
      </trkpt>
      <trkpt lat="45.83313" lon="4.82283">
        <ele>298</ele>
        <time>2015-01-11T08:24:58Z</time>
      </trkpt>
      <trkpt lat="45.83322" lon="4.823">
        <ele>298</ele>
        <time>2015-01-11T08:25:05Z</time>
      </trkpt>
      <trkpt lat="45.83324" lon="4.82305">
        <ele>298</ele>
        <time>2015-01-11T08:25:07Z</time>
      </trkpt>
      <trkpt lat="45.83329" lon="4.82321">
        <ele>297</ele>
        <time>2015-01-11T08:25:13Z</time>
      </trkpt>
      <trkpt lat="45.8333" lon="4.8233">
        <ele>296</ele>
        <time>2015-01-11T08:25:16Z</time>
      </trkpt>
      <trkpt lat="45.83332" lon="4.82336">
        <ele>296</ele>
        <time>2015-01-11T08:25:18Z</time>
      </trkpt>
      <trkpt lat="45.83328" lon="4.82355">
        <ele>300</ele>
        <time>2015-01-11T08:25:25Z</time>
      </trkpt>
      <trkpt lat="45.83326" lon="4.8236">
        <ele>301</ele>
        <time>2015-01-11T08:25:27Z</time>
      </trkpt>
      <trkpt lat="45.83323" lon="4.82374">
        <ele>301</ele>
        <time>2015-01-11T08:25:32Z</time>
      </trkpt>
      <trkpt lat="45.8332" lon="4.82384">
        <ele>301</ele>
        <time>2015-01-11T08:25:35Z</time>
      </trkpt>
      <trkpt lat="45.83318" lon="4.82392">
        <ele>300</ele>
        <time>2015-01-11T08:25:37Z</time>
      </trkpt>
      <trkpt lat="45.83313" lon="4.82408">
        <ele>299</ele>
        <time>2015-01-11T08:25:42Z</time>
      </trkpt>
      <trkpt lat="45.83313" lon="4.82411">
        <ele>299</ele>
        <time>2015-01-11T08:25:43Z</time>
      </trkpt>
      <trkpt lat="45.83309" lon="4.82424">
        <ele>297</ele>
        <time>2015-01-11T08:25:47Z</time>
      </trkpt>
      <trkpt lat="45.83306" lon="4.82437">
        <ele>298</ele>
        <time>2015-01-11T08:25:51Z</time>
      </trkpt>
      <trkpt lat="45.83304" lon="4.82443">
        <ele>298</ele>
        <time>2015-01-11T08:25:53Z</time>
      </trkpt>
      <trkpt lat="45.83298" lon="4.8246">
        <ele>298</ele>
        <time>2015-01-11T08:25:59Z</time>
      </trkpt>
      <trkpt lat="45.8329" lon="4.82477">
        <ele>299</ele>
        <time>2015-01-11T08:26:05Z</time>
      </trkpt>
      <trkpt lat="45.83288" lon="4.82482">
        <ele>299</ele>
        <time>2015-01-11T08:26:07Z</time>
      </trkpt>
      <trkpt lat="45.83284" lon="4.82493">
        <ele>300</ele>
        <time>2015-01-11T08:26:11Z</time>
      </trkpt>
      <trkpt lat="45.83279" lon="4.82505">
        <ele>296</ele>
        <time>2015-01-11T08:26:15Z</time>
      </trkpt>
      <trkpt lat="45.83277" lon="4.82509">
        <ele>296</ele>
        <time>2015-01-11T08:26:17Z</time>
      </trkpt>
      <trkpt lat="45.83274" lon="4.82518">
        <ele>296</ele>
        <time>2015-01-11T08:26:22Z</time>
      </trkpt>
      <trkpt lat="45.83273" lon="4.8252">
        <ele>296</ele>
        <time>2015-01-11T08:26:29Z</time>
      </trkpt>
      <trkpt lat="45.83276" lon="4.82521">
        <ele>295</ele>
        <time>2015-01-11T08:27:06Z</time>
      </trkpt>
      <trkpt lat="45.83276" lon="4.82518">
        <ele>296</ele>
        <time>2015-01-11T08:27:57Z</time>
      </trkpt>
      <trkpt lat="45.83275" lon="4.82518">
        <ele>296</ele>
        <time>2015-01-11T08:28:05Z</time>
      </trkpt>
      <trkpt lat="45.83275" lon="4.82518">
        <ele>296</ele>
        <time>2015-01-11T08:28:07Z</time>
      </trkpt>
      <trkpt lat="45.83274" lon="4.82517">
        <ele>296</ele>
        <time>2015-01-11T08:28:10Z</time>
      </trkpt>
      <trkpt lat="45.83276" lon="4.82514">
        <ele>296</ele>
        <time>2015-01-11T08:28:14Z</time>
      </trkpt>
      <trkpt lat="45.83277" lon="4.82514">
        <ele>296</ele>
        <time>2015-01-11T08:28:15Z</time>
      </trkpt>
      <trkpt lat="45.83276" lon="4.82516">
        <ele>296</ele>
        <time>2015-01-11T08:28:18Z</time>
      </trkpt>
      <trkpt lat="45.83276" lon="4.82525">
        <ele>295</ele>
        <time>2015-01-11T08:28:24Z</time>
      </trkpt>
      <trkpt lat="45.83275" lon="4.82528">
        <ele>295</ele>
        <time>2015-01-11T08:28:25Z</time>
      </trkpt>
      <trkpt lat="45.83274" lon="4.82533">
        <ele>294</ele>
        <time>2015-01-11T08:28:27Z</time>
      </trkpt>
      <trkpt lat="45.83272" lon="4.82544">
        <ele>294</ele>
        <time>2015-01-11T08:28:30Z</time>
      </trkpt>
      <trkpt lat="45.83274" lon="4.82561">
        <ele>293</ele>
        <time>2015-01-11T08:28:35Z</time>
      </trkpt>
      <trkpt lat="45.83274" lon="4.82565">
        <ele>293</ele>
        <time>2015-01-11T08:28:36Z</time>
      </trkpt>
      <trkpt lat="45.83273" lon="4.82584">
        <ele>290</ele>
        <time>2015-01-11T08:28:41Z</time>
      </trkpt>
      <trkpt lat="45.83271" lon="4.82588">
        <ele>290</ele>
        <time>2015-01-11T08:28:42Z</time>
      </trkpt>
      <trkpt lat="45.83265" lon="4.82608">
        <ele>289</ele>
        <time>2015-01-11T08:28:48Z</time>
      </trkpt>
      <trkpt lat="45.83264" lon="4.82611">
        <ele>289</ele>
        <time>2015-01-11T08:28:49Z</time>
      </trkpt>
      <trkpt lat="45.83259" lon="4.82622">
        <ele>288</ele>
        <time>2015-01-11T08:28:52Z</time>
      </trkpt>
      <trkpt lat="45.83251" lon="4.82633">
        <ele>288</ele>
        <time>2015-01-11T08:28:57Z</time>
      </trkpt>
      <trkpt lat="45.83248" lon="4.82635">
        <ele>302</ele>
        <time>2015-01-11T08:28:58Z</time>
      </trkpt>
      <trkpt lat="45.83238" lon="4.82642">
        <ele>302</ele>
        <time>2015-01-11T08:29:03Z</time>
      </trkpt>
      <trkpt lat="45.83234" lon="4.82646">
        <ele>302</ele>
        <time>2015-01-11T08:29:06Z</time>
      </trkpt>
      <trkpt lat="45.83232" lon="4.82649">
        <ele>302</ele>
        <time>2015-01-11T08:29:07Z</time>
      </trkpt>
      <trkpt lat="45.83226" lon="4.82664">
        <ele>302</ele>
        <time>2015-01-11T08:29:12Z</time>
      </trkpt>
      <trkpt lat="45.83224" lon="4.8267">
        <ele>297</ele>
        <time>2015-01-11T08:29:14Z</time>
      </trkpt>
      <trkpt lat="45.83221" lon="4.82683">
        <ele>298</ele>
        <time>2015-01-11T08:29:18Z</time>
      </trkpt>
      <trkpt lat="45.8322" lon="4.82694">
        <ele>298</ele>
        <time>2015-01-11T08:29:21Z</time>
      </trkpt>
      <trkpt lat="45.83217" lon="4.82706">
        <ele>298</ele>
        <time>2015-01-11T08:29:24Z</time>
      </trkpt>
      <trkpt lat="45.83216" lon="4.82722">
        <ele>297</ele>
        <time>2015-01-11T08:29:28Z</time>
      </trkpt>
      <trkpt lat="45.83215" lon="4.82725">
        <ele>297</ele>
        <time>2015-01-11T08:29:29Z</time>
      </trkpt>
      <trkpt lat="45.83211" lon="4.82746">
        <ele>297</ele>
        <time>2015-01-11T08:29:35Z</time>
      </trkpt>
      <trkpt lat="45.8321" lon="4.82749">
        <ele>297</ele>
        <time>2015-01-11T08:29:36Z</time>
      </trkpt>
      <trkpt lat="45.83208" lon="4.82764">
        <ele>293</ele>
        <time>2015-01-11T08:29:40Z</time>
      </trkpt>
      <trkpt lat="45.83205" lon="4.82776">
        <ele>293</ele>
        <time>2015-01-11T08:29:43Z</time>
      </trkpt>
      <trkpt lat="45.83205" lon="4.82779">
        <ele>293</ele>
        <time>2015-01-11T08:29:44Z</time>
      </trkpt>
      <trkpt lat="45.83205" lon="4.82793">
        <ele>292</ele>
        <time>2015-01-11T08:29:48Z</time>
      </trkpt>
      <trkpt lat="45.83206" lon="4.82804">
        <ele>292</ele>
        <time>2015-01-11T08:29:51Z</time>
      </trkpt>
      <trkpt lat="45.83207" lon="4.82815">
        <ele>292</ele>
        <time>2015-01-11T08:29:54Z</time>
      </trkpt>
      <trkpt lat="45.83209" lon="4.82832">
        <ele>291</ele>
        <time>2015-01-11T08:29:59Z</time>
      </trkpt>
      <trkpt lat="45.83208" lon="4.82835">
        <ele>289</ele>
        <time>2015-01-11T08:30:00Z</time>
      </trkpt>
      <trkpt lat="45.83203" lon="4.82844">
        <ele>289</ele>
        <time>2015-01-11T08:30:03Z</time>
      </trkpt>
      <trkpt lat="45.83199" lon="4.82853">
        <ele>289</ele>
        <time>2015-01-11T08:30:06Z</time>
      </trkpt>
      <trkpt lat="45.83197" lon="4.8286">
        <ele>289</ele>
        <time>2015-01-11T08:30:08Z</time>
      </trkpt>
      <trkpt lat="45.83191" lon="4.82876">
        <ele>289</ele>
        <time>2015-01-11T08:30:13Z</time>
      </trkpt>
      <trkpt lat="45.83189" lon="4.82879">
        <ele>289</ele>
        <time>2015-01-11T08:30:14Z</time>
      </trkpt>
      <trkpt lat="45.8318" lon="4.82897">
        <ele>289</ele>
        <time>2015-01-11T08:30:20Z</time>
      </trkpt>
      <trkpt lat="45.83173" lon="4.82911">
        <ele>291</ele>
        <time>2015-01-11T08:30:25Z</time>
      </trkpt>
      <trkpt lat="45.83167" lon="4.82919">
        <ele>291</ele>
        <time>2015-01-11T08:30:28Z</time>
      </trkpt>
      <trkpt lat="45.83165" lon="4.82923">
        <ele>293</ele>
        <time>2015-01-11T08:30:29Z</time>
      </trkpt>
      <trkpt lat="45.83157" lon="4.82936">
        <ele>295</ele>
        <time>2015-01-11T08:30:34Z</time>
      </trkpt>
      <trkpt lat="45.83154" lon="4.82941">
        <ele>296</ele>
        <time>2015-01-11T08:30:36Z</time>
      </trkpt>
      <trkpt lat="45.83151" lon="4.82946">
        <ele>296</ele>
        <time>2015-01-11T08:30:39Z</time>
      </trkpt>
      <trkpt lat="45.83149" lon="4.82947">
        <ele>296</ele>
        <time>2015-01-11T08:30:40Z</time>
      </trkpt>
      <trkpt lat="45.83146" lon="4.82954">
        <ele>297</ele>
        <time>2015-01-11T08:30:43Z</time>
      </trkpt>
      <trkpt lat="45.83143" lon="4.82964">
        <ele>297</ele>
        <time>2015-01-11T08:30:46Z</time>
      </trkpt>
      <trkpt lat="45.83143" lon="4.8297">
        <ele>297</ele>
        <time>2015-01-11T08:30:48Z</time>
      </trkpt>
      <trkpt lat="45.83141" lon="4.82985">
        <ele>296</ele>
        <time>2015-01-11T08:30:53Z</time>
      </trkpt>
      <trkpt lat="45.83141" lon="4.82991">
        <ele>296</ele>
        <time>2015-01-11T08:30:55Z</time>
      </trkpt>
      <trkpt lat="45.8314" lon="4.82998">
        <ele>296</ele>
        <time>2015-01-11T08:30:57Z</time>
      </trkpt>
      <trkpt lat="45.8314" lon="4.83001">
        <ele>297</ele>
        <time>2015-01-11T08:30:58Z</time>
      </trkpt>
      <trkpt lat="45.83137" lon="4.83016">
        <ele>298</ele>
        <time>2015-01-11T08:31:03Z</time>
      </trkpt>
      <trkpt lat="45.83136" lon="4.83029">
        <ele>299</ele>
        <time>2015-01-11T08:31:08Z</time>
      </trkpt>
      <trkpt lat="45.83136" lon="4.83042">
        <ele>299</ele>
        <time>2015-01-11T08:31:14Z</time>
      </trkpt>
      <trkpt lat="45.83135" lon="4.83043">
        <ele>299</ele>
        <time>2015-01-11T08:31:15Z</time>
      </trkpt>
      <trkpt lat="45.83133" lon="4.83055">
        <ele>300</ele>
        <time>2015-01-11T08:31:20Z</time>
      </trkpt>
      <trkpt lat="45.83133" lon="4.83058">
        <ele>300</ele>
        <time>2015-01-11T08:31:21Z</time>
      </trkpt>
      <trkpt lat="45.83132" lon="4.8307">
        <ele>300</ele>
        <time>2015-01-11T08:31:26Z</time>
      </trkpt>
      <trkpt lat="45.83128" lon="4.83089">
        <ele>300</ele>
        <time>2015-01-11T08:31:32Z</time>
      </trkpt>
      <trkpt lat="45.83125" lon="4.83093">
        <ele>300</ele>
        <time>2015-01-11T08:31:34Z</time>
      </trkpt>
      <trkpt lat="45.83123" lon="4.83095">
        <ele>300</ele>
        <time>2015-01-11T08:31:35Z</time>
      </trkpt>
      <trkpt lat="45.83122" lon="4.83095">
        <ele>300</ele>
        <time>2015-01-11T08:31:36Z</time>
      </trkpt>
      <trkpt lat="45.83113" lon="4.83095">
        <ele>301</ele>
        <time>2015-01-11T08:31:41Z</time>
      </trkpt>
      <trkpt lat="45.83108" lon="4.83095">
        <ele>301</ele>
        <time>2015-01-11T08:31:44Z</time>
      </trkpt>
      <trkpt lat="45.83106" lon="4.83095">
        <ele>302</ele>
        <time>2015-01-11T08:31:45Z</time>
      </trkpt>
      <trkpt lat="45.83101" lon="4.83094">
        <ele>302</ele>
        <time>2015-01-11T08:31:48Z</time>
      </trkpt>
      <trkpt lat="45.83099" lon="4.83093">
        <ele>302</ele>
        <time>2015-01-11T08:31:49Z</time>
      </trkpt>
      <trkpt lat="45.83091" lon="4.83092">
        <ele>303</ele>
        <time>2015-01-11T08:31:53Z</time>
      </trkpt>
      <trkpt lat="45.83087" lon="4.8309">
        <ele>304</ele>
        <time>2015-01-11T08:31:55Z</time>
      </trkpt>
      <trkpt lat="45.83081" lon="4.83089">
        <ele>306</ele>
        <time>2015-01-11T08:31:58Z</time>
      </trkpt>
      <trkpt lat="45.83074" lon="4.83089">
        <ele>306</ele>
        <time>2015-01-11T08:32:03Z</time>
      </trkpt>
      <trkpt lat="45.83068" lon="4.83089">
        <ele>306</ele>
        <time>2015-01-11T08:32:06Z</time>
      </trkpt>
      <trkpt lat="45.83064" lon="4.83089">
        <ele>306</ele>
        <time>2015-01-11T08:32:08Z</time>
      </trkpt>
      <trkpt lat="45.83054" lon="4.83087">
        <ele>306</ele>
        <time>2015-01-11T08:32:14Z</time>
      </trkpt>
      <trkpt lat="45.8305" lon="4.83088">
        <ele>306</ele>
        <time>2015-01-11T08:32:16Z</time>
      </trkpt>
      <trkpt lat="45.83046" lon="4.83088">
        <ele>306</ele>
        <time>2015-01-11T08:32:18Z</time>
      </trkpt>
      <trkpt lat="45.83039" lon="4.83087">
        <ele>307</ele>
        <time>2015-01-11T08:32:22Z</time>
      </trkpt>
      <trkpt lat="45.83037" lon="4.83087">
        <ele>307</ele>
        <time>2015-01-11T08:32:23Z</time>
      </trkpt>
      <trkpt lat="45.83032" lon="4.83083">
        <ele>312</ele>
        <time>2015-01-11T08:32:28Z</time>
      </trkpt>
      <trkpt lat="45.83032" lon="4.83082">
        <ele>312</ele>
        <time>2015-01-11T08:32:29Z</time>
      </trkpt>
      <trkpt lat="45.83031" lon="4.8308">
        <ele>312</ele>
        <time>2015-01-11T08:32:37Z</time>
      </trkpt>
      <trkpt lat="45.83031" lon="4.83071">
        <ele>312</ele>
        <time>2015-01-11T08:33:01Z</time>
      </trkpt>
      <trkpt lat="45.83032" lon="4.83069">
        <ele>312</ele>
        <time>2015-01-11T08:33:02Z</time>
      </trkpt>
      <trkpt lat="45.83036" lon="4.8306">
        <ele>312</ele>
        <time>2015-01-11T08:33:05Z</time>
      </trkpt>
      <trkpt lat="45.83037" lon="4.83053">
        <ele>312</ele>
        <time>2015-01-11T08:33:07Z</time>
      </trkpt>
      <trkpt lat="45.83036" lon="4.83048">
        <ele>312</ele>
        <time>2015-01-11T08:33:09Z</time>
      </trkpt>
      <trkpt lat="45.83033" lon="4.83044">
        <ele>312</ele>
        <time>2015-01-11T08:33:11Z</time>
      </trkpt>
      <trkpt lat="45.83028" lon="4.83045">
        <ele>312</ele>
        <time>2015-01-11T08:33:13Z</time>
      </trkpt>
      <trkpt lat="45.83026" lon="4.83046">
        <ele>312</ele>
        <time>2015-01-11T08:33:14Z</time>
      </trkpt>
      <trkpt lat="45.83024" lon="4.83046">
        <ele>313</ele>
        <time>2015-01-11T08:33:15Z</time>
      </trkpt>
      <trkpt lat="45.83013" lon="4.83044">
        <ele>313</ele>
        <time>2015-01-11T08:33:20Z</time>
      </trkpt>
      <trkpt lat="45.83008" lon="4.83043">
        <ele>313</ele>
        <time>2015-01-11T08:33:23Z</time>
      </trkpt>
      <trkpt lat="45.83004" lon="4.83042">
        <ele>313</ele>
        <time>2015-01-11T08:33:25Z</time>
      </trkpt>
      <trkpt lat="45.82992" lon="4.83034">
        <ele>319</ele>
        <time>2015-01-11T08:33:32Z</time>
      </trkpt>
      <trkpt lat="45.8299" lon="4.83033">
        <ele>319</ele>
        <time>2015-01-11T08:33:33Z</time>
      </trkpt>
      <trkpt lat="45.82979" lon="4.83025">
        <ele>320</ele>
        <time>2015-01-11T08:33:38Z</time>
      </trkpt>
      <trkpt lat="45.82973" lon="4.8302">
        <ele>320</ele>
        <time>2015-01-11T08:33:42Z</time>
      </trkpt>
      <trkpt lat="45.8297" lon="4.83018">
        <ele>320</ele>
        <time>2015-01-11T08:33:44Z</time>
      </trkpt>
      <trkpt lat="45.82965" lon="4.8301">
        <ele>321</ele>
        <time>2015-01-11T08:33:49Z</time>
      </trkpt>
      <trkpt lat="45.82957" lon="4.83011">
        <ele>321</ele>
        <time>2015-01-11T08:33:53Z</time>
      </trkpt>
      <trkpt lat="45.82954" lon="4.83011">
        <ele>321</ele>
        <time>2015-01-11T08:33:55Z</time>
      </trkpt>
      <trkpt lat="45.82953" lon="4.83011">
        <ele>321</ele>
        <time>2015-01-11T08:33:56Z</time>
      </trkpt>
      <trkpt lat="45.82947" lon="4.8301">
        <ele>322</ele>
        <time>2015-01-11T08:34:00Z</time>
      </trkpt>
      <trkpt lat="45.82938" lon="4.83006">
        <ele>323</ele>
        <time>2015-01-11T08:34:06Z</time>
      </trkpt>
      <trkpt lat="45.82937" lon="4.83005">
        <ele>323</ele>
        <time>2015-01-11T08:34:07Z</time>
      </trkpt>
      <trkpt lat="45.82935" lon="4.82997">
        <ele>327</ele>
        <time>2015-01-11T08:34:11Z</time>
      </trkpt>
      <trkpt lat="45.82934" lon="4.82991">
        <ele>327</ele>
        <time>2015-01-11T08:34:14Z</time>
      </trkpt>
      <trkpt lat="45.82933" lon="4.82987">
        <ele>328</ele>
        <time>2015-01-11T08:34:16Z</time>
      </trkpt>
      <trkpt lat="45.82932" lon="4.82985">
        <ele>328</ele>
        <time>2015-01-11T08:34:17Z</time>
      </trkpt>
      <trkpt lat="45.82932" lon="4.82982">
        <ele>328</ele>
        <time>2015-01-11T08:34:18Z</time>
      </trkpt>
      <trkpt lat="45.82931" lon="4.82978">
        <ele>328</ele>
        <time>2015-01-11T08:34:20Z</time>
      </trkpt>
      <trkpt lat="45.82931" lon="4.82972">
        <ele>328</ele>
        <time>2015-01-11T08:34:22Z</time>
      </trkpt>
      <trkpt lat="45.82931" lon="4.82969">
        <ele>328</ele>
        <time>2015-01-11T08:34:23Z</time>
      </trkpt>
      <trkpt lat="45.82933" lon="4.82955">
        <ele>329</ele>
        <time>2015-01-11T08:34:28Z</time>
      </trkpt>
      <trkpt lat="45.82934" lon="4.82952">
        <ele>329</ele>
        <time>2015-01-11T08:34:29Z</time>
      </trkpt>
      <trkpt lat="45.82934" lon="4.82949">
        <ele>329</ele>
        <time>2015-01-11T08:34:30Z</time>
      </trkpt>
      <trkpt lat="45.82936" lon="4.82935">
        <ele>330</ele>
        <time>2015-01-11T08:34:35Z</time>
      </trkpt>
      <trkpt lat="45.82937" lon="4.82929">
        <ele>331</ele>
        <time>2015-01-11T08:34:37Z</time>
      </trkpt>
      <trkpt lat="45.82941" lon="4.82923">
        <ele>331</ele>
        <time>2015-01-11T08:34:40Z</time>
      </trkpt>
      <trkpt lat="45.82943" lon="4.8291">
        <ele>338</ele>
        <time>2015-01-11T08:34:45Z</time>
      </trkpt>
      <trkpt lat="45.82944" lon="4.82905">
        <ele>338</ele>
        <time>2015-01-11T08:34:47Z</time>
      </trkpt>
      <trkpt lat="45.82945" lon="4.82896">
        <ele>339</ele>
        <time>2015-01-11T08:34:51Z</time>
      </trkpt>
      <trkpt lat="45.82949" lon="4.82879">
        <ele>341</ele>
        <time>2015-01-11T08:34:58Z</time>
      </trkpt>
      <trkpt lat="45.82954" lon="4.82867">
        <ele>341</ele>
        <time>2015-01-11T08:35:04Z</time>
      </trkpt>
      <trkpt lat="45.82959" lon="4.82858">
        <ele>342</ele>
        <time>2015-01-11T08:35:09Z</time>
      </trkpt>
      <trkpt lat="45.82961" lon="4.82855">
        <ele>342</ele>
        <time>2015-01-11T08:35:10Z</time>
      </trkpt>
      <trkpt lat="45.82967" lon="4.82847">
        <ele>341</ele>
        <time>2015-01-11T08:35:15Z</time>
      </trkpt>
      <trkpt lat="45.82966" lon="4.82844">
        <ele>342</ele>
        <time>2015-01-11T08:35:19Z</time>
      </trkpt>
      <trkpt lat="45.82961" lon="4.82843">
        <ele>342</ele>
        <time>2015-01-11T08:35:21Z</time>
      </trkpt>
      <trkpt lat="45.82959" lon="4.82841">
        <ele>343</ele>
        <time>2015-01-11T08:35:22Z</time>
      </trkpt>
      <trkpt lat="45.82954" lon="4.82844">
        <ele>344</ele>
        <time>2015-01-11T08:35:34Z</time>
      </trkpt>
      <trkpt lat="45.82952" lon="4.82842">
        <ele>344</ele>
        <time>2015-01-11T08:35:43Z</time>
      </trkpt>
      <trkpt lat="45.82954" lon="4.82842">
        <ele>344</ele>
        <time>2015-01-11T08:35:46Z</time>
      </trkpt>
      <trkpt lat="45.82955" lon="4.82843">
        <ele>344</ele>
        <time>2015-01-11T08:35:51Z</time>
      </trkpt>
      <trkpt lat="45.82955" lon="4.82836">
        <ele>344</ele>
        <time>2015-01-11T08:36:07Z</time>
      </trkpt>
      <trkpt lat="45.82957" lon="4.82836">
        <ele>344</ele>
        <time>2015-01-11T08:36:31Z</time>
      </trkpt>
      <trkpt lat="45.82953" lon="4.82839">
        <ele>344</ele>
        <time>2015-01-11T08:36:34Z</time>
      </trkpt>
      <trkpt lat="45.82951" lon="4.82839">
        <ele>345</ele>
        <time>2015-01-11T08:36:39Z</time>
      </trkpt>
      <trkpt lat="45.82947" lon="4.82842">
        <ele>345</ele>
        <time>2015-01-11T08:36:51Z</time>
      </trkpt>
      <trkpt lat="45.82943" lon="4.82846">
        <ele>346</ele>
        <time>2015-01-11T08:36:53Z</time>
      </trkpt>
      <trkpt lat="45.82935" lon="4.82853">
        <ele>346</ele>
        <time>2015-01-11T08:36:57Z</time>
      </trkpt>
      <trkpt lat="45.82925" lon="4.82859">
        <ele>347</ele>
        <time>2015-01-11T08:37:02Z</time>
      </trkpt>
      <trkpt lat="45.82923" lon="4.8286">
        <ele>347</ele>
        <time>2015-01-11T08:37:03Z</time>
      </trkpt>
      <trkpt lat="45.82908" lon="4.82865">
        <ele>355</ele>
        <time>2015-01-11T08:37:10Z</time>
      </trkpt>
      <trkpt lat="45.82906" lon="4.82866">
        <ele>354</ele>
        <time>2015-01-11T08:37:11Z</time>
      </trkpt>
      <trkpt lat="45.82897" lon="4.82871">
        <ele>354</ele>
        <time>2015-01-11T08:37:15Z</time>
      </trkpt>
      <trkpt lat="45.82888" lon="4.82877">
        <ele>354</ele>
        <time>2015-01-11T08:37:19Z</time>
      </trkpt>
      <trkpt lat="45.82883" lon="4.82879">
        <ele>354</ele>
        <time>2015-01-11T08:37:21Z</time>
      </trkpt>
      <trkpt lat="45.82871" lon="4.82883">
        <ele>354</ele>
        <time>2015-01-11T08:37:26Z</time>
      </trkpt>
      <trkpt lat="45.82868" lon="4.82882">
        <ele>354</ele>
        <time>2015-01-11T08:37:27Z</time>
      </trkpt>
      <trkpt lat="45.82857" lon="4.82881">
        <ele>355</ele>
        <time>2015-01-11T08:37:32Z</time>
      </trkpt>
      <trkpt lat="45.82849" lon="4.82881">
        <ele>355</ele>
        <time>2015-01-11T08:37:36Z</time>
      </trkpt>
      <trkpt lat="45.82847" lon="4.82881">
        <ele>355</ele>
        <time>2015-01-11T08:37:37Z</time>
      </trkpt>
      <trkpt lat="45.82834" lon="4.82883">
        <ele>356</ele>
        <time>2015-01-11T08:37:43Z</time>
      </trkpt>
      <trkpt lat="45.8283" lon="4.82884">
        <ele>358</ele>
        <time>2015-01-11T08:37:45Z</time>
      </trkpt>
      <trkpt lat="45.82825" lon="4.82886">
        <ele>358</ele>
        <time>2015-01-11T08:37:47Z</time>
      </trkpt>
      <trkpt lat="45.82816" lon="4.82887">
        <ele>358</ele>
        <time>2015-01-11T08:37:51Z</time>
      </trkpt>
      <trkpt lat="45.82811" lon="4.82889">
        <ele>358</ele>
        <time>2015-01-11T08:37:53Z</time>
      </trkpt>
      <trkpt lat="45.82802" lon="4.82891">
        <ele>358</ele>
        <time>2015-01-11T08:37:57Z</time>
      </trkpt>
      <trkpt lat="45.82792" lon="4.82891">
        <ele>358</ele>
        <time>2015-01-11T08:38:02Z</time>
      </trkpt>
      <trkpt lat="45.8279" lon="4.82891">
        <ele>358</ele>
        <time>2015-01-11T08:38:03Z</time>
      </trkpt>
      <trkpt lat="45.82785" lon="4.82893">
        <ele>357</ele>
        <time>2015-01-11T08:38:06Z</time>
      </trkpt>
      <trkpt lat="45.82774" lon="4.82891">
        <ele>357</ele>
        <time>2015-01-11T08:38:11Z</time>
      </trkpt>
      <trkpt lat="45.82759" lon="4.82888">
        <ele>357</ele>
        <time>2015-01-11T08:38:17Z</time>
      </trkpt>
      <trkpt lat="45.82754" lon="4.82887">
        <ele>357</ele>
        <time>2015-01-11T08:38:20Z</time>
      </trkpt>
      <trkpt lat="45.82749" lon="4.82886">
        <ele>352</ele>
        <time>2015-01-11T08:38:22Z</time>
      </trkpt>
      <trkpt lat="45.82735" lon="4.82883">
        <ele>352</ele>
        <time>2015-01-11T08:38:28Z</time>
      </trkpt>
      <trkpt lat="45.82727" lon="4.82879">
        <ele>352</ele>
        <time>2015-01-11T08:38:32Z</time>
      </trkpt>
      <trkpt lat="45.82718" lon="4.82871">
        <ele>352</ele>
        <time>2015-01-11T08:38:37Z</time>
      </trkpt>
      <trkpt lat="45.82709" lon="4.8286">
        <ele>353</ele>
        <time>2015-01-11T08:38:42Z</time>
      </trkpt>
      <trkpt lat="45.82704" lon="4.82852">
        <ele>353</ele>
        <time>2015-01-11T08:38:45Z</time>
      </trkpt>
      <trkpt lat="45.82699" lon="4.82844">
        <ele>353</ele>
        <time>2015-01-11T08:38:48Z</time>
      </trkpt>
      <trkpt lat="45.82693" lon="4.82832">
        <ele>361</ele>
        <time>2015-01-11T08:38:52Z</time>
      </trkpt>
      <trkpt lat="45.82686" lon="4.82814">
        <ele>362</ele>
        <time>2015-01-11T08:38:58Z</time>
      </trkpt>
      <trkpt lat="45.82683" lon="4.82807">
        <ele>362</ele>
        <time>2015-01-11T08:39:00Z</time>
      </trkpt>
      <trkpt lat="45.82679" lon="4.82799">
        <ele>363</ele>
        <time>2015-01-11T08:39:03Z</time>
      </trkpt>
      <trkpt lat="45.82673" lon="4.82787">
        <ele>364</ele>
        <time>2015-01-11T08:39:07Z</time>
      </trkpt>
      <trkpt lat="45.82671" lon="4.82785">
        <ele>364</ele>
        <time>2015-01-11T08:39:08Z</time>
      </trkpt>
      <trkpt lat="45.8266" lon="4.82772">
        <ele>355</ele>
        <time>2015-01-11T08:39:13Z</time>
      </trkpt>
      <trkpt lat="45.82656" lon="4.82768">
        <ele>355</ele>
        <time>2015-01-11T08:39:15Z</time>
      </trkpt>
      <trkpt lat="45.82649" lon="4.8276">
        <ele>355</ele>
        <time>2015-01-11T08:39:18Z</time>
      </trkpt>
      <trkpt lat="45.82642" lon="4.82751">
        <ele>354</ele>
        <time>2015-01-11T08:39:22Z</time>
      </trkpt>
      <trkpt lat="45.8263" lon="4.82741">
        <ele>362</ele>
        <time>2015-01-11T08:39:27Z</time>
      </trkpt>
      <trkpt lat="45.82625" lon="4.82737">
        <ele>362</ele>
        <time>2015-01-11T08:39:29Z</time>
      </trkpt>
      <trkpt lat="45.82611" lon="4.82731">
        <ele>360</ele>
        <time>2015-01-11T08:39:33Z</time>
      </trkpt>
      <trkpt lat="45.82608" lon="4.82729">
        <ele>360</ele>
        <time>2015-01-11T08:39:34Z</time>
      </trkpt>
      <trkpt lat="45.82596" lon="4.82725">
        <ele>359</ele>
        <time>2015-01-11T08:39:39Z</time>
      </trkpt>
      <trkpt lat="45.82589" lon="4.82724">
        <ele>359</ele>
        <time>2015-01-11T08:39:42Z</time>
      </trkpt>
      <trkpt lat="45.82581" lon="4.82721">
        <ele>353</ele>
        <time>2015-01-11T08:39:45Z</time>
      </trkpt>
      <trkpt lat="45.82572" lon="4.82722">
        <ele>353</ele>
        <time>2015-01-11T08:39:49Z</time>
      </trkpt>
      <trkpt lat="45.8257" lon="4.82722">
        <ele>353</ele>
        <time>2015-01-11T08:39:50Z</time>
      </trkpt>
      <trkpt lat="45.82559" lon="4.82715">
        <ele>354</ele>
        <time>2015-01-11T08:39:54Z</time>
      </trkpt>
      <trkpt lat="45.82554" lon="4.82712">
        <ele>354</ele>
        <time>2015-01-11T08:39:56Z</time>
      </trkpt>
      <trkpt lat="45.82546" lon="4.82707">
        <ele>355</ele>
        <time>2015-01-11T08:40:00Z</time>
      </trkpt>
      <trkpt lat="45.82535" lon="4.82706">
        <ele>355</ele>
        <time>2015-01-11T08:40:04Z</time>
      </trkpt>
      <trkpt lat="45.82532" lon="4.82706">
        <ele>354</ele>
        <time>2015-01-11T08:40:05Z</time>
      </trkpt>
      <trkpt lat="45.82517" lon="4.82714">
        <ele>353</ele>
        <time>2015-01-11T08:40:11Z</time>
      </trkpt>
      <trkpt lat="45.82502" lon="4.82715">
        <ele>353</ele>
        <time>2015-01-11T08:40:17Z</time>
      </trkpt>
      <trkpt lat="45.82498" lon="4.82714">
        <ele>350</ele>
        <time>2015-01-11T08:40:19Z</time>
      </trkpt>
      <trkpt lat="45.82485" lon="4.82713">
        <ele>350</ele>
        <time>2015-01-11T08:40:24Z</time>
      </trkpt>
      <trkpt lat="45.82478" lon="4.82712">
        <ele>350</ele>
        <time>2015-01-11T08:40:27Z</time>
      </trkpt>
      <trkpt lat="45.82469" lon="4.8271">
        <ele>350</ele>
        <time>2015-01-11T08:40:30Z</time>
      </trkpt>
      <trkpt lat="45.82458" lon="4.82707">
        <ele>350</ele>
        <time>2015-01-11T08:40:35Z</time>
      </trkpt>
      <trkpt lat="45.82456" lon="4.82707">
        <ele>350</ele>
        <time>2015-01-11T08:40:36Z</time>
      </trkpt>
      <trkpt lat="45.82443" lon="4.82707">
        <ele>350</ele>
        <time>2015-01-11T08:40:41Z</time>
      </trkpt>
      <trkpt lat="45.82439" lon="4.82706">
        <ele>350</ele>
        <time>2015-01-11T08:40:43Z</time>
      </trkpt>
      <trkpt lat="45.82433" lon="4.82704">
        <ele>350</ele>
        <time>2015-01-11T08:40:46Z</time>
      </trkpt>
      <trkpt lat="45.82422" lon="4.827">
        <ele>350</ele>
        <time>2015-01-11T08:40:51Z</time>
      </trkpt>
      <trkpt lat="45.82408" lon="4.82696">
        <ele>348</ele>
        <time>2015-01-11T08:40:57Z</time>
      </trkpt>
      <trkpt lat="45.82403" lon="4.82694">
        <ele>348</ele>
        <time>2015-01-11T08:40:59Z</time>
      </trkpt>
      <trkpt lat="45.82392" lon="4.82693">
        <ele>347</ele>
        <time>2015-01-11T08:41:03Z</time>
      </trkpt>
      <trkpt lat="45.82385" lon="4.82693">
        <ele>347</ele>
        <time>2015-01-11T08:41:06Z</time>
      </trkpt>
      <trkpt lat="45.82376" lon="4.82692">
        <ele>347</ele>
        <time>2015-01-11T08:41:09Z</time>
      </trkpt>
      <trkpt lat="45.82365" lon="4.82694">
        <ele>346</ele>
        <time>2015-01-11T08:41:13Z</time>
      </trkpt>
      <trkpt lat="45.82348" lon="4.82693">
        <ele>346</ele>
        <time>2015-01-11T08:41:19Z</time>
      </trkpt>
      <trkpt lat="45.82346" lon="4.82693">
        <ele>346</ele>
        <time>2015-01-11T08:41:20Z</time>
      </trkpt>
      <trkpt lat="45.82336" lon="4.82693">
        <ele>346</ele>
        <time>2015-01-11T08:41:24Z</time>
      </trkpt>
      <trkpt lat="45.82327" lon="4.827">
        <ele>344</ele>
        <time>2015-01-11T08:41:28Z</time>
      </trkpt>
      <trkpt lat="45.82322" lon="4.82703">
        <ele>343</ele>
        <time>2015-01-11T08:41:30Z</time>
      </trkpt>
      <trkpt lat="45.82312" lon="4.82712">
        <ele>342</ele>
        <time>2015-01-11T08:41:35Z</time>
      </trkpt>
      <trkpt lat="45.82311" lon="4.82714">
        <ele>342</ele>
        <time>2015-01-11T08:41:36Z</time>
      </trkpt>
      <trkpt lat="45.82307" lon="4.82725">
        <ele>341</ele>
        <time>2015-01-11T08:41:40Z</time>
      </trkpt>
      <trkpt lat="45.82303" lon="4.82737">
        <ele>341</ele>
        <time>2015-01-11T08:41:44Z</time>
      </trkpt>
      <trkpt lat="45.82302" lon="4.82741">
        <ele>340</ele>
        <time>2015-01-11T08:41:45Z</time>
      </trkpt>
      <trkpt lat="45.82295" lon="4.82747">
        <ele>340</ele>
        <time>2015-01-11T08:41:48Z</time>
      </trkpt>
      <trkpt lat="45.82287" lon="4.8275">
        <ele>340</ele>
        <time>2015-01-11T08:41:51Z</time>
      </trkpt>
      <trkpt lat="45.82281" lon="4.82755">
        <ele>332</ele>
        <time>2015-01-11T08:41:53Z</time>
      </trkpt>
      <trkpt lat="45.82273" lon="4.82758">
        <ele>332</ele>
        <time>2015-01-11T08:41:56Z</time>
      </trkpt>
      <trkpt lat="45.8227" lon="4.82758">
        <ele>332</ele>
        <time>2015-01-11T08:41:57Z</time>
      </trkpt>
      <trkpt lat="45.82267" lon="4.82759">
        <ele>332</ele>
        <time>2015-01-11T08:41:58Z</time>
      </trkpt>
      <trkpt lat="45.82252" lon="4.82762">
        <ele>333</ele>
        <time>2015-01-11T08:42:04Z</time>
      </trkpt>
      <trkpt lat="45.82238" lon="4.82769">
        <ele>331</ele>
        <time>2015-01-11T08:42:10Z</time>
      </trkpt>
      <trkpt lat="45.82234" lon="4.82772">
        <ele>330</ele>
        <time>2015-01-11T08:42:12Z</time>
      </trkpt>
      <trkpt lat="45.8223" lon="4.82779">
        <ele>330</ele>
        <time>2015-01-11T08:42:15Z</time>
      </trkpt>
      <trkpt lat="45.82222" lon="4.82785">
        <ele>329</ele>
        <time>2015-01-11T08:42:18Z</time>
      </trkpt>
      <trkpt lat="45.8222" lon="4.82787">
        <ele>329</ele>
        <time>2015-01-11T08:42:19Z</time>
      </trkpt>
      <trkpt lat="45.82216" lon="4.82787">
        <ele>328</ele>
        <time>2015-01-11T08:42:23Z</time>
      </trkpt>
      <trkpt lat="45.8221" lon="4.82783">
        <ele>329</ele>
        <time>2015-01-11T08:42:27Z</time>
      </trkpt>
      <trkpt lat="45.82204" lon="4.82776">
        <ele>329</ele>
        <time>2015-01-11T08:42:31Z</time>
      </trkpt>
      <trkpt lat="45.82202" lon="4.82774">
        <ele>329</ele>
        <time>2015-01-11T08:42:32Z</time>
      </trkpt>
      <trkpt lat="45.82193" lon="4.82761">
        <ele>330</ele>
        <time>2015-01-11T08:42:39Z</time>
      </trkpt>
      <trkpt lat="45.8219" lon="4.82758">
        <ele>331</ele>
        <time>2015-01-11T08:42:41Z</time>
      </trkpt>
      <trkpt lat="45.82182" lon="4.82748">
        <ele>338</ele>
        <time>2015-01-11T08:42:46Z</time>
      </trkpt>
      <trkpt lat="45.82176" lon="4.82742">
        <ele>337</ele>
        <time>2015-01-11T08:42:50Z</time>
      </trkpt>
      <trkpt lat="45.82172" lon="4.82739">
        <ele>337</ele>
        <time>2015-01-11T08:42:52Z</time>
      </trkpt>
      <trkpt lat="45.8216" lon="4.82736">
        <ele>336</ele>
        <time>2015-01-11T08:42:57Z</time>
      </trkpt>
      <trkpt lat="45.82158" lon="4.82735">
        <ele>336</ele>
        <time>2015-01-11T08:42:58Z</time>
      </trkpt>
      <trkpt lat="45.82148" lon="4.8273">
        <ele>337</ele>
        <time>2015-01-11T08:43:03Z</time>
      </trkpt>
      <trkpt lat="45.82141" lon="4.82726">
        <ele>337</ele>
        <time>2015-01-11T08:43:07Z</time>
      </trkpt>
      <trkpt lat="45.82139" lon="4.82725">
        <ele>337</ele>
        <time>2015-01-11T08:43:08Z</time>
      </trkpt>
      <trkpt lat="45.82127" lon="4.82713">
        <ele>338</ele>
        <time>2015-01-11T08:43:15Z</time>
      </trkpt>
      <trkpt lat="45.82125" lon="4.82712">
        <ele>338</ele>
        <time>2015-01-11T08:43:16Z</time>
      </trkpt>
      <trkpt lat="45.82113" lon="4.82705">
        <ele>338</ele>
        <time>2015-01-11T08:43:21Z</time>
      </trkpt>
      <trkpt lat="45.82107" lon="4.82702">
        <ele>338</ele>
        <time>2015-01-11T08:43:24Z</time>
      </trkpt>
      <trkpt lat="45.82103" lon="4.827">
        <ele>339</ele>
        <time>2015-01-11T08:43:26Z</time>
      </trkpt>
      <trkpt lat="45.82092" lon="4.82693">
        <ele>339</ele>
        <time>2015-01-11T08:43:31Z</time>
      </trkpt>
      <trkpt lat="45.8209" lon="4.82692">
        <ele>340</ele>
        <time>2015-01-11T08:43:32Z</time>
      </trkpt>
      <trkpt lat="45.82085" lon="4.82688">
        <ele>340</ele>
        <time>2015-01-11T08:43:35Z</time>
      </trkpt>
      <trkpt lat="45.82075" lon="4.82679">
        <ele>337</ele>
        <time>2015-01-11T08:43:41Z</time>
      </trkpt>
      <trkpt lat="45.82065" lon="4.82671">
        <ele>336</ele>
        <time>2015-01-11T08:43:46Z</time>
      </trkpt>
      <trkpt lat="45.82064" lon="4.82668">
        <ele>336</ele>
        <time>2015-01-11T08:43:47Z</time>
      </trkpt>
      <trkpt lat="45.82058" lon="4.82663">
        <ele>344</ele>
        <time>2015-01-11T08:43:50Z</time>
      </trkpt>
      <trkpt lat="45.82055" lon="4.82661">
        <ele>344</ele>
        <time>2015-01-11T08:43:51Z</time>
      </trkpt>
      <trkpt lat="45.82051" lon="4.82657">
        <ele>344</ele>
        <time>2015-01-11T08:43:53Z</time>
      </trkpt>
      <trkpt lat="45.82045" lon="4.82651">
        <ele>344</ele>
        <time>2015-01-11T08:43:56Z</time>
      </trkpt>
      <trkpt lat="45.82042" lon="4.82648">
        <ele>343</ele>
        <time>2015-01-11T08:43:58Z</time>
      </trkpt>
      <trkpt lat="45.82035" lon="4.8264">
        <ele>343</ele>
        <time>2015-01-11T08:44:02Z</time>
      </trkpt>
      <trkpt lat="45.82028" lon="4.8263">
        <ele>344</ele>
        <time>2015-01-11T08:44:07Z</time>
      </trkpt>
      <trkpt lat="45.82026" lon="4.82628">
        <ele>344</ele>
        <time>2015-01-11T08:44:08Z</time>
      </trkpt>
      <trkpt lat="45.82012" lon="4.82618">
        <ele>344</ele>
        <time>2015-01-11T08:44:14Z</time>
      </trkpt>
      <trkpt lat="45.82009" lon="4.82617">
        <ele>344</ele>
        <time>2015-01-11T08:44:15Z</time>
      </trkpt>
      <trkpt lat="45.82004" lon="4.82613">
        <ele>345</ele>
        <time>2015-01-11T08:44:20Z</time>
      </trkpt>
      <trkpt lat="45.81999" lon="4.82609">
        <ele>337</ele>
        <time>2015-01-11T08:44:25Z</time>
      </trkpt>
      <trkpt lat="45.81998" lon="4.82609">
        <ele>337</ele>
        <time>2015-01-11T08:44:26Z</time>
      </trkpt>
      <trkpt lat="45.81992" lon="4.82609">
        <ele>337</ele>
        <time>2015-01-11T08:44:29Z</time>
      </trkpt>
      <trkpt lat="45.8199" lon="4.82606">
        <ele>337</ele>
        <time>2015-01-11T08:44:32Z</time>
      </trkpt>
      <trkpt lat="45.81981" lon="4.82602">
        <ele>337</ele>
        <time>2015-01-11T08:44:40Z</time>
      </trkpt>
      <trkpt lat="45.81977" lon="4.82602">
        <ele>336</ele>
        <time>2015-01-11T08:45:18Z</time>
      </trkpt>
      <trkpt lat="45.81977" lon="4.82602">
        <ele>336</ele>
        <time>2015-01-11T08:45:19Z</time>
      </trkpt>
      <trkpt lat="45.81977" lon="4.826">
        <ele>336</ele>
        <time>2015-01-11T08:45:24Z</time>
      </trkpt>
      <trkpt lat="45.81976" lon="4.82595">
        <ele>337</ele>
        <time>2015-01-11T08:45:36Z</time>
      </trkpt>
      <trkpt lat="45.81976" lon="4.82596">
        <ele>337</ele>
        <time>2015-01-11T08:45:40Z</time>
      </trkpt>
      <trkpt lat="45.81976" lon="4.82598">
        <ele>337</ele>
        <time>2015-01-11T08:45:45Z</time>
      </trkpt>
      <trkpt lat="45.81971" lon="4.82594">
        <ele>336</ele>
        <time>2015-01-11T08:45:52Z</time>
      </trkpt>
      <trkpt lat="45.81969" lon="4.82592">
        <ele>336</ele>
        <time>2015-01-11T08:45:53Z</time>
      </trkpt>
      <trkpt lat="45.81959" lon="4.82584">
        <ele>335</ele>
        <time>2015-01-11T08:45:58Z</time>
      </trkpt>
      <trkpt lat="45.81955" lon="4.82577">
        <ele>343</ele>
        <time>2015-01-11T08:46:02Z</time>
      </trkpt>
      <trkpt lat="45.81952" lon="4.82569">
        <ele>343</ele>
        <time>2015-01-11T08:46:06Z</time>
      </trkpt>
      <trkpt lat="45.81957" lon="4.82563">
        <ele>344</ele>
        <time>2015-01-11T08:46:11Z</time>
      </trkpt>
      <trkpt lat="45.81961" lon="4.8256">
        <ele>345</ele>
        <time>2015-01-11T08:46:14Z</time>
      </trkpt>
      <trkpt lat="45.81962" lon="4.82557">
        <ele>345</ele>
        <time>2015-01-11T08:46:16Z</time>
      </trkpt>
      <trkpt lat="45.81965" lon="4.82549">
        <ele>346</ele>
        <time>2015-01-11T08:46:22Z</time>
      </trkpt>
      <trkpt lat="45.8197" lon="4.82539">
        <ele>347</ele>
        <time>2015-01-11T08:46:28Z</time>
      </trkpt>
      <trkpt lat="45.81971" lon="4.82538">
        <ele>347</ele>
        <time>2015-01-11T08:46:29Z</time>
      </trkpt>
      <trkpt lat="45.81976" lon="4.8253">
        <ele>348</ele>
        <time>2015-01-11T08:46:34Z</time>
      </trkpt>
      <trkpt lat="45.81984" lon="4.82522">
        <ele>349</ele>
        <time>2015-01-11T08:46:39Z</time>
      </trkpt>
      <trkpt lat="45.81985" lon="4.8252">
        <ele>349</ele>
        <time>2015-01-11T08:46:40Z</time>
      </trkpt>
      <trkpt lat="45.8199" lon="4.82508">
        <ele>352</ele>
        <time>2015-01-11T08:46:45Z</time>
      </trkpt>
      <trkpt lat="45.81996" lon="4.825">
        <ele>356</ele>
        <time>2015-01-11T08:46:49Z</time>
      </trkpt>
      <trkpt lat="45.81997" lon="4.82498">
        <ele>356</ele>
        <time>2015-01-11T08:46:50Z</time>
      </trkpt>
      <trkpt lat="45.81997" lon="4.82486">
        <ele>355</ele>
        <time>2015-01-11T08:46:55Z</time>
      </trkpt>
      <trkpt lat="45.81988" lon="4.82476">
        <ele>354</ele>
        <time>2015-01-11T08:46:59Z</time>
      </trkpt>
      <trkpt lat="45.81986" lon="4.82474">
        <ele>354</ele>
        <time>2015-01-11T08:47:00Z</time>
      </trkpt>
      <trkpt lat="45.81978" lon="4.82462">
        <ele>354</ele>
        <time>2015-01-11T08:47:06Z</time>
      </trkpt>
      <trkpt lat="45.81974" lon="4.82458">
        <ele>354</ele>
        <time>2015-01-11T08:47:08Z</time>
      </trkpt>
      <trkpt lat="45.81968" lon="4.82452">
        <ele>354</ele>
        <time>2015-01-11T08:47:11Z</time>
      </trkpt>
      <trkpt lat="45.81967" lon="4.8245">
        <ele>354</ele>
        <time>2015-01-11T08:47:12Z</time>
      </trkpt>
      <trkpt lat="45.81962" lon="4.82443">
        <ele>354</ele>
        <time>2015-01-11T08:47:15Z</time>
      </trkpt>
      <trkpt lat="45.81961" lon="4.8244">
        <ele>354</ele>
        <time>2015-01-11T08:47:16Z</time>
      </trkpt>
      <trkpt lat="45.81955" lon="4.82433">
        <ele>353</ele>
        <time>2015-01-11T08:47:19Z</time>
      </trkpt>
      <trkpt lat="45.81953" lon="4.82431">
        <ele>353</ele>
        <time>2015-01-11T08:47:20Z</time>
      </trkpt>
      <trkpt lat="45.81952" lon="4.82428">
        <ele>353</ele>
        <time>2015-01-11T08:47:21Z</time>
      </trkpt>
      <trkpt lat="45.81949" lon="4.82422">
        <ele>353</ele>
        <time>2015-01-11T08:47:23Z</time>
      </trkpt>
      <trkpt lat="45.81947" lon="4.82419">
        <ele>353</ele>
        <time>2015-01-11T08:47:24Z</time>
      </trkpt>
      <trkpt lat="45.81945" lon="4.82412">
        <ele>356</ele>
        <time>2015-01-11T08:47:26Z</time>
      </trkpt>
      <trkpt lat="45.81944" lon="4.82406">
        <ele>356</ele>
        <time>2015-01-11T08:47:28Z</time>
      </trkpt>
      <trkpt lat="45.81942" lon="4.82394">
        <ele>356</ele>
        <time>2015-01-11T08:47:31Z</time>
      </trkpt>
      <trkpt lat="45.81941" lon="4.82387">
        <ele>357</ele>
        <time>2015-01-11T08:47:33Z</time>
      </trkpt>
      <trkpt lat="45.81937" lon="4.82374">
        <ele>357</ele>
        <time>2015-01-11T08:47:37Z</time>
      </trkpt>
      <trkpt lat="45.81937" lon="4.82371">
        <ele>357</ele>
        <time>2015-01-11T08:47:38Z</time>
      </trkpt>
      <trkpt lat="45.81939" lon="4.8237">
        <ele>357</ele>
        <time>2015-01-11T08:47:39Z</time>
      </trkpt>
      <trkpt lat="45.81944" lon="4.82366">
        <ele>358</ele>
        <time>2015-01-11T08:47:42Z</time>
      </trkpt>
      <trkpt lat="45.81951" lon="4.82357">
        <ele>359</ele>
        <time>2015-01-11T08:47:47Z</time>
      </trkpt>
      <trkpt lat="45.81953" lon="4.82354">
        <ele>359</ele>
        <time>2015-01-11T08:47:49Z</time>
      </trkpt>
      <trkpt lat="45.81957" lon="4.82349">
        <ele>359</ele>
        <time>2015-01-11T08:47:52Z</time>
      </trkpt>
      <trkpt lat="45.81966" lon="4.82341">
        <ele>361</ele>
        <time>2015-01-11T08:47:58Z</time>
      </trkpt>
      <trkpt lat="45.8197" lon="4.82338">
        <ele>361</ele>
        <time>2015-01-11T08:48:00Z</time>
      </trkpt>
      <trkpt lat="45.81974" lon="4.82333">
        <ele>362</ele>
        <time>2015-01-11T08:48:03Z</time>
      </trkpt>
      <trkpt lat="45.81982" lon="4.82325">
        <ele>367</ele>
        <time>2015-01-11T08:48:10Z</time>
      </trkpt>
      <trkpt lat="45.81985" lon="4.82321">
        <ele>367</ele>
        <time>2015-01-11T08:48:13Z</time>
      </trkpt>
      <trkpt lat="45.81989" lon="4.82318">
        <ele>367</ele>
        <time>2015-01-11T08:48:16Z</time>
      </trkpt>
      <trkpt lat="45.81995" lon="4.82312">
        <ele>367</ele>
        <time>2015-01-11T08:48:23Z</time>
      </trkpt>
      <trkpt lat="45.82001" lon="4.82306">
        <ele>376</ele>
        <time>2015-01-11T08:48:28Z</time>
      </trkpt>
      <trkpt lat="45.82002" lon="4.82304">
        <ele>376</ele>
        <time>2015-01-11T08:48:30Z</time>
      </trkpt>
      <trkpt lat="45.82007" lon="4.82301">
        <ele>377</ele>
        <time>2015-01-11T08:48:36Z</time>
      </trkpt>
      <trkpt lat="45.8201" lon="4.82298">
        <ele>378</ele>
        <time>2015-01-11T08:48:39Z</time>
      </trkpt>
      <trkpt lat="45.82012" lon="4.82296">
        <ele>378</ele>
        <time>2015-01-11T08:48:41Z</time>
      </trkpt>
      <trkpt lat="45.82016" lon="4.82291">
        <ele>379</ele>
        <time>2015-01-11T08:48:45Z</time>
      </trkpt>
      <trkpt lat="45.82017" lon="4.8229">
        <ele>379</ele>
        <time>2015-01-11T08:48:46Z</time>
      </trkpt>
      <trkpt lat="45.82017" lon="4.82289">
        <ele>379</ele>
        <time>2015-01-11T08:48:47Z</time>
      </trkpt>
      <trkpt lat="45.82022" lon="4.82284">
        <ele>379</ele>
        <time>2015-01-11T08:48:52Z</time>
      </trkpt>
      <trkpt lat="45.82023" lon="4.8228">
        <ele>379</ele>
        <time>2015-01-11T08:48:58Z</time>
      </trkpt>
      <trkpt lat="45.8203" lon="4.82276">
        <ele>380</ele>
        <time>2015-01-11T08:49:04Z</time>
      </trkpt>
      <trkpt lat="45.82031" lon="4.82274">
        <ele>380</ele>
        <time>2015-01-11T08:49:06Z</time>
      </trkpt>
      <trkpt lat="45.82033" lon="4.82273">
        <ele>381</ele>
        <time>2015-01-11T08:49:08Z</time>
      </trkpt>
      <trkpt lat="45.82035" lon="4.82272">
        <ele>381</ele>
        <time>2015-01-11T08:49:10Z</time>
      </trkpt>
      <trkpt lat="45.82037" lon="4.82269">
        <ele>381</ele>
        <time>2015-01-11T08:49:12Z</time>
      </trkpt>
      <trkpt lat="45.82038" lon="4.82268">
        <ele>381</ele>
        <time>2015-01-11T08:49:14Z</time>
      </trkpt>
      <trkpt lat="45.82039" lon="4.82266">
        <ele>382</ele>
        <time>2015-01-11T08:49:17Z</time>
      </trkpt>
      <trkpt lat="45.8204" lon="4.82264">
        <ele>382</ele>
        <time>2015-01-11T08:49:30Z</time>
      </trkpt>
      <trkpt lat="45.82042" lon="4.82268">
        <ele>382</ele>
        <time>2015-01-11T08:49:54Z</time>
      </trkpt>
      <trkpt lat="45.82045" lon="4.82267">
        <ele>382</ele>
        <time>2015-01-11T08:50:00Z</time>
      </trkpt>
      <trkpt lat="45.82046" lon="4.82267">
        <ele>382</ele>
        <time>2015-01-11T08:50:06Z</time>
      </trkpt>
      <trkpt lat="45.82047" lon="4.82272">
        <ele>382</ele>
        <time>2015-01-11T08:50:12Z</time>
      </trkpt>
      <trkpt lat="45.82052" lon="4.82279">
        <ele>383</ele>
        <time>2015-01-11T08:50:24Z</time>
      </trkpt>
      <trkpt lat="45.82058" lon="4.82291">
        <ele>382</ele>
        <time>2015-01-11T08:50:29Z</time>
      </trkpt>
      <trkpt lat="45.82063" lon="4.82301">
        <ele>382</ele>
        <time>2015-01-11T08:50:33Z</time>
      </trkpt>
      <trkpt lat="45.82065" lon="4.82304">
        <ele>382</ele>
        <time>2015-01-11T08:50:34Z</time>
      </trkpt>
      <trkpt lat="45.8207" lon="4.8231">
        <ele>382</ele>
        <time>2015-01-11T08:50:39Z</time>
      </trkpt>
      <trkpt lat="45.82073" lon="4.8231">
        <ele>383</ele>
        <time>2015-01-11T08:50:41Z</time>
      </trkpt>
      <trkpt lat="45.82077" lon="4.8231">
        <ele>383</ele>
        <time>2015-01-11T08:50:44Z</time>
      </trkpt>
      <trkpt lat="45.82082" lon="4.8231">
        <ele>383</ele>
        <time>2015-01-11T08:50:45Z</time>
      </trkpt>
      <trkpt lat="45.82094" lon="4.82309">
        <ele>392</ele>
        <time>2015-01-11T08:50:49Z</time>
      </trkpt>
      <trkpt lat="45.82095" lon="4.82311">
        <ele>392</ele>
        <time>2015-01-11T08:50:50Z</time>
      </trkpt>
      <trkpt lat="45.82098" lon="4.82318">
        <ele>391</ele>
        <time>2015-01-11T08:50:53Z</time>
      </trkpt>
      <trkpt lat="45.821" lon="4.82321">
        <ele>391</ele>
        <time>2015-01-11T08:50:54Z</time>
      </trkpt>
      <trkpt lat="45.82108" lon="4.82332">
        <ele>392</ele>
        <time>2015-01-11T08:50:59Z</time>
      </trkpt>
      <trkpt lat="45.82112" lon="4.82336">
        <ele>386</ele>
        <time>2015-01-11T08:51:01Z</time>
      </trkpt>
      <trkpt lat="45.82115" lon="4.82338">
        <ele>386</ele>
        <time>2015-01-11T08:51:03Z</time>
      </trkpt>
      <trkpt lat="45.8212" lon="4.82339">
        <ele>387</ele>
        <time>2015-01-11T08:51:06Z</time>
      </trkpt>
      <trkpt lat="45.82125" lon="4.82338">
        <ele>387</ele>
        <time>2015-01-11T08:51:08Z</time>
      </trkpt>
      <trkpt lat="45.8213" lon="4.82338">
        <ele>388</ele>
        <time>2015-01-11T08:51:11Z</time>
      </trkpt>
      <trkpt lat="45.82134" lon="4.82336">
        <ele>388</ele>
        <time>2015-01-11T08:51:13Z</time>
      </trkpt>
      <trkpt lat="45.82147" lon="4.82331">
        <ele>396</ele>
        <time>2015-01-11T08:51:19Z</time>
      </trkpt>
      <trkpt lat="45.82149" lon="4.82331">
        <ele>396</ele>
        <time>2015-01-11T08:51:20Z</time>
      </trkpt>
      <trkpt lat="45.82156" lon="4.82328">
        <ele>396</ele>
        <time>2015-01-11T08:51:25Z</time>
      </trkpt>
      <trkpt lat="45.82162" lon="4.82326">
        <ele>396</ele>
        <time>2015-01-11T08:51:30Z</time>
      </trkpt>
      <trkpt lat="45.82168" lon="4.82324">
        <ele>401</ele>
        <time>2015-01-11T08:51:35Z</time>
      </trkpt>
      <trkpt lat="45.82169" lon="4.82323">
        <ele>402</ele>
        <time>2015-01-11T08:51:36Z</time>
      </trkpt>
      <trkpt lat="45.82176" lon="4.82322">
        <ele>404</ele>
        <time>2015-01-11T08:51:41Z</time>
      </trkpt>
      <trkpt lat="45.82177" lon="4.82322">
        <ele>404</ele>
        <time>2015-01-11T08:51:42Z</time>
      </trkpt>
      <trkpt lat="45.82185" lon="4.82317">
        <ele>407</ele>
        <time>2015-01-11T08:51:46Z</time>
      </trkpt>
      <trkpt lat="45.82187" lon="4.82317">
        <ele>407</ele>
        <time>2015-01-11T08:51:47Z</time>
      </trkpt>
      <trkpt lat="45.82191" lon="4.82315">
        <ele>408</ele>
        <time>2015-01-11T08:51:52Z</time>
      </trkpt>
      <trkpt lat="45.82192" lon="4.82315">
        <ele>409</ele>
        <time>2015-01-11T08:51:53Z</time>
      </trkpt>
      <trkpt lat="45.82203" lon="4.8231">
        <ele>411</ele>
        <time>2015-01-11T08:51:59Z</time>
      </trkpt>
      <trkpt lat="45.82213" lon="4.82306">
        <ele>413</ele>
        <time>2015-01-11T08:52:05Z</time>
      </trkpt>
      <trkpt lat="45.8222" lon="4.82306">
        <ele>413</ele>
        <time>2015-01-11T08:52:11Z</time>
      </trkpt>
      <trkpt lat="45.82222" lon="4.82306">
        <ele>413</ele>
        <time>2015-01-11T08:52:12Z</time>
      </trkpt>
      <trkpt lat="45.82226" lon="4.8231">
        <ele>413</ele>
        <time>2015-01-11T08:52:16Z</time>
      </trkpt>
      <trkpt lat="45.82229" lon="4.82314">
        <ele>413</ele>
        <time>2015-01-11T08:52:19Z</time>
      </trkpt>
      <trkpt lat="45.82231" lon="4.82315">
        <ele>413</ele>
        <time>2015-01-11T08:52:21Z</time>
      </trkpt>
      <trkpt lat="45.82236" lon="4.82316">
        <ele>413</ele>
        <time>2015-01-11T08:52:25Z</time>
      </trkpt>
      <trkpt lat="45.82238" lon="4.82317">
        <ele>413</ele>
        <time>2015-01-11T08:52:26Z</time>
      </trkpt>
      <trkpt lat="45.8224" lon="4.82318">
        <ele>413</ele>
        <time>2015-01-11T08:52:27Z</time>
      </trkpt>
      <trkpt lat="45.82243" lon="4.8232">
        <ele>413</ele>
        <time>2015-01-11T08:52:30Z</time>
      </trkpt>
      <trkpt lat="45.82247" lon="4.82322">
        <ele>412</ele>
        <time>2015-01-11T08:52:33Z</time>
      </trkpt>
      <trkpt lat="45.82256" lon="4.82318">
        <ele>420</ele>
        <time>2015-01-11T08:52:39Z</time>
      </trkpt>
      <trkpt lat="45.82256" lon="4.82318">
        <ele>421</ele>
        <time>2015-01-11T08:52:40Z</time>
      </trkpt>
      <trkpt lat="45.82262" lon="4.82312">
        <ele>423</ele>
        <time>2015-01-11T08:52:45Z</time>
      </trkpt>
      <trkpt lat="45.8227" lon="4.82308">
        <ele>426</ele>
        <time>2015-01-11T08:52:50Z</time>
      </trkpt>
      <trkpt lat="45.82272" lon="4.82311">
        <ele>425</ele>
        <time>2015-01-11T08:52:53Z</time>
      </trkpt>
      <trkpt lat="45.82275" lon="4.82311">
        <ele>426</ele>
        <time>2015-01-11T08:52:55Z</time>
      </trkpt>
      <trkpt lat="45.8228" lon="4.82309">
        <ele>427</ele>
        <time>2015-01-11T08:52:57Z</time>
      </trkpt>
      <trkpt lat="45.82283" lon="4.82311">
        <ele>427</ele>
        <time>2015-01-11T08:53:02Z</time>
      </trkpt>
      <trkpt lat="45.82284" lon="4.82312">
        <ele>427</ele>
        <time>2015-01-11T08:53:03Z</time>
      </trkpt>
      <trkpt lat="45.82295" lon="4.82314">
        <ele>428</ele>
        <time>2015-01-11T08:53:13Z</time>
      </trkpt>
      <trkpt lat="45.82298" lon="4.82317">
        <ele>429</ele>
        <time>2015-01-11T08:53:17Z</time>
      </trkpt>
      <trkpt lat="45.82309" lon="4.82323">
        <ele>429</ele>
        <time>2015-01-11T08:53:31Z</time>
      </trkpt>
      <trkpt lat="45.82312" lon="4.82325">
        <ele>429</ele>
        <time>2015-01-11T08:53:34Z</time>
      </trkpt>
      <trkpt lat="45.82313" lon="4.82325">
        <ele>429</ele>
        <time>2015-01-11T08:53:35Z</time>
      </trkpt>
      <trkpt lat="45.8232" lon="4.82328">
        <ele>430</ele>
        <time>2015-01-11T08:53:43Z</time>
      </trkpt>
      <trkpt lat="45.82323" lon="4.82328">
        <ele>430</ele>
        <time>2015-01-11T08:53:45Z</time>
      </trkpt>
      <trkpt lat="45.82325" lon="4.82328">
        <ele>430</ele>
        <time>2015-01-11T08:53:46Z</time>
      </trkpt>
      <trkpt lat="45.82329" lon="4.8233">
        <ele>430</ele>
        <time>2015-01-11T08:53:50Z</time>
      </trkpt>
      <trkpt lat="45.8233" lon="4.8233">
        <ele>430</ele>
        <time>2015-01-11T08:53:51Z</time>
      </trkpt>
      <trkpt lat="45.82333" lon="4.8233">
        <ele>430</ele>
        <time>2015-01-11T08:53:53Z</time>
      </trkpt>
      <trkpt lat="45.82336" lon="4.8233">
        <ele>432</ele>
        <time>2015-01-11T08:53:57Z</time>
      </trkpt>
      <trkpt lat="45.82343" lon="4.8233">
        <ele>435</ele>
        <time>2015-01-11T08:54:03Z</time>
      </trkpt>
      <trkpt lat="45.82344" lon="4.82331">
        <ele>435</ele>
        <time>2015-01-11T08:54:04Z</time>
      </trkpt>
      <trkpt lat="45.82348" lon="4.82332">
        <ele>436</ele>
        <time>2015-01-11T08:54:08Z</time>
      </trkpt>
      <trkpt lat="45.82349" lon="4.8233">
        <ele>437</ele>
        <time>2015-01-11T08:54:09Z</time>
      </trkpt>
      <trkpt lat="45.82351" lon="4.82329">
        <ele>437</ele>
        <time>2015-01-11T08:54:10Z</time>
      </trkpt>
      <trkpt lat="45.82356" lon="4.8233">
        <ele>438</ele>
        <time>2015-01-11T08:54:14Z</time>
      </trkpt>
      <trkpt lat="45.82363" lon="4.82328">
        <ele>440</ele>
        <time>2015-01-11T08:54:20Z</time>
      </trkpt>
      <trkpt lat="45.8237" lon="4.82325">
        <ele>441</ele>
        <time>2015-01-11T08:54:25Z</time>
      </trkpt>
      <trkpt lat="45.82372" lon="4.82324">
        <ele>441</ele>
        <time>2015-01-11T08:54:27Z</time>
      </trkpt>
      <trkpt lat="45.82372" lon="4.82323">
        <ele>441</ele>
        <time>2015-01-11T08:54:28Z</time>
      </trkpt>
      <trkpt lat="45.82372" lon="4.82323">
        <ele>441</ele>
        <time>2015-01-11T08:54:33Z</time>
      </trkpt>
      <trkpt lat="45.82373" lon="4.82323">
        <ele>441</ele>
        <time>2015-01-11T08:54:42Z</time>
      </trkpt>
      <trkpt lat="45.82372" lon="4.82322">
        <ele>441</ele>
        <time>2015-01-11T08:54:51Z</time>
      </trkpt>
      <trkpt lat="45.82374" lon="4.82323">
        <ele>441</ele>
        <time>2015-01-11T08:55:43Z</time>
      </trkpt>
      <trkpt lat="45.82374" lon="4.82325">
        <ele>441</ele>
        <time>2015-01-11T08:55:53Z</time>
      </trkpt>
      <trkpt lat="45.82371" lon="4.82325">
        <ele>441</ele>
        <time>2015-01-11T08:56:08Z</time>
      </trkpt>
      <trkpt lat="45.8237" lon="4.82326">
        <ele>441</ele>
        <time>2015-01-11T08:56:14Z</time>
      </trkpt>
      <trkpt lat="45.82366" lon="4.82325">
        <ele>440</ele>
        <time>2015-01-11T08:56:17Z</time>
      </trkpt>
      <trkpt lat="45.82361" lon="4.82325">
        <ele>439</ele>
        <time>2015-01-11T08:56:19Z</time>
      </trkpt>
      <trkpt lat="45.82351" lon="4.82316">
        <ele>439</ele>
        <time>2015-01-11T08:56:24Z</time>
      </trkpt>
      <trkpt lat="45.8235" lon="4.82313">
        <ele>439</ele>
        <time>2015-01-11T08:56:25Z</time>
      </trkpt>
      <trkpt lat="45.82343" lon="4.82303">
        <ele>440</ele>
        <time>2015-01-11T08:56:29Z</time>
      </trkpt>
      <trkpt lat="45.82336" lon="4.82293">
        <ele>442</ele>
        <time>2015-01-11T08:56:33Z</time>
      </trkpt>
      <trkpt lat="45.82332" lon="4.82289">
        <ele>434</ele>
        <time>2015-01-11T08:56:35Z</time>
      </trkpt>
      <trkpt lat="45.82326" lon="4.82281">
        <ele>435</ele>
        <time>2015-01-11T08:56:39Z</time>
      </trkpt>
      <trkpt lat="45.82323" lon="4.82273">
        <ele>436</ele>
        <time>2015-01-11T08:56:42Z</time>
      </trkpt>
      <trkpt lat="45.82322" lon="4.82272">
        <ele>437</ele>
        <time>2015-01-11T08:56:43Z</time>
      </trkpt>
      <trkpt lat="45.8232" lon="4.82261">
        <ele>439</ele>
        <time>2015-01-11T08:56:48Z</time>
      </trkpt>
      <trkpt lat="45.82318" lon="4.82252">
        <ele>440</ele>
        <time>2015-01-11T08:56:52Z</time>
      </trkpt>
      <trkpt lat="45.82318" lon="4.82249">
        <ele>448</ele>
        <time>2015-01-11T08:56:53Z</time>
      </trkpt>
      <trkpt lat="45.82316" lon="4.82239">
        <ele>448</ele>
        <time>2015-01-11T08:56:58Z</time>
      </trkpt>
      <trkpt lat="45.82315" lon="4.82238">
        <ele>448</ele>
        <time>2015-01-11T08:56:59Z</time>
      </trkpt>
      <trkpt lat="45.82313" lon="4.82232">
        <ele>448</ele>
        <time>2015-01-11T08:57:02Z</time>
      </trkpt>
      <trkpt lat="45.82311" lon="4.82228">
        <ele>449</ele>
        <time>2015-01-11T08:57:04Z</time>
      </trkpt>
      <trkpt lat="45.8231" lon="4.82226">
        <ele>449</ele>
        <time>2015-01-11T08:57:05Z</time>
      </trkpt>
      <trkpt lat="45.82304" lon="4.8222">
        <ele>449</ele>
        <time>2015-01-11T08:57:08Z</time>
      </trkpt>
      <trkpt lat="45.82295" lon="4.82214">
        <ele>449</ele>
        <time>2015-01-11T08:57:11Z</time>
      </trkpt>
      <trkpt lat="45.82293" lon="4.82212">
        <ele>449</ele>
        <time>2015-01-11T08:57:12Z</time>
      </trkpt>
      <trkpt lat="45.8229" lon="4.82197">
        <ele>451</ele>
        <time>2015-01-11T08:57:18Z</time>
      </trkpt>
      <trkpt lat="45.82284" lon="4.8219">
        <ele>451</ele>
        <time>2015-01-11T08:57:22Z</time>
      </trkpt>
      <trkpt lat="45.82282" lon="4.82188">
        <ele>451</ele>
        <time>2015-01-11T08:57:23Z</time>
      </trkpt>
      <trkpt lat="45.82275" lon="4.82175">
        <ele>452</ele>
        <time>2015-01-11T08:57:29Z</time>
      </trkpt>
      <trkpt lat="45.8227" lon="4.82171">
        <ele>453</ele>
        <time>2015-01-11T08:57:32Z</time>
      </trkpt>
      <trkpt lat="45.82267" lon="4.82167">
        <ele>453</ele>
        <time>2015-01-11T08:57:34Z</time>
      </trkpt>
      <trkpt lat="45.82261" lon="4.82157">
        <ele>459</ele>
        <time>2015-01-11T08:57:39Z</time>
      </trkpt>
      <trkpt lat="45.82257" lon="4.82151">
        <ele>460</ele>
        <time>2015-01-11T08:57:42Z</time>
      </trkpt>
      <trkpt lat="45.82255" lon="4.82147">
        <ele>460</ele>
        <time>2015-01-11T08:57:44Z</time>
      </trkpt>
      <trkpt lat="45.82254" lon="4.82144">
        <ele>461</ele>
        <time>2015-01-11T08:57:45Z</time>
      </trkpt>
      <trkpt lat="45.82248" lon="4.82136">
        <ele>455</ele>
        <time>2015-01-11T08:57:50Z</time>
      </trkpt>
      <trkpt lat="45.82245" lon="4.82133">
        <ele>455</ele>
        <time>2015-01-11T08:57:52Z</time>
      </trkpt>
      <trkpt lat="45.82244" lon="4.82131">
        <ele>455</ele>
        <time>2015-01-11T08:57:53Z</time>
      </trkpt>
      <trkpt lat="45.82236" lon="4.82118">
        <ele>456</ele>
        <time>2015-01-11T08:57:59Z</time>
      </trkpt>
      <trkpt lat="45.82232" lon="4.8211">
        <ele>457</ele>
        <time>2015-01-11T08:58:02Z</time>
      </trkpt>
      <trkpt lat="45.82228" lon="4.82105">
        <ele>457</ele>
        <time>2015-01-11T08:58:04Z</time>
      </trkpt>
      <trkpt lat="45.82222" lon="4.82092">
        <ele>457</ele>
        <time>2015-01-11T08:58:09Z</time>
      </trkpt>
      <trkpt lat="45.82219" lon="4.82087">
        <ele>457</ele>
        <time>2015-01-11T08:58:11Z</time>
      </trkpt>
      <trkpt lat="45.82212" lon="4.82077">
        <ele>460</ele>
        <time>2015-01-11T08:58:15Z</time>
      </trkpt>
      <trkpt lat="45.82206" lon="4.82069">
        <ele>460</ele>
        <time>2015-01-11T08:58:19Z</time>
      </trkpt>
      <trkpt lat="45.82205" lon="4.82066">
        <ele>459</ele>
        <time>2015-01-11T08:58:20Z</time>
      </trkpt>
      <trkpt lat="45.82198" lon="4.8205">
        <ele>459</ele>
        <time>2015-01-11T08:58:26Z</time>
      </trkpt>
      <trkpt lat="45.82196" lon="4.82044">
        <ele>459</ele>
        <time>2015-01-11T08:58:28Z</time>
      </trkpt>
      <trkpt lat="45.82192" lon="4.82036">
        <ele>459</ele>
        <time>2015-01-11T08:58:31Z</time>
      </trkpt>
      <trkpt lat="45.82183" lon="4.82021">
        <ele>457</ele>
        <time>2015-01-11T08:58:37Z</time>
      </trkpt>
      <trkpt lat="45.82177" lon="4.82008">
        <ele>456</ele>
        <time>2015-01-11T08:58:42Z</time>
      </trkpt>
      <trkpt lat="45.82172" lon="4.81998">
        <ele>453</ele>
        <time>2015-01-11T08:58:46Z</time>
      </trkpt>
      <trkpt lat="45.82172" lon="4.81996">
        <ele>453</ele>
        <time>2015-01-11T08:58:47Z</time>
      </trkpt>
      <trkpt lat="45.82168" lon="4.81977">
        <ele>453</ele>
        <time>2015-01-11T08:58:53Z</time>
      </trkpt>
      <trkpt lat="45.82168" lon="4.81971">
        <ele>453</ele>
        <time>2015-01-11T08:58:56Z</time>
      </trkpt>
      <trkpt lat="45.82168" lon="4.81968">
        <ele>453</ele>
        <time>2015-01-11T08:58:58Z</time>
      </trkpt>
      <trkpt lat="45.82167" lon="4.81966">
        <ele>452</ele>
        <time>2015-01-11T08:59:00Z</time>
      </trkpt>
      <trkpt lat="45.82165" lon="4.81965">
        <ele>439</ele>
        <time>2015-01-11T08:59:03Z</time>
      </trkpt>
      <trkpt lat="45.82164" lon="4.81965">
        <ele>439</ele>
        <time>2015-01-11T08:59:04Z</time>
      </trkpt>
      <trkpt lat="45.82164" lon="4.81966">
        <ele>439</ele>
        <time>2015-01-11T08:59:11Z</time>
      </trkpt>
      <trkpt lat="45.82164" lon="4.81966">
        <ele>439</ele>
        <time>2015-01-11T08:59:23Z</time>
      </trkpt>
      <trkpt lat="45.82164" lon="4.81966">
        <ele>439</ele>
        <time>2015-01-11T08:59:30Z</time>
      </trkpt>
      <trkpt lat="45.82163" lon="4.81965">
        <ele>439</ele>
        <time>2015-01-11T08:59:49Z</time>
      </trkpt>
      <trkpt lat="45.82164" lon="4.81967">
        <ele>439</ele>
        <time>2015-01-11T08:59:55Z</time>
      </trkpt>
      <trkpt lat="45.82163" lon="4.81966">
        <ele>439</ele>
        <time>2015-01-11T09:00:15Z</time>
      </trkpt>
      <trkpt lat="45.82165" lon="4.81966">
        <ele>439</ele>
        <time>2015-01-11T09:00:23Z</time>
      </trkpt>
      <trkpt lat="45.82165" lon="4.81966">
        <ele>439</ele>
        <time>2015-01-11T09:00:33Z</time>
      </trkpt>
      <trkpt lat="45.82166" lon="4.81966">
        <ele>439</ele>
        <time>2015-01-11T09:00:41Z</time>
      </trkpt>
      <trkpt lat="45.82166" lon="4.81967">
        <ele>440</ele>
        <time>2015-01-11T09:00:58Z</time>
      </trkpt>
      <trkpt lat="45.82166" lon="4.81968">
        <ele>440</ele>
        <time>2015-01-11T09:01:31Z</time>
      </trkpt>
      <trkpt lat="45.82168" lon="4.81976">
        <ele>453</ele>
        <time>2015-01-11T09:01:38Z</time>
      </trkpt>
      <trkpt lat="45.82172" lon="4.81979">
        <ele>453</ele>
        <time>2015-01-11T09:01:43Z</time>
      </trkpt>
      <trkpt lat="45.82173" lon="4.81979">
        <ele>453</ele>
        <time>2015-01-11T09:01:44Z</time>
      </trkpt>
      <trkpt lat="45.82177" lon="4.81976">
        <ele>453</ele>
        <time>2015-01-11T09:01:48Z</time>
      </trkpt>
      <trkpt lat="45.82187" lon="4.8197">
        <ele>454</ele>
        <time>2015-01-11T09:01:53Z</time>
      </trkpt>
      <trkpt lat="45.82189" lon="4.81969">
        <ele>454</ele>
        <time>2015-01-11T09:01:54Z</time>
      </trkpt>
      <trkpt lat="45.822" lon="4.81963">
        <ele>454</ele>
        <time>2015-01-11T09:01:59Z</time>
      </trkpt>
      <trkpt lat="45.82206" lon="4.81959">
        <ele>454</ele>
        <time>2015-01-11T09:02:02Z</time>
      </trkpt>
      <trkpt lat="45.8221" lon="4.81956">
        <ele>454</ele>
        <time>2015-01-11T09:02:04Z</time>
      </trkpt>
      <trkpt lat="45.82211" lon="4.81956">
        <ele>455</ele>
        <time>2015-01-11T09:02:05Z</time>
      </trkpt>
      <trkpt lat="45.82224" lon="4.81957">
        <ele>456</ele>
        <time>2015-01-11T09:02:11Z</time>
      </trkpt>
      <trkpt lat="45.82236" lon="4.81959">
        <ele>457</ele>
        <time>2015-01-11T09:02:16Z</time>
      </trkpt>
      <trkpt lat="45.82242" lon="4.81955">
        <ele>457</ele>
        <time>2015-01-11T09:02:19Z</time>
      </trkpt>
      <trkpt lat="45.82246" lon="4.8195">
        <ele>456</ele>
        <time>2015-01-11T09:02:21Z</time>
      </trkpt>
      <trkpt lat="45.82257" lon="4.8194">
        <ele>461</ele>
        <time>2015-01-11T09:02:27Z</time>
      </trkpt>
      <trkpt lat="45.82266" lon="4.81933">
        <ele>460</ele>
        <time>2015-01-11T09:02:32Z</time>
      </trkpt>
      <trkpt lat="45.82272" lon="4.81929">
        <ele>460</ele>
        <time>2015-01-11T09:02:35Z</time>
      </trkpt>
      <trkpt lat="45.82275" lon="4.81926">
        <ele>461</ele>
        <time>2015-01-11T09:02:37Z</time>
      </trkpt>
      <trkpt lat="45.82282" lon="4.81922">
        <ele>461</ele>
        <time>2015-01-11T09:02:40Z</time>
      </trkpt>
      <trkpt lat="45.82286" lon="4.8192">
        <ele>461</ele>
        <time>2015-01-11T09:02:42Z</time>
      </trkpt>
      <trkpt lat="45.82293" lon="4.81918">
        <ele>461</ele>
        <time>2015-01-11T09:02:45Z</time>
      </trkpt>
      <trkpt lat="45.82297" lon="4.81917">
        <ele>451</ele>
        <time>2015-01-11T09:02:47Z</time>
      </trkpt>
      <trkpt lat="45.82311" lon="4.81912">
        <ele>452</ele>
        <time>2015-01-11T09:02:53Z</time>
      </trkpt>
      <trkpt lat="45.82325" lon="4.81907">
        <ele>454</ele>
        <time>2015-01-11T09:02:59Z</time>
      </trkpt>
      <trkpt lat="45.82329" lon="4.81906">
        <ele>455</ele>
        <time>2015-01-11T09:03:01Z</time>
      </trkpt>
      <trkpt lat="45.82341" lon="4.81902">
        <ele>456</ele>
        <time>2015-01-11T09:03:06Z</time>
      </trkpt>
      <trkpt lat="45.82348" lon="4.81898">
        <ele>455</ele>
        <time>2015-01-11T09:03:09Z</time>
      </trkpt>
      <trkpt lat="45.82353" lon="4.81896">
        <ele>454</ele>
        <time>2015-01-11T09:03:11Z</time>
      </trkpt>
      <trkpt lat="45.82365" lon="4.81889">
        <ele>454</ele>
        <time>2015-01-11T09:03:16Z</time>
      </trkpt>
      <trkpt lat="45.8237" lon="4.81886">
        <ele>453</ele>
        <time>2015-01-11T09:03:18Z</time>
      </trkpt>
      <trkpt lat="45.82383" lon="4.81877">
        <ele>453</ele>
        <time>2015-01-11T09:03:23Z</time>
      </trkpt>
      <trkpt lat="45.82386" lon="4.81875">
        <ele>453</ele>
        <time>2015-01-11T09:03:24Z</time>
      </trkpt>
      <trkpt lat="45.82401" lon="4.81863">
        <ele>452</ele>
        <time>2015-01-11T09:03:30Z</time>
      </trkpt>
      <trkpt lat="45.82415" lon="4.81856">
        <ele>451</ele>
        <time>2015-01-11T09:03:35Z</time>
      </trkpt>
      <trkpt lat="45.82418" lon="4.81854">
        <ele>453</ele>
        <time>2015-01-11T09:03:36Z</time>
      </trkpt>
      <trkpt lat="45.82429" lon="4.81847">
        <ele>453</ele>
        <time>2015-01-11T09:03:40Z</time>
      </trkpt>
      <trkpt lat="45.82436" lon="4.81843">
        <ele>453</ele>
        <time>2015-01-11T09:03:43Z</time>
      </trkpt>
      <trkpt lat="45.82443" lon="4.81839">
        <ele>454</ele>
        <time>2015-01-11T09:03:45Z</time>
      </trkpt>
      <trkpt lat="45.82455" lon="4.81832">
        <ele>448</ele>
        <time>2015-01-11T09:03:49Z</time>
      </trkpt>
      <trkpt lat="45.82458" lon="4.8183">
        <ele>448</ele>
        <time>2015-01-11T09:03:50Z</time>
      </trkpt>
      <trkpt lat="45.82472" lon="4.81815">
        <ele>448</ele>
        <time>2015-01-11T09:03:56Z</time>
      </trkpt>
      <trkpt lat="45.82488" lon="4.81804">
        <ele>449</ele>
        <time>2015-01-11T09:04:02Z</time>
      </trkpt>
      <trkpt lat="45.8249" lon="4.81802">
        <ele>448</ele>
        <time>2015-01-11T09:04:03Z</time>
      </trkpt>
      <trkpt lat="45.825" lon="4.81795">
        <ele>448</ele>
        <time>2015-01-11T09:04:07Z</time>
      </trkpt>
      <trkpt lat="45.82507" lon="4.81785">
        <ele>451</ele>
        <time>2015-01-11T09:04:10Z</time>
      </trkpt>
      <trkpt lat="45.82513" lon="4.81772">
        <ele>450</ele>
        <time>2015-01-11T09:04:14Z</time>
      </trkpt>
      <trkpt lat="45.82516" lon="4.81761">
        <ele>449</ele>
        <time>2015-01-11T09:04:17Z</time>
      </trkpt>
      <trkpt lat="45.82519" lon="4.81751">
        <ele>449</ele>
        <time>2015-01-11T09:04:20Z</time>
      </trkpt>
      <trkpt lat="45.82521" lon="4.81736">
        <ele>447</ele>
        <time>2015-01-11T09:04:24Z</time>
      </trkpt>
      <trkpt lat="45.82522" lon="4.81729">
        <ele>447</ele>
        <time>2015-01-11T09:04:26Z</time>
      </trkpt>
      <trkpt lat="45.82526" lon="4.81711">
        <ele>447</ele>
        <time>2015-01-11T09:04:31Z</time>
      </trkpt>
      <trkpt lat="45.82528" lon="4.81708">
        <ele>447</ele>
        <time>2015-01-11T09:04:32Z</time>
      </trkpt>
      <trkpt lat="45.82531" lon="4.81687">
        <ele>447</ele>
        <time>2015-01-11T09:04:38Z</time>
      </trkpt>
      <trkpt lat="45.82531" lon="4.81684">
        <ele>447</ele>
        <time>2015-01-11T09:04:39Z</time>
      </trkpt>
      <trkpt lat="45.82535" lon="4.81658">
        <ele>445</ele>
        <time>2015-01-11T09:04:46Z</time>
      </trkpt>
      <trkpt lat="45.82539" lon="4.81632">
        <ele>444</ele>
        <time>2015-01-11T09:04:53Z</time>
      </trkpt>
      <trkpt lat="45.82542" lon="4.81627">
        <ele>444</ele>
        <time>2015-01-11T09:04:55Z</time>
      </trkpt>
      <trkpt lat="45.82547" lon="4.81626">
        <ele>444</ele>
        <time>2015-01-11T09:04:57Z</time>
      </trkpt>
      <trkpt lat="45.82554" lon="4.81619">
        <ele>444</ele>
        <time>2015-01-11T09:05:01Z</time>
      </trkpt>
      <trkpt lat="45.82557" lon="4.81618">
        <ele>444</ele>
        <time>2015-01-11T09:05:02Z</time>
      </trkpt>
      <trkpt lat="45.8257" lon="4.81612">
        <ele>444</ele>
        <time>2015-01-11T09:05:07Z</time>
      </trkpt>
      <trkpt lat="45.82572" lon="4.81611">
        <ele>444</ele>
        <time>2015-01-11T09:05:08Z</time>
      </trkpt>
      <trkpt lat="45.82582" lon="4.81606">
        <ele>443</ele>
        <time>2015-01-11T09:05:12Z</time>
      </trkpt>
      <trkpt lat="45.82589" lon="4.81602">
        <ele>443</ele>
        <time>2015-01-11T09:05:15Z</time>
      </trkpt>
      <trkpt lat="45.82597" lon="4.81598">
        <ele>442</ele>
        <time>2015-01-11T09:05:18Z</time>
      </trkpt>
      <trkpt lat="45.82606" lon="4.81592">
        <ele>442</ele>
        <time>2015-01-11T09:05:22Z</time>
      </trkpt>
      <trkpt lat="45.82611" lon="4.8159">
        <ele>442</ele>
        <time>2015-01-11T09:05:24Z</time>
      </trkpt>
      <trkpt lat="45.82613" lon="4.81589">
        <ele>442</ele>
        <time>2015-01-11T09:05:25Z</time>
      </trkpt>
      <trkpt lat="45.82614" lon="4.81589">
        <ele>442</ele>
        <time>2015-01-11T09:05:27Z</time>
      </trkpt>
      <trkpt lat="45.8262" lon="4.81586">
        <ele>442</ele>
        <time>2015-01-11T09:05:31Z</time>
      </trkpt>
      <trkpt lat="45.82622" lon="4.81585">
        <ele>442</ele>
        <time>2015-01-11T09:05:32Z</time>
      </trkpt>
      <trkpt lat="45.82624" lon="4.81584">
        <ele>442</ele>
        <time>2015-01-11T09:05:33Z</time>
      </trkpt>
      <trkpt lat="45.8263" lon="4.8158">
        <ele>440</ele>
        <time>2015-01-11T09:05:36Z</time>
      </trkpt>
      <trkpt lat="45.82642" lon="4.81575">
        <ele>440</ele>
        <time>2015-01-11T09:05:42Z</time>
      </trkpt>
      <trkpt lat="45.82659" lon="4.81568">
        <ele>440</ele>
        <time>2015-01-11T09:05:49Z</time>
      </trkpt>
      <trkpt lat="45.82661" lon="4.81567">
        <ele>440</ele>
        <time>2015-01-11T09:05:50Z</time>
      </trkpt>
      <trkpt lat="45.8267" lon="4.81563">
        <ele>438</ele>
        <time>2015-01-11T09:05:54Z</time>
      </trkpt>
      <trkpt lat="45.8268" lon="4.81559">
        <ele>438</ele>
        <time>2015-01-11T09:05:59Z</time>
      </trkpt>
      <trkpt lat="45.82682" lon="4.81558">
        <ele>438</ele>
        <time>2015-01-11T09:06:00Z</time>
      </trkpt>
      <trkpt lat="45.82693" lon="4.81555">
        <ele>437</ele>
        <time>2015-01-11T09:06:05Z</time>
      </trkpt>
      <trkpt lat="45.82697" lon="4.81553">
        <ele>437</ele>
        <time>2015-01-11T09:06:07Z</time>
      </trkpt>
      <trkpt lat="45.82704" lon="4.81548">
        <ele>437</ele>
        <time>2015-01-11T09:06:10Z</time>
      </trkpt>
      <trkpt lat="45.82715" lon="4.81541">
        <ele>436</ele>
        <time>2015-01-11T09:06:15Z</time>
      </trkpt>
      <trkpt lat="45.82717" lon="4.8154">
        <ele>436</ele>
        <time>2015-01-11T09:06:16Z</time>
      </trkpt>
      <trkpt lat="45.82725" lon="4.81536">
        <ele>436</ele>
        <time>2015-01-11T09:06:20Z</time>
      </trkpt>
      <trkpt lat="45.82732" lon="4.81534">
        <ele>435</ele>
        <time>2015-01-11T09:06:24Z</time>
      </trkpt>
      <trkpt lat="45.82734" lon="4.81533">
        <ele>435</ele>
        <time>2015-01-11T09:06:25Z</time>
      </trkpt>
      <trkpt lat="45.82742" lon="4.81529">
        <ele>435</ele>
        <time>2015-01-11T09:06:30Z</time>
      </trkpt>
      <trkpt lat="45.82746" lon="4.81522">
        <ele>434</ele>
        <time>2015-01-11T09:06:34Z</time>
      </trkpt>
      <trkpt lat="45.82747" lon="4.81518">
        <ele>434</ele>
        <time>2015-01-11T09:06:35Z</time>
      </trkpt>
      <trkpt lat="45.82747" lon="4.81515">
        <ele>433</ele>
        <time>2015-01-11T09:06:36Z</time>
      </trkpt>
      <trkpt lat="45.82749" lon="4.81497">
        <ele>431</ele>
        <time>2015-01-11T09:06:42Z</time>
      </trkpt>
      <trkpt lat="45.82752" lon="4.8149">
        <ele>425</ele>
        <time>2015-01-11T09:06:45Z</time>
      </trkpt>
      <trkpt lat="45.82754" lon="4.81482">
        <ele>422</ele>
        <time>2015-01-11T09:06:48Z</time>
      </trkpt>
      <trkpt lat="45.82759" lon="4.81464">
        <ele>419</ele>
        <time>2015-01-11T09:06:55Z</time>
      </trkpt>
      <trkpt lat="45.82763" lon="4.81448">
        <ele>418</ele>
        <time>2015-01-11T09:07:00Z</time>
      </trkpt>
      <trkpt lat="45.82764" lon="4.81438">
        <ele>418</ele>
        <time>2015-01-11T09:07:03Z</time>
      </trkpt>
      <trkpt lat="45.82767" lon="4.8142">
        <ele>419</ele>
        <time>2015-01-11T09:07:08Z</time>
      </trkpt>
      <trkpt lat="45.82768" lon="4.81412">
        <ele>418</ele>
        <time>2015-01-11T09:07:10Z</time>
      </trkpt>
      <trkpt lat="45.8277" lon="4.81397">
        <ele>417</ele>
        <time>2015-01-11T09:07:13Z</time>
      </trkpt>
      <trkpt lat="45.82774" lon="4.81386">
        <ele>416</ele>
        <time>2015-01-11T09:07:16Z</time>
      </trkpt>
      <trkpt lat="45.82776" lon="4.81378">
        <ele>415</ele>
        <time>2015-01-11T09:07:18Z</time>
      </trkpt>
      <trkpt lat="45.82778" lon="4.81371">
        <ele>415</ele>
        <time>2015-01-11T09:07:20Z</time>
      </trkpt>
      <trkpt lat="45.82781" lon="4.81361">
        <ele>415</ele>
        <time>2015-01-11T09:07:23Z</time>
      </trkpt>
      <trkpt lat="45.82781" lon="4.81358">
        <ele>415</ele>
        <time>2015-01-11T09:07:24Z</time>
      </trkpt>
      <trkpt lat="45.82785" lon="4.81333">
        <ele>414</ele>
        <time>2015-01-11T09:07:31Z</time>
      </trkpt>
      <trkpt lat="45.82789" lon="4.81308">
        <ele>413</ele>
        <time>2015-01-11T09:07:38Z</time>
      </trkpt>
      <trkpt lat="45.82792" lon="4.81282">
        <ele>413</ele>
        <time>2015-01-11T09:07:45Z</time>
      </trkpt>
      <trkpt lat="45.82795" lon="4.81256">
        <ele>413</ele>
        <time>2015-01-11T09:07:52Z</time>
      </trkpt>
      <trkpt lat="45.82801" lon="4.81229">
        <ele>411</ele>
        <time>2015-01-11T09:07:59Z</time>
      </trkpt>
      <trkpt lat="45.82807" lon="4.81205">
        <ele>411</ele>
        <time>2015-01-11T09:08:05Z</time>
      </trkpt>
      <trkpt lat="45.82809" lon="4.81201">
        <ele>410</ele>
        <time>2015-01-11T09:08:06Z</time>
      </trkpt>
      <trkpt lat="45.82815" lon="4.81179">
        <ele>410</ele>
        <time>2015-01-11T09:08:12Z</time>
      </trkpt>
      <trkpt lat="45.82816" lon="4.81176">
        <ele>410</ele>
        <time>2015-01-11T09:08:13Z</time>
      </trkpt>
      <trkpt lat="45.82821" lon="4.81158">
        <ele>408</ele>
        <time>2015-01-11T09:08:18Z</time>
      </trkpt>
      <trkpt lat="45.82823" lon="4.81151">
        <ele>408</ele>
        <time>2015-01-11T09:08:20Z</time>
      </trkpt>
      <trkpt lat="45.82826" lon="4.81139">
        <ele>407</ele>
        <time>2015-01-11T09:08:24Z</time>
      </trkpt>
      <trkpt lat="45.82825" lon="4.81134">
        <ele>407</ele>
        <time>2015-01-11T09:08:26Z</time>
      </trkpt>
      <trkpt lat="45.82821" lon="4.81132">
        <ele>407</ele>
        <time>2015-01-11T09:08:28Z</time>
      </trkpt>
      <trkpt lat="45.82818" lon="4.81131">
        <ele>406</ele>
        <time>2015-01-11T09:08:29Z</time>
      </trkpt>
      <trkpt lat="45.8281" lon="4.81126">
        <ele>406</ele>
        <time>2015-01-11T09:08:33Z</time>
      </trkpt>
      <trkpt lat="45.82803" lon="4.81121">
        <ele>406</ele>
        <time>2015-01-11T09:08:36Z</time>
      </trkpt>
      <trkpt lat="45.82801" lon="4.8112">
        <ele>406</ele>
        <time>2015-01-11T09:08:37Z</time>
      </trkpt>
      <trkpt lat="45.82799" lon="4.81118">
        <ele>405</ele>
        <time>2015-01-11T09:08:38Z</time>
      </trkpt>
      <trkpt lat="45.82789" lon="4.81111">
        <ele>405</ele>
        <time>2015-01-11T09:08:42Z</time>
      </trkpt>
      <trkpt lat="45.82787" lon="4.8111">
        <ele>405</ele>
        <time>2015-01-11T09:08:43Z</time>
      </trkpt>
      <trkpt lat="45.82785" lon="4.81109">
        <ele>405</ele>
        <time>2015-01-11T09:08:44Z</time>
      </trkpt>
      <trkpt lat="45.82779" lon="4.81107">
        <ele>404</ele>
        <time>2015-01-11T09:08:46Z</time>
      </trkpt>
      <trkpt lat="45.82767" lon="4.811">
        <ele>403</ele>
        <time>2015-01-11T09:08:51Z</time>
      </trkpt>
      <trkpt lat="45.82753" lon="4.8109">
        <ele>400</ele>
        <time>2015-01-11T09:08:57Z</time>
      </trkpt>
      <trkpt lat="45.8275" lon="4.81087">
        <ele>399</ele>
        <time>2015-01-11T09:08:58Z</time>
      </trkpt>
      <trkpt lat="45.82743" lon="4.81081">
        <ele>396</ele>
        <time>2015-01-11T09:09:01Z</time>
      </trkpt>
      <trkpt lat="45.82741" lon="4.81078">
        <ele>395</ele>
        <time>2015-01-11T09:09:02Z</time>
      </trkpt>
      <trkpt lat="45.82735" lon="4.81069">
        <ele>393</ele>
        <time>2015-01-11T09:09:05Z</time>
      </trkpt>
      <trkpt lat="45.82731" lon="4.81063">
        <ele>393</ele>
        <time>2015-01-11T09:09:07Z</time>
      </trkpt>
      <trkpt lat="45.8272" lon="4.8105">
        <ele>391</ele>
        <time>2015-01-11T09:09:12Z</time>
      </trkpt>
      <trkpt lat="45.82717" lon="4.81048">
        <ele>391</ele>
        <time>2015-01-11T09:09:13Z</time>
      </trkpt>
      <trkpt lat="45.82708" lon="4.81039">
        <ele>390</ele>
        <time>2015-01-11T09:09:18Z</time>
      </trkpt>
      <trkpt lat="45.82704" lon="4.81033">
        <ele>389</ele>
        <time>2015-01-11T09:09:20Z</time>
      </trkpt>
      <trkpt lat="45.827" lon="4.81029">
        <ele>389</ele>
        <time>2015-01-11T09:09:22Z</time>
      </trkpt>
      <trkpt lat="45.82688" lon="4.81018">
        <ele>387</ele>
        <time>2015-01-11T09:09:27Z</time>
      </trkpt>
      <trkpt lat="45.82675" lon="4.81015">
        <ele>386</ele>
        <time>2015-01-11T09:09:32Z</time>
      </trkpt>
      <trkpt lat="45.82669" lon="4.81016">
        <ele>386</ele>
        <time>2015-01-11T09:09:35Z</time>
      </trkpt>
      <trkpt lat="45.82663" lon="4.81017">
        <ele>382</ele>
        <time>2015-01-11T09:09:38Z</time>
      </trkpt>
      <trkpt lat="45.8266" lon="4.81018">
        <ele>382</ele>
        <time>2015-01-11T09:09:40Z</time>
      </trkpt>
      <trkpt lat="45.82655" lon="4.81019">
        <ele>382</ele>
        <time>2015-01-11T09:09:43Z</time>
      </trkpt>
      <trkpt lat="45.82654" lon="4.81017">
        <ele>382</ele>
        <time>2015-01-11T09:09:44Z</time>
      </trkpt>
      <trkpt lat="45.82652" lon="4.81015">
        <ele>382</ele>
        <time>2015-01-11T09:09:45Z</time>
      </trkpt>
      <trkpt lat="45.82644" lon="4.81014">
        <ele>382</ele>
        <time>2015-01-11T09:09:48Z</time>
      </trkpt>
      <trkpt lat="45.82638" lon="4.81004">
        <ele>381</ele>
        <time>2015-01-11T09:09:52Z</time>
      </trkpt>
      <trkpt lat="45.82636" lon="4.81002">
        <ele>381</ele>
        <time>2015-01-11T09:09:53Z</time>
      </trkpt>
      <trkpt lat="45.82632" lon="4.80993">
        <ele>380</ele>
        <time>2015-01-11T09:09:56Z</time>
      </trkpt>
      <trkpt lat="45.82628" lon="4.80988">
        <ele>380</ele>
        <time>2015-01-11T09:09:58Z</time>
      </trkpt>
      <trkpt lat="45.82621" lon="4.80983">
        <ele>380</ele>
        <time>2015-01-11T09:10:01Z</time>
      </trkpt>
      <trkpt lat="45.82617" lon="4.80981">
        <ele>379</ele>
        <time>2015-01-11T09:10:03Z</time>
      </trkpt>
      <trkpt lat="45.82605" lon="4.80978">
        <ele>379</ele>
        <time>2015-01-11T09:10:08Z</time>
      </trkpt>
      <trkpt lat="45.82602" lon="4.80978">
        <ele>379</ele>
        <time>2015-01-11T09:10:09Z</time>
      </trkpt>
      <trkpt lat="45.82592" lon="4.80975">
        <ele>379</ele>
        <time>2015-01-11T09:10:13Z</time>
      </trkpt>
      <trkpt lat="45.82584" lon="4.80974">
        <ele>379</ele>
        <time>2015-01-11T09:10:16Z</time>
      </trkpt>
      <trkpt lat="45.82576" lon="4.80973">
        <ele>376</ele>
        <time>2015-01-11T09:10:19Z</time>
      </trkpt>
      <trkpt lat="45.82566" lon="4.80971">
        <ele>376</ele>
        <time>2015-01-11T09:10:23Z</time>
      </trkpt>
      <trkpt lat="45.82559" lon="4.80969">
        <ele>376</ele>
        <time>2015-01-11T09:10:26Z</time>
      </trkpt>
      <trkpt lat="45.82546" lon="4.80965">
        <ele>376</ele>
        <time>2015-01-11T09:10:31Z</time>
      </trkpt>
      <trkpt lat="45.82543" lon="4.80964">
        <ele>376</ele>
        <time>2015-01-11T09:10:32Z</time>
      </trkpt>
      <trkpt lat="45.82528" lon="4.80961">
        <ele>375</ele>
        <time>2015-01-11T09:10:38Z</time>
      </trkpt>
      <trkpt lat="45.82526" lon="4.80961">
        <ele>375</ele>
        <time>2015-01-11T09:10:39Z</time>
      </trkpt>
      <trkpt lat="45.8251" lon="4.80955">
        <ele>375</ele>
        <time>2015-01-11T09:10:45Z</time>
      </trkpt>
      <trkpt lat="45.82497" lon="4.80951">
        <ele>372</ele>
        <time>2015-01-11T09:10:50Z</time>
      </trkpt>
      <trkpt lat="45.82491" lon="4.80949">
        <ele>371</ele>
        <time>2015-01-11T09:10:52Z</time>
      </trkpt>
      <trkpt lat="45.82482" lon="4.80947">
        <ele>371</ele>
        <time>2015-01-11T09:10:55Z</time>
      </trkpt>
      <trkpt lat="45.82479" lon="4.80946">
        <ele>371</ele>
        <time>2015-01-11T09:10:56Z</time>
      </trkpt>
      <trkpt lat="45.82471" lon="4.80942">
        <ele>371</ele>
        <time>2015-01-11T09:10:59Z</time>
      </trkpt>
      <trkpt lat="45.82469" lon="4.80941">
        <ele>371</ele>
        <time>2015-01-11T09:11:00Z</time>
      </trkpt>
      <trkpt lat="45.82462" lon="4.80934">
        <ele>371</ele>
        <time>2015-01-11T09:11:03Z</time>
      </trkpt>
      <trkpt lat="45.82456" lon="4.80928">
        <ele>370</ele>
        <time>2015-01-11T09:11:06Z</time>
      </trkpt>
      <trkpt lat="45.82447" lon="4.8092">
        <ele>370</ele>
        <time>2015-01-11T09:11:10Z</time>
      </trkpt>
      <trkpt lat="45.8244" lon="4.80913">
        <ele>375</ele>
        <time>2015-01-11T09:11:13Z</time>
      </trkpt>
      <trkpt lat="45.82433" lon="4.80906">
        <ele>374</ele>
        <time>2015-01-11T09:11:16Z</time>
      </trkpt>
      <trkpt lat="45.82425" lon="4.809">
        <ele>374</ele>
        <time>2015-01-11T09:11:19Z</time>
      </trkpt>
      <trkpt lat="45.82419" lon="4.80892">
        <ele>375</ele>
        <time>2015-01-11T09:11:22Z</time>
      </trkpt>
      <trkpt lat="45.82409" lon="4.80881">
        <ele>371</ele>
        <time>2015-01-11T09:11:27Z</time>
      </trkpt>
      <trkpt lat="45.82405" lon="4.80876">
        <ele>371</ele>
        <time>2015-01-11T09:11:29Z</time>
      </trkpt>
      <trkpt lat="45.82393" lon="4.80865">
        <ele>372</ele>
        <time>2015-01-11T09:11:35Z</time>
      </trkpt>
      <trkpt lat="45.82382" lon="4.80855">
        <ele>371</ele>
        <time>2015-01-11T09:11:40Z</time>
      </trkpt>
      <trkpt lat="45.82376" lon="4.80849">
        <ele>371</ele>
        <time>2015-01-11T09:11:43Z</time>
      </trkpt>
      <trkpt lat="45.82372" lon="4.80845">
        <ele>371</ele>
        <time>2015-01-11T09:11:45Z</time>
      </trkpt>
      <trkpt lat="45.82372" lon="4.80835">
        <ele>371</ele>
        <time>2015-01-11T09:11:49Z</time>
      </trkpt>
      <trkpt lat="45.82372" lon="4.8083">
        <ele>377</ele>
        <time>2015-01-11T09:11:51Z</time>
      </trkpt>
      <trkpt lat="45.82371" lon="4.80825">
        <ele>377</ele>
        <time>2015-01-11T09:11:53Z</time>
      </trkpt>
      <trkpt lat="45.8237" lon="4.80823">
        <ele>377</ele>
        <time>2015-01-11T09:11:54Z</time>
      </trkpt>
      <trkpt lat="45.82368" lon="4.80807">
        <ele>378</ele>
        <time>2015-01-11T09:12:00Z</time>
      </trkpt>
      <trkpt lat="45.82367" lon="4.808">
        <ele>378</ele>
        <time>2015-01-11T09:12:03Z</time>
      </trkpt>
      <trkpt lat="45.82367" lon="4.80794">
        <ele>378</ele>
        <time>2015-01-11T09:12:05Z</time>
      </trkpt>
      <trkpt lat="45.82367" lon="4.8078">
        <ele>379</ele>
        <time>2015-01-11T09:12:11Z</time>
      </trkpt>
      <trkpt lat="45.82367" lon="4.80772">
        <ele>379</ele>
        <time>2015-01-11T09:12:14Z</time>
      </trkpt>
      <trkpt lat="45.82367" lon="4.80767">
        <ele>379</ele>
        <time>2015-01-11T09:12:16Z</time>
      </trkpt>
      <trkpt lat="45.82368" lon="4.80762">
        <ele>380</ele>
        <time>2015-01-11T09:12:18Z</time>
      </trkpt>
      <trkpt lat="45.82367" lon="4.80753">
        <ele>380</ele>
        <time>2015-01-11T09:12:21Z</time>
      </trkpt>
      <trkpt lat="45.82369" lon="4.80746">
        <ele>385</ele>
        <time>2015-01-11T09:12:24Z</time>
      </trkpt>
      <trkpt lat="45.82371" lon="4.8074">
        <ele>386</ele>
        <time>2015-01-11T09:12:27Z</time>
      </trkpt>
      <trkpt lat="45.82377" lon="4.80724">
        <ele>387</ele>
        <time>2015-01-11T09:12:36Z</time>
      </trkpt>
      <trkpt lat="45.82378" lon="4.80722">
        <ele>387</ele>
        <time>2015-01-11T09:12:37Z</time>
      </trkpt>
      <trkpt lat="45.82378" lon="4.8072">
        <ele>387</ele>
        <time>2015-01-11T09:12:38Z</time>
      </trkpt>
      <trkpt lat="45.82376" lon="4.80715">
        <ele>387</ele>
        <time>2015-01-11T09:12:41Z</time>
      </trkpt>
      <trkpt lat="45.82373" lon="4.80707">
        <ele>387</ele>
        <time>2015-01-11T09:12:47Z</time>
      </trkpt>
      <trkpt lat="45.82375" lon="4.807">
        <ele>388</ele>
        <time>2015-01-11T09:13:31Z</time>
      </trkpt>
      <trkpt lat="45.82374" lon="4.807">
        <ele>388</ele>
        <time>2015-01-11T09:13:36Z</time>
      </trkpt>
      <trkpt lat="45.82374" lon="4.80701">
        <ele>388</ele>
        <time>2015-01-11T09:14:04Z</time>
      </trkpt>
      <trkpt lat="45.8237" lon="4.80696">
        <ele>387</ele>
        <time>2015-01-11T09:14:29Z</time>
      </trkpt>
      <trkpt lat="45.82368" lon="4.80694">
        <ele>387</ele>
        <time>2015-01-11T09:14:31Z</time>
      </trkpt>
      <trkpt lat="45.82366" lon="4.80692">
        <ele>387</ele>
        <time>2015-01-11T09:14:33Z</time>
      </trkpt>
      <trkpt lat="45.82364" lon="4.8069">
        <ele>387</ele>
        <time>2015-01-11T09:14:34Z</time>
      </trkpt>
      <trkpt lat="45.82357" lon="4.80681">
        <ele>387</ele>
        <time>2015-01-11T09:14:38Z</time>
      </trkpt>
      <trkpt lat="45.82355" lon="4.80678">
        <ele>387</ele>
        <time>2015-01-11T09:14:39Z</time>
      </trkpt>
      <trkpt lat="45.82354" lon="4.80673">
        <ele>387</ele>
        <time>2015-01-11T09:14:41Z</time>
      </trkpt>
      <trkpt lat="45.82354" lon="4.80668">
        <ele>387</ele>
        <time>2015-01-11T09:14:43Z</time>
      </trkpt>
      <trkpt lat="45.82354" lon="4.80662">
        <ele>391</ele>
        <time>2015-01-11T09:14:45Z</time>
      </trkpt>
      <trkpt lat="45.82355" lon="4.80659">
        <ele>391</ele>
        <time>2015-01-11T09:14:46Z</time>
      </trkpt>
      <trkpt lat="45.82355" lon="4.80655">
        <ele>392</ele>
        <time>2015-01-11T09:14:48Z</time>
      </trkpt>
      <trkpt lat="45.82356" lon="4.80648">
        <ele>392</ele>
        <time>2015-01-11T09:14:51Z</time>
      </trkpt>
      <trkpt lat="45.82356" lon="4.80645">
        <ele>393</ele>
        <time>2015-01-11T09:14:52Z</time>
      </trkpt>
      <trkpt lat="45.82356" lon="4.80639">
        <ele>393</ele>
        <time>2015-01-11T09:14:54Z</time>
      </trkpt>
      <trkpt lat="45.82358" lon="4.80622">
        <ele>395</ele>
        <time>2015-01-11T09:15:01Z</time>
      </trkpt>
      <trkpt lat="45.82359" lon="4.80618">
        <ele>395</ele>
        <time>2015-01-11T09:15:03Z</time>
      </trkpt>
      <trkpt lat="45.82359" lon="4.80608">
        <ele>395</ele>
        <time>2015-01-11T09:15:07Z</time>
      </trkpt>
      <trkpt lat="45.8236" lon="4.80602">
        <ele>395</ele>
        <time>2015-01-11T09:15:10Z</time>
      </trkpt>
      <trkpt lat="45.8236" lon="4.80595">
        <ele>396</ele>
        <time>2015-01-11T09:15:13Z</time>
      </trkpt>
      <trkpt lat="45.8236" lon="4.80591">
        <ele>396</ele>
        <time>2015-01-11T09:15:15Z</time>
      </trkpt>
      <trkpt lat="45.8236" lon="4.80581">
        <ele>401</ele>
        <time>2015-01-11T09:15:19Z</time>
      </trkpt>
      <trkpt lat="45.82364" lon="4.80569">
        <ele>402</ele>
        <time>2015-01-11T09:15:24Z</time>
      </trkpt>
      <trkpt lat="45.82365" lon="4.80567">
        <ele>403</ele>
        <time>2015-01-11T09:15:25Z</time>
      </trkpt>
      <trkpt lat="45.82368" lon="4.80555">
        <ele>404</ele>
        <time>2015-01-11T09:15:30Z</time>
      </trkpt>
      <trkpt lat="45.82371" lon="4.80541">
        <ele>405</ele>
        <time>2015-01-11T09:15:37Z</time>
      </trkpt>
      <trkpt lat="45.82372" lon="4.80528">
        <ele>406</ele>
        <time>2015-01-11T09:15:43Z</time>
      </trkpt>
      <trkpt lat="45.82373" lon="4.80523">
        <ele>406</ele>
        <time>2015-01-11T09:15:45Z</time>
      </trkpt>
      <trkpt lat="45.82374" lon="4.80516">
        <ele>407</ele>
        <time>2015-01-11T09:15:48Z</time>
      </trkpt>
      <trkpt lat="45.82378" lon="4.80504">
        <ele>407</ele>
        <time>2015-01-11T09:15:53Z</time>
      </trkpt>
      <trkpt lat="45.82379" lon="4.80493">
        <ele>411</ele>
        <time>2015-01-11T09:15:59Z</time>
      </trkpt>
      <trkpt lat="45.82378" lon="4.80489">
        <ele>411</ele>
        <time>2015-01-11T09:16:01Z</time>
      </trkpt>
      <trkpt lat="45.82379" lon="4.80486">
        <ele>411</ele>
        <time>2015-01-11T09:16:03Z</time>
      </trkpt>
      <trkpt lat="45.82381" lon="4.80481">
        <ele>412</ele>
        <time>2015-01-11T09:16:06Z</time>
      </trkpt>
      <trkpt lat="45.82383" lon="4.80477">
        <ele>412</ele>
        <time>2015-01-11T09:16:08Z</time>
      </trkpt>
      <trkpt lat="45.82385" lon="4.8047">
        <ele>412</ele>
        <time>2015-01-11T09:16:12Z</time>
      </trkpt>
      <trkpt lat="45.82386" lon="4.80465">
        <ele>412</ele>
        <time>2015-01-11T09:16:15Z</time>
      </trkpt>
      <trkpt lat="45.82385" lon="4.80457">
        <ele>412</ele>
        <time>2015-01-11T09:16:19Z</time>
      </trkpt>
      <trkpt lat="45.82386" lon="4.80455">
        <ele>412</ele>
        <time>2015-01-11T09:16:20Z</time>
      </trkpt>
      <trkpt lat="45.82387" lon="4.80452">
        <ele>413</ele>
        <time>2015-01-11T09:16:22Z</time>
      </trkpt>
      <trkpt lat="45.82389" lon="4.8045">
        <ele>413</ele>
        <time>2015-01-11T09:16:26Z</time>
      </trkpt>
      <trkpt lat="45.82394" lon="4.80446">
        <ele>413</ele>
        <time>2015-01-11T09:16:51Z</time>
      </trkpt>
      <trkpt lat="45.82396" lon="4.80445">
        <ele>414</ele>
        <time>2015-01-11T09:16:53Z</time>
      </trkpt>
      <trkpt lat="45.82402" lon="4.80442">
        <ele>414</ele>
        <time>2015-01-11T09:17:00Z</time>
      </trkpt>
      <trkpt lat="45.82405" lon="4.8044">
        <ele>415</ele>
        <time>2015-01-11T09:17:04Z</time>
      </trkpt>
      <trkpt lat="45.82405" lon="4.80439">
        <ele>415</ele>
        <time>2015-01-11T09:17:05Z</time>
      </trkpt>
      <trkpt lat="45.8241" lon="4.80435">
        <ele>416</ele>
        <time>2015-01-11T09:17:10Z</time>
      </trkpt>
      <trkpt lat="45.82413" lon="4.80434">
        <ele>416</ele>
        <time>2015-01-11T09:17:12Z</time>
      </trkpt>
      <trkpt lat="45.82414" lon="4.80433">
        <ele>416</ele>
        <time>2015-01-11T09:17:14Z</time>
      </trkpt>
      <trkpt lat="45.82415" lon="4.80433">
        <ele>416</ele>
        <time>2015-01-11T09:17:15Z</time>
      </trkpt>
      <trkpt lat="45.82418" lon="4.80435">
        <ele>424</ele>
        <time>2015-01-11T09:17:18Z</time>
      </trkpt>
      <trkpt lat="45.82421" lon="4.80436">
        <ele>424</ele>
        <time>2015-01-11T09:17:21Z</time>
      </trkpt>
      <trkpt lat="45.82423" lon="4.80438">
        <ele>424</ele>
        <time>2015-01-11T09:17:24Z</time>
      </trkpt>
      <trkpt lat="45.82427" lon="4.80437">
        <ele>424</ele>
        <time>2015-01-11T09:17:27Z</time>
      </trkpt>
      <trkpt lat="45.82429" lon="4.80437">
        <ele>424</ele>
        <time>2015-01-11T09:17:28Z</time>
      </trkpt>
      <trkpt lat="45.82434" lon="4.80435">
        <ele>425</ele>
        <time>2015-01-11T09:17:31Z</time>
      </trkpt>
      <trkpt lat="45.82435" lon="4.80434">
        <ele>425</ele>
        <time>2015-01-11T09:17:32Z</time>
      </trkpt>
      <trkpt lat="45.82442" lon="4.8043">
        <ele>426</ele>
        <time>2015-01-11T09:17:37Z</time>
      </trkpt>
      <trkpt lat="45.82444" lon="4.80426">
        <ele>426</ele>
        <time>2015-01-11T09:17:39Z</time>
      </trkpt>
      <trkpt lat="45.82445" lon="4.80424">
        <ele>426</ele>
        <time>2015-01-11T09:17:40Z</time>
      </trkpt>
      <trkpt lat="45.82449" lon="4.8042">
        <ele>427</ele>
        <time>2015-01-11T09:17:43Z</time>
      </trkpt>
      <trkpt lat="45.82457" lon="4.80413">
        <ele>428</ele>
        <time>2015-01-11T09:17:50Z</time>
      </trkpt>
      <trkpt lat="45.82461" lon="4.80409">
        <ele>428</ele>
        <time>2015-01-11T09:17:54Z</time>
      </trkpt>
      <trkpt lat="45.82461" lon="4.80407">
        <ele>428</ele>
        <time>2015-01-11T09:17:55Z</time>
      </trkpt>
      <trkpt lat="45.82465" lon="4.80403">
        <ele>429</ele>
        <time>2015-01-11T09:17:58Z</time>
      </trkpt>
      <trkpt lat="45.82467" lon="4.80402">
        <ele>429</ele>
        <time>2015-01-11T09:18:00Z</time>
      </trkpt>
      <trkpt lat="45.82472" lon="4.80396">
        <ele>429</ele>
        <time>2015-01-11T09:18:05Z</time>
      </trkpt>
      <trkpt lat="45.82474" lon="4.80393">
        <ele>429</ele>
        <time>2015-01-11T09:18:07Z</time>
      </trkpt>
      <trkpt lat="45.82475" lon="4.80392">
        <ele>429</ele>
        <time>2015-01-11T09:18:08Z</time>
      </trkpt>
      <trkpt lat="45.82477" lon="4.80392">
        <ele>430</ele>
        <time>2015-01-11T09:18:09Z</time>
      </trkpt>
      <trkpt lat="45.82485" lon="4.80391">
        <ele>431</ele>
        <time>2015-01-11T09:18:15Z</time>
      </trkpt>
      <trkpt lat="45.82494" lon="4.80388">
        <ele>431</ele>
        <time>2015-01-11T09:18:22Z</time>
      </trkpt>
      <trkpt lat="45.82498" lon="4.80386">
        <ele>431</ele>
        <time>2015-01-11T09:18:26Z</time>
      </trkpt>
      <trkpt lat="45.82501" lon="4.80385">
        <ele>439</ele>
        <time>2015-01-11T09:18:28Z</time>
      </trkpt>
      <trkpt lat="45.82504" lon="4.80383">
        <ele>439</ele>
        <time>2015-01-11T09:18:31Z</time>
      </trkpt>
      <trkpt lat="45.8251" lon="4.80378">
        <ele>439</ele>
        <time>2015-01-11T09:18:36Z</time>
      </trkpt>
      <trkpt lat="45.82512" lon="4.80377">
        <ele>439</ele>
        <time>2015-01-11T09:18:38Z</time>
      </trkpt>
      <trkpt lat="45.82513" lon="4.80377">
        <ele>439</ele>
        <time>2015-01-11T09:18:39Z</time>
      </trkpt>
      <trkpt lat="45.82515" lon="4.80375">
        <ele>439</ele>
        <time>2015-01-11T09:18:41Z</time>
      </trkpt>
      <trkpt lat="45.82523" lon="4.80369">
        <ele>439</ele>
        <time>2015-01-11T09:18:48Z</time>
      </trkpt>
      <trkpt lat="45.82528" lon="4.80365">
        <ele>440</ele>
        <time>2015-01-11T09:18:52Z</time>
      </trkpt>
      <trkpt lat="45.8253" lon="4.80362">
        <ele>440</ele>
        <time>2015-01-11T09:18:54Z</time>
      </trkpt>
      <trkpt lat="45.82536" lon="4.80354">
        <ele>440</ele>
        <time>2015-01-11T09:19:00Z</time>
      </trkpt>
      <trkpt lat="45.82539" lon="4.8035">
        <ele>440</ele>
        <time>2015-01-11T09:19:03Z</time>
      </trkpt>
      <trkpt lat="45.82542" lon="4.80348">
        <ele>441</ele>
        <time>2015-01-11T09:19:05Z</time>
      </trkpt>
      <trkpt lat="45.82545" lon="4.80345">
        <ele>441</ele>
        <time>2015-01-11T09:19:07Z</time>
      </trkpt>
      <trkpt lat="45.82546" lon="4.80344">
        <ele>441</ele>
        <time>2015-01-11T09:19:08Z</time>
      </trkpt>
      <trkpt lat="45.82555" lon="4.80334">
        <ele>442</ele>
        <time>2015-01-11T09:19:16Z</time>
      </trkpt>
      <trkpt lat="45.82556" lon="4.8033">
        <ele>441</ele>
        <time>2015-01-11T09:19:18Z</time>
      </trkpt>
      <trkpt lat="45.82562" lon="4.8032">
        <ele>441</ele>
        <time>2015-01-11T09:19:25Z</time>
      </trkpt>
      <trkpt lat="45.82563" lon="4.80318">
        <ele>442</ele>
        <time>2015-01-11T09:19:27Z</time>
      </trkpt>
      <trkpt lat="45.82568" lon="4.80312">
        <ele>442</ele>
        <time>2015-01-11T09:19:33Z</time>
      </trkpt>
      <trkpt lat="45.82569" lon="4.80312">
        <ele>442</ele>
        <time>2015-01-11T09:19:34Z</time>
      </trkpt>
      <trkpt lat="45.82572" lon="4.80305">
        <ele>441</ele>
        <time>2015-01-11T09:19:39Z</time>
      </trkpt>
      <trkpt lat="45.82574" lon="4.803">
        <ele>441</ele>
        <time>2015-01-11T09:19:45Z</time>
      </trkpt>
      <trkpt lat="45.82576" lon="4.80297">
        <ele>441</ele>
        <time>2015-01-11T09:19:52Z</time>
      </trkpt>
      <trkpt lat="45.8258" lon="4.80295">
        <ele>441</ele>
        <time>2015-01-11T09:19:57Z</time>
      </trkpt>
      <trkpt lat="45.8258" lon="4.80295">
        <ele>441</ele>
        <time>2015-01-11T09:20:02Z</time>
      </trkpt>
      <trkpt lat="45.82583" lon="4.80291">
        <ele>441</ele>
        <time>2015-01-11T09:20:13Z</time>
      </trkpt>
      <trkpt lat="45.82584" lon="4.8029">
        <ele>452</ele>
        <time>2015-01-11T09:20:14Z</time>
      </trkpt>
      <trkpt lat="45.82586" lon="4.80288">
        <ele>453</ele>
        <time>2015-01-11T09:20:16Z</time>
      </trkpt>
      <trkpt lat="45.82589" lon="4.80285">
        <ele>453</ele>
        <time>2015-01-11T09:20:20Z</time>
      </trkpt>
      <trkpt lat="45.82593" lon="4.80283">
        <ele>453</ele>
        <time>2015-01-11T09:20:23Z</time>
      </trkpt>
      <trkpt lat="45.82595" lon="4.8028">
        <ele>453</ele>
        <time>2015-01-11T09:20:25Z</time>
      </trkpt>
      <trkpt lat="45.82597" lon="4.80277">
        <ele>453</ele>
        <time>2015-01-11T09:20:27Z</time>
      </trkpt>
      <trkpt lat="45.82598" lon="4.80277">
        <ele>453</ele>
        <time>2015-01-11T09:20:28Z</time>
      </trkpt>
      <trkpt lat="45.826" lon="4.80275">
        <ele>453</ele>
        <time>2015-01-11T09:20:29Z</time>
      </trkpt>
      <trkpt lat="45.82607" lon="4.80269">
        <ele>454</ele>
        <time>2015-01-11T09:20:35Z</time>
      </trkpt>
      <trkpt lat="45.82608" lon="4.80268">
        <ele>454</ele>
        <time>2015-01-11T09:20:36Z</time>
      </trkpt>
      <trkpt lat="45.82611" lon="4.80261">
        <ele>454</ele>
        <time>2015-01-11T09:20:41Z</time>
      </trkpt>
      <trkpt lat="45.82612" lon="4.80261">
        <ele>454</ele>
        <time>2015-01-11T09:20:43Z</time>
      </trkpt>
      <trkpt lat="45.82614" lon="4.8026">
        <ele>454</ele>
        <time>2015-01-11T09:20:44Z</time>
      </trkpt>
      <trkpt lat="45.8262" lon="4.80257">
        <ele>456</ele>
        <time>2015-01-11T09:20:48Z</time>
      </trkpt>
      <trkpt lat="45.82627" lon="4.80251">
        <ele>457</ele>
        <time>2015-01-11T09:20:54Z</time>
      </trkpt>
      <trkpt lat="45.8263" lon="4.80248">
        <ele>457</ele>
        <time>2015-01-11T09:20:57Z</time>
      </trkpt>
      <trkpt lat="45.82632" lon="4.80245">
        <ele>457</ele>
        <time>2015-01-11T09:21:00Z</time>
      </trkpt>
      <trkpt lat="45.82635" lon="4.80241">
        <ele>458</ele>
        <time>2015-01-11T09:21:03Z</time>
      </trkpt>
      <trkpt lat="45.82637" lon="4.80239">
        <ele>458</ele>
        <time>2015-01-11T09:21:05Z</time>
      </trkpt>
      <trkpt lat="45.82641" lon="4.80236">
        <ele>459</ele>
        <time>2015-01-11T09:21:10Z</time>
      </trkpt>
      <trkpt lat="45.82645" lon="4.80232">
        <ele>459</ele>
        <time>2015-01-11T09:21:13Z</time>
      </trkpt>
      <trkpt lat="45.82646" lon="4.80231">
        <ele>459</ele>
        <time>2015-01-11T09:21:14Z</time>
      </trkpt>
      <trkpt lat="45.82649" lon="4.8023">
        <ele>460</ele>
        <time>2015-01-11T09:21:17Z</time>
      </trkpt>
      <trkpt lat="45.82651" lon="4.80229">
        <ele>460</ele>
        <time>2015-01-11T09:21:18Z</time>
      </trkpt>
      <trkpt lat="45.82655" lon="4.80225">
        <ele>460</ele>
        <time>2015-01-11T09:21:22Z</time>
      </trkpt>
      <trkpt lat="45.82656" lon="4.80224">
        <ele>460</ele>
        <time>2015-01-11T09:21:23Z</time>
      </trkpt>
      <trkpt lat="45.82658" lon="4.80223">
        <ele>460</ele>
        <time>2015-01-11T09:21:25Z</time>
      </trkpt>
      <trkpt lat="45.82661" lon="4.80222">
        <ele>460</ele>
        <time>2015-01-11T09:21:28Z</time>
      </trkpt>
      <trkpt lat="45.82662" lon="4.80221">
        <ele>460</ele>
        <time>2015-01-11T09:21:29Z</time>
      </trkpt>
      <trkpt lat="45.82668" lon="4.80216">
        <ele>472</ele>
        <time>2015-01-11T09:21:34Z</time>
      </trkpt>
      <trkpt lat="45.82676" lon="4.8021">
        <ele>473</ele>
        <time>2015-01-11T09:21:43Z</time>
      </trkpt>
      <trkpt lat="45.82678" lon="4.80208">
        <ele>473</ele>
        <time>2015-01-11T09:21:46Z</time>
      </trkpt>
      <trkpt lat="45.82679" lon="4.80208">
        <ele>473</ele>
        <time>2015-01-11T09:21:47Z</time>
      </trkpt>
      <trkpt lat="45.82683" lon="4.80204">
        <ele>473</ele>
        <time>2015-01-11T09:21:51Z</time>
      </trkpt>
      <trkpt lat="45.82689" lon="4.80201">
        <ele>473</ele>
        <time>2015-01-11T09:21:56Z</time>
      </trkpt>
      <trkpt lat="45.82691" lon="4.80201">
        <ele>474</ele>
        <time>2015-01-11T09:21:58Z</time>
      </trkpt>
      <trkpt lat="45.82694" lon="4.80201">
        <ele>474</ele>
        <time>2015-01-11T09:22:03Z</time>
      </trkpt>
      <trkpt lat="45.82698" lon="4.802">
        <ele>474</ele>
        <time>2015-01-11T09:22:06Z</time>
      </trkpt>
      <trkpt lat="45.82699" lon="4.802">
        <ele>474</ele>
        <time>2015-01-11T09:22:07Z</time>
      </trkpt>
      <trkpt lat="45.82702" lon="4.80197">
        <ele>475</ele>
        <time>2015-01-11T09:22:11Z</time>
      </trkpt>
      <trkpt lat="45.82706" lon="4.80193">
        <ele>475</ele>
        <time>2015-01-11T09:22:14Z</time>
      </trkpt>
      <trkpt lat="45.82711" lon="4.8019">
        <ele>476</ele>
        <time>2015-01-11T09:22:18Z</time>
      </trkpt>
      <trkpt lat="45.82712" lon="4.80188">
        <ele>476</ele>
        <time>2015-01-11T09:22:19Z</time>
      </trkpt>
      <trkpt lat="45.82713" lon="4.80187">
        <ele>476</ele>
        <time>2015-01-11T09:22:20Z</time>
      </trkpt>
      <trkpt lat="45.82717" lon="4.80183">
        <ele>477</ele>
        <time>2015-01-11T09:22:25Z</time>
      </trkpt>
      <trkpt lat="45.8272" lon="4.80181">
        <ele>478</ele>
        <time>2015-01-11T09:22:27Z</time>
      </trkpt>
      <trkpt lat="45.82722" lon="4.80178">
        <ele>478</ele>
        <time>2015-01-11T09:22:29Z</time>
      </trkpt>
      <trkpt lat="45.82725" lon="4.80171">
        <ele>479</ele>
        <time>2015-01-11T09:22:34Z</time>
      </trkpt>
      <trkpt lat="45.82727" lon="4.80168">
        <ele>480</ele>
        <time>2015-01-11T09:22:36Z</time>
      </trkpt>
      <trkpt lat="45.82731" lon="4.80167">
        <ele>481</ele>
        <time>2015-01-11T09:22:39Z</time>
      </trkpt>
      <trkpt lat="45.82732" lon="4.80166">
        <ele>479</ele>
        <time>2015-01-11T09:22:40Z</time>
      </trkpt>
      <trkpt lat="45.82737" lon="4.80164">
        <ele>481</ele>
        <time>2015-01-11T09:22:45Z</time>
      </trkpt>
      <trkpt lat="45.82738" lon="4.80163">
        <ele>481</ele>
        <time>2015-01-11T09:22:46Z</time>
      </trkpt>
      <trkpt lat="45.8274" lon="4.8016">
        <ele>481</ele>
        <time>2015-01-11T09:22:49Z</time>
      </trkpt>
      <trkpt lat="45.82745" lon="4.80158">
        <ele>482</ele>
        <time>2015-01-11T09:22:53Z</time>
      </trkpt>
      <trkpt lat="45.82746" lon="4.80158">
        <ele>482</ele>
        <time>2015-01-11T09:22:54Z</time>
      </trkpt>
      <trkpt lat="45.82748" lon="4.80157">
        <ele>482</ele>
        <time>2015-01-11T09:22:56Z</time>
      </trkpt>
      <trkpt lat="45.82755" lon="4.80155">
        <ele>490</ele>
        <time>2015-01-11T09:23:01Z</time>
      </trkpt>
      <trkpt lat="45.82756" lon="4.80153">
        <ele>490</ele>
        <time>2015-01-11T09:23:03Z</time>
      </trkpt>
      <trkpt lat="45.82759" lon="4.80151">
        <ele>490</ele>
        <time>2015-01-11T09:23:05Z</time>
      </trkpt>
      <trkpt lat="45.82763" lon="4.80148">
        <ele>490</ele>
        <time>2015-01-11T09:23:08Z</time>
      </trkpt>
      <trkpt lat="45.82765" lon="4.80147">
        <ele>491</ele>
        <time>2015-01-11T09:23:10Z</time>
      </trkpt>
      <trkpt lat="45.82767" lon="4.80146">
        <ele>491</ele>
        <time>2015-01-11T09:23:11Z</time>
      </trkpt>
      <trkpt lat="45.82769" lon="4.80145">
        <ele>491</ele>
        <time>2015-01-11T09:23:13Z</time>
      </trkpt>
      <trkpt lat="45.82773" lon="4.80142">
        <ele>491</ele>
        <time>2015-01-11T09:23:18Z</time>
      </trkpt>
      <trkpt lat="45.82775" lon="4.80141">
        <ele>491</ele>
        <time>2015-01-11T09:23:19Z</time>
      </trkpt>
      <trkpt lat="45.8278" lon="4.80138">
        <ele>492</ele>
        <time>2015-01-11T09:23:24Z</time>
      </trkpt>
      <trkpt lat="45.82782" lon="4.80137">
        <ele>492</ele>
        <time>2015-01-11T09:23:26Z</time>
      </trkpt>
      <trkpt lat="45.82788" lon="4.80131">
        <ele>492</ele>
        <time>2015-01-11T09:23:32Z</time>
      </trkpt>
      <trkpt lat="45.82791" lon="4.8013">
        <ele>493</ele>
        <time>2015-01-11T09:23:36Z</time>
      </trkpt>
      <trkpt lat="45.82793" lon="4.8013">
        <ele>493</ele>
        <time>2015-01-11T09:23:39Z</time>
      </trkpt>
      <trkpt lat="45.82797" lon="4.80135">
        <ele>493</ele>
        <time>2015-01-11T09:23:44Z</time>
      </trkpt>
      <trkpt lat="45.82798" lon="4.80135">
        <ele>494</ele>
        <time>2015-01-11T09:23:45Z</time>
      </trkpt>
      <trkpt lat="45.82799" lon="4.80135">
        <ele>494</ele>
        <time>2015-01-11T09:23:46Z</time>
      </trkpt>
      <trkpt lat="45.82808" lon="4.8014">
        <ele>495</ele>
        <time>2015-01-11T09:23:54Z</time>
      </trkpt>
      <trkpt lat="45.82815" lon="4.80141">
        <ele>495</ele>
        <time>2015-01-11T09:23:59Z</time>
      </trkpt>
      <trkpt lat="45.82817" lon="4.80139">
        <ele>496</ele>
        <time>2015-01-11T09:24:01Z</time>
      </trkpt>
      <trkpt lat="45.82825" lon="4.80133">
        <ele>496</ele>
        <time>2015-01-11T09:24:07Z</time>
      </trkpt>
      <trkpt lat="45.8283" lon="4.80131">
        <ele>496</ele>
        <time>2015-01-11T09:24:10Z</time>
      </trkpt>
      <trkpt lat="45.82832" lon="4.8013">
        <ele>496</ele>
        <time>2015-01-11T09:24:11Z</time>
      </trkpt>
      <trkpt lat="45.82834" lon="4.80127">
        <ele>504</ele>
        <time>2015-01-11T09:24:13Z</time>
      </trkpt>
      <trkpt lat="45.82837" lon="4.80123">
        <ele>505</ele>
        <time>2015-01-11T09:24:15Z</time>
      </trkpt>
      <trkpt lat="45.82844" lon="4.80115">
        <ele>505</ele>
        <time>2015-01-11T09:24:21Z</time>
      </trkpt>
      <trkpt lat="45.82846" lon="4.80112">
        <ele>505</ele>
        <time>2015-01-11T09:24:23Z</time>
      </trkpt>
      <trkpt lat="45.8285" lon="4.80107">
        <ele>505</ele>
        <time>2015-01-11T09:24:26Z</time>
      </trkpt>
      <trkpt lat="45.82857" lon="4.80094">
        <ele>505</ele>
        <time>2015-01-11T09:24:34Z</time>
      </trkpt>
      <trkpt lat="45.82858" lon="4.80092">
        <ele>505</ele>
        <time>2015-01-11T09:24:35Z</time>
      </trkpt>
      <trkpt lat="45.82866" lon="4.8008">
        <ele>506</ele>
        <time>2015-01-11T09:24:41Z</time>
      </trkpt>
      <trkpt lat="45.8287" lon="4.80071">
        <ele>506</ele>
        <time>2015-01-11T09:24:46Z</time>
      </trkpt>
      <trkpt lat="45.82873" lon="4.80067">
        <ele>506</ele>
        <time>2015-01-11T09:24:48Z</time>
      </trkpt>
      <trkpt lat="45.8288" lon="4.80059">
        <ele>507</ele>
        <time>2015-01-11T09:24:55Z</time>
      </trkpt>
      <trkpt lat="45.82885" lon="4.80053">
        <ele>507</ele>
        <time>2015-01-11T09:24:59Z</time>
      </trkpt>
      <trkpt lat="45.82889" lon="4.80049">
        <ele>507</ele>
        <time>2015-01-11T09:25:02Z</time>
      </trkpt>
      <trkpt lat="45.82897" lon="4.80039">
        <ele>508</ele>
        <time>2015-01-11T09:25:08Z</time>
      </trkpt>
      <trkpt lat="45.82899" lon="4.80037">
        <ele>508</ele>
        <time>2015-01-11T09:25:09Z</time>
      </trkpt>
      <trkpt lat="45.82907" lon="4.80028">
        <ele>509</ele>
        <time>2015-01-11T09:25:15Z</time>
      </trkpt>
      <trkpt lat="45.82915" lon="4.80022">
        <ele>510</ele>
        <time>2015-01-11T09:25:20Z</time>
      </trkpt>
      <trkpt lat="45.82919" lon="4.8002">
        <ele>516</ele>
        <time>2015-01-11T09:25:22Z</time>
      </trkpt>
      <trkpt lat="45.82931" lon="4.80012">
        <ele>516</ele>
        <time>2015-01-11T09:25:29Z</time>
      </trkpt>
      <trkpt lat="45.82932" lon="4.80011">
        <ele>516</ele>
        <time>2015-01-11T09:25:30Z</time>
      </trkpt>
      <trkpt lat="45.82945" lon="4.80002">
        <ele>517</ele>
        <time>2015-01-11T09:25:37Z</time>
      </trkpt>
      <trkpt lat="45.82949" lon="4.79999">
        <ele>514</ele>
        <time>2015-01-11T09:25:39Z</time>
      </trkpt>
      <trkpt lat="45.82957" lon="4.79991">
        <ele>514</ele>
        <time>2015-01-11T09:25:44Z</time>
      </trkpt>
      <trkpt lat="45.82965" lon="4.79986">
        <ele>514</ele>
        <time>2015-01-11T09:25:48Z</time>
      </trkpt>
      <trkpt lat="45.82968" lon="4.79984">
        <ele>515</ele>
        <time>2015-01-11T09:25:50Z</time>
      </trkpt>
      <trkpt lat="45.82981" lon="4.79975">
        <ele>515</ele>
        <time>2015-01-11T09:25:57Z</time>
      </trkpt>
      <trkpt lat="45.82982" lon="4.79974">
        <ele>515</ele>
        <time>2015-01-11T09:25:58Z</time>
      </trkpt>
      <trkpt lat="45.82991" lon="4.79969">
        <ele>515</ele>
        <time>2015-01-11T09:26:04Z</time>
      </trkpt>
      <trkpt lat="45.82997" lon="4.79965">
        <ele>515</ele>
        <time>2015-01-11T09:26:11Z</time>
      </trkpt>
      <trkpt lat="45.82998" lon="4.79964">
        <ele>515</ele>
        <time>2015-01-11T09:26:12Z</time>
      </trkpt>
      <trkpt lat="45.83" lon="4.79962">
        <ele>514</ele>
        <time>2015-01-11T09:26:14Z</time>
      </trkpt>
      <trkpt lat="45.83001" lon="4.79959">
        <ele>519</ele>
        <time>2015-01-11T09:26:19Z</time>
      </trkpt>
      <trkpt lat="45.83005" lon="4.79957">
        <ele>519</ele>
        <time>2015-01-11T09:27:18Z</time>
      </trkpt>
      <trkpt lat="45.83003" lon="4.79956">
        <ele>519</ele>
        <time>2015-01-11T09:28:07Z</time>
      </trkpt>
      <trkpt lat="45.83003" lon="4.79956">
        <ele>519</ele>
        <time>2015-01-11T09:28:11Z</time>
      </trkpt>
      <trkpt lat="45.83006" lon="4.79959">
        <ele>520</ele>
        <time>2015-01-11T09:28:56Z</time>
      </trkpt>
      <trkpt lat="45.83008" lon="4.7996">
        <ele>520</ele>
        <time>2015-01-11T09:28:57Z</time>
      </trkpt>
      <trkpt lat="45.83008" lon="4.79961">
        <ele>520</ele>
        <time>2015-01-11T09:28:58Z</time>
      </trkpt>
      <trkpt lat="45.83008" lon="4.79962">
        <ele>520</ele>
        <time>2015-01-11T09:29:01Z</time>
      </trkpt>
      <trkpt lat="45.83008" lon="4.79962">
        <ele>520</ele>
        <time>2015-01-11T09:29:06Z</time>
      </trkpt>
      <trkpt lat="45.83005" lon="4.79959">
        <ele>520</ele>
        <time>2015-01-11T09:29:12Z</time>
      </trkpt>
      <trkpt lat="45.83004" lon="4.79959">
        <ele>520</ele>
        <time>2015-01-11T09:29:22Z</time>
      </trkpt>
      <trkpt lat="45.83005" lon="4.79957">
        <ele>519</ele>
        <time>2015-01-11T09:29:27Z</time>
      </trkpt>
      <trkpt lat="45.83006" lon="4.79956">
        <ele>519</ele>
        <time>2015-01-11T09:29:35Z</time>
      </trkpt>
      <trkpt lat="45.83006" lon="4.79957">
        <ele>519</ele>
        <time>2015-01-11T09:29:43Z</time>
      </trkpt>
      <trkpt lat="45.83006" lon="4.79955">
        <ele>519</ele>
        <time>2015-01-11T09:29:48Z</time>
      </trkpt>
      <trkpt lat="45.83007" lon="4.79953">
        <ele>519</ele>
        <time>2015-01-11T09:29:49Z</time>
      </trkpt>
      <trkpt lat="45.8301" lon="4.7995">
        <ele>519</ele>
        <time>2015-01-11T09:29:51Z</time>
      </trkpt>
      <trkpt lat="45.83012" lon="4.79949">
        <ele>519</ele>
        <time>2015-01-11T09:29:52Z</time>
      </trkpt>
      <trkpt lat="45.83017" lon="4.7995">
        <ele>519</ele>
        <time>2015-01-11T09:29:56Z</time>
      </trkpt>
      <trkpt lat="45.8302" lon="4.79951">
        <ele>519</ele>
        <time>2015-01-11T09:29:59Z</time>
      </trkpt>
      <trkpt lat="45.8302" lon="4.79951">
        <ele>519</ele>
        <time>2015-01-11T09:30:00Z</time>
      </trkpt>
      <trkpt lat="45.83022" lon="4.79951">
        <ele>519</ele>
        <time>2015-01-11T09:30:02Z</time>
      </trkpt>
      <trkpt lat="45.83025" lon="4.79951">
        <ele>519</ele>
        <time>2015-01-11T09:30:05Z</time>
      </trkpt>
      <trkpt lat="45.83028" lon="4.7995">
        <ele>519</ele>
        <time>2015-01-11T09:30:07Z</time>
      </trkpt>
      <trkpt lat="45.8303" lon="4.7995">
        <ele>519</ele>
        <time>2015-01-11T09:30:09Z</time>
      </trkpt>
      <trkpt lat="45.83035" lon="4.7995">
        <ele>520</ele>
        <time>2015-01-11T09:30:11Z</time>
      </trkpt>
      <trkpt lat="45.83044" lon="4.79949">
        <ele>520</ele>
        <time>2015-01-11T09:30:14Z</time>
      </trkpt>
      <trkpt lat="45.83047" lon="4.79948">
        <ele>520</ele>
        <time>2015-01-11T09:30:15Z</time>
      </trkpt>
      <trkpt lat="45.8305" lon="4.79947">
        <ele>520</ele>
        <time>2015-01-11T09:30:16Z</time>
      </trkpt>
      <trkpt lat="45.83061" lon="4.79944">
        <ele>520</ele>
        <time>2015-01-11T09:30:21Z</time>
      </trkpt>
      <trkpt lat="45.83064" lon="4.79944">
        <ele>520</ele>
        <time>2015-01-11T09:30:22Z</time>
      </trkpt>
      <trkpt lat="45.83075" lon="4.7994">
        <ele>520</ele>
        <time>2015-01-11T09:30:27Z</time>
      </trkpt>
      <trkpt lat="45.83083" lon="4.79936">
        <ele>520</ele>
        <time>2015-01-11T09:30:31Z</time>
      </trkpt>
      <trkpt lat="45.83088" lon="4.79935">
        <ele>520</ele>
        <time>2015-01-11T09:30:33Z</time>
      </trkpt>
      <trkpt lat="45.831" lon="4.79931">
        <ele>520</ele>
        <time>2015-01-11T09:30:38Z</time>
      </trkpt>
      <trkpt lat="45.83102" lon="4.79931">
        <ele>520</ele>
        <time>2015-01-11T09:30:39Z</time>
      </trkpt>
      <trkpt lat="45.83109" lon="4.79932">
        <ele>520</ele>
        <time>2015-01-11T09:30:42Z</time>
      </trkpt>
      <trkpt lat="45.83117" lon="4.79933">
        <ele>520</ele>
        <time>2015-01-11T09:30:46Z</time>
      </trkpt>
      <trkpt lat="45.83121" lon="4.79934">
        <ele>520</ele>
        <time>2015-01-11T09:30:48Z</time>
      </trkpt>
      <trkpt lat="45.83122" lon="4.79935">
        <ele>520</ele>
        <time>2015-01-11T09:30:49Z</time>
      </trkpt>
      <trkpt lat="45.83124" lon="4.79935">
        <ele>520</ele>
        <time>2015-01-11T09:30:50Z</time>
      </trkpt>
      <trkpt lat="45.83128" lon="4.79933">
        <ele>520</ele>
        <time>2015-01-11T09:30:53Z</time>
      </trkpt>
      <trkpt lat="45.8313" lon="4.79933">
        <ele>520</ele>
        <time>2015-01-11T09:30:54Z</time>
      </trkpt>
      <trkpt lat="45.83134" lon="4.79933">
        <ele>519</ele>
        <time>2015-01-11T09:30:56Z</time>
      </trkpt>
      <trkpt lat="45.83138" lon="4.79931">
        <ele>519</ele>
        <time>2015-01-11T09:30:58Z</time>
      </trkpt>
      <trkpt lat="45.83144" lon="4.79933">
        <ele>519</ele>
        <time>2015-01-11T09:31:02Z</time>
      </trkpt>
      <trkpt lat="45.83157" lon="4.79939">
        <ele>519</ele>
        <time>2015-01-11T09:31:08Z</time>
      </trkpt>
      <trkpt lat="45.8316" lon="4.79941">
        <ele>519</ele>
        <time>2015-01-11T09:31:10Z</time>
      </trkpt>
      <trkpt lat="45.83166" lon="4.79942">
        <ele>519</ele>
        <time>2015-01-11T09:31:14Z</time>
      </trkpt>
      <trkpt lat="45.83174" lon="4.79947">
        <ele>513</ele>
        <time>2015-01-11T09:31:19Z</time>
      </trkpt>
      <trkpt lat="45.83177" lon="4.7995">
        <ele>513</ele>
        <time>2015-01-11T09:31:21Z</time>
      </trkpt>
      <trkpt lat="45.83179" lon="4.79954">
        <ele>513</ele>
        <time>2015-01-11T09:31:23Z</time>
      </trkpt>
      <trkpt lat="45.83181" lon="4.79963">
        <ele>513</ele>
        <time>2015-01-11T09:31:26Z</time>
      </trkpt>
      <trkpt lat="45.83184" lon="4.79965">
        <ele>513</ele>
        <time>2015-01-11T09:31:28Z</time>
      </trkpt>
      <trkpt lat="45.83186" lon="4.79965">
        <ele>513</ele>
        <time>2015-01-11T09:31:29Z</time>
      </trkpt>
      <trkpt lat="45.83188" lon="4.79964">
        <ele>513</ele>
        <time>2015-01-11T09:31:30Z</time>
      </trkpt>
      <trkpt lat="45.83203" lon="4.79963">
        <ele>511</ele>
        <time>2015-01-11T09:31:35Z</time>
      </trkpt>
      <trkpt lat="45.83206" lon="4.79964">
        <ele>511</ele>
        <time>2015-01-11T09:31:36Z</time>
      </trkpt>
      <trkpt lat="45.83218" lon="4.79968">
        <ele>510</ele>
        <time>2015-01-11T09:31:40Z</time>
      </trkpt>
      <trkpt lat="45.83224" lon="4.79972">
        <ele>509</ele>
        <time>2015-01-11T09:31:43Z</time>
      </trkpt>
      <trkpt lat="45.83229" lon="4.79977">
        <ele>509</ele>
        <time>2015-01-11T09:31:45Z</time>
      </trkpt>
      <trkpt lat="45.83232" lon="4.79987">
        <ele>508</ele>
        <time>2015-01-11T09:31:49Z</time>
      </trkpt>
      <trkpt lat="45.83237" lon="4.79992">
        <ele>507</ele>
        <time>2015-01-11T09:31:53Z</time>
      </trkpt>
      <trkpt lat="45.83238" lon="4.79992">
        <ele>507</ele>
        <time>2015-01-11T09:31:54Z</time>
      </trkpt>
      <trkpt lat="45.83251" lon="4.79988">
        <ele>503</ele>
        <time>2015-01-11T09:31:59Z</time>
      </trkpt>
      <trkpt lat="45.83255" lon="4.79986">
        <ele>503</ele>
        <time>2015-01-11T09:32:01Z</time>
      </trkpt>
      <trkpt lat="45.83257" lon="4.79985">
        <ele>503</ele>
        <time>2015-01-11T09:32:02Z</time>
      </trkpt>
      <trkpt lat="45.83259" lon="4.79983">
        <ele>502</ele>
        <time>2015-01-11T09:32:03Z</time>
      </trkpt>
      <trkpt lat="45.83269" lon="4.79978">
        <ele>502</ele>
        <time>2015-01-11T09:32:08Z</time>
      </trkpt>
      <trkpt lat="45.8327" lon="4.79976">
        <ele>502</ele>
        <time>2015-01-11T09:32:09Z</time>
      </trkpt>
      <trkpt lat="45.83272" lon="4.79974">
        <ele>502</ele>
        <time>2015-01-11T09:32:10Z</time>
      </trkpt>
      <trkpt lat="45.83277" lon="4.79975">
        <ele>502</ele>
        <time>2015-01-11T09:32:12Z</time>
      </trkpt>
      <trkpt lat="45.83281" lon="4.79973">
        <ele>502</ele>
        <time>2015-01-11T09:32:15Z</time>
      </trkpt>
      <trkpt lat="45.83282" lon="4.79973">
        <ele>502</ele>
        <time>2015-01-11T09:32:16Z</time>
      </trkpt>
      <trkpt lat="45.83289" lon="4.79974">
        <ele>502</ele>
        <time>2015-01-11T09:32:20Z</time>
      </trkpt>
      <trkpt lat="45.83292" lon="4.79973">
        <ele>502</ele>
        <time>2015-01-11T09:32:21Z</time>
      </trkpt>
      <trkpt lat="45.83301" lon="4.79969">
        <ele>502</ele>
        <time>2015-01-11T09:32:26Z</time>
      </trkpt>
      <trkpt lat="45.83306" lon="4.79972">
        <ele>501</ele>
        <time>2015-01-11T09:32:28Z</time>
      </trkpt>
      <trkpt lat="45.83311" lon="4.79972">
        <ele>501</ele>
        <time>2015-01-11T09:32:30Z</time>
      </trkpt>
      <trkpt lat="45.83317" lon="4.7997">
        <ele>501</ele>
        <time>2015-01-11T09:32:33Z</time>
      </trkpt>
      <trkpt lat="45.83325" lon="4.79968">
        <ele>501</ele>
        <time>2015-01-11T09:32:36Z</time>
      </trkpt>
      <trkpt lat="45.83343" lon="4.79963">
        <ele>500</ele>
        <time>2015-01-11T09:32:43Z</time>
      </trkpt>
      <trkpt lat="45.83346" lon="4.79962">
        <ele>500</ele>
        <time>2015-01-11T09:32:44Z</time>
      </trkpt>
      <trkpt lat="45.83359" lon="4.79958">
        <ele>500</ele>
        <time>2015-01-11T09:32:50Z</time>
      </trkpt>
      <trkpt lat="45.83361" lon="4.79957">
        <ele>500</ele>
        <time>2015-01-11T09:32:51Z</time>
      </trkpt>
      <trkpt lat="45.83379" lon="4.79948">
        <ele>500</ele>
        <time>2015-01-11T09:32:59Z</time>
      </trkpt>
      <trkpt lat="45.83393" lon="4.79941">
        <ele>501</ele>
        <time>2015-01-11T09:33:05Z</time>
      </trkpt>
      <trkpt lat="45.83398" lon="4.7994">
        <ele>501</ele>
        <time>2015-01-11T09:33:07Z</time>
      </trkpt>
      <trkpt lat="45.83405" lon="4.79938">
        <ele>501</ele>
        <time>2015-01-11T09:33:10Z</time>
      </trkpt>
      <trkpt lat="45.83416" lon="4.79935">
        <ele>501</ele>
        <time>2015-01-11T09:33:15Z</time>
      </trkpt>
      <trkpt lat="45.8342" lon="4.79933">
        <ele>503</ele>
        <time>2015-01-11T09:33:17Z</time>
      </trkpt>
      <trkpt lat="45.83435" lon="4.79924">
        <ele>503</ele>
        <time>2015-01-11T09:33:24Z</time>
      </trkpt>
      <trkpt lat="45.83446" lon="4.79917">
        <ele>504</ele>
        <time>2015-01-11T09:33:30Z</time>
      </trkpt>
      <trkpt lat="45.83449" lon="4.7991">
        <ele>501</ele>
        <time>2015-01-11T09:33:34Z</time>
      </trkpt>
      <trkpt lat="45.83449" lon="4.79908">
        <ele>501</ele>
        <time>2015-01-11T09:33:35Z</time>
      </trkpt>
      <trkpt lat="45.8345" lon="4.79907">
        <ele>501</ele>
        <time>2015-01-11T09:33:36Z</time>
      </trkpt>
      <trkpt lat="45.83451" lon="4.79905">
        <ele>501</ele>
        <time>2015-01-11T09:33:38Z</time>
      </trkpt>
      <trkpt lat="45.83449" lon="4.79911">
        <ele>501</ele>
        <time>2015-01-11T09:33:57Z</time>
      </trkpt>
      <trkpt lat="45.8345" lon="4.79917">
        <ele>504</ele>
        <time>2015-01-11T09:34:03Z</time>
      </trkpt>
      <trkpt lat="45.83451" lon="4.7992">
        <ele>504</ele>
        <time>2015-01-11T09:34:10Z</time>
      </trkpt>
      <trkpt lat="45.83451" lon="4.79914">
        <ele>501</ele>
        <time>2015-01-11T09:34:26Z</time>
      </trkpt>
      <trkpt lat="45.83451" lon="4.79912">
        <ele>501</ele>
        <time>2015-01-11T09:34:33Z</time>
      </trkpt>
      <trkpt lat="45.83453" lon="4.79908">
        <ele>501</ele>
        <time>2015-01-11T09:34:36Z</time>
      </trkpt>
      <trkpt lat="45.83454" lon="4.79907">
        <ele>501</ele>
        <time>2015-01-11T09:34:37Z</time>
      </trkpt>
      <trkpt lat="45.83462" lon="4.79895">
        <ele>500</ele>
        <time>2015-01-11T09:34:42Z</time>
      </trkpt>
      <trkpt lat="45.83467" lon="4.79876">
        <ele>499</ele>
        <time>2015-01-11T09:34:47Z</time>
      </trkpt>
      <trkpt lat="45.83469" lon="4.79869">
        <ele>499</ele>
        <time>2015-01-11T09:34:49Z</time>
      </trkpt>
      <trkpt lat="45.83471" lon="4.79852">
        <ele>498</ele>
        <time>2015-01-11T09:34:53Z</time>
      </trkpt>
      <trkpt lat="45.83472" lon="4.79843">
        <ele>497</ele>
        <time>2015-01-11T09:34:55Z</time>
      </trkpt>
      <trkpt lat="45.83474" lon="4.79829">
        <ele>489</ele>
        <time>2015-01-11T09:34:58Z</time>
      </trkpt>
      <trkpt lat="45.83476" lon="4.79819">
        <ele>489</ele>
        <time>2015-01-11T09:35:00Z</time>
      </trkpt>
      <trkpt lat="45.83479" lon="4.7981">
        <ele>488</ele>
        <time>2015-01-11T09:35:02Z</time>
      </trkpt>
      <trkpt lat="45.83488" lon="4.79796">
        <ele>487</ele>
        <time>2015-01-11T09:35:05Z</time>
      </trkpt>
      <trkpt lat="45.8349" lon="4.79792">
        <ele>486</ele>
        <time>2015-01-11T09:35:06Z</time>
      </trkpt>
      <trkpt lat="45.83494" lon="4.7978">
        <ele>485</ele>
        <time>2015-01-11T09:35:10Z</time>
      </trkpt>
      <trkpt lat="45.83494" lon="4.79769">
        <ele>484</ele>
        <time>2015-01-11T09:35:13Z</time>
      </trkpt>
      <trkpt lat="45.83492" lon="4.79763">
        <ele>483</ele>
        <time>2015-01-11T09:35:15Z</time>
      </trkpt>
      <trkpt lat="45.83485" lon="4.79744">
        <ele>478</ele>
        <time>2015-01-11T09:35:20Z</time>
      </trkpt>
      <trkpt lat="45.83481" lon="4.79723">
        <ele>476</ele>
        <time>2015-01-11T09:35:25Z</time>
      </trkpt>
      <trkpt lat="45.83481" lon="4.79719">
        <ele>476</ele>
        <time>2015-01-11T09:35:26Z</time>
      </trkpt>
      <trkpt lat="45.83481" lon="4.79701">
        <ele>475</ele>
        <time>2015-01-11T09:35:30Z</time>
      </trkpt>
      <trkpt lat="45.83482" lon="4.79693">
        <ele>475</ele>
        <time>2015-01-11T09:35:32Z</time>
      </trkpt>
      <trkpt lat="45.83483" lon="4.79689">
        <ele>475</ele>
        <time>2015-01-11T09:35:33Z</time>
      </trkpt>
      <trkpt lat="45.83483" lon="4.79685">
        <ele>475</ele>
        <time>2015-01-11T09:35:34Z</time>
      </trkpt>
      <trkpt lat="45.83483" lon="4.79671">
        <ele>475</ele>
        <time>2015-01-11T09:35:37Z</time>
      </trkpt>
      <trkpt lat="45.83482" lon="4.79667">
        <ele>475</ele>
        <time>2015-01-11T09:35:38Z</time>
      </trkpt>
      <trkpt lat="45.83482" lon="4.79662">
        <ele>474</ele>
        <time>2015-01-11T09:35:39Z</time>
      </trkpt>
      <trkpt lat="45.83482" lon="4.7964">
        <ele>473</ele>
        <time>2015-01-11T09:35:44Z</time>
      </trkpt>
      <trkpt lat="45.83481" lon="4.7962">
        <ele>473</ele>
        <time>2015-01-11T09:35:48Z</time>
      </trkpt>
      <trkpt lat="45.8348" lon="4.79612">
        <ele>473</ele>
        <time>2015-01-11T09:35:50Z</time>
      </trkpt>
      <trkpt lat="45.83478" lon="4.79609">
        <ele>473</ele>
        <time>2015-01-11T09:35:51Z</time>
      </trkpt>
      <trkpt lat="45.83475" lon="4.79604">
        <ele>473</ele>
        <time>2015-01-11T09:35:53Z</time>
      </trkpt>
      <trkpt lat="45.83473" lon="4.79588">
        <ele>473</ele>
        <time>2015-01-11T09:35:58Z</time>
      </trkpt>
      <trkpt lat="45.83472" lon="4.79585">
        <ele>473</ele>
        <time>2015-01-11T09:35:59Z</time>
      </trkpt>
      <trkpt lat="45.83467" lon="4.79563">
        <ele>473</ele>
        <time>2015-01-11T09:36:06Z</time>
      </trkpt>
      <trkpt lat="45.83462" lon="4.79544">
        <ele>473</ele>
        <time>2015-01-11T09:36:12Z</time>
      </trkpt>
      <trkpt lat="45.8346" lon="4.79538">
        <ele>473</ele>
        <time>2015-01-11T09:36:14Z</time>
      </trkpt>
      <trkpt lat="45.83455" lon="4.79531">
        <ele>473</ele>
        <time>2015-01-11T09:36:17Z</time>
      </trkpt>
      <trkpt lat="45.83443" lon="4.79528">
        <ele>473</ele>
        <time>2015-01-11T09:36:22Z</time>
      </trkpt>
      <trkpt lat="45.83428" lon="4.79524">
        <ele>473</ele>
        <time>2015-01-11T09:36:28Z</time>
      </trkpt>
      <trkpt lat="45.83425" lon="4.79523">
        <ele>473</ele>
        <time>2015-01-11T09:36:29Z</time>
      </trkpt>
      <trkpt lat="45.83415" lon="4.79523">
        <ele>471</ele>
        <time>2015-01-11T09:36:33Z</time>
      </trkpt>
      <trkpt lat="45.83412" lon="4.79522">
        <ele>471</ele>
        <time>2015-01-11T09:36:34Z</time>
      </trkpt>
      <trkpt lat="45.83405" lon="4.79523">
        <ele>471</ele>
        <time>2015-01-11T09:36:37Z</time>
      </trkpt>
      <trkpt lat="45.83402" lon="4.79523">
        <ele>470</ele>
        <time>2015-01-11T09:36:38Z</time>
      </trkpt>
      <trkpt lat="45.83391" lon="4.79525">
        <ele>470</ele>
        <time>2015-01-11T09:36:43Z</time>
      </trkpt>
      <trkpt lat="45.83389" lon="4.79525">
        <ele>470</ele>
        <time>2015-01-11T09:36:44Z</time>
      </trkpt>
      <trkpt lat="45.83386" lon="4.79523">
        <ele>470</ele>
        <time>2015-01-11T09:36:46Z</time>
      </trkpt>
      <trkpt lat="45.83384" lon="4.79522">
        <ele>470</ele>
        <time>2015-01-11T09:36:47Z</time>
      </trkpt>
      <trkpt lat="45.83382" lon="4.79519">
        <ele>470</ele>
        <time>2015-01-11T09:36:51Z</time>
      </trkpt>
      <trkpt lat="45.83382" lon="4.79518">
        <ele>470</ele>
        <time>2015-01-11T09:36:52Z</time>
      </trkpt>
      <trkpt lat="45.8338" lon="4.79514">
        <ele>470</ele>
        <time>2015-01-11T09:36:56Z</time>
      </trkpt>
      <trkpt lat="45.83379" lon="4.79512">
        <ele>470</ele>
        <time>2015-01-11T09:36:57Z</time>
      </trkpt>
      <trkpt lat="45.83374" lon="4.79504">
        <ele>470</ele>
        <time>2015-01-11T09:37:03Z</time>
      </trkpt>
      <trkpt lat="45.83372" lon="4.79502">
        <ele>470</ele>
        <time>2015-01-11T09:37:05Z</time>
      </trkpt>
      <trkpt lat="45.83369" lon="4.79495">
        <ele>473</ele>
        <time>2015-01-11T09:37:11Z</time>
      </trkpt>
      <trkpt lat="45.83368" lon="4.79485">
        <ele>473</ele>
        <time>2015-01-11T09:37:17Z</time>
      </trkpt>
      <trkpt lat="45.83368" lon="4.7948">
        <ele>473</ele>
        <time>2015-01-11T09:37:21Z</time>
      </trkpt>
      <trkpt lat="45.83369" lon="4.79474">
        <ele>473</ele>
        <time>2015-01-11T09:37:24Z</time>
      </trkpt>
      <trkpt lat="45.83368" lon="4.79461">
        <ele>474</ele>
        <time>2015-01-11T09:37:31Z</time>
      </trkpt>
      <trkpt lat="45.83366" lon="4.79453">
        <ele>474</ele>
        <time>2015-01-11T09:37:35Z</time>
      </trkpt>
      <trkpt lat="45.83365" lon="4.79449">
        <ele>474</ele>
        <time>2015-01-11T09:37:37Z</time>
      </trkpt>
      <trkpt lat="45.83364" lon="4.79447">
        <ele>474</ele>
        <time>2015-01-11T09:37:38Z</time>
      </trkpt>
      <trkpt lat="45.83358" lon="4.79439">
        <ele>474</ele>
        <time>2015-01-11T09:37:44Z</time>
      </trkpt>
      <trkpt lat="45.83354" lon="4.79433">
        <ele>475</ele>
        <time>2015-01-11T09:37:48Z</time>
      </trkpt>
      <trkpt lat="45.83349" lon="4.79426">
        <ele>475</ele>
        <time>2015-01-11T09:37:53Z</time>
      </trkpt>
      <trkpt lat="45.8334" lon="4.79417">
        <ele>475</ele>
        <time>2015-01-11T09:38:01Z</time>
      </trkpt>
      <trkpt lat="45.83339" lon="4.79416">
        <ele>477</ele>
        <time>2015-01-11T09:38:02Z</time>
      </trkpt>
      <trkpt lat="45.83331" lon="4.7941">
        <ele>477</ele>
        <time>2015-01-11T09:38:08Z</time>
      </trkpt>
      <trkpt lat="45.83322" lon="4.79406">
        <ele>477</ele>
        <time>2015-01-11T09:38:15Z</time>
      </trkpt>
      <trkpt lat="45.83318" lon="4.79404">
        <ele>477</ele>
        <time>2015-01-11T09:38:18Z</time>
      </trkpt>
      <trkpt lat="45.8331" lon="4.79401">
        <ele>478</ele>
        <time>2015-01-11T09:38:23Z</time>
      </trkpt>
      <trkpt lat="45.83304" lon="4.79398">
        <ele>478</ele>
        <time>2015-01-11T09:38:27Z</time>
      </trkpt>
      <trkpt lat="45.83299" lon="4.79395">
        <ele>478</ele>
        <time>2015-01-11T09:38:31Z</time>
      </trkpt>
      <trkpt lat="45.83288" lon="4.79391">
        <ele>478</ele>
        <time>2015-01-11T09:38:38Z</time>
      </trkpt>
      <trkpt lat="45.83286" lon="4.7939">
        <ele>478</ele>
        <time>2015-01-11T09:38:39Z</time>
      </trkpt>
      <trkpt lat="45.8328" lon="4.79384">
        <ele>478</ele>
        <time>2015-01-11T09:38:44Z</time>
      </trkpt>
      <trkpt lat="45.83279" lon="4.79383">
        <ele>478</ele>
        <time>2015-01-11T09:38:48Z</time>
      </trkpt>
      <trkpt lat="45.83276" lon="4.79381">
        <ele>478</ele>
        <time>2015-01-11T09:38:54Z</time>
      </trkpt>
      <trkpt lat="45.83275" lon="4.79377">
        <ele>478</ele>
        <time>2015-01-11T09:39:00Z</time>
      </trkpt>
      <trkpt lat="45.83277" lon="4.79376">
        <ele>478</ele>
        <time>2015-01-11T09:39:07Z</time>
      </trkpt>
      <trkpt lat="45.83278" lon="4.79377">
        <ele>478</ele>
        <time>2015-01-11T09:39:14Z</time>
      </trkpt>
      <trkpt lat="45.83276" lon="4.79379">
        <ele>478</ele>
        <time>2015-01-11T09:39:19Z</time>
      </trkpt>
      <trkpt lat="45.83275" lon="4.79378">
        <ele>478</ele>
        <time>2015-01-11T09:40:00Z</time>
      </trkpt>
      <trkpt lat="45.83278" lon="4.79371">
        <ele>479</ele>
        <time>2015-01-11T09:40:41Z</time>
      </trkpt>
      <trkpt lat="45.83279" lon="4.79369">
        <ele>479</ele>
        <time>2015-01-11T09:40:42Z</time>
      </trkpt>
      <trkpt lat="45.83278" lon="4.79366">
        <ele>479</ele>
        <time>2015-01-11T09:40:44Z</time>
      </trkpt>
      <trkpt lat="45.83277" lon="4.79364">
        <ele>479</ele>
        <time>2015-01-11T09:40:45Z</time>
      </trkpt>
      <trkpt lat="45.83273" lon="4.79353">
        <ele>480</ele>
        <time>2015-01-11T09:40:49Z</time>
      </trkpt>
      <trkpt lat="45.83271" lon="4.79352">
        <ele>480</ele>
        <time>2015-01-11T09:40:50Z</time>
      </trkpt>
      <trkpt lat="45.83269" lon="4.79349">
        <ele>480</ele>
        <time>2015-01-11T09:40:51Z</time>
      </trkpt>
      <trkpt lat="45.83264" lon="4.79345">
        <ele>480</ele>
        <time>2015-01-11T09:40:53Z</time>
      </trkpt>
      <trkpt lat="45.83255" lon="4.79334">
        <ele>481</ele>
        <time>2015-01-11T09:40:58Z</time>
      </trkpt>
      <trkpt lat="45.83254" lon="4.79331">
        <ele>483</ele>
        <time>2015-01-11T09:40:59Z</time>
      </trkpt>
      <trkpt lat="45.83252" lon="4.79324">
        <ele>484</ele>
        <time>2015-01-11T09:41:02Z</time>
      </trkpt>
      <trkpt lat="45.8325" lon="4.79323">
        <ele>484</ele>
        <time>2015-01-11T09:41:03Z</time>
      </trkpt>
      <trkpt lat="45.83243" lon="4.79318">
        <ele>484</ele>
        <time>2015-01-11T09:41:07Z</time>
      </trkpt>
      <trkpt lat="45.83237" lon="4.79316">
        <ele>484</ele>
        <time>2015-01-11T09:41:09Z</time>
      </trkpt>
      <trkpt lat="45.83223" lon="4.79312">
        <ele>484</ele>
        <time>2015-01-11T09:41:14Z</time>
      </trkpt>
      <trkpt lat="45.83221" lon="4.79312">
        <ele>484</ele>
        <time>2015-01-11T09:41:15Z</time>
      </trkpt>
      <trkpt lat="45.83206" lon="4.79307">
        <ele>484</ele>
        <time>2015-01-11T09:41:21Z</time>
      </trkpt>
      <trkpt lat="45.83203" lon="4.79306">
        <ele>484</ele>
        <time>2015-01-11T09:41:22Z</time>
      </trkpt>
      <trkpt lat="45.83192" lon="4.79303">
        <ele>484</ele>
        <time>2015-01-11T09:41:26Z</time>
      </trkpt>
      <trkpt lat="45.83184" lon="4.79301">
        <ele>483</ele>
        <time>2015-01-11T09:41:29Z</time>
      </trkpt>
      <trkpt lat="45.8318" lon="4.793">
        <ele>483</ele>
        <time>2015-01-11T09:41:31Z</time>
      </trkpt>
      <trkpt lat="45.8317" lon="4.79297">
        <ele>484</ele>
        <time>2015-01-11T09:41:35Z</time>
      </trkpt>
      <trkpt lat="45.83165" lon="4.79296">
        <ele>481</ele>
        <time>2015-01-11T09:41:37Z</time>
      </trkpt>
      <trkpt lat="45.83161" lon="4.79292">
        <ele>481</ele>
        <time>2015-01-11T09:41:39Z</time>
      </trkpt>
      <trkpt lat="45.83163" lon="4.79288">
        <ele>482</ele>
        <time>2015-01-11T09:41:42Z</time>
      </trkpt>
      <trkpt lat="45.83171" lon="4.79287">
        <ele>485</ele>
        <time>2015-01-11T09:41:46Z</time>
      </trkpt>
      <trkpt lat="45.83173" lon="4.79287">
        <ele>485</ele>
        <time>2015-01-11T09:41:47Z</time>
      </trkpt>
      <trkpt lat="45.83179" lon="4.79285">
        <ele>485</ele>
        <time>2015-01-11T09:41:50Z</time>
      </trkpt>
      <trkpt lat="45.83182" lon="4.79284">
        <ele>485</ele>
        <time>2015-01-11T09:41:52Z</time>
      </trkpt>
      <trkpt lat="45.83186" lon="4.79284">
        <ele>485</ele>
        <time>2015-01-11T09:41:54Z</time>
      </trkpt>
      <trkpt lat="45.8319" lon="4.79281">
        <ele>486</ele>
        <time>2015-01-11T09:41:56Z</time>
      </trkpt>
      <trkpt lat="45.83192" lon="4.7928">
        <ele>486</ele>
        <time>2015-01-11T09:41:57Z</time>
      </trkpt>
      <trkpt lat="45.83207" lon="4.79275">
        <ele>486</ele>
        <time>2015-01-11T09:42:04Z</time>
      </trkpt>
      <trkpt lat="45.83209" lon="4.79273">
        <ele>486</ele>
        <time>2015-01-11T09:42:05Z</time>
      </trkpt>
      <trkpt lat="45.83215" lon="4.79271">
        <ele>487</ele>
        <time>2015-01-11T09:42:08Z</time>
      </trkpt>
      <trkpt lat="45.83223" lon="4.79262">
        <ele>487</ele>
        <time>2015-01-11T09:42:14Z</time>
      </trkpt>
      <trkpt lat="45.83226" lon="4.79259">
        <ele>488</ele>
        <time>2015-01-11T09:42:16Z</time>
      </trkpt>
      <trkpt lat="45.83232" lon="4.79252">
        <ele>489</ele>
        <time>2015-01-11T09:42:20Z</time>
      </trkpt>
      <trkpt lat="45.83243" lon="4.79244">
        <ele>493</ele>
        <time>2015-01-11T09:42:26Z</time>
      </trkpt>
      <trkpt lat="45.83244" lon="4.79243">
        <ele>493</ele>
        <time>2015-01-11T09:42:27Z</time>
      </trkpt>
      <trkpt lat="45.83253" lon="4.79242">
        <ele>494</ele>
        <time>2015-01-11T09:42:32Z</time>
      </trkpt>
      <trkpt lat="45.83261" lon="4.7924">
        <ele>495</ele>
        <time>2015-01-11T09:42:36Z</time>
      </trkpt>
      <trkpt lat="45.83265" lon="4.79238">
        <ele>495</ele>
        <time>2015-01-11T09:42:38Z</time>
      </trkpt>
      <trkpt lat="45.83277" lon="4.79236">
        <ele>496</ele>
        <time>2015-01-11T09:42:44Z</time>
      </trkpt>
      <trkpt lat="45.8328" lon="4.79235">
        <ele>497</ele>
        <time>2015-01-11T09:42:45Z</time>
      </trkpt>
      <trkpt lat="45.83289" lon="4.79234">
        <ele>497</ele>
        <time>2015-01-11T09:42:49Z</time>
      </trkpt>
      <trkpt lat="45.83299" lon="4.79231">
        <ele>497</ele>
        <time>2015-01-11T09:42:54Z</time>
      </trkpt>
      <trkpt lat="45.83301" lon="4.7923">
        <ele>497</ele>
        <time>2015-01-11T09:42:55Z</time>
      </trkpt>
      <trkpt lat="45.8331" lon="4.79229">
        <ele>497</ele>
        <time>2015-01-11T09:43:00Z</time>
      </trkpt>
      <trkpt lat="45.83318" lon="4.79226">
        <ele>497</ele>
        <time>2015-01-11T09:43:04Z</time>
      </trkpt>
      <trkpt lat="45.8332" lon="4.79225">
        <ele>497</ele>
        <time>2015-01-11T09:43:05Z</time>
      </trkpt>
      <trkpt lat="45.83322" lon="4.79224">
        <ele>497</ele>
        <time>2015-01-11T09:43:06Z</time>
      </trkpt>
      <trkpt lat="45.83332" lon="4.79215">
        <ele>498</ele>
        <time>2015-01-11T09:43:11Z</time>
      </trkpt>
      <trkpt lat="45.83334" lon="4.79212">
        <ele>499</ele>
        <time>2015-01-11T09:43:12Z</time>
      </trkpt>
      <trkpt lat="45.83341" lon="4.79201">
        <ele>500</ele>
        <time>2015-01-11T09:43:17Z</time>
      </trkpt>
      <trkpt lat="45.83346" lon="4.79191">
        <ele>501</ele>
        <time>2015-01-11T09:43:22Z</time>
      </trkpt>
      <trkpt lat="45.83348" lon="4.79187">
        <ele>501</ele>
        <time>2015-01-11T09:43:24Z</time>
      </trkpt>
      <trkpt lat="45.83356" lon="4.7918">
        <ele>501</ele>
        <time>2015-01-11T09:43:29Z</time>
      </trkpt>
      <trkpt lat="45.83361" lon="4.79178">
        <ele>501</ele>
        <time>2015-01-11T09:43:31Z</time>
      </trkpt>
      <trkpt lat="45.83367" lon="4.79174">
        <ele>501</ele>
        <time>2015-01-11T09:43:34Z</time>
      </trkpt>
      <trkpt lat="45.83369" lon="4.79173">
        <ele>501</ele>
        <time>2015-01-11T09:43:35Z</time>
      </trkpt>
      <trkpt lat="45.83379" lon="4.79167">
        <ele>501</ele>
        <time>2015-01-11T09:43:40Z</time>
      </trkpt>
      <trkpt lat="45.83382" lon="4.79164">
        <ele>508</ele>
        <time>2015-01-11T09:43:42Z</time>
      </trkpt>
      <trkpt lat="45.83393" lon="4.79158">
        <ele>508</ele>
        <time>2015-01-11T09:43:48Z</time>
      </trkpt>
      <trkpt lat="45.83395" lon="4.79157">
        <ele>508</ele>
        <time>2015-01-11T09:43:49Z</time>
      </trkpt>
      <trkpt lat="45.83404" lon="4.79153">
        <ele>508</ele>
        <time>2015-01-11T09:43:53Z</time>
      </trkpt>
      <trkpt lat="45.83412" lon="4.79149">
        <ele>508</ele>
        <time>2015-01-11T09:43:58Z</time>
      </trkpt>
      <trkpt lat="45.83414" lon="4.79148">
        <ele>508</ele>
        <time>2015-01-11T09:43:59Z</time>
      </trkpt>
      <trkpt lat="45.83421" lon="4.79146">
        <ele>509</ele>
        <time>2015-01-11T09:44:03Z</time>
      </trkpt>
      <trkpt lat="45.83432" lon="4.79141">
        <ele>510</ele>
        <time>2015-01-11T09:44:09Z</time>
      </trkpt>
      <trkpt lat="45.83442" lon="4.79137">
        <ele>511</ele>
        <time>2015-01-11T09:44:14Z</time>
      </trkpt>
      <trkpt lat="45.83451" lon="4.79133">
        <ele>511</ele>
        <time>2015-01-11T09:44:18Z</time>
      </trkpt>
      <trkpt lat="45.83455" lon="4.79131">
        <ele>512</ele>
        <time>2015-01-11T09:44:20Z</time>
      </trkpt>
      <trkpt lat="45.83465" lon="4.79126">
        <ele>512</ele>
        <time>2015-01-11T09:44:25Z</time>
      </trkpt>
      <trkpt lat="45.83468" lon="4.79124">
        <ele>512</ele>
        <time>2015-01-11T09:44:27Z</time>
      </trkpt>
      <trkpt lat="45.83477" lon="4.79122">
        <ele>513</ele>
        <time>2015-01-11T09:44:31Z</time>
      </trkpt>
      <trkpt lat="45.83487" lon="4.7912">
        <ele>513</ele>
        <time>2015-01-11T09:44:36Z</time>
      </trkpt>
      <trkpt lat="45.83501" lon="4.7912">
        <ele>514</ele>
        <time>2015-01-11T09:44:42Z</time>
      </trkpt>
      <trkpt lat="45.83506" lon="4.79119">
        <ele>514</ele>
        <time>2015-01-11T09:44:45Z</time>
      </trkpt>
      <trkpt lat="45.83509" lon="4.79116">
        <ele>514</ele>
        <time>2015-01-11T09:44:47Z</time>
      </trkpt>
      <trkpt lat="45.8351" lon="4.79114">
        <ele>514</ele>
        <time>2015-01-11T09:44:48Z</time>
      </trkpt>
      <trkpt lat="45.83514" lon="4.79102">
        <ele>515</ele>
        <time>2015-01-11T09:44:53Z</time>
      </trkpt>
      <trkpt lat="45.83513" lon="4.79097">
        <ele>516</ele>
        <time>2015-01-11T09:44:55Z</time>
      </trkpt>
      <trkpt lat="45.83513" lon="4.79094">
        <ele>516</ele>
        <time>2015-01-11T09:44:56Z</time>
      </trkpt>
      <trkpt lat="45.83514" lon="4.79086">
        <ele>516</ele>
        <time>2015-01-11T09:45:00Z</time>
      </trkpt>
      <trkpt lat="45.83517" lon="4.79075">
        <ele>521</ele>
        <time>2015-01-11T09:45:05Z</time>
      </trkpt>
      <trkpt lat="45.83518" lon="4.79071">
        <ele>521</ele>
        <time>2015-01-11T09:45:07Z</time>
      </trkpt>
      <trkpt lat="45.83519" lon="4.79063">
        <ele>522</ele>
        <time>2015-01-11T09:45:12Z</time>
      </trkpt>
      <trkpt lat="45.8352" lon="4.7906">
        <ele>522</ele>
        <time>2015-01-11T09:45:14Z</time>
      </trkpt>
      <trkpt lat="45.83521" lon="4.79051">
        <ele>523</ele>
        <time>2015-01-11T09:45:19Z</time>
      </trkpt>
      <trkpt lat="45.83522" lon="4.79046">
        <ele>523</ele>
        <time>2015-01-11T09:45:22Z</time>
      </trkpt>
      <trkpt lat="45.83522" lon="4.79037">
        <ele>524</ele>
        <time>2015-01-11T09:45:27Z</time>
      </trkpt>
      <trkpt lat="45.83524" lon="4.79024">
        <ele>524</ele>
        <time>2015-01-11T09:45:34Z</time>
      </trkpt>
      <trkpt lat="45.83523" lon="4.79018">
        <ele>525</ele>
        <time>2015-01-11T09:45:37Z</time>
      </trkpt>
      <trkpt lat="45.83524" lon="4.79015">
        <ele>525</ele>
        <time>2015-01-11T09:45:39Z</time>
      </trkpt>
      <trkpt lat="45.83524" lon="4.79014">
        <ele>525</ele>
        <time>2015-01-11T09:45:40Z</time>
      </trkpt>
      <trkpt lat="45.83524" lon="4.79005">
        <ele>526</ele>
        <time>2015-01-11T09:45:44Z</time>
      </trkpt>
      <trkpt lat="45.83524" lon="4.79001">
        <ele>526</ele>
        <time>2015-01-11T09:45:46Z</time>
      </trkpt>
      <trkpt lat="45.83525" lon="4.78998">
        <ele>531</ele>
        <time>2015-01-11T09:45:48Z</time>
      </trkpt>
      <trkpt lat="45.83526" lon="4.78993">
        <ele>531</ele>
        <time>2015-01-11T09:45:51Z</time>
      </trkpt>
      <trkpt lat="45.83526" lon="4.7899">
        <ele>531</ele>
        <time>2015-01-11T09:45:52Z</time>
      </trkpt>
      <trkpt lat="45.83527" lon="4.78983">
        <ele>532</ele>
        <time>2015-01-11T09:45:56Z</time>
      </trkpt>
      <trkpt lat="45.83528" lon="4.78976">
        <ele>532</ele>
        <time>2015-01-11T09:46:00Z</time>
      </trkpt>
      <trkpt lat="45.83532" lon="4.78965">
        <ele>533</ele>
        <time>2015-01-11T09:46:07Z</time>
      </trkpt>
      <trkpt lat="45.83533" lon="4.78964">
        <ele>533</ele>
        <time>2015-01-11T09:46:08Z</time>
      </trkpt>
      <trkpt lat="45.83535" lon="4.78957">
        <ele>533</ele>
        <time>2015-01-11T09:46:13Z</time>
      </trkpt>
      <trkpt lat="45.83538" lon="4.78946">
        <ele>534</ele>
        <time>2015-01-11T09:46:20Z</time>
      </trkpt>
      <trkpt lat="45.83541" lon="4.78942">
        <ele>534</ele>
        <time>2015-01-11T09:46:24Z</time>
      </trkpt>
      <trkpt lat="45.83543" lon="4.78937">
        <ele>535</ele>
        <time>2015-01-11T09:46:27Z</time>
      </trkpt>
      <trkpt lat="45.8355" lon="4.78929">
        <ele>535</ele>
        <time>2015-01-11T09:46:34Z</time>
      </trkpt>
      <trkpt lat="45.83556" lon="4.78925">
        <ele>535</ele>
        <time>2015-01-11T09:46:38Z</time>
      </trkpt>
      <trkpt lat="45.83557" lon="4.78924">
        <ele>535</ele>
        <time>2015-01-11T09:46:39Z</time>
      </trkpt>
      <trkpt lat="45.83567" lon="4.78914">
        <ele>541</ele>
        <time>2015-01-11T09:46:47Z</time>
      </trkpt>
      <trkpt lat="45.83571" lon="4.7891">
        <ele>541</ele>
        <time>2015-01-11T09:46:51Z</time>
      </trkpt>
      <trkpt lat="45.83575" lon="4.78908">
        <ele>541</ele>
        <time>2015-01-11T09:46:54Z</time>
      </trkpt>
      <trkpt lat="45.83581" lon="4.78902">
        <ele>542</ele>
        <time>2015-01-11T09:47:00Z</time>
      </trkpt>
      <trkpt lat="45.83586" lon="4.78895">
        <ele>543</ele>
        <time>2015-01-11T09:47:06Z</time>
      </trkpt>
      <trkpt lat="45.83588" lon="4.78893">
        <ele>543</ele>
        <time>2015-01-11T09:47:08Z</time>
      </trkpt>
      <trkpt lat="45.83595" lon="4.78885">
        <ele>544</ele>
        <time>2015-01-11T09:47:15Z</time>
      </trkpt>
      <trkpt lat="45.836" lon="4.78878">
        <ele>545</ele>
        <time>2015-01-11T09:47:20Z</time>
      </trkpt>
      <trkpt lat="45.83603" lon="4.78875">
        <ele>545</ele>
        <time>2015-01-11T09:47:23Z</time>
      </trkpt>
      <trkpt lat="45.8361" lon="4.78873">
        <ele>546</ele>
        <time>2015-01-11T09:47:29Z</time>
      </trkpt>
      <trkpt lat="45.83612" lon="4.78872">
        <ele>546</ele>
        <time>2015-01-11T09:47:31Z</time>
      </trkpt>
      <trkpt lat="45.83617" lon="4.78871">
        <ele>546</ele>
        <time>2015-01-11T09:47:35Z</time>
      </trkpt>
      <trkpt lat="45.83619" lon="4.78871">
        <ele>546</ele>
        <time>2015-01-11T09:47:36Z</time>
      </trkpt>
      <trkpt lat="45.83624" lon="4.78869">
        <ele>546</ele>
        <time>2015-01-11T09:47:40Z</time>
      </trkpt>
      <trkpt lat="45.83625" lon="4.78868">
        <ele>546</ele>
        <time>2015-01-11T09:47:41Z</time>
      </trkpt>
      <trkpt lat="45.83633" lon="4.78867">
        <ele>546</ele>
        <time>2015-01-11T09:47:47Z</time>
      </trkpt>
      <trkpt lat="45.83636" lon="4.78867">
        <ele>547</ele>
        <time>2015-01-11T09:47:50Z</time>
      </trkpt>
      <trkpt lat="45.8364" lon="4.78866">
        <ele>547</ele>
        <time>2015-01-11T09:47:53Z</time>
      </trkpt>
      <trkpt lat="45.83645" lon="4.78863">
        <ele>547</ele>
        <time>2015-01-11T09:47:57Z</time>
      </trkpt>
      <trkpt lat="45.83647" lon="4.78861">
        <ele>547</ele>
        <time>2015-01-11T09:47:59Z</time>
      </trkpt>
      <trkpt lat="45.83652" lon="4.78858">
        <ele>548</ele>
        <time>2015-01-11T09:48:04Z</time>
      </trkpt>
      <trkpt lat="45.83653" lon="4.78857">
        <ele>548</ele>
        <time>2015-01-11T09:48:05Z</time>
      </trkpt>
      <trkpt lat="45.83655" lon="4.78857">
        <ele>548</ele>
        <time>2015-01-11T09:48:06Z</time>
      </trkpt>
      <trkpt lat="45.83664" lon="4.78853">
        <ele>549</ele>
        <time>2015-01-11T09:48:13Z</time>
      </trkpt>
      <trkpt lat="45.8367" lon="4.78848">
        <ele>551</ele>
        <time>2015-01-11T09:48:19Z</time>
      </trkpt>
      <trkpt lat="45.83672" lon="4.78847">
        <ele>551</ele>
        <time>2015-01-11T09:48:21Z</time>
      </trkpt>
      <trkpt lat="45.83684" lon="4.7884">
        <ele>551</ele>
        <time>2015-01-11T09:48:26Z</time>
      </trkpt>
      <trkpt lat="45.83687" lon="4.78838">
        <ele>551</ele>
        <time>2015-01-11T09:48:28Z</time>
      </trkpt>
      <trkpt lat="45.83697" lon="4.78834">
        <ele>551</ele>
        <time>2015-01-11T09:48:33Z</time>
      </trkpt>
      <trkpt lat="45.83705" lon="4.78832">
        <ele>559</ele>
        <time>2015-01-11T09:48:37Z</time>
      </trkpt>
      <trkpt lat="45.83709" lon="4.78831">
        <ele>559</ele>
        <time>2015-01-11T09:48:39Z</time>
      </trkpt>
      <trkpt lat="45.83719" lon="4.78829">
        <ele>559</ele>
        <time>2015-01-11T09:48:45Z</time>
      </trkpt>
      <trkpt lat="45.83723" lon="4.78828">
        <ele>559</ele>
        <time>2015-01-11T09:48:48Z</time>
      </trkpt>
      <trkpt lat="45.83727" lon="4.78826">
        <ele>559</ele>
        <time>2015-01-11T09:48:50Z</time>
      </trkpt>
      <trkpt lat="45.83735" lon="4.78821">
        <ele>559</ele>
        <time>2015-01-11T09:48:55Z</time>
      </trkpt>
      <trkpt lat="45.83738" lon="4.7882">
        <ele>559</ele>
        <time>2015-01-11T09:48:57Z</time>
      </trkpt>
      <trkpt lat="45.83741" lon="4.78819">
        <ele>559</ele>
        <time>2015-01-11T09:48:59Z</time>
      </trkpt>
      <trkpt lat="45.83744" lon="4.78817">
        <ele>559</ele>
        <time>2015-01-11T09:49:01Z</time>
      </trkpt>
      <trkpt lat="45.83752" lon="4.78814">
        <ele>561</ele>
        <time>2015-01-11T09:49:06Z</time>
      </trkpt>
      <trkpt lat="45.83758" lon="4.78812">
        <ele>562</ele>
        <time>2015-01-11T09:49:09Z</time>
      </trkpt>
      <trkpt lat="45.8376" lon="4.78811">
        <ele>562</ele>
        <time>2015-01-11T09:49:10Z</time>
      </trkpt>
      <trkpt lat="45.83762" lon="4.78811">
        <ele>562</ele>
        <time>2015-01-11T09:49:11Z</time>
      </trkpt>
      <trkpt lat="45.83768" lon="4.78805">
        <ele>563</ele>
        <time>2015-01-11T09:49:15Z</time>
      </trkpt>
      <trkpt lat="45.83769" lon="4.78803">
        <ele>564</ele>
        <time>2015-01-11T09:49:16Z</time>
      </trkpt>
      <trkpt lat="45.83772" lon="4.78797">
        <ele>564</ele>
        <time>2015-01-11T09:49:19Z</time>
      </trkpt>
      <trkpt lat="45.83773" lon="4.78795">
        <ele>564</ele>
        <time>2015-01-11T09:49:20Z</time>
      </trkpt>
      <trkpt lat="45.83778" lon="4.78787">
        <ele>565</ele>
        <time>2015-01-11T09:49:25Z</time>
      </trkpt>
      <trkpt lat="45.83781" lon="4.78786">
        <ele>565</ele>
        <time>2015-01-11T09:49:27Z</time>
      </trkpt>
      <trkpt lat="45.83788" lon="4.78785">
        <ele>565</ele>
        <time>2015-01-11T09:49:31Z</time>
      </trkpt>
      <trkpt lat="45.83794" lon="4.78785">
        <ele>566</ele>
        <time>2015-01-11T09:49:35Z</time>
      </trkpt>
      <trkpt lat="45.83797" lon="4.78785">
        <ele>566</ele>
        <time>2015-01-11T09:49:37Z</time>
      </trkpt>
      <trkpt lat="45.83808" lon="4.78783">
        <ele>566</ele>
        <time>2015-01-11T09:49:43Z</time>
      </trkpt>
      <trkpt lat="45.83819" lon="4.78778">
        <ele>567</ele>
        <time>2015-01-11T09:49:50Z</time>
      </trkpt>
      <trkpt lat="45.8382" lon="4.78769">
        <ele>568</ele>
        <time>2015-01-11T09:50:07Z</time>
      </trkpt>
      <trkpt lat="45.83818" lon="4.78769">
        <ele>568</ele>
        <time>2015-01-11T09:50:15Z</time>
      </trkpt>
      <trkpt lat="45.83817" lon="4.78772">
        <ele>567</ele>
        <time>2015-01-11T09:50:28Z</time>
      </trkpt>
      <trkpt lat="45.83816" lon="4.78772">
        <ele>567</ele>
        <time>2015-01-11T09:50:30Z</time>
      </trkpt>
      <trkpt lat="45.8381" lon="4.78767">
        <ele>567</ele>
        <time>2015-01-11T09:50:36Z</time>
      </trkpt>
      <trkpt lat="45.83803" lon="4.78759">
        <ele>567</ele>
        <time>2015-01-11T09:50:40Z</time>
      </trkpt>
      <trkpt lat="45.83802" lon="4.78758">
        <ele>567</ele>
        <time>2015-01-11T09:50:41Z</time>
      </trkpt>
      <trkpt lat="45.83793" lon="4.78751">
        <ele>567</ele>
        <time>2015-01-11T09:50:45Z</time>
      </trkpt>
      <trkpt lat="45.83786" lon="4.78747">
        <ele>573</ele>
        <time>2015-01-11T09:50:48Z</time>
      </trkpt>
      <trkpt lat="45.8378" lon="4.78744">
        <ele>573</ele>
        <time>2015-01-11T09:50:51Z</time>
      </trkpt>
      <trkpt lat="45.83768" lon="4.78739">
        <ele>573</ele>
        <time>2015-01-11T09:50:56Z</time>
      </trkpt>
      <trkpt lat="45.83756" lon="4.78734">
        <ele>573</ele>
        <time>2015-01-11T09:51:02Z</time>
      </trkpt>
      <trkpt lat="45.8375" lon="4.78728">
        <ele>572</ele>
        <time>2015-01-11T09:51:05Z</time>
      </trkpt>
      <trkpt lat="45.83745" lon="4.7872">
        <ele>573</ele>
        <time>2015-01-11T09:51:08Z</time>
      </trkpt>
      <trkpt lat="45.83742" lon="4.78707">
        <ele>574</ele>
        <time>2015-01-11T09:51:12Z</time>
      </trkpt>
      <trkpt lat="45.83741" lon="4.78704">
        <ele>574</ele>
        <time>2015-01-11T09:51:13Z</time>
      </trkpt>
      <trkpt lat="45.83736" lon="4.78689">
        <ele>575</ele>
        <time>2015-01-11T09:51:18Z</time>
      </trkpt>
      <trkpt lat="45.83731" lon="4.78682">
        <ele>575</ele>
        <time>2015-01-11T09:51:21Z</time>
      </trkpt>
      <trkpt lat="45.83727" lon="4.78679">
        <ele>575</ele>
        <time>2015-01-11T09:51:23Z</time>
      </trkpt>
      <trkpt lat="45.83725" lon="4.78678">
        <ele>575</ele>
        <time>2015-01-11T09:51:24Z</time>
      </trkpt>
      <trkpt lat="45.83713" lon="4.78681">
        <ele>575</ele>
        <time>2015-01-11T09:51:30Z</time>
      </trkpt>
      <trkpt lat="45.837" lon="4.78688">
        <ele>574</ele>
        <time>2015-01-11T09:51:36Z</time>
      </trkpt>
      <trkpt lat="45.83695" lon="4.78689">
        <ele>574</ele>
        <time>2015-01-11T09:51:38Z</time>
      </trkpt>
      <trkpt lat="45.83685" lon="4.7869">
        <ele>574</ele>
        <time>2015-01-11T09:51:42Z</time>
      </trkpt>
      <trkpt lat="45.83675" lon="4.78693">
        <ele>574</ele>
        <time>2015-01-11T09:51:46Z</time>
      </trkpt>
      <trkpt lat="45.83673" lon="4.78694">
        <ele>574</ele>
        <time>2015-01-11T09:51:47Z</time>
      </trkpt>
      <trkpt lat="45.83661" lon="4.78694">
        <ele>572</ele>
        <time>2015-01-11T09:51:52Z</time>
      </trkpt>
      <trkpt lat="45.83656" lon="4.78695">
        <ele>571</ele>
        <time>2015-01-11T09:51:54Z</time>
      </trkpt>
      <trkpt lat="45.83648" lon="4.78695">
        <ele>571</ele>
        <time>2015-01-11T09:51:57Z</time>
      </trkpt>
      <trkpt lat="45.83634" lon="4.78693">
        <ele>571</ele>
        <time>2015-01-11T09:52:01Z</time>
      </trkpt>
      <trkpt lat="45.83632" lon="4.78692">
        <ele>571</ele>
        <time>2015-01-11T09:52:03Z</time>
      </trkpt>
      <trkpt lat="45.83625" lon="4.78682">
        <ele>571</ele>
        <time>2015-01-11T09:52:06Z</time>
      </trkpt>
      <trkpt lat="45.83624" lon="4.78678">
        <ele>571</ele>
        <time>2015-01-11T09:52:08Z</time>
      </trkpt>
      <trkpt lat="45.83624" lon="4.78675">
        <ele>571</ele>
        <time>2015-01-11T09:52:09Z</time>
      </trkpt>
      <trkpt lat="45.83624" lon="4.7867">
        <ele>571</ele>
        <time>2015-01-11T09:52:10Z</time>
      </trkpt>
      <trkpt lat="45.83627" lon="4.78665">
        <ele>574</ele>
        <time>2015-01-11T09:52:13Z</time>
      </trkpt>
      <trkpt lat="45.83637" lon="4.78658">
        <ele>574</ele>
        <time>2015-01-11T09:52:18Z</time>
      </trkpt>
      <trkpt lat="45.83639" lon="4.78656">
        <ele>574</ele>
        <time>2015-01-11T09:52:19Z</time>
      </trkpt>
      <trkpt lat="45.83655" lon="4.78646">
        <ele>575</ele>
        <time>2015-01-11T09:52:26Z</time>
      </trkpt>
      <trkpt lat="45.83667" lon="4.78639">
        <ele>578</ele>
        <time>2015-01-11T09:52:31Z</time>
      </trkpt>
      <trkpt lat="45.83673" lon="4.78636">
        <ele>578</ele>
        <time>2015-01-11T09:52:37Z</time>
      </trkpt>
      <trkpt lat="45.83674" lon="4.78636">
        <ele>578</ele>
        <time>2015-01-11T09:52:42Z</time>
      </trkpt>
      <trkpt lat="45.83672" lon="4.78638">
        <ele>578</ele>
        <time>2015-01-11T09:52:45Z</time>
      </trkpt>
      <trkpt lat="45.83669" lon="4.7864">
        <ele>578</ele>
        <time>2015-01-11T09:52:48Z</time>
      </trkpt>
      <trkpt lat="45.83665" lon="4.78642">
        <ele>575</ele>
        <time>2015-01-11T09:52:51Z</time>
      </trkpt>
      <trkpt lat="45.83661" lon="4.78643">
        <ele>575</ele>
        <time>2015-01-11T09:52:54Z</time>
      </trkpt>
      <trkpt lat="45.83659" lon="4.78644">
        <ele>575</ele>
        <time>2015-01-11T09:52:56Z</time>
      </trkpt>
      <trkpt lat="45.83657" lon="4.78646">
        <ele>575</ele>
        <time>2015-01-11T09:52:57Z</time>
      </trkpt>
      <trkpt lat="45.83653" lon="4.78648">
        <ele>575</ele>
        <time>2015-01-11T09:53:00Z</time>
      </trkpt>
      <trkpt lat="45.83639" lon="4.78655">
        <ele>574</ele>
        <time>2015-01-11T09:53:06Z</time>
      </trkpt>
      <trkpt lat="45.83625" lon="4.78664">
        <ele>574</ele>
        <time>2015-01-11T09:53:12Z</time>
      </trkpt>
      <trkpt lat="45.83622" lon="4.78662">
        <ele>573</ele>
        <time>2015-01-11T09:53:14Z</time>
      </trkpt>
      <trkpt lat="45.8362" lon="4.7866">
        <ele>573</ele>
        <time>2015-01-11T09:53:16Z</time>
      </trkpt>
      <trkpt lat="45.83621" lon="4.78655">
        <ele>573</ele>
        <time>2015-01-11T09:53:25Z</time>
      </trkpt>
      <trkpt lat="45.83621" lon="4.78655">
        <ele>573</ele>
        <time>2015-01-11T09:53:26Z</time>
      </trkpt>
      <trkpt lat="45.83623" lon="4.7865">
        <ele>573</ele>
        <time>2015-01-11T09:53:27Z</time>
      </trkpt>
      <trkpt lat="45.83626" lon="4.78647">
        <ele>573</ele>
        <time>2015-01-11T09:53:30Z</time>
      </trkpt>
      <trkpt lat="45.83629" lon="4.78645">
        <ele>574</ele>
        <time>2015-01-11T09:53:34Z</time>
      </trkpt>
      <trkpt lat="45.8363" lon="4.78643">
        <ele>574</ele>
        <time>2015-01-11T09:53:35Z</time>
      </trkpt>
      <trkpt lat="45.83631" lon="4.78642">
        <ele>574</ele>
        <time>2015-01-11T09:53:36Z</time>
      </trkpt>
      <trkpt lat="45.8363" lon="4.78643">
        <ele>574</ele>
        <time>2015-01-11T09:53:45Z</time>
      </trkpt>
      <trkpt lat="45.83628" lon="4.78642">
        <ele>574</ele>
        <time>2015-01-11T09:54:27Z</time>
      </trkpt>
      <trkpt lat="45.83627" lon="4.78641">
        <ele>573</ele>
        <time>2015-01-11T09:54:37Z</time>
      </trkpt>
      <trkpt lat="45.83624" lon="4.78642">
        <ele>573</ele>
        <time>2015-01-11T09:55:01Z</time>
      </trkpt>
      <trkpt lat="45.83621" lon="4.78646">
        <ele>573</ele>
        <time>2015-01-11T09:55:07Z</time>
      </trkpt>
      <trkpt lat="45.83618" lon="4.7865">
        <ele>573</ele>
        <time>2015-01-11T09:55:09Z</time>
      </trkpt>
      <trkpt lat="45.83617" lon="4.78653">
        <ele>573</ele>
        <time>2015-01-11T09:55:11Z</time>
      </trkpt>
      <trkpt lat="45.83617" lon="4.78655">
        <ele>573</ele>
        <time>2015-01-11T09:55:13Z</time>
      </trkpt>
      <trkpt lat="45.83617" lon="4.78656">
        <ele>573</ele>
        <time>2015-01-11T09:55:15Z</time>
      </trkpt>
      <trkpt lat="45.83618" lon="4.7866">
        <ele>573</ele>
        <time>2015-01-11T09:55:19Z</time>
      </trkpt>
      <trkpt lat="45.8362" lon="4.78662">
        <ele>573</ele>
        <time>2015-01-11T09:55:21Z</time>
      </trkpt>
      <trkpt lat="45.83622" lon="4.78663">
        <ele>573</ele>
        <time>2015-01-11T09:55:23Z</time>
      </trkpt>
      <trkpt lat="45.83626" lon="4.78662">
        <ele>574</ele>
        <time>2015-01-11T09:55:27Z</time>
      </trkpt>
      <trkpt lat="45.83626" lon="4.78662">
        <ele>574</ele>
        <time>2015-01-11T09:55:28Z</time>
      </trkpt>
      <trkpt lat="45.83628" lon="4.78661">
        <ele>574</ele>
        <time>2015-01-11T09:55:31Z</time>
      </trkpt>
      <trkpt lat="45.8363" lon="4.78659">
        <ele>574</ele>
        <time>2015-01-11T09:55:33Z</time>
      </trkpt>
      <trkpt lat="45.83639" lon="4.78655">
        <ele>574</ele>
        <time>2015-01-11T09:55:40Z</time>
      </trkpt>
      <trkpt lat="45.83645" lon="4.78652">
        <ele>575</ele>
        <time>2015-01-11T09:55:45Z</time>
      </trkpt>
      <trkpt lat="45.83646" lon="4.78651">
        <ele>575</ele>
        <time>2015-01-11T09:55:46Z</time>
      </trkpt>
      <trkpt lat="45.83657" lon="4.78645">
        <ele>575</ele>
        <time>2015-01-11T09:55:54Z</time>
      </trkpt>
      <trkpt lat="45.83662" lon="4.78642">
        <ele>575</ele>
        <time>2015-01-11T09:55:57Z</time>
      </trkpt>
      <trkpt lat="45.83669" lon="4.78638">
        <ele>578</ele>
        <time>2015-01-11T09:56:00Z</time>
      </trkpt>
      <trkpt lat="45.8367" lon="4.78636">
        <ele>578</ele>
        <time>2015-01-11T09:56:02Z</time>
      </trkpt>
      <trkpt lat="45.83671" lon="4.78634">
        <ele>578</ele>
        <time>2015-01-11T09:56:04Z</time>
      </trkpt>
      <trkpt lat="45.8367" lon="4.78623">
        <ele>578</ele>
        <time>2015-01-11T09:56:08Z</time>
      </trkpt>
      <trkpt lat="45.83669" lon="4.78621">
        <ele>578</ele>
        <time>2015-01-11T09:56:09Z</time>
      </trkpt>
      <trkpt lat="45.83669" lon="4.78607">
        <ele>577</ele>
        <time>2015-01-11T09:56:14Z</time>
      </trkpt>
      <trkpt lat="45.83664" lon="4.786">
        <ele>575</ele>
        <time>2015-01-11T09:56:17Z</time>
      </trkpt>
      <trkpt lat="45.83662" lon="4.78597">
        <ele>575</ele>
        <time>2015-01-11T09:56:18Z</time>
      </trkpt>
      <trkpt lat="45.8366" lon="4.78585">
        <ele>575</ele>
        <time>2015-01-11T09:56:21Z</time>
      </trkpt>
      <trkpt lat="45.8366" lon="4.78581">
        <ele>574</ele>
        <time>2015-01-11T09:56:22Z</time>
      </trkpt>
      <trkpt lat="45.83661" lon="4.78577">
        <ele>574</ele>
        <time>2015-01-11T09:56:23Z</time>
      </trkpt>
      <trkpt lat="45.83661" lon="4.78573">
        <ele>573</ele>
        <time>2015-01-11T09:56:24Z</time>
      </trkpt>
      <trkpt lat="45.83668" lon="4.78558">
        <ele>575</ele>
        <time>2015-01-11T09:56:29Z</time>
      </trkpt>
      <trkpt lat="45.83674" lon="4.78554">
        <ele>575</ele>
        <time>2015-01-11T09:56:32Z</time>
      </trkpt>
      <trkpt lat="45.83677" lon="4.78549">
        <ele>575</ele>
        <time>2015-01-11T09:56:34Z</time>
      </trkpt>
      <trkpt lat="45.83682" lon="4.78538">
        <ele>575</ele>
        <time>2015-01-11T09:56:38Z</time>
      </trkpt>
      <trkpt lat="45.83684" lon="4.78534">
        <ele>575</ele>
        <time>2015-01-11T09:56:40Z</time>
      </trkpt>
      <trkpt lat="45.83685" lon="4.78532">
        <ele>575</ele>
        <time>2015-01-11T09:56:41Z</time>
      </trkpt>
      <trkpt lat="45.83687" lon="4.78532">
        <ele>575</ele>
        <time>2015-01-11T09:56:43Z</time>
      </trkpt>
      <trkpt lat="45.83693" lon="4.78533">
        <ele>575</ele>
        <time>2015-01-11T09:56:46Z</time>
      </trkpt>
      <trkpt lat="45.83695" lon="4.78534">
        <ele>575</ele>
        <time>2015-01-11T09:56:47Z</time>
      </trkpt>
      <trkpt lat="45.83702" lon="4.78532">
        <ele>575</ele>
        <time>2015-01-11T09:56:51Z</time>
      </trkpt>
      <trkpt lat="45.83704" lon="4.78532">
        <ele>575</ele>
        <time>2015-01-11T09:56:52Z</time>
      </trkpt>
      <trkpt lat="45.83715" lon="4.78534">
        <ele>576</ele>
        <time>2015-01-11T09:56:57Z</time>
      </trkpt>
      <trkpt lat="45.83722" lon="4.78536">
        <ele>576</ele>
        <time>2015-01-11T09:57:01Z</time>
      </trkpt>
      <trkpt lat="45.83725" lon="4.78536">
        <ele>576</ele>
        <time>2015-01-11T09:57:02Z</time>
      </trkpt>
      <trkpt lat="45.83739" lon="4.78536">
        <ele>577</ele>
        <time>2015-01-11T09:57:08Z</time>
      </trkpt>
      <trkpt lat="45.83741" lon="4.78536">
        <ele>577</ele>
        <time>2015-01-11T09:57:09Z</time>
      </trkpt>
      <trkpt lat="45.83756" lon="4.78534">
        <ele>579</ele>
        <time>2015-01-11T09:57:15Z</time>
      </trkpt>
      <trkpt lat="45.83761" lon="4.78534">
        <ele>580</ele>
        <time>2015-01-11T09:57:17Z</time>
      </trkpt>
      <trkpt lat="45.83765" lon="4.78534">
        <ele>580</ele>
        <time>2015-01-11T09:57:19Z</time>
      </trkpt>
      <trkpt lat="45.83767" lon="4.78534">
        <ele>580</ele>
        <time>2015-01-11T09:57:20Z</time>
      </trkpt>
      <trkpt lat="45.83776" lon="4.78533">
        <ele>580</ele>
        <time>2015-01-11T09:57:25Z</time>
      </trkpt>
      <trkpt lat="45.83781" lon="4.78532">
        <ele>580</ele>
        <time>2015-01-11T09:57:27Z</time>
      </trkpt>
      <trkpt lat="45.83787" lon="4.78531">
        <ele>580</ele>
        <time>2015-01-11T09:57:30Z</time>
      </trkpt>
      <trkpt lat="45.83791" lon="4.78531">
        <ele>580</ele>
        <time>2015-01-11T09:57:32Z</time>
      </trkpt>
      <trkpt lat="45.83795" lon="4.78531">
        <ele>580</ele>
        <time>2015-01-11T09:57:34Z</time>
      </trkpt>
      <trkpt lat="45.838" lon="4.78531">
        <ele>580</ele>
        <time>2015-01-11T09:57:36Z</time>
      </trkpt>
      <trkpt lat="45.83805" lon="4.78532">
        <ele>580</ele>
        <time>2015-01-11T09:57:38Z</time>
      </trkpt>
      <trkpt lat="45.83807" lon="4.78532">
        <ele>580</ele>
        <time>2015-01-11T09:57:39Z</time>
      </trkpt>
      <trkpt lat="45.83819" lon="4.78531">
        <ele>580</ele>
        <time>2015-01-11T09:57:44Z</time>
      </trkpt>
      <trkpt lat="45.83823" lon="4.78531">
        <ele>580</ele>
        <time>2015-01-11T09:57:46Z</time>
      </trkpt>
      <trkpt lat="45.83836" lon="4.78531">
        <ele>581</ele>
        <time>2015-01-11T09:57:52Z</time>
      </trkpt>
      <trkpt lat="45.83838" lon="4.78531">
        <ele>581</ele>
        <time>2015-01-11T09:57:53Z</time>
      </trkpt>
      <trkpt lat="45.8385" lon="4.7853">
        <ele>581</ele>
        <time>2015-01-11T09:57:58Z</time>
      </trkpt>
      <trkpt lat="45.83856" lon="4.78529">
        <ele>581</ele>
        <time>2015-01-11T09:58:01Z</time>
      </trkpt>
      <trkpt lat="45.83858" lon="4.78529">
        <ele>581</ele>
        <time>2015-01-11T09:58:02Z</time>
      </trkpt>
      <trkpt lat="45.83867" lon="4.78525">
        <ele>581</ele>
        <time>2015-01-11T09:58:06Z</time>
      </trkpt>
      <trkpt lat="45.83874" lon="4.78522">
        <ele>581</ele>
        <time>2015-01-11T09:58:10Z</time>
      </trkpt>
      <trkpt lat="45.83878" lon="4.7852">
        <ele>581</ele>
        <time>2015-01-11T09:58:12Z</time>
      </trkpt>
      <trkpt lat="45.83886" lon="4.7851">
        <ele>581</ele>
        <time>2015-01-11T09:58:17Z</time>
      </trkpt>
      <trkpt lat="45.83888" lon="4.78508">
        <ele>581</ele>
        <time>2015-01-11T09:58:18Z</time>
      </trkpt>
      <trkpt lat="45.8389" lon="4.78506">
        <ele>581</ele>
        <time>2015-01-11T09:58:19Z</time>
      </trkpt>
      <trkpt lat="45.83897" lon="4.785">
        <ele>581</ele>
        <time>2015-01-11T09:58:23Z</time>
      </trkpt>
      <trkpt lat="45.83904" lon="4.78494">
        <ele>577</ele>
        <time>2015-01-11T09:58:27Z</time>
      </trkpt>
      <trkpt lat="45.83906" lon="4.78492">
        <ele>577</ele>
        <time>2015-01-11T09:58:28Z</time>
      </trkpt>
      <trkpt lat="45.83912" lon="4.78482">
        <ele>577</ele>
        <time>2015-01-11T09:58:32Z</time>
      </trkpt>
      <trkpt lat="45.83919" lon="4.78471">
        <ele>576</ele>
        <time>2015-01-11T09:58:37Z</time>
      </trkpt>
      <trkpt lat="45.83925" lon="4.78462">
        <ele>575</ele>
        <time>2015-01-11T09:58:41Z</time>
      </trkpt>
      <trkpt lat="45.83933" lon="4.7845">
        <ele>574</ele>
        <time>2015-01-11T09:58:45Z</time>
      </trkpt>
      <trkpt lat="45.83942" lon="4.78439">
        <ele>573</ele>
        <time>2015-01-11T09:58:49Z</time>
      </trkpt>
      <trkpt lat="45.83949" lon="4.78434">
        <ele>573</ele>
        <time>2015-01-11T09:58:51Z</time>
      </trkpt>
      <trkpt lat="45.83959" lon="4.78425">
        <ele>573</ele>
        <time>2015-01-11T09:58:54Z</time>
      </trkpt>
      <trkpt lat="45.83966" lon="4.78418">
        <ele>573</ele>
        <time>2015-01-11T09:58:56Z</time>
      </trkpt>
      <trkpt lat="45.83973" lon="4.78414">
        <ele>563</ele>
        <time>2015-01-11T09:58:58Z</time>
      </trkpt>
      <trkpt lat="45.8398" lon="4.78409">
        <ele>563</ele>
        <time>2015-01-11T09:59:02Z</time>
      </trkpt>
      <trkpt lat="45.83984" lon="4.78408">
        <ele>564</ele>
        <time>2015-01-11T09:59:04Z</time>
      </trkpt>
      <trkpt lat="45.83992" lon="4.78407">
        <ele>565</ele>
        <time>2015-01-11T09:59:07Z</time>
      </trkpt>
      <trkpt lat="45.84004" lon="4.78405">
        <ele>564</ele>
        <time>2015-01-11T09:59:12Z</time>
      </trkpt>
      <trkpt lat="45.84019" lon="4.78407">
        <ele>563</ele>
        <time>2015-01-11T09:59:18Z</time>
      </trkpt>
      <trkpt lat="45.84025" lon="4.78408">
        <ele>562</ele>
        <time>2015-01-11T09:59:20Z</time>
      </trkpt>
      <trkpt lat="45.8403" lon="4.7841">
        <ele>562</ele>
        <time>2015-01-11T09:59:22Z</time>
      </trkpt>
      <trkpt lat="45.84032" lon="4.78411">
        <ele>562</ele>
        <time>2015-01-11T09:59:23Z</time>
      </trkpt>
      <trkpt lat="45.84042" lon="4.78418">
        <ele>571</ele>
        <time>2015-01-11T09:59:27Z</time>
      </trkpt>
      <trkpt lat="45.84045" lon="4.78419">
        <ele>571</ele>
        <time>2015-01-11T09:59:28Z</time>
      </trkpt>
      <trkpt lat="45.84053" lon="4.78425">
        <ele>571</ele>
        <time>2015-01-11T09:59:32Z</time>
      </trkpt>
      <trkpt lat="45.84061" lon="4.78425">
        <ele>571</ele>
        <time>2015-01-11T09:59:36Z</time>
      </trkpt>
      <trkpt lat="45.84064" lon="4.78425">
        <ele>570</ele>
        <time>2015-01-11T09:59:37Z</time>
      </trkpt>
      <trkpt lat="45.84073" lon="4.78423">
        <ele>569</ele>
        <time>2015-01-11T09:59:41Z</time>
      </trkpt>
      <trkpt lat="45.84077" lon="4.78423">
        <ele>568</ele>
        <time>2015-01-11T09:59:43Z</time>
      </trkpt>
      <trkpt lat="45.8408" lon="4.78423">
        <ele>568</ele>
        <time>2015-01-11T09:59:45Z</time>
      </trkpt>
      <trkpt lat="45.84083" lon="4.78423">
        <ele>568</ele>
        <time>2015-01-11T09:59:46Z</time>
      </trkpt>
      <trkpt lat="45.84089" lon="4.78423">
        <ele>567</ele>
        <time>2015-01-11T09:59:49Z</time>
      </trkpt>
      <trkpt lat="45.84093" lon="4.7842">
        <ele>568</ele>
        <time>2015-01-11T09:59:51Z</time>
      </trkpt>
      <trkpt lat="45.84098" lon="4.78417">
        <ele>568</ele>
        <time>2015-01-11T09:59:53Z</time>
      </trkpt>
      <trkpt lat="45.84099" lon="4.78415">
        <ele>562</ele>
        <time>2015-01-11T09:59:54Z</time>
      </trkpt>
      <trkpt lat="45.84104" lon="4.78414">
        <ele>562</ele>
        <time>2015-01-11T09:59:56Z</time>
      </trkpt>
      <trkpt lat="45.8411" lon="4.78409">
        <ele>561</ele>
        <time>2015-01-11T09:59:59Z</time>
      </trkpt>
      <trkpt lat="45.84114" lon="4.78405">
        <ele>560</ele>
        <time>2015-01-11T10:00:01Z</time>
      </trkpt>
      <trkpt lat="45.84128" lon="4.78398">
        <ele>560</ele>
        <time>2015-01-11T10:00:06Z</time>
      </trkpt>
      <trkpt lat="45.84133" lon="4.78396">
        <ele>560</ele>
        <time>2015-01-11T10:00:08Z</time>
      </trkpt>
      <trkpt lat="45.84137" lon="4.78394">
        <ele>560</ele>
        <time>2015-01-11T10:00:10Z</time>
      </trkpt>
      <trkpt lat="45.8414" lon="4.78392">
        <ele>560</ele>
        <time>2015-01-11T10:00:11Z</time>
      </trkpt>
      <trkpt lat="45.84149" lon="4.78383">
        <ele>559</ele>
        <time>2015-01-11T10:00:15Z</time>
      </trkpt>
      <trkpt lat="45.84152" lon="4.7838">
        <ele>559</ele>
        <time>2015-01-11T10:00:16Z</time>
      </trkpt>
      <trkpt lat="45.84159" lon="4.7837">
        <ele>558</ele>
        <time>2015-01-11T10:00:20Z</time>
      </trkpt>
      <trkpt lat="45.84163" lon="4.78364">
        <ele>557</ele>
        <time>2015-01-11T10:00:22Z</time>
      </trkpt>
      <trkpt lat="45.84165" lon="4.7836">
        <ele>557</ele>
        <time>2015-01-11T10:00:23Z</time>
      </trkpt>
      <trkpt lat="45.84168" lon="4.78358">
        <ele>554</ele>
        <time>2015-01-11T10:00:24Z</time>
      </trkpt>
      <trkpt lat="45.84171" lon="4.78356">
        <ele>554</ele>
        <time>2015-01-11T10:00:25Z</time>
      </trkpt>
      <trkpt lat="45.84178" lon="4.78346">
        <ele>553</ele>
        <time>2015-01-11T10:00:29Z</time>
      </trkpt>
      <trkpt lat="45.8418" lon="4.78343">
        <ele>553</ele>
        <time>2015-01-11T10:00:30Z</time>
      </trkpt>
      <trkpt lat="45.84187" lon="4.78328">
        <ele>551</ele>
        <time>2015-01-11T10:00:35Z</time>
      </trkpt>
      <trkpt lat="45.84188" lon="4.78325">
        <ele>551</ele>
        <time>2015-01-11T10:00:36Z</time>
      </trkpt>
      <trkpt lat="45.84192" lon="4.78315">
        <ele>550</ele>
        <time>2015-01-11T10:00:39Z</time>
      </trkpt>
      <trkpt lat="45.84199" lon="4.78304">
        <ele>550</ele>
        <time>2015-01-11T10:00:43Z</time>
      </trkpt>
      <trkpt lat="45.84203" lon="4.78299">
        <ele>550</ele>
        <time>2015-01-11T10:00:45Z</time>
      </trkpt>
      <trkpt lat="45.84209" lon="4.78286">
        <ele>550</ele>
        <time>2015-01-11T10:00:50Z</time>
      </trkpt>
      <trkpt lat="45.84212" lon="4.78282">
        <ele>550</ele>
        <time>2015-01-11T10:00:52Z</time>
      </trkpt>
      <trkpt lat="45.84213" lon="4.78279">
        <ele>550</ele>
        <time>2015-01-11T10:00:54Z</time>
      </trkpt>
      <trkpt lat="45.84215" lon="4.78277">
        <ele>550</ele>
        <time>2015-01-11T10:00:57Z</time>
      </trkpt>
      <trkpt lat="45.84215" lon="4.78277">
        <ele>550</ele>
        <time>2015-01-11T10:01:01Z</time>
      </trkpt>
      <trkpt lat="45.84215" lon="4.78275">
        <ele>550</ele>
        <time>2015-01-11T10:01:26Z</time>
      </trkpt>
      <trkpt lat="45.84215" lon="4.78274">
        <ele>550</ele>
        <time>2015-01-11T10:01:41Z</time>
      </trkpt>
      <trkpt lat="45.84216" lon="4.78274">
        <ele>550</ele>
        <time>2015-01-11T10:01:52Z</time>
      </trkpt>
      <trkpt lat="45.84216" lon="4.78275">
        <ele>550</ele>
        <time>2015-01-11T10:02:30Z</time>
      </trkpt>
      <trkpt lat="45.8422" lon="4.78272">
        <ele>550</ele>
        <time>2015-01-11T10:02:55Z</time>
      </trkpt>
      <trkpt lat="45.84224" lon="4.78269">
        <ele>551</ele>
        <time>2015-01-11T10:03:00Z</time>
      </trkpt>
      <trkpt lat="45.84229" lon="4.78267">
        <ele>551</ele>
        <time>2015-01-11T10:03:04Z</time>
      </trkpt>
      <trkpt lat="45.84234" lon="4.78264">
        <ele>551</ele>
        <time>2015-01-11T10:03:08Z</time>
      </trkpt>
      <trkpt lat="45.84243" lon="4.78261">
        <ele>552</ele>
        <time>2015-01-11T10:03:12Z</time>
      </trkpt>
      <trkpt lat="45.84245" lon="4.7826">
        <ele>552</ele>
        <time>2015-01-11T10:03:13Z</time>
      </trkpt>
      <trkpt lat="45.8426" lon="4.78255">
        <ele>551</ele>
        <time>2015-01-11T10:03:19Z</time>
      </trkpt>
      <trkpt lat="45.84263" lon="4.78254">
        <ele>551</ele>
        <time>2015-01-11T10:03:20Z</time>
      </trkpt>
      <trkpt lat="45.84273" lon="4.78251">
        <ele>551</ele>
        <time>2015-01-11T10:03:24Z</time>
      </trkpt>
      <trkpt lat="45.84282" lon="4.78249">
        <ele>557</ele>
        <time>2015-01-11T10:03:28Z</time>
      </trkpt>
      <trkpt lat="45.84285" lon="4.78248">
        <ele>558</ele>
        <time>2015-01-11T10:03:29Z</time>
      </trkpt>
      <trkpt lat="45.84296" lon="4.78246">
        <ele>558</ele>
        <time>2015-01-11T10:03:34Z</time>
      </trkpt>
      <trkpt lat="45.84301" lon="4.78244">
        <ele>558</ele>
        <time>2015-01-11T10:03:37Z</time>
      </trkpt>
      <trkpt lat="45.84303" lon="4.78244">
        <ele>558</ele>
        <time>2015-01-11T10:03:38Z</time>
      </trkpt>
      <trkpt lat="45.84306" lon="4.78244">
        <ele>558</ele>
        <time>2015-01-11T10:03:40Z</time>
      </trkpt>
      <trkpt lat="45.84311" lon="4.78242">
        <ele>558</ele>
        <time>2015-01-11T10:03:42Z</time>
      </trkpt>
      <trkpt lat="45.84318" lon="4.7824">
        <ele>557</ele>
        <time>2015-01-11T10:03:45Z</time>
      </trkpt>
      <trkpt lat="45.8432" lon="4.78239">
        <ele>557</ele>
        <time>2015-01-11T10:03:46Z</time>
      </trkpt>
      <trkpt lat="45.84322" lon="4.78239">
        <ele>557</ele>
        <time>2015-01-11T10:03:47Z</time>
      </trkpt>
      <trkpt lat="45.84328" lon="4.78238">
        <ele>557</ele>
        <time>2015-01-11T10:03:50Z</time>
      </trkpt>
      <trkpt lat="45.84339" lon="4.78235">
        <ele>560</ele>
        <time>2015-01-11T10:03:55Z</time>
      </trkpt>
      <trkpt lat="45.84341" lon="4.78235">
        <ele>560</ele>
        <time>2015-01-11T10:03:56Z</time>
      </trkpt>
      <trkpt lat="45.84349" lon="4.78232">
        <ele>562</ele>
        <time>2015-01-11T10:04:00Z</time>
      </trkpt>
      <trkpt lat="45.84357" lon="4.7823">
        <ele>563</ele>
        <time>2015-01-11T10:04:03Z</time>
      </trkpt>
      <trkpt lat="45.84364" lon="4.78229">
        <ele>564</ele>
        <time>2015-01-11T10:04:06Z</time>
      </trkpt>
      <trkpt lat="45.84377" lon="4.78228">
        <ele>565</ele>
        <time>2015-01-11T10:04:11Z</time>
      </trkpt>
      <trkpt lat="45.84381" lon="4.78228">
        <ele>565</ele>
        <time>2015-01-11T10:04:13Z</time>
      </trkpt>
      <trkpt lat="45.84393" lon="4.78232">
        <ele>565</ele>
        <time>2015-01-11T10:04:19Z</time>
      </trkpt>
      <trkpt lat="45.84395" lon="4.78233">
        <ele>565</ele>
        <time>2015-01-11T10:04:20Z</time>
      </trkpt>
      <trkpt lat="45.84403" lon="4.78237">
        <ele>565</ele>
        <time>2015-01-11T10:04:24Z</time>
      </trkpt>
      <trkpt lat="45.84414" lon="4.78242">
        <ele>564</ele>
        <time>2015-01-11T10:04:29Z</time>
      </trkpt>
      <trkpt lat="45.84428" lon="4.78248">
        <ele>568</ele>
        <time>2015-01-11T10:04:36Z</time>
      </trkpt>
      <trkpt lat="45.84432" lon="4.78249">
        <ele>569</ele>
        <time>2015-01-11T10:04:38Z</time>
      </trkpt>
      <trkpt lat="45.84438" lon="4.78251">
        <ele>563</ele>
        <time>2015-01-11T10:04:41Z</time>
      </trkpt>
      <trkpt lat="45.84447" lon="4.78255">
        <ele>564</ele>
        <time>2015-01-11T10:04:46Z</time>
      </trkpt>
      <trkpt lat="45.84452" lon="4.78255">
        <ele>564</ele>
        <time>2015-01-11T10:04:48Z</time>
      </trkpt>
      <trkpt lat="45.84458" lon="4.78256">
        <ele>565</ele>
        <time>2015-01-11T10:04:51Z</time>
      </trkpt>
      <trkpt lat="45.84469" lon="4.78257">
        <ele>566</ele>
        <time>2015-01-11T10:04:56Z</time>
      </trkpt>
      <trkpt lat="45.84472" lon="4.78256">
        <ele>566</ele>
        <time>2015-01-11T10:04:57Z</time>
      </trkpt>
      <trkpt lat="45.84478" lon="4.78256">
        <ele>567</ele>
        <time>2015-01-11T10:05:00Z</time>
      </trkpt>
      <trkpt lat="45.8448" lon="4.78257">
        <ele>568</ele>
        <time>2015-01-11T10:05:01Z</time>
      </trkpt>
      <trkpt lat="45.84487" lon="4.78257">
        <ele>569</ele>
        <time>2015-01-11T10:05:04Z</time>
      </trkpt>
      <trkpt lat="45.84491" lon="4.78258">
        <ele>570</ele>
        <time>2015-01-11T10:05:06Z</time>
      </trkpt>
      <trkpt lat="45.84502" lon="4.78257">
        <ele>573</ele>
        <time>2015-01-11T10:05:11Z</time>
      </trkpt>
      <trkpt lat="45.8451" lon="4.78258">
        <ele>573</ele>
        <time>2015-01-11T10:05:15Z</time>
      </trkpt>
      <trkpt lat="45.84515" lon="4.78258">
        <ele>573</ele>
        <time>2015-01-11T10:05:17Z</time>
      </trkpt>
      <trkpt lat="45.84518" lon="4.78258">
        <ele>573</ele>
        <time>2015-01-11T10:05:19Z</time>
      </trkpt>
      <trkpt lat="45.84522" lon="4.78258">
        <ele>573</ele>
        <time>2015-01-11T10:05:21Z</time>
      </trkpt>
      <trkpt lat="45.8453" lon="4.78259">
        <ele>573</ele>
        <time>2015-01-11T10:05:25Z</time>
      </trkpt>
      <trkpt lat="45.84543" lon="4.7826">
        <ele>573</ele>
        <time>2015-01-11T10:05:31Z</time>
      </trkpt>
      <trkpt lat="45.84549" lon="4.78262">
        <ele>573</ele>
        <time>2015-01-11T10:05:34Z</time>
      </trkpt>
      <trkpt lat="45.84555" lon="4.78262">
        <ele>573</ele>
        <time>2015-01-11T10:05:37Z</time>
      </trkpt>
      <trkpt lat="45.84567" lon="4.78263">
        <ele>575</ele>
        <time>2015-01-11T10:05:42Z</time>
      </trkpt>
      <trkpt lat="45.8457" lon="4.78262">
        <ele>575</ele>
        <time>2015-01-11T10:05:44Z</time>
      </trkpt>
      <trkpt lat="45.84579" lon="4.78264">
        <ele>575</ele>
        <time>2015-01-11T10:05:49Z</time>
      </trkpt>
      <trkpt lat="45.84586" lon="4.78268">
        <ele>575</ele>
        <time>2015-01-11T10:05:52Z</time>
      </trkpt>
      <trkpt lat="45.84588" lon="4.78268">
        <ele>575</ele>
        <time>2015-01-11T10:05:53Z</time>
      </trkpt>
      <trkpt lat="45.84591" lon="4.78268">
        <ele>575</ele>
        <time>2015-01-11T10:05:54Z</time>
      </trkpt>
      <trkpt lat="45.84605" lon="4.78261">
        <ele>575</ele>
        <time>2015-01-11T10:06:00Z</time>
      </trkpt>
      <trkpt lat="45.84622" lon="4.7825">
        <ele>580</ele>
        <time>2015-01-11T10:06:07Z</time>
      </trkpt>
      <trkpt lat="45.84633" lon="4.78236">
        <ele>580</ele>
        <time>2015-01-11T10:06:13Z</time>
      </trkpt>
      <trkpt lat="45.84636" lon="4.78231">
        <ele>580</ele>
        <time>2015-01-11T10:06:15Z</time>
      </trkpt>
      <trkpt lat="45.8464" lon="4.78222">
        <ele>580</ele>
        <time>2015-01-11T10:06:18Z</time>
      </trkpt>
      <trkpt lat="45.84646" lon="4.78208">
        <ele>581</ele>
        <time>2015-01-11T10:06:23Z</time>
      </trkpt>
      <trkpt lat="45.8465" lon="4.78192">
        <ele>582</ele>
        <time>2015-01-11T10:06:28Z</time>
      </trkpt>
      <trkpt lat="45.84652" lon="4.78182">
        <ele>582</ele>
        <time>2015-01-11T10:06:31Z</time>
      </trkpt>
      <trkpt lat="45.84654" lon="4.78172">
        <ele>582</ele>
        <time>2015-01-11T10:06:34Z</time>
      </trkpt>
      <trkpt lat="45.84658" lon="4.78156">
        <ele>586</ele>
        <time>2015-01-11T10:06:39Z</time>
      </trkpt>
      <trkpt lat="45.84662" lon="4.78141">
        <ele>588</ele>
        <time>2015-01-11T10:06:44Z</time>
      </trkpt>
      <trkpt lat="45.84665" lon="4.78129">
        <ele>590</ele>
        <time>2015-01-11T10:06:48Z</time>
      </trkpt>
      <trkpt lat="45.84666" lon="4.78123">
        <ele>590</ele>
        <time>2015-01-11T10:06:50Z</time>
      </trkpt>
      <trkpt lat="45.8467" lon="4.78102">
        <ele>588</ele>
        <time>2015-01-11T10:06:56Z</time>
      </trkpt>
      <trkpt lat="45.84673" lon="4.78096">
        <ele>588</ele>
        <time>2015-01-11T10:06:58Z</time>
      </trkpt>
      <trkpt lat="45.84674" lon="4.78089">
        <ele>589</ele>
        <time>2015-01-11T10:07:00Z</time>
      </trkpt>
      <trkpt lat="45.84678" lon="4.78077">
        <ele>591</ele>
        <time>2015-01-11T10:07:04Z</time>
      </trkpt>
      <trkpt lat="45.8468" lon="4.78069">
        <ele>591</ele>
        <time>2015-01-11T10:07:07Z</time>
      </trkpt>
      <trkpt lat="45.84681" lon="4.78051">
        <ele>591</ele>
        <time>2015-01-11T10:07:15Z</time>
      </trkpt>
      <trkpt lat="45.84681" lon="4.78049">
        <ele>591</ele>
        <time>2015-01-11T10:07:16Z</time>
      </trkpt>
      <trkpt lat="45.84681" lon="4.78037">
        <ele>591</ele>
        <time>2015-01-11T10:07:22Z</time>
      </trkpt>
      <trkpt lat="45.84685" lon="4.78023">
        <ele>592</ele>
        <time>2015-01-11T10:07:31Z</time>
      </trkpt>
      <trkpt lat="45.84686" lon="4.78019">
        <ele>592</ele>
        <time>2015-01-11T10:07:34Z</time>
      </trkpt>
      <trkpt lat="45.84685" lon="4.78018">
        <ele>592</ele>
        <time>2015-01-11T10:07:36Z</time>
      </trkpt>
      <trkpt lat="45.84682" lon="4.78026">
        <ele>591</ele>
        <time>2015-01-11T10:07:48Z</time>
      </trkpt>
      <trkpt lat="45.8468" lon="4.78026">
        <ele>591</ele>
        <time>2015-01-11T10:07:53Z</time>
      </trkpt>
      <trkpt lat="45.84678" lon="4.78024">
        <ele>591</ele>
        <time>2015-01-11T10:08:15Z</time>
      </trkpt>
      <trkpt lat="45.84676" lon="4.78019">
        <ele>591</ele>
        <time>2015-01-11T10:08:19Z</time>
      </trkpt>
      <trkpt lat="45.84678" lon="4.78009">
        <ele>591</ele>
        <time>2015-01-11T10:08:22Z</time>
      </trkpt>
      <trkpt lat="45.84679" lon="4.78001">
        <ele>591</ele>
        <time>2015-01-11T10:08:24Z</time>
      </trkpt>
      <trkpt lat="45.84679" lon="4.77996">
        <ele>591</ele>
        <time>2015-01-11T10:08:26Z</time>
      </trkpt>
      <trkpt lat="45.84677" lon="4.77992">
        <ele>591</ele>
        <time>2015-01-11T10:08:28Z</time>
      </trkpt>
      <trkpt lat="45.84673" lon="4.77996">
        <ele>591</ele>
        <time>2015-01-11T10:08:32Z</time>
      </trkpt>
      <trkpt lat="45.84672" lon="4.77997">
        <ele>591</ele>
        <time>2015-01-11T10:08:33Z</time>
      </trkpt>
      <trkpt lat="45.8467" lon="4.77999">
        <ele>591</ele>
        <time>2015-01-11T10:08:36Z</time>
      </trkpt>
      <trkpt lat="45.8467" lon="4.78002">
        <ele>591</ele>
        <time>2015-01-11T10:08:37Z</time>
      </trkpt>
      <trkpt lat="45.84669" lon="4.78003">
        <ele>591</ele>
        <time>2015-01-11T10:08:38Z</time>
      </trkpt>
      <trkpt lat="45.84665" lon="4.78009">
        <ele>592</ele>
        <time>2015-01-11T10:08:42Z</time>
      </trkpt>
      <trkpt lat="45.84665" lon="4.7801">
        <ele>592</ele>
        <time>2015-01-11T10:08:43Z</time>
      </trkpt>
      <trkpt lat="45.84665" lon="4.78014">
        <ele>593</ele>
        <time>2015-01-11T10:08:46Z</time>
      </trkpt>
      <trkpt lat="45.84664" lon="4.78015">
        <ele>593</ele>
        <time>2015-01-11T10:08:47Z</time>
      </trkpt>
      <trkpt lat="45.84662" lon="4.78014">
        <ele>593</ele>
        <time>2015-01-11T10:08:51Z</time>
      </trkpt>
      <trkpt lat="45.84661" lon="4.78014">
        <ele>593</ele>
        <time>2015-01-11T10:08:52Z</time>
      </trkpt>
      <trkpt lat="45.84657" lon="4.78013">
        <ele>593</ele>
        <time>2015-01-11T10:08:55Z</time>
      </trkpt>
      <trkpt lat="45.84654" lon="4.78014">
        <ele>593</ele>
        <time>2015-01-11T10:08:58Z</time>
      </trkpt>
      <trkpt lat="45.84654" lon="4.78015">
        <ele>593</ele>
        <time>2015-01-11T10:08:59Z</time>
      </trkpt>
      <trkpt lat="45.84654" lon="4.78014">
        <ele>593</ele>
        <time>2015-01-11T10:09:03Z</time>
      </trkpt>
      <trkpt lat="45.84653" lon="4.78015">
        <ele>593</ele>
        <time>2015-01-11T10:09:19Z</time>
      </trkpt>
      <trkpt lat="45.84653" lon="4.78014">
        <ele>593</ele>
        <time>2015-01-11T10:09:20Z</time>
      </trkpt>
      <trkpt lat="45.84653" lon="4.78013">
        <ele>593</ele>
        <time>2015-01-11T10:09:22Z</time>
      </trkpt>
      <trkpt lat="45.84652" lon="4.7801">
        <ele>593</ele>
        <time>2015-01-11T10:09:24Z</time>
      </trkpt>
      <trkpt lat="45.8465" lon="4.78008">
        <ele>593</ele>
        <time>2015-01-11T10:09:27Z</time>
      </trkpt>
      <trkpt lat="45.84648" lon="4.78008">
        <ele>593</ele>
        <time>2015-01-11T10:09:30Z</time>
      </trkpt>
      <trkpt lat="45.84652" lon="4.78012">
        <ele>593</ele>
        <time>2015-01-11T10:09:56Z</time>
      </trkpt>
      <trkpt lat="45.84652" lon="4.78017">
        <ele>594</ele>
        <time>2015-01-11T10:10:00Z</time>
      </trkpt>
      <trkpt lat="45.84652" lon="4.78018">
        <ele>594</ele>
        <time>2015-01-11T10:10:01Z</time>
      </trkpt>
      <trkpt lat="45.84649" lon="4.7802">
        <ele>594</ele>
        <time>2015-01-11T10:10:06Z</time>
      </trkpt>
      <trkpt lat="45.84647" lon="4.78022">
        <ele>594</ele>
        <time>2015-01-11T10:10:09Z</time>
      </trkpt>
      <trkpt lat="45.84646" lon="4.78023">
        <ele>594</ele>
        <time>2015-01-11T10:10:11Z</time>
      </trkpt>
      <trkpt lat="45.84646" lon="4.78024">
        <ele>594</ele>
        <time>2015-01-11T10:10:12Z</time>
      </trkpt>
      <trkpt lat="45.84646" lon="4.78027">
        <ele>594</ele>
        <time>2015-01-11T10:10:15Z</time>
      </trkpt>
      <trkpt lat="45.84645" lon="4.78029">
        <ele>594</ele>
        <time>2015-01-11T10:10:16Z</time>
      </trkpt>
      <trkpt lat="45.84645" lon="4.7803">
        <ele>594</ele>
        <time>2015-01-11T10:10:17Z</time>
      </trkpt>
      <trkpt lat="45.84643" lon="4.78033">
        <ele>595</ele>
        <time>2015-01-11T10:10:20Z</time>
      </trkpt>
      <trkpt lat="45.84641" lon="4.78034">
        <ele>595</ele>
        <time>2015-01-11T10:10:23Z</time>
      </trkpt>
      <trkpt lat="45.84634" lon="4.78035">
        <ele>595</ele>
        <time>2015-01-11T10:10:37Z</time>
      </trkpt>
      <trkpt lat="45.8463" lon="4.78033">
        <ele>595</ele>
        <time>2015-01-11T10:10:46Z</time>
      </trkpt>
      <trkpt lat="45.84629" lon="4.78032">
        <ele>595</ele>
        <time>2015-01-11T10:10:50Z</time>
      </trkpt>
      <trkpt lat="45.84629" lon="4.78033">
        <ele>595</ele>
        <time>2015-01-11T10:10:54Z</time>
      </trkpt>
      <trkpt lat="45.84627" lon="4.78035">
        <ele>595</ele>
        <time>2015-01-11T10:10:58Z</time>
      </trkpt>
      <trkpt lat="45.84624" lon="4.78038">
        <ele>596</ele>
        <time>2015-01-11T10:11:03Z</time>
      </trkpt>
      <trkpt lat="45.8462" lon="4.7804">
        <ele>596</ele>
        <time>2015-01-11T10:11:13Z</time>
      </trkpt>
      <trkpt lat="45.84616" lon="4.78036">
        <ele>596</ele>
        <time>2015-01-11T10:11:19Z</time>
      </trkpt>
      <trkpt lat="45.84614" lon="4.78035">
        <ele>596</ele>
        <time>2015-01-11T10:11:22Z</time>
      </trkpt>
      <trkpt lat="45.84613" lon="4.78035">
        <ele>596</ele>
        <time>2015-01-11T10:11:24Z</time>
      </trkpt>
      <trkpt lat="45.84609" lon="4.78035">
        <ele>596</ele>
        <time>2015-01-11T10:11:27Z</time>
      </trkpt>
      <trkpt lat="45.84608" lon="4.78036">
        <ele>596</ele>
        <time>2015-01-11T10:11:30Z</time>
      </trkpt>
      <trkpt lat="45.84604" lon="4.78039">
        <ele>597</ele>
        <time>2015-01-11T10:11:36Z</time>
      </trkpt>
      <trkpt lat="45.84604" lon="4.78036">
        <ele>596</ele>
        <time>2015-01-11T10:11:40Z</time>
      </trkpt>
      <trkpt lat="45.84604" lon="4.78032">
        <ele>596</ele>
        <time>2015-01-11T10:11:50Z</time>
      </trkpt>
      <trkpt lat="45.84606" lon="4.78031">
        <ele>596</ele>
        <time>2015-01-11T10:12:01Z</time>
      </trkpt>
      <trkpt lat="45.84605" lon="4.78033">
        <ele>596</ele>
        <time>2015-01-11T10:12:19Z</time>
      </trkpt>
      <trkpt lat="45.84604" lon="4.78032">
        <ele>596</ele>
        <time>2015-01-11T10:12:25Z</time>
      </trkpt>
      <trkpt lat="45.84602" lon="4.78032">
        <ele>596</ele>
        <time>2015-01-11T10:13:12Z</time>
      </trkpt>
      <trkpt lat="45.84603" lon="4.78035">
        <ele>596</ele>
        <time>2015-01-11T10:13:18Z</time>
      </trkpt>
      <trkpt lat="45.84602" lon="4.78043">
        <ele>597</ele>
        <time>2015-01-11T10:13:26Z</time>
      </trkpt>
      <trkpt lat="45.84602" lon="4.78043">
        <ele>597</ele>
        <time>2015-01-11T10:13:45Z</time>
      </trkpt>
      <trkpt lat="45.84603" lon="4.78042">
        <ele>597</ele>
        <time>2015-01-11T10:13:51Z</time>
      </trkpt>
      <trkpt lat="45.84604" lon="4.78041">
        <ele>597</ele>
        <time>2015-01-11T10:13:56Z</time>
      </trkpt>
      <trkpt lat="45.84603" lon="4.78041">
        <ele>597</ele>
        <time>2015-01-11T10:14:05Z</time>
      </trkpt>
      <trkpt lat="45.84603" lon="4.78042">
        <ele>597</ele>
        <time>2015-01-11T10:14:07Z</time>
      </trkpt>
      <trkpt lat="45.84603" lon="4.78042">
        <ele>597</ele>
        <time>2015-01-11T10:14:34Z</time>
      </trkpt>
      <trkpt lat="45.84604" lon="4.78041">
        <ele>597</ele>
        <time>2015-01-11T10:14:58Z</time>
      </trkpt>
      <trkpt lat="45.84605" lon="4.78042">
        <ele>597</ele>
        <time>2015-01-11T10:15:01Z</time>
      </trkpt>
      <trkpt lat="45.84607" lon="4.7804">
        <ele>597</ele>
        <time>2015-01-11T10:15:05Z</time>
      </trkpt>
      <trkpt lat="45.84609" lon="4.78037">
        <ele>596</ele>
        <time>2015-01-11T10:15:07Z</time>
      </trkpt>
      <trkpt lat="45.84613" lon="4.78037">
        <ele>596</ele>
        <time>2015-01-11T10:15:11Z</time>
      </trkpt>
      <trkpt lat="45.84615" lon="4.7804">
        <ele>596</ele>
        <time>2015-01-11T10:15:13Z</time>
      </trkpt>
      <trkpt lat="45.84616" lon="4.78043">
        <ele>596</ele>
        <time>2015-01-11T10:15:15Z</time>
      </trkpt>
      <trkpt lat="45.84617" lon="4.78044">
        <ele>596</ele>
        <time>2015-01-11T10:15:16Z</time>
      </trkpt>
      <trkpt lat="45.8462" lon="4.78045">
        <ele>596</ele>
        <time>2015-01-11T10:15:20Z</time>
      </trkpt>
      <trkpt lat="45.84622" lon="4.78044">
        <ele>596</ele>
        <time>2015-01-11T10:15:21Z</time>
      </trkpt>
      <trkpt lat="45.84626" lon="4.7804">
        <ele>596</ele>
        <time>2015-01-11T10:15:24Z</time>
      </trkpt>
      <trkpt lat="45.84628" lon="4.7804">
        <ele>596</ele>
        <time>2015-01-11T10:15:26Z</time>
      </trkpt>
      <trkpt lat="45.84629" lon="4.7804">
        <ele>595</ele>
        <time>2015-01-11T10:15:28Z</time>
      </trkpt>
      <trkpt lat="45.84632" lon="4.7804">
        <ele>595</ele>
        <time>2015-01-11T10:15:30Z</time>
      </trkpt>
      <trkpt lat="45.84635" lon="4.78036">
        <ele>595</ele>
        <time>2015-01-11T10:15:32Z</time>
      </trkpt>
      <trkpt lat="45.84639" lon="4.7803">
        <ele>595</ele>
        <time>2015-01-11T10:15:35Z</time>
      </trkpt>
      <trkpt lat="45.84639" lon="4.78028">
        <ele>595</ele>
        <time>2015-01-11T10:15:36Z</time>
      </trkpt>
      <trkpt lat="45.8464" lon="4.78027">
        <ele>595</ele>
        <time>2015-01-11T10:15:37Z</time>
      </trkpt>
      <trkpt lat="45.84642" lon="4.78023">
        <ele>594</ele>
        <time>2015-01-11T10:15:41Z</time>
      </trkpt>
      <trkpt lat="45.84646" lon="4.78021">
        <ele>594</ele>
        <time>2015-01-11T10:15:43Z</time>
      </trkpt>
      <trkpt lat="45.84652" lon="4.78018">
        <ele>594</ele>
        <time>2015-01-11T10:15:45Z</time>
      </trkpt>
      <trkpt lat="45.84655" lon="4.78014">
        <ele>593</ele>
        <time>2015-01-11T10:15:49Z</time>
      </trkpt>
      <trkpt lat="45.84656" lon="4.78012">
        <ele>593</ele>
        <time>2015-01-11T10:15:50Z</time>
      </trkpt>
      <trkpt lat="45.84661" lon="4.78008">
        <ele>592</ele>
        <time>2015-01-11T10:15:53Z</time>
      </trkpt>
      <trkpt lat="45.84662" lon="4.78007">
        <ele>592</ele>
        <time>2015-01-11T10:15:54Z</time>
      </trkpt>
      <trkpt lat="45.84665" lon="4.78003">
        <ele>592</ele>
        <time>2015-01-11T10:15:58Z</time>
      </trkpt>
      <trkpt lat="45.84671" lon="4.77996">
        <ele>591</ele>
        <time>2015-01-11T10:16:04Z</time>
      </trkpt>
      <trkpt lat="45.84672" lon="4.77996">
        <ele>591</ele>
        <time>2015-01-11T10:16:05Z</time>
      </trkpt>
      <trkpt lat="45.84672" lon="4.77995">
        <ele>591</ele>
        <time>2015-01-11T10:16:11Z</time>
      </trkpt>
      <trkpt lat="45.84674" lon="4.77999">
        <ele>591</ele>
        <time>2015-01-11T10:16:15Z</time>
      </trkpt>
      <trkpt lat="45.84674" lon="4.78">
        <ele>591</ele>
        <time>2015-01-11T10:16:16Z</time>
      </trkpt>
      <trkpt lat="45.84674" lon="4.78004">
        <ele>591</ele>
        <time>2015-01-11T10:16:20Z</time>
      </trkpt>
      <trkpt lat="45.84674" lon="4.78002">
        <ele>591</ele>
        <time>2015-01-11T10:16:28Z</time>
      </trkpt>
      <trkpt lat="45.84674" lon="4.78001">
        <ele>591</ele>
        <time>2015-01-11T10:16:29Z</time>
      </trkpt>
      <trkpt lat="45.84674" lon="4.77997">
        <ele>591</ele>
        <time>2015-01-11T10:16:33Z</time>
      </trkpt>
      <trkpt lat="45.84674" lon="4.77991">
        <ele>591</ele>
        <time>2015-01-11T10:16:42Z</time>
      </trkpt>
      <trkpt lat="45.84675" lon="4.77991">
        <ele>591</ele>
        <time>2015-01-11T10:16:54Z</time>
      </trkpt>
      <trkpt lat="45.84675" lon="4.77987">
        <ele>590</ele>
        <time>2015-01-11T10:17:01Z</time>
      </trkpt>
      <trkpt lat="45.84677" lon="4.77987">
        <ele>590</ele>
        <time>2015-01-11T10:17:29Z</time>
      </trkpt>
      <trkpt lat="45.84677" lon="4.77988">
        <ele>590</ele>
        <time>2015-01-11T10:17:31Z</time>
      </trkpt>
      <trkpt lat="45.84677" lon="4.77987">
        <ele>590</ele>
        <time>2015-01-11T10:17:36Z</time>
      </trkpt>
      <trkpt lat="45.84676" lon="4.77986">
        <ele>590</ele>
        <time>2015-01-11T10:17:42Z</time>
      </trkpt>
      <trkpt lat="45.84677" lon="4.77991">
        <ele>591</ele>
        <time>2015-01-11T10:17:50Z</time>
      </trkpt>
      <trkpt lat="45.84678" lon="4.77991">
        <ele>591</ele>
        <time>2015-01-11T10:17:59Z</time>
      </trkpt>
      <trkpt lat="45.84678" lon="4.77991">
        <ele>591</ele>
        <time>2015-01-11T10:18:07Z</time>
      </trkpt>
      <trkpt lat="45.84678" lon="4.77992">
        <ele>591</ele>
        <time>2015-01-11T10:18:23Z</time>
      </trkpt>
      <trkpt lat="45.84677" lon="4.7799">
        <ele>591</ele>
        <time>2015-01-11T10:18:28Z</time>
      </trkpt>
      <trkpt lat="45.84678" lon="4.77991">
        <ele>591</ele>
        <time>2015-01-11T10:18:57Z</time>
      </trkpt>
      <trkpt lat="45.84677" lon="4.77993">
        <ele>591</ele>
        <time>2015-01-11T10:19:04Z</time>
      </trkpt>
      <trkpt lat="45.84677" lon="4.77989">
        <ele>590</ele>
        <time>2015-01-11T10:19:22Z</time>
      </trkpt>
      <trkpt lat="45.84678" lon="4.77984">
        <ele>590</ele>
        <time>2015-01-11T10:19:24Z</time>
      </trkpt>
      <trkpt lat="45.84679" lon="4.7798">
        <ele>590</ele>
        <time>2015-01-11T10:19:26Z</time>
      </trkpt>
      <trkpt lat="45.84679" lon="4.77978">
        <ele>590</ele>
        <time>2015-01-11T10:19:27Z</time>
      </trkpt>
      <trkpt lat="45.84682" lon="4.7797">
        <ele>590</ele>
        <time>2015-01-11T10:19:31Z</time>
      </trkpt>
      <trkpt lat="45.84686" lon="4.77962">
        <ele>589</ele>
        <time>2015-01-11T10:19:35Z</time>
      </trkpt>
      <trkpt lat="45.84688" lon="4.77959">
        <ele>589</ele>
        <time>2015-01-11T10:19:36Z</time>
      </trkpt>
      <trkpt lat="45.84696" lon="4.77949">
        <ele>589</ele>
        <time>2015-01-11T10:19:40Z</time>
      </trkpt>
      <trkpt lat="45.84703" lon="4.77943">
        <ele>589</ele>
        <time>2015-01-11T10:19:43Z</time>
      </trkpt>
      <trkpt lat="45.84707" lon="4.77939">
        <ele>589</ele>
        <time>2015-01-11T10:19:45Z</time>
      </trkpt>
      <trkpt lat="45.84715" lon="4.77931">
        <ele>590</ele>
        <time>2015-01-11T10:19:49Z</time>
      </trkpt>
      <trkpt lat="45.84718" lon="4.77928">
        <ele>591</ele>
        <time>2015-01-11T10:19:51Z</time>
      </trkpt>
      <trkpt lat="45.84724" lon="4.77922">
        <ele>592</ele>
        <time>2015-01-11T10:19:55Z</time>
      </trkpt>
      <trkpt lat="45.84724" lon="4.77922">
        <ele>592</ele>
        <time>2015-01-11T10:19:56Z</time>
      </trkpt>
      <trkpt lat="45.84728" lon="4.77917">
        <ele>592</ele>
        <time>2015-01-11T10:20:00Z</time>
      </trkpt>
      <trkpt lat="45.84733" lon="4.7791">
        <ele>588</ele>
        <time>2015-01-11T10:20:03Z</time>
      </trkpt>
      <trkpt lat="45.84737" lon="4.77902">
        <ele>588</ele>
        <time>2015-01-11T10:20:06Z</time>
      </trkpt>
      <trkpt lat="45.84739" lon="4.77895">
        <ele>586</ele>
        <time>2015-01-11T10:20:08Z</time>
      </trkpt>
      <trkpt lat="45.84742" lon="4.77891">
        <ele>586</ele>
        <time>2015-01-11T10:20:10Z</time>
      </trkpt>
      <trkpt lat="45.84745" lon="4.77891">
        <ele>586</ele>
        <time>2015-01-11T10:20:13Z</time>
      </trkpt>
      <trkpt lat="45.84746" lon="4.7789">
        <ele>586</ele>
        <time>2015-01-11T10:20:14Z</time>
      </trkpt>
      <trkpt lat="45.84752" lon="4.77884">
        <ele>596</ele>
        <time>2015-01-11T10:20:18Z</time>
      </trkpt>
      <trkpt lat="45.84758" lon="4.77879">
        <ele>596</ele>
        <time>2015-01-11T10:20:22Z</time>
      </trkpt>
      <trkpt lat="45.84761" lon="4.77877">
        <ele>596</ele>
        <time>2015-01-11T10:20:24Z</time>
      </trkpt>
      <trkpt lat="45.84766" lon="4.77875">
        <ele>596</ele>
        <time>2015-01-11T10:20:27Z</time>
      </trkpt>
      <trkpt lat="45.84772" lon="4.77873">
        <ele>597</ele>
        <time>2015-01-11T10:20:34Z</time>
      </trkpt>
      <trkpt lat="45.84778" lon="4.77866">
        <ele>596</ele>
        <time>2015-01-11T10:20:38Z</time>
      </trkpt>
      <trkpt lat="45.8478" lon="4.77865">
        <ele>597</ele>
        <time>2015-01-11T10:20:39Z</time>
      </trkpt>
      <trkpt lat="45.84786" lon="4.77851">
        <ele>596</ele>
        <time>2015-01-11T10:20:44Z</time>
      </trkpt>
      <trkpt lat="45.84787" lon="4.77848">
        <ele>596</ele>
        <time>2015-01-11T10:20:45Z</time>
      </trkpt>
      <trkpt lat="45.84791" lon="4.77845">
        <ele>596</ele>
        <time>2015-01-11T10:20:47Z</time>
      </trkpt>
      <trkpt lat="45.84791" lon="4.77843">
        <ele>596</ele>
        <time>2015-01-11T10:20:48Z</time>
      </trkpt>
      <trkpt lat="45.84793" lon="4.7784">
        <ele>596</ele>
        <time>2015-01-11T10:20:51Z</time>
      </trkpt>
      <trkpt lat="45.84792" lon="4.7784">
        <ele>596</ele>
        <time>2015-01-11T10:20:53Z</time>
      </trkpt>
      <trkpt lat="45.8479" lon="4.77841">
        <ele>596</ele>
        <time>2015-01-11T10:21:03Z</time>
      </trkpt>
      <trkpt lat="45.84787" lon="4.77841">
        <ele>596</ele>
        <time>2015-01-11T10:21:20Z</time>
      </trkpt>
      <trkpt lat="45.84788" lon="4.77838">
        <ele>596</ele>
        <time>2015-01-11T10:21:32Z</time>
      </trkpt>
      <trkpt lat="45.84789" lon="4.77837">
        <ele>596</ele>
        <time>2015-01-11T10:21:34Z</time>
      </trkpt>
      <trkpt lat="45.84792" lon="4.77836">
        <ele>596</ele>
        <time>2015-01-11T10:21:54Z</time>
      </trkpt>
      <trkpt lat="45.84791" lon="4.77833">
        <ele>586</ele>
        <time>2015-01-11T10:22:09Z</time>
      </trkpt>
      <trkpt lat="45.84788" lon="4.77823">
        <ele>585</ele>
        <time>2015-01-11T10:22:14Z</time>
      </trkpt>
      <trkpt lat="45.84787" lon="4.7781">
        <ele>584</ele>
        <time>2015-01-11T10:22:18Z</time>
      </trkpt>
      <trkpt lat="45.84788" lon="4.77806">
        <ele>583</ele>
        <time>2015-01-11T10:22:19Z</time>
      </trkpt>
      <trkpt lat="45.8479" lon="4.77802">
        <ele>583</ele>
        <time>2015-01-11T10:22:21Z</time>
      </trkpt>
      <trkpt lat="45.84795" lon="4.77799">
        <ele>584</ele>
        <time>2015-01-11T10:22:23Z</time>
      </trkpt>
      <trkpt lat="45.84801" lon="4.77794">
        <ele>584</ele>
        <time>2015-01-11T10:22:26Z</time>
      </trkpt>
      <trkpt lat="45.84806" lon="4.77796">
        <ele>584</ele>
        <time>2015-01-11T10:22:28Z</time>
      </trkpt>
      <trkpt lat="45.84814" lon="4.77798">
        <ele>585</ele>
        <time>2015-01-11T10:22:32Z</time>
      </trkpt>
      <trkpt lat="45.84816" lon="4.77798">
        <ele>585</ele>
        <time>2015-01-11T10:22:33Z</time>
      </trkpt>
      <trkpt lat="45.84817" lon="4.77797">
        <ele>585</ele>
        <time>2015-01-11T10:22:34Z</time>
      </trkpt>
      <trkpt lat="45.84819" lon="4.77795">
        <ele>585</ele>
        <time>2015-01-11T10:22:35Z</time>
      </trkpt>
      <trkpt lat="45.84822" lon="4.77791">
        <ele>585</ele>
        <time>2015-01-11T10:22:37Z</time>
      </trkpt>
      <trkpt lat="45.84831" lon="4.77787">
        <ele>585</ele>
        <time>2015-01-11T10:22:41Z</time>
      </trkpt>
      <trkpt lat="45.84837" lon="4.77788">
        <ele>592</ele>
        <time>2015-01-11T10:22:43Z</time>
      </trkpt>
      <trkpt lat="45.84839" lon="4.7779">
        <ele>592</ele>
        <time>2015-01-11T10:22:44Z</time>
      </trkpt>
      <trkpt lat="45.84846" lon="4.77792">
        <ele>593</ele>
        <time>2015-01-11T10:22:48Z</time>
      </trkpt>
      <trkpt lat="45.84848" lon="4.77791">
        <ele>593</ele>
        <time>2015-01-11T10:22:49Z</time>
      </trkpt>
      <trkpt lat="45.84855" lon="4.77789">
        <ele>592</ele>
        <time>2015-01-11T10:22:52Z</time>
      </trkpt>
      <trkpt lat="45.84859" lon="4.77789">
        <ele>593</ele>
        <time>2015-01-11T10:22:54Z</time>
      </trkpt>
      <trkpt lat="45.84864" lon="4.77788">
        <ele>593</ele>
        <time>2015-01-11T10:22:57Z</time>
      </trkpt>
      <trkpt lat="45.8487" lon="4.77783">
        <ele>592</ele>
        <time>2015-01-11T10:23:00Z</time>
      </trkpt>
      <trkpt lat="45.84871" lon="4.77782">
        <ele>592</ele>
        <time>2015-01-11T10:23:01Z</time>
      </trkpt>
      <trkpt lat="45.84873" lon="4.77781">
        <ele>592</ele>
        <time>2015-01-11T10:23:02Z</time>
      </trkpt>
      <trkpt lat="45.84877" lon="4.77778">
        <ele>592</ele>
        <time>2015-01-11T10:23:04Z</time>
      </trkpt>
      <trkpt lat="45.84879" lon="4.77778">
        <ele>592</ele>
        <time>2015-01-11T10:23:05Z</time>
      </trkpt>
      <trkpt lat="45.84884" lon="4.77776">
        <ele>592</ele>
        <time>2015-01-11T10:23:08Z</time>
      </trkpt>
      <trkpt lat="45.8489" lon="4.77774">
        <ele>592</ele>
        <time>2015-01-11T10:23:11Z</time>
      </trkpt>
      <trkpt lat="45.84893" lon="4.77773">
        <ele>592</ele>
        <time>2015-01-11T10:23:12Z</time>
      </trkpt>
      <trkpt lat="45.84895" lon="4.77772">
        <ele>591</ele>
        <time>2015-01-11T10:23:13Z</time>
      </trkpt>
      <trkpt lat="45.84901" lon="4.7777">
        <ele>591</ele>
        <time>2015-01-11T10:23:17Z</time>
      </trkpt>
      <trkpt lat="45.84909" lon="4.77767">
        <ele>590</ele>
        <time>2015-01-11T10:23:22Z</time>
      </trkpt>
      <trkpt lat="45.8491" lon="4.77767">
        <ele>590</ele>
        <time>2015-01-11T10:23:23Z</time>
      </trkpt>
      <trkpt lat="45.84912" lon="4.77768">
        <ele>590</ele>
        <time>2015-01-11T10:23:24Z</time>
      </trkpt>
      <trkpt lat="45.84916" lon="4.77769">
        <ele>590</ele>
        <time>2015-01-11T10:23:27Z</time>
      </trkpt>
      <trkpt lat="45.84918" lon="4.7777">
        <ele>592</ele>
        <time>2015-01-11T10:23:29Z</time>
      </trkpt>
      <trkpt lat="45.84922" lon="4.77772">
        <ele>593</ele>
        <time>2015-01-11T10:23:33Z</time>
      </trkpt>
      <trkpt lat="45.84924" lon="4.77773">
        <ele>593</ele>
        <time>2015-01-11T10:23:35Z</time>
      </trkpt>
      <trkpt lat="45.84931" lon="4.7777">
        <ele>593</ele>
        <time>2015-01-11T10:23:39Z</time>
      </trkpt>
      <trkpt lat="45.84939" lon="4.77768">
        <ele>593</ele>
        <time>2015-01-11T10:23:43Z</time>
      </trkpt>
      <trkpt lat="45.84948" lon="4.77769">
        <ele>594</ele>
        <time>2015-01-11T10:23:48Z</time>
      </trkpt>
      <trkpt lat="45.8495" lon="4.77769">
        <ele>594</ele>
        <time>2015-01-11T10:23:49Z</time>
      </trkpt>
      <trkpt lat="45.84953" lon="4.77767">
        <ele>594</ele>
        <time>2015-01-11T10:23:53Z</time>
      </trkpt>
      <trkpt lat="45.84955" lon="4.77766">
        <ele>594</ele>
        <time>2015-01-11T10:23:54Z</time>
      </trkpt>
      <trkpt lat="45.84966" lon="4.77763">
        <ele>594</ele>
        <time>2015-01-11T10:23:59Z</time>
      </trkpt>
      <trkpt lat="45.84969" lon="4.77765">
        <ele>594</ele>
        <time>2015-01-11T10:24:00Z</time>
      </trkpt>
      <trkpt lat="45.84973" lon="4.77765">
        <ele>594</ele>
        <time>2015-01-11T10:24:04Z</time>
      </trkpt>
      <trkpt lat="45.84979" lon="4.77761">
        <ele>593</ele>
        <time>2015-01-11T10:24:09Z</time>
      </trkpt>
      <trkpt lat="45.84983" lon="4.77752">
        <ele>591</ele>
        <time>2015-01-11T10:24:14Z</time>
      </trkpt>
      <trkpt lat="45.84992" lon="4.77753">
        <ele>589</ele>
        <time>2015-01-11T10:24:19Z</time>
      </trkpt>
      <trkpt lat="45.84994" lon="4.77754">
        <ele>589</ele>
        <time>2015-01-11T10:24:20Z</time>
      </trkpt>
      <trkpt lat="45.84998" lon="4.77758">
        <ele>589</ele>
        <time>2015-01-11T10:24:23Z</time>
      </trkpt>
      <trkpt lat="45.84999" lon="4.77762">
        <ele>590</ele>
        <time>2015-01-11T10:24:25Z</time>
      </trkpt>
      <trkpt lat="45.85" lon="4.77763">
        <ele>586</ele>
        <time>2015-01-11T10:24:26Z</time>
      </trkpt>
      <trkpt lat="45.85007" lon="4.77767">
        <ele>587</ele>
        <time>2015-01-11T10:24:31Z</time>
      </trkpt>
      <trkpt lat="45.85008" lon="4.77767">
        <ele>587</ele>
        <time>2015-01-11T10:24:33Z</time>
      </trkpt>
      <trkpt lat="45.8501" lon="4.77767">
        <ele>586</ele>
        <time>2015-01-11T10:24:34Z</time>
      </trkpt>
      <trkpt lat="45.85013" lon="4.77766">
        <ele>586</ele>
        <time>2015-01-11T10:24:37Z</time>
      </trkpt>
      <trkpt lat="45.85014" lon="4.77767">
        <ele>586</ele>
        <time>2015-01-11T10:24:38Z</time>
      </trkpt>
      <trkpt lat="45.85017" lon="4.77766">
        <ele>586</ele>
        <time>2015-01-11T10:24:40Z</time>
      </trkpt>
      <trkpt lat="45.85019" lon="4.77765">
        <ele>586</ele>
        <time>2015-01-11T10:24:42Z</time>
      </trkpt>
      <trkpt lat="45.85021" lon="4.77766">
        <ele>586</ele>
        <time>2015-01-11T10:24:43Z</time>
      </trkpt>
      <trkpt lat="45.85024" lon="4.77767">
        <ele>586</ele>
        <time>2015-01-11T10:24:46Z</time>
      </trkpt>
      <trkpt lat="45.85028" lon="4.77761">
        <ele>585</ele>
        <time>2015-01-11T10:24:52Z</time>
      </trkpt>
      <trkpt lat="45.85033" lon="4.77759">
        <ele>584</ele>
        <time>2015-01-11T10:24:55Z</time>
      </trkpt>
      <trkpt lat="45.85034" lon="4.7776">
        <ele>584</ele>
        <time>2015-01-11T10:24:56Z</time>
      </trkpt>
      <trkpt lat="45.85038" lon="4.77764">
        <ele>584</ele>
        <time>2015-01-11T10:24:59Z</time>
      </trkpt>
      <trkpt lat="45.8504" lon="4.77766">
        <ele>584</ele>
        <time>2015-01-11T10:25:01Z</time>
      </trkpt>
      <trkpt lat="45.85042" lon="4.77767">
        <ele>583</ele>
        <time>2015-01-11T10:25:03Z</time>
      </trkpt>
      <trkpt lat="45.85047" lon="4.77773">
        <ele>583</ele>
        <time>2015-01-11T10:25:07Z</time>
      </trkpt>
      <trkpt lat="45.85049" lon="4.77776">
        <ele>583</ele>
        <time>2015-01-11T10:25:10Z</time>
      </trkpt>
      <trkpt lat="45.85051" lon="4.77778">
        <ele>583</ele>
        <time>2015-01-11T10:25:12Z</time>
      </trkpt>
      <trkpt lat="45.85052" lon="4.77779">
        <ele>583</ele>
        <time>2015-01-11T10:25:13Z</time>
      </trkpt>
      <trkpt lat="45.85057" lon="4.77786">
        <ele>583</ele>
        <time>2015-01-11T10:25:17Z</time>
      </trkpt>
      <trkpt lat="45.85058" lon="4.77786">
        <ele>583</ele>
        <time>2015-01-11T10:25:18Z</time>
      </trkpt>
      <trkpt lat="45.85061" lon="4.77794">
        <ele>583</ele>
        <time>2015-01-11T10:25:21Z</time>
      </trkpt>
      <trkpt lat="45.85063" lon="4.77796">
        <ele>583</ele>
        <time>2015-01-11T10:25:22Z</time>
      </trkpt>
      <trkpt lat="45.85065" lon="4.77806">
        <ele>583</ele>
        <time>2015-01-11T10:25:26Z</time>
      </trkpt>
      <trkpt lat="45.85065" lon="4.77808">
        <ele>583</ele>
        <time>2015-01-11T10:25:27Z</time>
      </trkpt>
      <trkpt lat="45.85066" lon="4.77816">
        <ele>583</ele>
        <time>2015-01-11T10:25:30Z</time>
      </trkpt>
      <trkpt lat="45.85068" lon="4.7782">
        <ele>582</ele>
        <time>2015-01-11T10:25:33Z</time>
      </trkpt>
      <trkpt lat="45.85068" lon="4.7782">
        <ele>582</ele>
        <time>2015-01-11T10:25:34Z</time>
      </trkpt>
      <trkpt lat="45.8507" lon="4.77823">
        <ele>582</ele>
        <time>2015-01-11T10:25:41Z</time>
      </trkpt>
      <trkpt lat="45.8507" lon="4.77828">
        <ele>581</ele>
        <time>2015-01-11T10:25:43Z</time>
      </trkpt>
      <trkpt lat="45.85071" lon="4.77832">
        <ele>581</ele>
        <time>2015-01-11T10:25:44Z</time>
      </trkpt>
      <trkpt lat="45.85073" lon="4.77842">
        <ele>585</ele>
        <time>2015-01-11T10:25:46Z</time>
      </trkpt>
      <trkpt lat="45.85075" lon="4.77849">
        <ele>586</ele>
        <time>2015-01-11T10:25:48Z</time>
      </trkpt>
      <trkpt lat="45.8508" lon="4.77855">
        <ele>587</ele>
        <time>2015-01-11T10:25:51Z</time>
      </trkpt>
      <trkpt lat="45.85087" lon="4.77871">
        <ele>571</ele>
        <time>2015-01-11T10:25:56Z</time>
      </trkpt>
      <trkpt lat="45.85093" lon="4.77884">
        <ele>572</ele>
        <time>2015-01-11T10:26:01Z</time>
      </trkpt>
      <trkpt lat="45.85098" lon="4.77895">
        <ele>572</ele>
        <time>2015-01-11T10:26:05Z</time>
      </trkpt>
      <trkpt lat="45.851" lon="4.77899">
        <ele>572</ele>
        <time>2015-01-11T10:26:07Z</time>
      </trkpt>
      <trkpt lat="45.85105" lon="4.77913">
        <ele>573</ele>
        <time>2015-01-11T10:26:12Z</time>
      </trkpt>
      <trkpt lat="45.85107" lon="4.77918">
        <ele>575</ele>
        <time>2015-01-11T10:26:14Z</time>
      </trkpt>
      <trkpt lat="45.85112" lon="4.7793">
        <ele>574</ele>
        <time>2015-01-11T10:26:18Z</time>
      </trkpt>
      <trkpt lat="45.85115" lon="4.77939">
        <ele>574</ele>
        <time>2015-01-11T10:26:21Z</time>
      </trkpt>
      <trkpt lat="45.85117" lon="4.77942">
        <ele>573</ele>
        <time>2015-01-11T10:26:22Z</time>
      </trkpt>
      <trkpt lat="45.85119" lon="4.77954">
        <ele>573</ele>
        <time>2015-01-11T10:26:25Z</time>
      </trkpt>
      <trkpt lat="45.85119" lon="4.7796">
        <ele>574</ele>
        <time>2015-01-11T10:26:27Z</time>
      </trkpt>
      <trkpt lat="45.8512" lon="4.77968">
        <ele>574</ele>
        <time>2015-01-11T10:26:29Z</time>
      </trkpt>
      <trkpt lat="45.85122" lon="4.77979">
        <ele>574</ele>
        <time>2015-01-11T10:26:32Z</time>
      </trkpt>
      <trkpt lat="45.85127" lon="4.77993">
        <ele>573</ele>
        <time>2015-01-11T10:26:36Z</time>
      </trkpt>
      <trkpt lat="45.85132" lon="4.78007">
        <ele>577</ele>
        <time>2015-01-11T10:26:40Z</time>
      </trkpt>
      <trkpt lat="45.85132" lon="4.78009">
        <ele>576</ele>
        <time>2015-01-11T10:26:41Z</time>
      </trkpt>
      <trkpt lat="45.85134" lon="4.78017">
        <ele>576</ele>
        <time>2015-01-11T10:26:43Z</time>
      </trkpt>
      <trkpt lat="45.85141" lon="4.7803">
        <ele>576</ele>
        <time>2015-01-11T10:26:48Z</time>
      </trkpt>
      <trkpt lat="45.85145" lon="4.78041">
        <ele>576</ele>
        <time>2015-01-11T10:26:51Z</time>
      </trkpt>
      <trkpt lat="45.85149" lon="4.78051">
        <ele>576</ele>
        <time>2015-01-11T10:26:54Z</time>
      </trkpt>
      <trkpt lat="45.85155" lon="4.78064">
        <ele>574</ele>
        <time>2015-01-11T10:26:58Z</time>
      </trkpt>
      <trkpt lat="45.85156" lon="4.78068">
        <ele>574</ele>
        <time>2015-01-11T10:26:59Z</time>
      </trkpt>
      <trkpt lat="45.85162" lon="4.78082">
        <ele>570</ele>
        <time>2015-01-11T10:27:03Z</time>
      </trkpt>
      <trkpt lat="45.85164" lon="4.78088">
        <ele>572</ele>
        <time>2015-01-11T10:27:05Z</time>
      </trkpt>
      <trkpt lat="45.85171" lon="4.78108">
        <ele>564</ele>
        <time>2015-01-11T10:27:11Z</time>
      </trkpt>
      <trkpt lat="45.85173" lon="4.7811">
        <ele>564</ele>
        <time>2015-01-11T10:27:12Z</time>
      </trkpt>
      <trkpt lat="45.85175" lon="4.78117">
        <ele>564</ele>
        <time>2015-01-11T10:27:14Z</time>
      </trkpt>
      <trkpt lat="45.85177" lon="4.78122">
        <ele>564</ele>
        <time>2015-01-11T10:27:16Z</time>
      </trkpt>
      <trkpt lat="45.8518" lon="4.78131">
        <ele>565</ele>
        <time>2015-01-11T10:27:19Z</time>
      </trkpt>
      <trkpt lat="45.85182" lon="4.78136">
        <ele>565</ele>
        <time>2015-01-11T10:27:21Z</time>
      </trkpt>
      <trkpt lat="45.85187" lon="4.78145">
        <ele>566</ele>
        <time>2015-01-11T10:27:25Z</time>
      </trkpt>
      <trkpt lat="45.85194" lon="4.78158">
        <ele>566</ele>
        <time>2015-01-11T10:27:29Z</time>
      </trkpt>
      <trkpt lat="45.85197" lon="4.78165">
        <ele>565</ele>
        <time>2015-01-11T10:27:31Z</time>
      </trkpt>
      <trkpt lat="45.85207" lon="4.78179">
        <ele>568</ele>
        <time>2015-01-11T10:27:36Z</time>
      </trkpt>
      <trkpt lat="45.85217" lon="4.78195">
        <ele>566</ele>
        <time>2015-01-11T10:27:42Z</time>
      </trkpt>
      <trkpt lat="45.8522" lon="4.782">
        <ele>566</ele>
        <time>2015-01-11T10:27:44Z</time>
      </trkpt>
      <trkpt lat="45.85222" lon="4.78202">
        <ele>566</ele>
        <time>2015-01-11T10:27:45Z</time>
      </trkpt>
      <trkpt lat="45.85227" lon="4.78208">
        <ele>566</ele>
        <time>2015-01-11T10:27:47Z</time>
      </trkpt>
      <trkpt lat="45.85235" lon="4.78217">
        <ele>566</ele>
        <time>2015-01-11T10:27:51Z</time>
      </trkpt>
      <trkpt lat="45.85236" lon="4.7822">
        <ele>566</ele>
        <time>2015-01-11T10:27:52Z</time>
      </trkpt>
      <trkpt lat="45.85243" lon="4.78234">
        <ele>565</ele>
        <time>2015-01-11T10:27:57Z</time>
      </trkpt>
      <trkpt lat="45.85246" lon="4.78239">
        <ele>564</ele>
        <time>2015-01-11T10:27:59Z</time>
      </trkpt>
      <trkpt lat="45.85252" lon="4.78246">
        <ele>560</ele>
        <time>2015-01-11T10:28:02Z</time>
      </trkpt>
      <trkpt lat="45.85261" lon="4.7826">
        <ele>559</ele>
        <time>2015-01-11T10:28:07Z</time>
      </trkpt>
      <trkpt lat="45.85262" lon="4.78263">
        <ele>558</ele>
        <time>2015-01-11T10:28:08Z</time>
      </trkpt>
      <trkpt lat="45.85272" lon="4.78279">
        <ele>556</ele>
        <time>2015-01-11T10:28:14Z</time>
      </trkpt>
      <trkpt lat="45.85273" lon="4.78283">
        <ele>556</ele>
        <time>2015-01-11T10:28:15Z</time>
      </trkpt>
      <trkpt lat="45.85282" lon="4.78291">
        <ele>555</ele>
        <time>2015-01-11T10:28:19Z</time>
      </trkpt>
      <trkpt lat="45.85286" lon="4.78294">
        <ele>554</ele>
        <time>2015-01-11T10:28:21Z</time>
      </trkpt>
      <trkpt lat="45.85289" lon="4.78296">
        <ele>554</ele>
        <time>2015-01-11T10:28:22Z</time>
      </trkpt>
      <trkpt lat="45.85291" lon="4.783">
        <ele>554</ele>
        <time>2015-01-11T10:28:23Z</time>
      </trkpt>
      <trkpt lat="45.853" lon="4.78313">
        <ele>554</ele>
        <time>2015-01-11T10:28:28Z</time>
      </trkpt>
      <trkpt lat="45.85301" lon="4.78316">
        <ele>554</ele>
        <time>2015-01-11T10:28:29Z</time>
      </trkpt>
      <trkpt lat="45.85307" lon="4.78326">
        <ele>554</ele>
        <time>2015-01-11T10:28:33Z</time>
      </trkpt>
      <trkpt lat="45.85314" lon="4.78335">
        <ele>556</ele>
        <time>2015-01-11T10:28:37Z</time>
      </trkpt>
      <trkpt lat="45.85318" lon="4.78338">
        <ele>556</ele>
        <time>2015-01-11T10:28:39Z</time>
      </trkpt>
      <trkpt lat="45.85328" lon="4.78348">
        <ele>556</ele>
        <time>2015-01-11T10:28:44Z</time>
      </trkpt>
      <trkpt lat="45.85332" lon="4.7835">
        <ele>556</ele>
        <time>2015-01-11T10:28:45Z</time>
      </trkpt>
      <trkpt lat="45.85344" lon="4.78361">
        <ele>546</ele>
        <time>2015-01-11T10:28:50Z</time>
      </trkpt>
      <trkpt lat="45.85347" lon="4.78366">
        <ele>546</ele>
        <time>2015-01-11T10:28:52Z</time>
      </trkpt>
      <trkpt lat="45.85353" lon="4.78377">
        <ele>545</ele>
        <time>2015-01-11T10:28:56Z</time>
      </trkpt>
      <trkpt lat="45.85359" lon="4.78389">
        <ele>546</ele>
        <time>2015-01-11T10:29:00Z</time>
      </trkpt>
      <trkpt lat="45.85362" lon="4.78395">
        <ele>546</ele>
        <time>2015-01-11T10:29:02Z</time>
      </trkpt>
      <trkpt lat="45.85372" lon="4.78411">
        <ele>545</ele>
        <time>2015-01-11T10:29:08Z</time>
      </trkpt>
      <trkpt lat="45.85374" lon="4.78413">
        <ele>544</ele>
        <time>2015-01-11T10:29:09Z</time>
      </trkpt>
      <trkpt lat="45.85383" lon="4.78425">
        <ele>548</ele>
        <time>2015-01-11T10:29:14Z</time>
      </trkpt>
      <trkpt lat="45.85385" lon="4.78427">
        <ele>547</ele>
        <time>2015-01-11T10:29:15Z</time>
      </trkpt>
      <trkpt lat="45.85387" lon="4.78429">
        <ele>547</ele>
        <time>2015-01-11T10:29:16Z</time>
      </trkpt>
      <trkpt lat="45.85396" lon="4.7844">
        <ele>547</ele>
        <time>2015-01-11T10:29:20Z</time>
      </trkpt>
      <trkpt lat="45.85398" lon="4.78442">
        <ele>547</ele>
        <time>2015-01-11T10:29:21Z</time>
      </trkpt>
      <trkpt lat="45.85402" lon="4.78446">
        <ele>547</ele>
        <time>2015-01-11T10:29:23Z</time>
      </trkpt>
      <trkpt lat="45.85404" lon="4.78448">
        <ele>547</ele>
        <time>2015-01-11T10:29:24Z</time>
      </trkpt>
      <trkpt lat="45.85419" lon="4.78462">
        <ele>539</ele>
        <time>2015-01-11T10:29:30Z</time>
      </trkpt>
      <trkpt lat="45.85433" lon="4.78479">
        <ele>541</ele>
        <time>2015-01-11T10:29:37Z</time>
      </trkpt>
      <trkpt lat="45.85443" lon="4.78492">
        <ele>540</ele>
        <time>2015-01-11T10:29:42Z</time>
      </trkpt>
      <trkpt lat="45.85447" lon="4.78497">
        <ele>540</ele>
        <time>2015-01-11T10:29:44Z</time>
      </trkpt>
      <trkpt lat="45.85456" lon="4.78506">
        <ele>543</ele>
        <time>2015-01-11T10:29:48Z</time>
      </trkpt>
      <trkpt lat="45.85463" lon="4.78514">
        <ele>543</ele>
        <time>2015-01-11T10:29:52Z</time>
      </trkpt>
      <trkpt lat="45.8547" lon="4.78521">
        <ele>542</ele>
        <time>2015-01-11T10:29:55Z</time>
      </trkpt>
      <trkpt lat="45.85479" lon="4.78531">
        <ele>542</ele>
        <time>2015-01-11T10:29:59Z</time>
      </trkpt>
      <trkpt lat="45.85481" lon="4.78533">
        <ele>542</ele>
        <time>2015-01-11T10:30:00Z</time>
      </trkpt>
      <trkpt lat="45.85495" lon="4.78547">
        <ele>542</ele>
        <time>2015-01-11T10:30:06Z</time>
      </trkpt>
      <trkpt lat="45.85508" lon="4.78563">
        <ele>539</ele>
        <time>2015-01-11T10:30:13Z</time>
      </trkpt>
      <trkpt lat="45.8551" lon="4.78565">
        <ele>539</ele>
        <time>2015-01-11T10:30:14Z</time>
      </trkpt>
      <trkpt lat="45.85516" lon="4.78571">
        <ele>539</ele>
        <time>2015-01-11T10:30:17Z</time>
      </trkpt>
      <trkpt lat="45.85518" lon="4.78573">
        <ele>539</ele>
        <time>2015-01-11T10:30:18Z</time>
      </trkpt>
      <trkpt lat="45.85527" lon="4.78582">
        <ele>538</ele>
        <time>2015-01-11T10:30:22Z</time>
      </trkpt>
      <trkpt lat="45.85529" lon="4.78583">
        <ele>538</ele>
        <time>2015-01-11T10:30:23Z</time>
      </trkpt>
      <trkpt lat="45.85538" lon="4.78589">
        <ele>540</ele>
        <time>2015-01-11T10:30:28Z</time>
      </trkpt>
      <trkpt lat="45.85545" lon="4.78591">
        <ele>540</ele>
        <time>2015-01-11T10:30:31Z</time>
      </trkpt>
      <trkpt lat="45.85549" lon="4.78593">
        <ele>540</ele>
        <time>2015-01-11T10:30:33Z</time>
      </trkpt>
      <trkpt lat="45.8556" lon="4.78599">
        <ele>539</ele>
        <time>2015-01-11T10:30:38Z</time>
      </trkpt>
      <trkpt lat="45.85564" lon="4.78604">
        <ele>539</ele>
        <time>2015-01-11T10:30:40Z</time>
      </trkpt>
      <trkpt lat="45.85571" lon="4.7861">
        <ele>539</ele>
        <time>2015-01-11T10:30:43Z</time>
      </trkpt>
      <trkpt lat="45.85581" lon="4.78616">
        <ele>539</ele>
        <time>2015-01-11T10:30:47Z</time>
      </trkpt>
      <trkpt lat="45.85583" lon="4.78618">
        <ele>539</ele>
        <time>2015-01-11T10:30:48Z</time>
      </trkpt>
      <trkpt lat="45.85587" lon="4.78622">
        <ele>538</ele>
        <time>2015-01-11T10:30:50Z</time>
      </trkpt>
      <trkpt lat="45.85593" lon="4.78625">
        <ele>538</ele>
        <time>2015-01-11T10:30:53Z</time>
      </trkpt>
      <trkpt lat="45.85597" lon="4.78628">
        <ele>538</ele>
        <time>2015-01-11T10:30:55Z</time>
      </trkpt>
      <trkpt lat="45.85611" lon="4.78635">
        <ele>538</ele>
        <time>2015-01-11T10:31:00Z</time>
      </trkpt>
      <trkpt lat="45.85614" lon="4.78637">
        <ele>538</ele>
        <time>2015-01-11T10:31:01Z</time>
      </trkpt>
      <trkpt lat="45.85615" lon="4.7864">
        <ele>538</ele>
        <time>2015-01-11T10:31:02Z</time>
      </trkpt>
      <trkpt lat="45.85619" lon="4.78645">
        <ele>538</ele>
        <time>2015-01-11T10:31:04Z</time>
      </trkpt>
      <trkpt lat="45.85623" lon="4.7865">
        <ele>539</ele>
        <time>2015-01-11T10:31:06Z</time>
      </trkpt>
      <trkpt lat="45.8563" lon="4.78655">
        <ele>539</ele>
        <time>2015-01-11T10:31:09Z</time>
      </trkpt>
      <trkpt lat="45.85643" lon="4.7866">
        <ele>540</ele>
        <time>2015-01-11T10:31:14Z</time>
      </trkpt>
      <trkpt lat="45.85648" lon="4.78663">
        <ele>540</ele>
        <time>2015-01-11T10:31:16Z</time>
      </trkpt>
      <trkpt lat="45.85654" lon="4.78667">
        <ele>540</ele>
        <time>2015-01-11T10:31:19Z</time>
      </trkpt>
      <trkpt lat="45.85665" lon="4.78679">
        <ele>540</ele>
        <time>2015-01-11T10:31:24Z</time>
      </trkpt>
      <trkpt lat="45.8568" lon="4.78696">
        <ele>538</ele>
        <time>2015-01-11T10:31:30Z</time>
      </trkpt>
      <trkpt lat="45.85682" lon="4.78699">
        <ele>538</ele>
        <time>2015-01-11T10:31:31Z</time>
      </trkpt>
      <trkpt lat="45.85691" lon="4.78713">
        <ele>537</ele>
        <time>2015-01-11T10:31:36Z</time>
      </trkpt>
      <trkpt lat="45.85692" lon="4.78716">
        <ele>537</ele>
        <time>2015-01-11T10:31:37Z</time>
      </trkpt>
      <trkpt lat="45.85699" lon="4.78723">
        <ele>537</ele>
        <time>2015-01-11T10:31:40Z</time>
      </trkpt>
      <trkpt lat="45.85709" lon="4.78734">
        <ele>537</ele>
        <time>2015-01-11T10:31:44Z</time>
      </trkpt>
      <trkpt lat="45.85719" lon="4.78746">
        <ele>537</ele>
        <time>2015-01-11T10:31:49Z</time>
      </trkpt>
      <trkpt lat="45.8572" lon="4.78749">
        <ele>537</ele>
        <time>2015-01-11T10:31:50Z</time>
      </trkpt>
      <trkpt lat="45.85724" lon="4.78753">
        <ele>533</ele>
        <time>2015-01-11T10:31:52Z</time>
      </trkpt>
      <trkpt lat="45.85726" lon="4.78755">
        <ele>533</ele>
        <time>2015-01-11T10:31:53Z</time>
      </trkpt>
      <trkpt lat="45.85736" lon="4.78762">
        <ele>534</ele>
        <time>2015-01-11T10:31:57Z</time>
      </trkpt>
      <trkpt lat="45.85739" lon="4.78763">
        <ele>534</ele>
        <time>2015-01-11T10:31:58Z</time>
      </trkpt>
      <trkpt lat="45.85741" lon="4.78764">
        <ele>534</ele>
        <time>2015-01-11T10:31:59Z</time>
      </trkpt>
      <trkpt lat="45.85749" lon="4.78772">
        <ele>533</ele>
        <time>2015-01-11T10:32:03Z</time>
      </trkpt>
      <trkpt lat="45.85752" lon="4.78772">
        <ele>533</ele>
        <time>2015-01-11T10:32:04Z</time>
      </trkpt>
      <trkpt lat="45.85758" lon="4.78773">
        <ele>533</ele>
        <time>2015-01-11T10:32:06Z</time>
      </trkpt>
      <trkpt lat="45.85763" lon="4.78777">
        <ele>532</ele>
        <time>2015-01-11T10:32:08Z</time>
      </trkpt>
      <trkpt lat="45.85773" lon="4.78787">
        <ele>531</ele>
        <time>2015-01-11T10:32:12Z</time>
      </trkpt>
      <trkpt lat="45.85776" lon="4.7879">
        <ele>531</ele>
        <time>2015-01-11T10:32:13Z</time>
      </trkpt>
      <trkpt lat="45.85779" lon="4.78791">
        <ele>531</ele>
        <time>2015-01-11T10:32:14Z</time>
      </trkpt>
      <trkpt lat="45.85788" lon="4.78791">
        <ele>531</ele>
        <time>2015-01-11T10:32:17Z</time>
      </trkpt>
      <trkpt lat="45.85791" lon="4.78792">
        <ele>531</ele>
        <time>2015-01-11T10:32:18Z</time>
      </trkpt>
      <trkpt lat="45.858" lon="4.78795">
        <ele>530</ele>
        <time>2015-01-11T10:32:21Z</time>
      </trkpt>
      <trkpt lat="45.85807" lon="4.78797">
        <ele>530</ele>
        <time>2015-01-11T10:32:24Z</time>
      </trkpt>
      <trkpt lat="45.85809" lon="4.78799">
        <ele>530</ele>
        <time>2015-01-11T10:32:25Z</time>
      </trkpt>
      <trkpt lat="45.85813" lon="4.78806">
        <ele>531</ele>
        <time>2015-01-11T10:32:30Z</time>
      </trkpt>
      <trkpt lat="45.85814" lon="4.78807">
        <ele>531</ele>
        <time>2015-01-11T10:32:37Z</time>
      </trkpt>
      <trkpt lat="45.85816" lon="4.78806">
        <ele>531</ele>
        <time>2015-01-11T10:32:44Z</time>
      </trkpt>
      <trkpt lat="45.85816" lon="4.78808">
        <ele>531</ele>
        <time>2015-01-11T10:33:11Z</time>
      </trkpt>
      <trkpt lat="45.85816" lon="4.78806">
        <ele>531</ele>
        <time>2015-01-11T10:33:24Z</time>
      </trkpt>
      <trkpt lat="45.85815" lon="4.78807">
        <ele>531</ele>
        <time>2015-01-11T10:34:00Z</time>
      </trkpt>
      <trkpt lat="45.85814" lon="4.78807">
        <ele>531</ele>
        <time>2015-01-11T10:34:07Z</time>
      </trkpt>
      <trkpt lat="45.85814" lon="4.78808">
        <ele>531</ele>
        <time>2015-01-11T10:34:18Z</time>
      </trkpt>
      <trkpt lat="45.85814" lon="4.78802">
        <ele>531</ele>
        <time>2015-01-11T10:34:24Z</time>
      </trkpt>
      <trkpt lat="45.85814" lon="4.78803">
        <ele>531</ele>
        <time>2015-01-11T10:34:31Z</time>
      </trkpt>
      <trkpt lat="45.85815" lon="4.78805">
        <ele>531</ele>
        <time>2015-01-11T10:34:39Z</time>
      </trkpt>
      <trkpt lat="45.85817" lon="4.78801">
        <ele>531</ele>
        <time>2015-01-11T10:34:44Z</time>
      </trkpt>
      <trkpt lat="45.85818" lon="4.78799">
        <ele>530</ele>
        <time>2015-01-11T10:34:45Z</time>
      </trkpt>
      <trkpt lat="45.8582" lon="4.78799">
        <ele>530</ele>
        <time>2015-01-11T10:34:48Z</time>
      </trkpt>
      <trkpt lat="45.8582" lon="4.78798">
        <ele>530</ele>
        <time>2015-01-11T10:35:07Z</time>
      </trkpt>
      <trkpt lat="45.8582" lon="4.78799">
        <ele>530</ele>
        <time>2015-01-11T10:35:14Z</time>
      </trkpt>
      <trkpt lat="45.85818" lon="4.78803">
        <ele>531</ele>
        <time>2015-01-11T10:35:36Z</time>
      </trkpt>
      <trkpt lat="45.85817" lon="4.78803">
        <ele>531</ele>
        <time>2015-01-11T10:35:43Z</time>
      </trkpt>
      <trkpt lat="45.85817" lon="4.78805">
        <ele>531</ele>
        <time>2015-01-11T10:35:44Z</time>
      </trkpt>
      <trkpt lat="45.85813" lon="4.7881">
        <ele>531</ele>
        <time>2015-01-11T10:35:48Z</time>
      </trkpt>
      <trkpt lat="45.85807" lon="4.78818">
        <ele>531</ele>
        <time>2015-01-11T10:35:53Z</time>
      </trkpt>
      <trkpt lat="45.85806" lon="4.7882">
        <ele>531</ele>
        <time>2015-01-11T10:35:54Z</time>
      </trkpt>
      <trkpt lat="45.85799" lon="4.7884">
        <ele>529</ele>
        <time>2015-01-11T10:36:00Z</time>
      </trkpt>
      <trkpt lat="45.85797" lon="4.78843">
        <ele>529</ele>
        <time>2015-01-11T10:36:01Z</time>
      </trkpt>
      <trkpt lat="45.85794" lon="4.78861">
        <ele>528</ele>
        <time>2015-01-11T10:36:06Z</time>
      </trkpt>
      <trkpt lat="45.85792" lon="4.78869">
        <ele>528</ele>
        <time>2015-01-11T10:36:08Z</time>
      </trkpt>
      <trkpt lat="45.85788" lon="4.78886">
        <ele>527</ele>
        <time>2015-01-11T10:36:12Z</time>
      </trkpt>
      <trkpt lat="45.85787" lon="4.78898">
        <ele>526</ele>
        <time>2015-01-11T10:36:15Z</time>
      </trkpt>
      <trkpt lat="45.85789" lon="4.78906">
        <ele>526</ele>
        <time>2015-01-11T10:36:17Z</time>
      </trkpt>
      <trkpt lat="45.85792" lon="4.78914">
        <ele>527</ele>
        <time>2015-01-11T10:36:19Z</time>
      </trkpt>
      <trkpt lat="45.85794" lon="4.78922">
        <ele>523</ele>
        <time>2015-01-11T10:36:21Z</time>
      </trkpt>
      <trkpt lat="45.85797" lon="4.7893">
        <ele>523</ele>
        <time>2015-01-11T10:36:23Z</time>
      </trkpt>
      <trkpt lat="45.85801" lon="4.78948">
        <ele>523</ele>
        <time>2015-01-11T10:36:28Z</time>
      </trkpt>
      <trkpt lat="45.85803" lon="4.78955">
        <ele>523</ele>
        <time>2015-01-11T10:36:30Z</time>
      </trkpt>
      <trkpt lat="45.85808" lon="4.78974">
        <ele>522</ele>
        <time>2015-01-11T10:36:35Z</time>
      </trkpt>
      <trkpt lat="45.85809" lon="4.78978">
        <ele>522</ele>
        <time>2015-01-11T10:36:36Z</time>
      </trkpt>
      <trkpt lat="45.85814" lon="4.79002">
        <ele>518</ele>
        <time>2015-01-11T10:36:42Z</time>
      </trkpt>
      <trkpt lat="45.85815" lon="4.79006">
        <ele>518</ele>
        <time>2015-01-11T10:36:43Z</time>
      </trkpt>
      <trkpt lat="45.85821" lon="4.79028">
        <ele>517</ele>
        <time>2015-01-11T10:36:49Z</time>
      </trkpt>
      <trkpt lat="45.85822" lon="4.79031">
        <ele>516</ele>
        <time>2015-01-11T10:36:50Z</time>
      </trkpt>
      <trkpt lat="45.85829" lon="4.79052">
        <ele>515</ele>
        <time>2015-01-11T10:36:56Z</time>
      </trkpt>
      <trkpt lat="45.85836" lon="4.79075">
        <ele>517</ele>
        <time>2015-01-11T10:37:02Z</time>
      </trkpt>
      <trkpt lat="45.85838" lon="4.79079">
        <ele>516</ele>
        <time>2015-01-11T10:37:03Z</time>
      </trkpt>
      <trkpt lat="45.85843" lon="4.79098">
        <ele>515</ele>
        <time>2015-01-11T10:37:08Z</time>
      </trkpt>
      <trkpt lat="45.85846" lon="4.79105">
        <ele>516</ele>
        <time>2015-01-11T10:37:10Z</time>
      </trkpt>
      <trkpt lat="45.85853" lon="4.79127">
        <ele>516</ele>
        <time>2015-01-11T10:37:16Z</time>
      </trkpt>
      <trkpt lat="45.85854" lon="4.79131">
        <ele>515</ele>
        <time>2015-01-11T10:37:17Z</time>
      </trkpt>
      <trkpt lat="45.85859" lon="4.79146">
        <ele>515</ele>
        <time>2015-01-11T10:37:21Z</time>
      </trkpt>
      <trkpt lat="45.85862" lon="4.79158">
        <ele>514</ele>
        <time>2015-01-11T10:37:24Z</time>
      </trkpt>
      <trkpt lat="45.85864" lon="4.79173">
        <ele>509</ele>
        <time>2015-01-11T10:37:28Z</time>
      </trkpt>
      <trkpt lat="45.85862" lon="4.79184">
        <ele>509</ele>
        <time>2015-01-11T10:37:31Z</time>
      </trkpt>
      <trkpt lat="45.8586" lon="4.79186">
        <ele>509</ele>
        <time>2015-01-11T10:37:32Z</time>
      </trkpt>
      <trkpt lat="45.85853" lon="4.79182">
        <ele>509</ele>
        <time>2015-01-11T10:37:35Z</time>
      </trkpt>
      <trkpt lat="45.8585" lon="4.79181">
        <ele>508</ele>
        <time>2015-01-11T10:37:36Z</time>
      </trkpt>
      <trkpt lat="45.85845" lon="4.79179">
        <ele>508</ele>
        <time>2015-01-11T10:37:38Z</time>
      </trkpt>
      <trkpt lat="45.85832" lon="4.79173">
        <ele>505</ele>
        <time>2015-01-11T10:37:43Z</time>
      </trkpt>
      <trkpt lat="45.85826" lon="4.79169">
        <ele>505</ele>
        <time>2015-01-11T10:37:45Z</time>
      </trkpt>
      <trkpt lat="45.85818" lon="4.79164">
        <ele>507</ele>
        <time>2015-01-11T10:37:48Z</time>
      </trkpt>
      <trkpt lat="45.85809" lon="4.79161">
        <ele>506</ele>
        <time>2015-01-11T10:37:52Z</time>
      </trkpt>
      <trkpt lat="45.85803" lon="4.79159">
        <ele>506</ele>
        <time>2015-01-11T10:37:54Z</time>
      </trkpt>
      <trkpt lat="45.85789" lon="4.79153">
        <ele>505</ele>
        <time>2015-01-11T10:38:00Z</time>
      </trkpt>
      <trkpt lat="45.85776" lon="4.79148">
        <ele>505</ele>
        <time>2015-01-11T10:38:05Z</time>
      </trkpt>
      <trkpt lat="45.85771" lon="4.79146">
        <ele>504</ele>
        <time>2015-01-11T10:38:07Z</time>
      </trkpt>
      <trkpt lat="45.85762" lon="4.79141">
        <ele>504</ele>
        <time>2015-01-11T10:38:11Z</time>
      </trkpt>
      <trkpt lat="45.85754" lon="4.79137">
        <ele>504</ele>
        <time>2015-01-11T10:38:15Z</time>
      </trkpt>
      <trkpt lat="45.85751" lon="4.79135">
        <ele>504</ele>
        <time>2015-01-11T10:38:16Z</time>
      </trkpt>
      <trkpt lat="45.85738" lon="4.7913">
        <ele>498</ele>
        <time>2015-01-11T10:38:21Z</time>
      </trkpt>
      <trkpt lat="45.85735" lon="4.79129">
        <ele>498</ele>
        <time>2015-01-11T10:38:22Z</time>
      </trkpt>
      <trkpt lat="45.85719" lon="4.79124">
        <ele>497</ele>
        <time>2015-01-11T10:38:28Z</time>
      </trkpt>
      <trkpt lat="45.85717" lon="4.79123">
        <ele>497</ele>
        <time>2015-01-11T10:38:29Z</time>
      </trkpt>
      <trkpt lat="45.85706" lon="4.7912">
        <ele>496</ele>
        <time>2015-01-11T10:38:33Z</time>
      </trkpt>
      <trkpt lat="45.85697" lon="4.79115">
        <ele>496</ele>
        <time>2015-01-11T10:38:36Z</time>
      </trkpt>
      <trkpt lat="45.85694" lon="4.79113">
        <ele>496</ele>
        <time>2015-01-11T10:38:37Z</time>
      </trkpt>
      <trkpt lat="45.85679" lon="4.79101">
        <ele>495</ele>
        <time>2015-01-11T10:38:44Z</time>
      </trkpt>
      <trkpt lat="45.85667" lon="4.79091">
        <ele>494</ele>
        <time>2015-01-11T10:38:49Z</time>
      </trkpt>
      <trkpt lat="45.85662" lon="4.79086">
        <ele>492</ele>
        <time>2015-01-11T10:38:51Z</time>
      </trkpt>
      <trkpt lat="45.85655" lon="4.79081">
        <ele>494</ele>
        <time>2015-01-11T10:38:54Z</time>
      </trkpt>
      <trkpt lat="45.85646" lon="4.79072">
        <ele>494</ele>
        <time>2015-01-11T10:38:58Z</time>
      </trkpt>
      <trkpt lat="45.85644" lon="4.7907">
        <ele>493</ele>
        <time>2015-01-11T10:38:59Z</time>
      </trkpt>
      <trkpt lat="45.8563" lon="4.79063">
        <ele>493</ele>
        <time>2015-01-11T10:39:04Z</time>
      </trkpt>
      <trkpt lat="45.85627" lon="4.79062">
        <ele>493</ele>
        <time>2015-01-11T10:39:05Z</time>
      </trkpt>
      <trkpt lat="45.85617" lon="4.79059">
        <ele>492</ele>
        <time>2015-01-11T10:39:09Z</time>
      </trkpt>
      <trkpt lat="45.85614" lon="4.79058">
        <ele>492</ele>
        <time>2015-01-11T10:39:11Z</time>
      </trkpt>
      <trkpt lat="45.85609" lon="4.79056">
        <ele>492</ele>
        <time>2015-01-11T10:39:14Z</time>
      </trkpt>
      <trkpt lat="45.85593" lon="4.79051">
        <ele>491</ele>
        <time>2015-01-11T10:39:20Z</time>
      </trkpt>
      <trkpt lat="45.85591" lon="4.79051">
        <ele>491</ele>
        <time>2015-01-11T10:39:21Z</time>
      </trkpt>
      <trkpt lat="45.85582" lon="4.79048">
        <ele>487</ele>
        <time>2015-01-11T10:39:24Z</time>
      </trkpt>
      <trkpt lat="45.85571" lon="4.79047">
        <ele>486</ele>
        <time>2015-01-11T10:39:28Z</time>
      </trkpt>
      <trkpt lat="45.85569" lon="4.79048">
        <ele>486</ele>
        <time>2015-01-11T10:39:29Z</time>
      </trkpt>
      <trkpt lat="45.85561" lon="4.79048">
        <ele>486</ele>
        <time>2015-01-11T10:39:33Z</time>
      </trkpt>
      <trkpt lat="45.85559" lon="4.79049">
        <ele>486</ele>
        <time>2015-01-11T10:39:34Z</time>
      </trkpt>
      <trkpt lat="45.85553" lon="4.79046">
        <ele>486</ele>
        <time>2015-01-11T10:39:37Z</time>
      </trkpt>
      <trkpt lat="45.8555" lon="4.79044">
        <ele>486</ele>
        <time>2015-01-11T10:39:38Z</time>
      </trkpt>
      <trkpt lat="45.85539" lon="4.79037">
        <ele>486</ele>
        <time>2015-01-11T10:39:43Z</time>
      </trkpt>
      <trkpt lat="45.85535" lon="4.79034">
        <ele>486</ele>
        <time>2015-01-11T10:39:45Z</time>
      </trkpt>
      <trkpt lat="45.85534" lon="4.79032">
        <ele>486</ele>
        <time>2015-01-11T10:39:46Z</time>
      </trkpt>
      <trkpt lat="45.85531" lon="4.79029">
        <ele>487</ele>
        <time>2015-01-11T10:39:48Z</time>
      </trkpt>
      <trkpt lat="45.85518" lon="4.79021">
        <ele>487</ele>
        <time>2015-01-11T10:39:53Z</time>
      </trkpt>
      <trkpt lat="45.85515" lon="4.7902">
        <ele>487</ele>
        <time>2015-01-11T10:39:54Z</time>
      </trkpt>
      <trkpt lat="45.85504" lon="4.79015">
        <ele>488</ele>
        <time>2015-01-11T10:39:59Z</time>
      </trkpt>
      <trkpt lat="45.85504" lon="4.79016">
        <ele>488</ele>
        <time>2015-01-11T10:40:00Z</time>
      </trkpt>
      <trkpt lat="45.85504" lon="4.79021">
        <ele>487</ele>
        <time>2015-01-11T10:40:03Z</time>
      </trkpt>
      <trkpt lat="45.85505" lon="4.79022">
        <ele>487</ele>
        <time>2015-01-11T10:40:04Z</time>
      </trkpt>
      <trkpt lat="45.85508" lon="4.79023">
        <ele>487</ele>
        <time>2015-01-11T10:40:06Z</time>
      </trkpt>
      <trkpt lat="45.85512" lon="4.79027">
        <ele>487</ele>
        <time>2015-01-11T10:40:11Z</time>
      </trkpt>
      <trkpt lat="45.8552" lon="4.79034">
        <ele>486</ele>
        <time>2015-01-11T10:40:19Z</time>
      </trkpt>
      <trkpt lat="45.85528" lon="4.79041">
        <ele>486</ele>
        <time>2015-01-11T10:40:25Z</time>
      </trkpt>
      <trkpt lat="45.85529" lon="4.79042">
        <ele>486</ele>
        <time>2015-01-11T10:40:26Z</time>
      </trkpt>
      <trkpt lat="45.85531" lon="4.79043">
        <ele>486</ele>
        <time>2015-01-11T10:40:31Z</time>
      </trkpt>
      <trkpt lat="45.85533" lon="4.79045">
        <ele>485</ele>
        <time>2015-01-11T10:40:33Z</time>
      </trkpt>
      <trkpt lat="45.85535" lon="4.79046">
        <ele>485</ele>
        <time>2015-01-11T10:40:35Z</time>
      </trkpt>
      <trkpt lat="45.85537" lon="4.79048">
        <ele>485</ele>
        <time>2015-01-11T10:40:39Z</time>
      </trkpt>
      <trkpt lat="45.85538" lon="4.7905">
        <ele>485</ele>
        <time>2015-01-11T10:40:41Z</time>
      </trkpt>
      <trkpt lat="45.85545" lon="4.79055">
        <ele>485</ele>
        <time>2015-01-11T10:40:49Z</time>
      </trkpt>
      <trkpt lat="45.8555" lon="4.79058">
        <ele>485</ele>
        <time>2015-01-11T10:40:55Z</time>
      </trkpt>
      <trkpt lat="45.85553" lon="4.79061">
        <ele>485</ele>
        <time>2015-01-11T10:40:59Z</time>
      </trkpt>
      <trkpt lat="45.85555" lon="4.79063">
        <ele>485</ele>
        <time>2015-01-11T10:41:01Z</time>
      </trkpt>
      <trkpt lat="45.85557" lon="4.79064">
        <ele>485</ele>
        <time>2015-01-11T10:41:03Z</time>
      </trkpt>
      <trkpt lat="45.85562" lon="4.79067">
        <ele>485</ele>
        <time>2015-01-11T10:41:06Z</time>
      </trkpt>
      <trkpt lat="45.85565" lon="4.79071">
        <ele>485</ele>
        <time>2015-01-11T10:41:08Z</time>
      </trkpt>
      <trkpt lat="45.85568" lon="4.79073">
        <ele>485</ele>
        <time>2015-01-11T10:41:09Z</time>
      </trkpt>
      <trkpt lat="45.85575" lon="4.79079">
        <ele>485</ele>
        <time>2015-01-11T10:41:12Z</time>
      </trkpt>
      <trkpt lat="45.85582" lon="4.79089">
        <ele>482</ele>
        <time>2015-01-11T10:41:16Z</time>
      </trkpt>
      <trkpt lat="45.85585" lon="4.79095">
        <ele>484</ele>
        <time>2015-01-11T10:41:18Z</time>
      </trkpt>
      <trkpt lat="45.85592" lon="4.79113">
        <ele>483</ele>
        <time>2015-01-11T10:41:23Z</time>
      </trkpt>
      <trkpt lat="45.85594" lon="4.79133">
        <ele>481</ele>
        <time>2015-01-11T10:41:28Z</time>
      </trkpt>
      <trkpt lat="45.85595" lon="4.79141">
        <ele>480</ele>
        <time>2015-01-11T10:41:30Z</time>
      </trkpt>
      <trkpt lat="45.85595" lon="4.79159">
        <ele>478</ele>
        <time>2015-01-11T10:41:34Z</time>
      </trkpt>
      <trkpt lat="45.85595" lon="4.79167">
        <ele>474</ele>
        <time>2015-01-11T10:41:36Z</time>
      </trkpt>
      <trkpt lat="45.85596" lon="4.79179">
        <ele>474</ele>
        <time>2015-01-11T10:41:39Z</time>
      </trkpt>
      <trkpt lat="45.85595" lon="4.79193">
        <ele>475</ele>
        <time>2015-01-11T10:41:42Z</time>
      </trkpt>
      <trkpt lat="45.85595" lon="4.79201">
        <ele>474</ele>
        <time>2015-01-11T10:41:44Z</time>
      </trkpt>
      <trkpt lat="45.85596" lon="4.79221">
        <ele>474</ele>
        <time>2015-01-11T10:41:49Z</time>
      </trkpt>
      <trkpt lat="45.85596" lon="4.79225">
        <ele>473</ele>
        <time>2015-01-11T10:41:50Z</time>
      </trkpt>
      <trkpt lat="45.85597" lon="4.7925">
        <ele>472</ele>
        <time>2015-01-11T10:41:56Z</time>
      </trkpt>
      <trkpt lat="45.856" lon="4.79269">
        <ele>470</ele>
        <time>2015-01-11T10:42:01Z</time>
      </trkpt>
      <trkpt lat="45.85602" lon="4.79277">
        <ele>470</ele>
        <time>2015-01-11T10:42:03Z</time>
      </trkpt>
      <trkpt lat="45.85604" lon="4.79285">
        <ele>470</ele>
        <time>2015-01-11T10:42:05Z</time>
      </trkpt>
      <trkpt lat="45.85609" lon="4.79303">
        <ele>469</ele>
        <time>2015-01-11T10:42:10Z</time>
      </trkpt>
      <trkpt lat="45.85614" lon="4.79323">
        <ele>469</ele>
        <time>2015-01-11T10:42:16Z</time>
      </trkpt>
      <trkpt lat="45.85616" lon="4.7933">
        <ele>469</ele>
        <time>2015-01-11T10:42:18Z</time>
      </trkpt>
      <trkpt lat="45.85618" lon="4.79347">
        <ele>466</ele>
        <time>2015-01-11T10:42:23Z</time>
      </trkpt>
      <trkpt lat="45.85614" lon="4.79344">
        <ele>466</ele>
        <time>2015-01-11T10:42:26Z</time>
      </trkpt>
      <trkpt lat="45.85612" lon="4.79341">
        <ele>465</ele>
        <time>2015-01-11T10:42:27Z</time>
      </trkpt>
      <trkpt lat="45.8561" lon="4.79339">
        <ele>465</ele>
        <time>2015-01-11T10:42:28Z</time>
      </trkpt>
      <trkpt lat="45.85605" lon="4.7933">
        <ele>468</ele>
        <time>2015-01-11T10:42:31Z</time>
      </trkpt>
      <trkpt lat="45.85599" lon="4.79319">
        <ele>467</ele>
        <time>2015-01-11T10:42:35Z</time>
      </trkpt>
      <trkpt lat="45.85596" lon="4.79314">
        <ele>468</ele>
        <time>2015-01-11T10:42:37Z</time>
      </trkpt>
      <trkpt lat="45.85586" lon="4.793">
        <ele>468</ele>
        <time>2015-01-11T10:42:42Z</time>
      </trkpt>
      <trkpt lat="45.85584" lon="4.79298">
        <ele>468</ele>
        <time>2015-01-11T10:42:43Z</time>
      </trkpt>
      <trkpt lat="45.85574" lon="4.79285">
        <ele>463</ele>
        <time>2015-01-11T10:42:48Z</time>
      </trkpt>
      <trkpt lat="45.85573" lon="4.79282">
        <ele>463</ele>
        <time>2015-01-11T10:42:49Z</time>
      </trkpt>
      <trkpt lat="45.85562" lon="4.79268">
        <ele>463</ele>
        <time>2015-01-11T10:42:55Z</time>
      </trkpt>
      <trkpt lat="45.85558" lon="4.79264">
        <ele>463</ele>
        <time>2015-01-11T10:42:57Z</time>
      </trkpt>
      <trkpt lat="45.85548" lon="4.79261">
        <ele>462</ele>
        <time>2015-01-11T10:43:01Z</time>
      </trkpt>
      <trkpt lat="45.8554" lon="4.79262">
        <ele>461</ele>
        <time>2015-01-11T10:43:04Z</time>
      </trkpt>
      <trkpt lat="45.85532" lon="4.79263">
        <ele>460</ele>
        <time>2015-01-11T10:43:07Z</time>
      </trkpt>
      <trkpt lat="45.85521" lon="4.79265">
        <ele>460</ele>
        <time>2015-01-11T10:43:11Z</time>
      </trkpt>
      <trkpt lat="45.85511" lon="4.79268">
        <ele>459</ele>
        <time>2015-01-11T10:43:15Z</time>
      </trkpt>
      <trkpt lat="45.85503" lon="4.79269">
        <ele>459</ele>
        <time>2015-01-11T10:43:18Z</time>
      </trkpt>
      <trkpt lat="45.85495" lon="4.7927">
        <ele>455</ele>
        <time>2015-01-11T10:43:21Z</time>
      </trkpt>
      <trkpt lat="45.85484" lon="4.79272">
        <ele>454</ele>
        <time>2015-01-11T10:43:25Z</time>
      </trkpt>
      <trkpt lat="45.85479" lon="4.79273">
        <ele>454</ele>
        <time>2015-01-11T10:43:27Z</time>
      </trkpt>
      <trkpt lat="45.85467" lon="4.79281">
        <ele>453</ele>
        <time>2015-01-11T10:43:32Z</time>
      </trkpt>
      <trkpt lat="45.85466" lon="4.79295">
        <ele>453</ele>
        <time>2015-01-11T10:43:36Z</time>
      </trkpt>
      <trkpt lat="45.85466" lon="4.79307">
        <ele>453</ele>
        <time>2015-01-11T10:43:39Z</time>
      </trkpt>
      <trkpt lat="45.85462" lon="4.79313">
        <ele>452</ele>
        <time>2015-01-11T10:43:41Z</time>
      </trkpt>
      <trkpt lat="45.85451" lon="4.79313">
        <ele>452</ele>
        <time>2015-01-11T10:43:45Z</time>
      </trkpt>
      <trkpt lat="45.85449" lon="4.79312">
        <ele>452</ele>
        <time>2015-01-11T10:43:46Z</time>
      </trkpt>
      <trkpt lat="45.85446" lon="4.79311">
        <ele>452</ele>
        <time>2015-01-11T10:43:47Z</time>
      </trkpt>
      <trkpt lat="45.85436" lon="4.79307">
        <ele>452</ele>
        <time>2015-01-11T10:43:51Z</time>
      </trkpt>
      <trkpt lat="45.8543" lon="4.79305">
        <ele>451</ele>
        <time>2015-01-11T10:43:53Z</time>
      </trkpt>
      <trkpt lat="45.85422" lon="4.79302">
        <ele>451</ele>
        <time>2015-01-11T10:43:56Z</time>
      </trkpt>
      <trkpt lat="45.85412" lon="4.79298">
        <ele>453</ele>
        <time>2015-01-11T10:44:00Z</time>
      </trkpt>
      <trkpt lat="45.85404" lon="4.79295">
        <ele>453</ele>
        <time>2015-01-11T10:44:03Z</time>
      </trkpt>
      <trkpt lat="45.85392" lon="4.79299">
        <ele>453</ele>
        <time>2015-01-11T10:44:08Z</time>
      </trkpt>
      <trkpt lat="45.85388" lon="4.79314">
        <ele>453</ele>
        <time>2015-01-11T10:44:12Z</time>
      </trkpt>
      <trkpt lat="45.85387" lon="4.79326">
        <ele>452</ele>
        <time>2015-01-11T10:44:15Z</time>
      </trkpt>
      <trkpt lat="45.85386" lon="4.79337">
        <ele>447</ele>
        <time>2015-01-11T10:44:18Z</time>
      </trkpt>
      <trkpt lat="45.85384" lon="4.79353">
        <ele>447</ele>
        <time>2015-01-11T10:44:22Z</time>
      </trkpt>
      <trkpt lat="45.85382" lon="4.79364">
        <ele>446</ele>
        <time>2015-01-11T10:44:25Z</time>
      </trkpt>
      <trkpt lat="45.85381" lon="4.7937">
        <ele>446</ele>
        <time>2015-01-11T10:44:27Z</time>
      </trkpt>
      <trkpt lat="45.85377" lon="4.79371">
        <ele>446</ele>
        <time>2015-01-11T10:44:29Z</time>
      </trkpt>
      <trkpt lat="45.85375" lon="4.7937">
        <ele>446</ele>
        <time>2015-01-11T10:44:30Z</time>
      </trkpt>
      <trkpt lat="45.85373" lon="4.79369">
        <ele>446</ele>
        <time>2015-01-11T10:44:31Z</time>
      </trkpt>
      <trkpt lat="45.85363" lon="4.79364">
        <ele>447</ele>
        <time>2015-01-11T10:44:35Z</time>
      </trkpt>
      <trkpt lat="45.85358" lon="4.79361">
        <ele>447</ele>
        <time>2015-01-11T10:44:37Z</time>
      </trkpt>
      <trkpt lat="45.85352" lon="4.79358">
        <ele>447</ele>
        <time>2015-01-11T10:44:39Z</time>
      </trkpt>
      <trkpt lat="45.85341" lon="4.7935">
        <ele>449</ele>
        <time>2015-01-11T10:44:44Z</time>
      </trkpt>
      <trkpt lat="45.85325" lon="4.79341">
        <ele>450</ele>
        <time>2015-01-11T10:44:51Z</time>
      </trkpt>
      <trkpt lat="45.85323" lon="4.7934">
        <ele>450</ele>
        <time>2015-01-11T10:44:52Z</time>
      </trkpt>
      <trkpt lat="45.85315" lon="4.79335">
        <ele>450</ele>
        <time>2015-01-11T10:44:56Z</time>
      </trkpt>
      <trkpt lat="45.85305" lon="4.7933">
        <ele>461</ele>
        <time>2015-01-11T10:45:02Z</time>
      </trkpt>
      <trkpt lat="45.85303" lon="4.79329">
        <ele>461</ele>
        <time>2015-01-11T10:45:03Z</time>
      </trkpt>
      <trkpt lat="45.85293" lon="4.79326">
        <ele>463</ele>
        <time>2015-01-11T10:45:09Z</time>
      </trkpt>
      <trkpt lat="45.85286" lon="4.79325">
        <ele>464</ele>
        <time>2015-01-11T10:45:12Z</time>
      </trkpt>
      <trkpt lat="45.8528" lon="4.79324">
        <ele>464</ele>
        <time>2015-01-11T10:45:15Z</time>
      </trkpt>
      <trkpt lat="45.8527" lon="4.79325">
        <ele>464</ele>
        <time>2015-01-11T10:45:20Z</time>
      </trkpt>
      <trkpt lat="45.85269" lon="4.79324">
        <ele>464</ele>
        <time>2015-01-11T10:45:21Z</time>
      </trkpt>
      <trkpt lat="45.85268" lon="4.79325">
        <ele>464</ele>
        <time>2015-01-11T10:45:23Z</time>
      </trkpt>
      <trkpt lat="45.85265" lon="4.79326">
        <ele>464</ele>
        <time>2015-01-11T10:45:25Z</time>
      </trkpt>
      <trkpt lat="45.85257" lon="4.79325">
        <ele>464</ele>
        <time>2015-01-11T10:45:30Z</time>
      </trkpt>
      <trkpt lat="45.85249" lon="4.79327">
        <ele>466</ele>
        <time>2015-01-11T10:45:36Z</time>
      </trkpt>
      <trkpt lat="45.85248" lon="4.79327">
        <ele>466</ele>
        <time>2015-01-11T10:45:37Z</time>
      </trkpt>
      <trkpt lat="45.85239" lon="4.79322">
        <ele>469</ele>
        <time>2015-01-11T10:45:45Z</time>
      </trkpt>
      <trkpt lat="45.85237" lon="4.79321">
        <ele>469</ele>
        <time>2015-01-11T10:45:47Z</time>
      </trkpt>
      <trkpt lat="45.85234" lon="4.7932">
        <ele>470</ele>
        <time>2015-01-11T10:45:50Z</time>
      </trkpt>
      <trkpt lat="45.85233" lon="4.7932">
        <ele>470</ele>
        <time>2015-01-11T10:45:51Z</time>
      </trkpt>
      <trkpt lat="45.85232" lon="4.79319">
        <ele>471</ele>
        <time>2015-01-11T10:45:52Z</time>
      </trkpt>
      <trkpt lat="45.85228" lon="4.79317">
        <ele>471</ele>
        <time>2015-01-11T10:45:57Z</time>
      </trkpt>
      <trkpt lat="45.85221" lon="4.79314">
        <ele>472</ele>
        <time>2015-01-11T10:46:03Z</time>
      </trkpt>
      <trkpt lat="45.85217" lon="4.79309">
        <ele>473</ele>
        <time>2015-01-11T10:46:09Z</time>
      </trkpt>
      <trkpt lat="45.85215" lon="4.79306">
        <ele>473</ele>
        <time>2015-01-11T10:46:11Z</time>
      </trkpt>
      <trkpt lat="45.8521" lon="4.79303">
        <ele>474</ele>
        <time>2015-01-11T10:46:16Z</time>
      </trkpt>
      <trkpt lat="45.85204" lon="4.79296">
        <ele>475</ele>
        <time>2015-01-11T10:46:22Z</time>
      </trkpt>
      <trkpt lat="45.852" lon="4.79294">
        <ele>475</ele>
        <time>2015-01-11T10:46:27Z</time>
      </trkpt>
      <trkpt lat="45.85199" lon="4.79294">
        <ele>475</ele>
        <time>2015-01-11T10:46:28Z</time>
      </trkpt>
      <trkpt lat="45.85195" lon="4.79289">
        <ele>476</ele>
        <time>2015-01-11T10:46:33Z</time>
      </trkpt>
      <trkpt lat="45.85188" lon="4.79282">
        <ele>477</ele>
        <time>2015-01-11T10:46:39Z</time>
      </trkpt>
      <trkpt lat="45.85186" lon="4.79279">
        <ele>477</ele>
        <time>2015-01-11T10:46:43Z</time>
      </trkpt>
      <trkpt lat="45.85184" lon="4.79278">
        <ele>477</ele>
        <time>2015-01-11T10:46:45Z</time>
      </trkpt>
      <trkpt lat="45.85183" lon="4.79277">
        <ele>477</ele>
        <time>2015-01-11T10:46:46Z</time>
      </trkpt>
      <trkpt lat="45.85177" lon="4.79272">
        <ele>478</ele>
        <time>2015-01-11T10:46:50Z</time>
      </trkpt>
      <trkpt lat="45.85174" lon="4.79269">
        <ele>479</ele>
        <time>2015-01-11T10:46:53Z</time>
      </trkpt>
      <trkpt lat="45.85173" lon="4.79268">
        <ele>479</ele>
        <time>2015-01-11T10:46:55Z</time>
      </trkpt>
      <trkpt lat="45.85172" lon="4.79266">
        <ele>479</ele>
        <time>2015-01-11T10:46:56Z</time>
      </trkpt>
      <trkpt lat="45.85169" lon="4.79267">
        <ele>479</ele>
        <time>2015-01-11T10:46:59Z</time>
      </trkpt>
      <trkpt lat="45.85169" lon="4.79267">
        <ele>479</ele>
        <time>2015-01-11T10:47:00Z</time>
      </trkpt>
      <trkpt lat="45.85167" lon="4.79267">
        <ele>479</ele>
        <time>2015-01-11T10:47:01Z</time>
      </trkpt>
      <trkpt lat="45.85159" lon="4.79271">
        <ele>478</ele>
        <time>2015-01-11T10:47:06Z</time>
      </trkpt>
      <trkpt lat="45.85157" lon="4.79271">
        <ele>478</ele>
        <time>2015-01-11T10:47:07Z</time>
      </trkpt>
      <trkpt lat="45.85148" lon="4.7927">
        <ele>478</ele>
        <time>2015-01-11T10:47:11Z</time>
      </trkpt>
      <trkpt lat="45.85133" lon="4.79267">
        <ele>477</ele>
        <time>2015-01-11T10:47:17Z</time>
      </trkpt>
      <trkpt lat="45.85129" lon="4.79265">
        <ele>477</ele>
        <time>2015-01-11T10:47:19Z</time>
      </trkpt>
      <trkpt lat="45.85122" lon="4.79264">
        <ele>477</ele>
        <time>2015-01-11T10:47:22Z</time>
      </trkpt>
      <trkpt lat="45.8511" lon="4.79265">
        <ele>477</ele>
        <time>2015-01-11T10:47:27Z</time>
      </trkpt>
      <trkpt lat="45.85103" lon="4.79265">
        <ele>477</ele>
        <time>2015-01-11T10:47:30Z</time>
      </trkpt>
      <trkpt lat="45.85098" lon="4.79266">
        <ele>477</ele>
        <time>2015-01-11T10:47:32Z</time>
      </trkpt>
      <trkpt lat="45.8509" lon="4.79268">
        <ele>477</ele>
        <time>2015-01-11T10:47:35Z</time>
      </trkpt>
      <trkpt lat="45.85081" lon="4.79266">
        <ele>474</ele>
        <time>2015-01-11T10:47:38Z</time>
      </trkpt>
      <trkpt lat="45.85073" lon="4.79256">
        <ele>475</ele>
        <time>2015-01-11T10:47:42Z</time>
      </trkpt>
      <trkpt lat="45.85072" lon="4.79253">
        <ele>475</ele>
        <time>2015-01-11T10:47:43Z</time>
      </trkpt>
      <trkpt lat="45.85068" lon="4.79248">
        <ele>477</ele>
        <time>2015-01-11T10:47:47Z</time>
      </trkpt>
      <trkpt lat="45.85061" lon="4.79247">
        <ele>476</ele>
        <time>2015-01-11T10:48:10Z</time>
      </trkpt>
      <trkpt lat="45.8506" lon="4.79247">
        <ele>476</ele>
        <time>2015-01-11T10:48:20Z</time>
      </trkpt>
      <trkpt lat="45.8506" lon="4.79247">
        <ele>476</ele>
        <time>2015-01-11T10:48:33Z</time>
      </trkpt>
      <trkpt lat="45.85061" lon="4.79246">
        <ele>476</ele>
        <time>2015-01-11T10:49:24Z</time>
      </trkpt>
      <trkpt lat="45.85061" lon="4.79244">
        <ele>476</ele>
        <time>2015-01-11T10:49:40Z</time>
      </trkpt>
      <trkpt lat="45.8506" lon="4.79244">
        <ele>476</ele>
        <time>2015-01-11T10:49:47Z</time>
      </trkpt>
      <trkpt lat="45.85055" lon="4.79249">
        <ele>475</ele>
        <time>2015-01-11T10:49:50Z</time>
      </trkpt>
      <trkpt lat="45.85048" lon="4.7925">
        <ele>471</ele>
        <time>2015-01-11T10:49:53Z</time>
      </trkpt>
      <trkpt lat="45.85045" lon="4.7925">
        <ele>474</ele>
        <time>2015-01-11T10:49:54Z</time>
      </trkpt>
      <trkpt lat="45.85042" lon="4.79249">
        <ele>474</ele>
        <time>2015-01-11T10:49:55Z</time>
      </trkpt>
      <trkpt lat="45.85035" lon="4.79247">
        <ele>473</ele>
        <time>2015-01-11T10:49:58Z</time>
      </trkpt>
      <trkpt lat="45.85032" lon="4.79246">
        <ele>473</ele>
        <time>2015-01-11T10:49:59Z</time>
      </trkpt>
      <trkpt lat="45.85029" lon="4.79245">
        <ele>473</ele>
        <time>2015-01-11T10:50:00Z</time>
      </trkpt>
      <trkpt lat="45.85021" lon="4.79243">
        <ele>472</ele>
        <time>2015-01-11T10:50:03Z</time>
      </trkpt>
      <trkpt lat="45.85016" lon="4.79243">
        <ele>471</ele>
        <time>2015-01-11T10:50:05Z</time>
      </trkpt>
      <trkpt lat="45.85011" lon="4.79243">
        <ele>471</ele>
        <time>2015-01-11T10:50:07Z</time>
      </trkpt>
      <trkpt lat="45.85008" lon="4.79243">
        <ele>471</ele>
        <time>2015-01-11T10:50:08Z</time>
      </trkpt>
      <trkpt lat="45.84991" lon="4.79241">
        <ele>465</ele>
        <time>2015-01-11T10:50:13Z</time>
      </trkpt>
      <trkpt lat="45.84988" lon="4.7924">
        <ele>464</ele>
        <time>2015-01-11T10:50:14Z</time>
      </trkpt>
      <trkpt lat="45.84971" lon="4.79241">
        <ele>461</ele>
        <time>2015-01-11T10:50:19Z</time>
      </trkpt>
      <trkpt lat="45.84957" lon="4.79243">
        <ele>459</ele>
        <time>2015-01-11T10:50:24Z</time>
      </trkpt>
      <trkpt lat="45.84952" lon="4.79244">
        <ele>458</ele>
        <time>2015-01-11T10:50:26Z</time>
      </trkpt>
      <trkpt lat="45.84947" lon="4.79248">
        <ele>458</ele>
        <time>2015-01-11T10:50:28Z</time>
      </trkpt>
      <trkpt lat="45.84947" lon="4.7925">
        <ele>455</ele>
        <time>2015-01-11T10:50:29Z</time>
      </trkpt>
      <trkpt lat="45.84951" lon="4.79263">
        <ele>456</ele>
        <time>2015-01-11T10:50:33Z</time>
      </trkpt>
      <trkpt lat="45.84952" lon="4.79266">
        <ele>456</ele>
        <time>2015-01-11T10:50:34Z</time>
      </trkpt>
      <trkpt lat="45.84958" lon="4.79275">
        <ele>456</ele>
        <time>2015-01-11T10:50:37Z</time>
      </trkpt>
      <trkpt lat="45.84967" lon="4.79286">
        <ele>456</ele>
        <time>2015-01-11T10:50:41Z</time>
      </trkpt>
      <trkpt lat="45.84969" lon="4.79288">
        <ele>456</ele>
        <time>2015-01-11T10:50:42Z</time>
      </trkpt>
      <trkpt lat="45.84967" lon="4.79296">
        <ele>456</ele>
        <time>2015-01-11T10:50:45Z</time>
      </trkpt>
      <trkpt lat="45.84964" lon="4.79295">
        <ele>455</ele>
        <time>2015-01-11T10:50:46Z</time>
      </trkpt>
      <trkpt lat="45.84958" lon="4.79295">
        <ele>455</ele>
        <time>2015-01-11T10:50:48Z</time>
      </trkpt>
      <trkpt lat="45.84952" lon="4.79296">
        <ele>454</ele>
        <time>2015-01-11T10:50:50Z</time>
      </trkpt>
      <trkpt lat="45.84945" lon="4.79297">
        <ele>453</ele>
        <time>2015-01-11T10:50:52Z</time>
      </trkpt>
      <trkpt lat="45.84941" lon="4.79296">
        <ele>453</ele>
        <time>2015-01-11T10:50:53Z</time>
      </trkpt>
      <trkpt lat="45.84938" lon="4.79296">
        <ele>452</ele>
        <time>2015-01-11T10:50:54Z</time>
      </trkpt>
      <trkpt lat="45.84925" lon="4.79291">
        <ele>452</ele>
        <time>2015-01-11T10:50:58Z</time>
      </trkpt>
      <trkpt lat="45.8492" lon="4.79287">
        <ele>452</ele>
        <time>2015-01-11T10:51:00Z</time>
      </trkpt>
      <trkpt lat="45.84918" lon="4.79284">
        <ele>452</ele>
        <time>2015-01-11T10:51:01Z</time>
      </trkpt>
      <trkpt lat="45.84912" lon="4.79278">
        <ele>447</ele>
        <time>2015-01-11T10:51:03Z</time>
      </trkpt>
      <trkpt lat="45.84906" lon="4.79267">
        <ele>448</ele>
        <time>2015-01-11T10:51:06Z</time>
      </trkpt>
      <trkpt lat="45.84905" lon="4.79264">
        <ele>449</ele>
        <time>2015-01-11T10:51:07Z</time>
      </trkpt>
      <trkpt lat="45.84897" lon="4.79245">
        <ele>451</ele>
        <time>2015-01-11T10:51:13Z</time>
      </trkpt>
      <trkpt lat="45.84891" lon="4.79226">
        <ele>450</ele>
        <time>2015-01-11T10:51:18Z</time>
      </trkpt>
      <trkpt lat="45.8489" lon="4.79218">
        <ele>450</ele>
        <time>2015-01-11T10:51:20Z</time>
      </trkpt>
      <trkpt lat="45.84891" lon="4.79206">
        <ele>450</ele>
        <time>2015-01-11T10:51:23Z</time>
      </trkpt>
      <trkpt lat="45.84893" lon="4.79191">
        <ele>450</ele>
        <time>2015-01-11T10:51:27Z</time>
      </trkpt>
      <trkpt lat="45.84893" lon="4.79187">
        <ele>450</ele>
        <time>2015-01-11T10:51:28Z</time>
      </trkpt>
      <trkpt lat="45.84893" lon="4.79162">
        <ele>452</ele>
        <time>2015-01-11T10:51:34Z</time>
      </trkpt>
      <trkpt lat="45.84891" lon="4.79142">
        <ele>452</ele>
        <time>2015-01-11T10:51:39Z</time>
      </trkpt>
      <trkpt lat="45.84892" lon="4.79136">
        <ele>452</ele>
        <time>2015-01-11T10:51:41Z</time>
      </trkpt>
      <trkpt lat="45.84895" lon="4.79124">
        <ele>453</ele>
        <time>2015-01-11T10:51:45Z</time>
      </trkpt>
      <trkpt lat="45.84897" lon="4.79111">
        <ele>453</ele>
        <time>2015-01-11T10:51:50Z</time>
      </trkpt>
      <trkpt lat="45.84898" lon="4.79109">
        <ele>454</ele>
        <time>2015-01-11T10:51:51Z</time>
      </trkpt>
      <trkpt lat="45.84899" lon="4.79099">
        <ele>454</ele>
        <time>2015-01-11T10:51:55Z</time>
      </trkpt>
      <trkpt lat="45.84899" lon="4.79089">
        <ele>454</ele>
        <time>2015-01-11T10:51:59Z</time>
      </trkpt>
      <trkpt lat="45.84899" lon="4.79084">
        <ele>454</ele>
        <time>2015-01-11T10:52:01Z</time>
      </trkpt>
      <trkpt lat="45.84899" lon="4.79081">
        <ele>457</ele>
        <time>2015-01-11T10:52:02Z</time>
      </trkpt>
      <trkpt lat="45.84896" lon="4.79075">
        <ele>457</ele>
        <time>2015-01-11T10:52:05Z</time>
      </trkpt>
      <trkpt lat="45.84889" lon="4.7906">
        <ele>457</ele>
        <time>2015-01-11T10:52:11Z</time>
      </trkpt>
      <trkpt lat="45.84889" lon="4.79057">
        <ele>457</ele>
        <time>2015-01-11T10:52:12Z</time>
      </trkpt>
      <trkpt lat="45.84885" lon="4.79047">
        <ele>458</ele>
        <time>2015-01-11T10:52:16Z</time>
      </trkpt>
      <trkpt lat="45.84879" lon="4.79031">
        <ele>458</ele>
        <time>2015-01-11T10:52:22Z</time>
      </trkpt>
      <trkpt lat="45.84879" lon="4.79025">
        <ele>458</ele>
        <time>2015-01-11T10:52:24Z</time>
      </trkpt>
      <trkpt lat="45.84879" lon="4.79016">
        <ele>459</ele>
        <time>2015-01-11T10:52:27Z</time>
      </trkpt>
      <trkpt lat="45.84878" lon="4.79008">
        <ele>459</ele>
        <time>2015-01-11T10:52:30Z</time>
      </trkpt>
      <trkpt lat="45.84876" lon="4.79005">
        <ele>459</ele>
        <time>2015-01-11T10:52:31Z</time>
      </trkpt>
      <trkpt lat="45.84875" lon="4.79002">
        <ele>459</ele>
        <time>2015-01-11T10:52:32Z</time>
      </trkpt>
      <trkpt lat="45.84872" lon="4.78991">
        <ele>465</ele>
        <time>2015-01-11T10:52:37Z</time>
      </trkpt>
      <trkpt lat="45.84866" lon="4.78989">
        <ele>465</ele>
        <time>2015-01-11T10:52:43Z</time>
      </trkpt>
      <trkpt lat="45.84863" lon="4.78987">
        <ele>464</ele>
        <time>2015-01-11T10:52:46Z</time>
      </trkpt>
      <trkpt lat="45.84862" lon="4.78985">
        <ele>464</ele>
        <time>2015-01-11T10:52:47Z</time>
      </trkpt>
      <trkpt lat="45.84859" lon="4.78981">
        <ele>464</ele>
        <time>2015-01-11T10:52:49Z</time>
      </trkpt>
      <trkpt lat="45.84853" lon="4.78975">
        <ele>465</ele>
        <time>2015-01-11T10:52:52Z</time>
      </trkpt>
      <trkpt lat="45.84852" lon="4.78973">
        <ele>465</ele>
        <time>2015-01-11T10:52:53Z</time>
      </trkpt>
      <trkpt lat="45.84852" lon="4.78969">
        <ele>465</ele>
        <time>2015-01-11T10:52:56Z</time>
      </trkpt>
      <trkpt lat="45.84852" lon="4.78967">
        <ele>466</ele>
        <time>2015-01-11T10:52:57Z</time>
      </trkpt>
      <trkpt lat="45.84849" lon="4.78961">
        <ele>466</ele>
        <time>2015-01-11T10:53:01Z</time>
      </trkpt>
      <trkpt lat="45.84848" lon="4.78959">
        <ele>467</ele>
        <time>2015-01-11T10:53:02Z</time>
      </trkpt>
      <trkpt lat="45.84847" lon="4.78955">
        <ele>467</ele>
        <time>2015-01-11T10:53:04Z</time>
      </trkpt>
      <trkpt lat="45.84844" lon="4.78952">
        <ele>467</ele>
        <time>2015-01-11T10:53:06Z</time>
      </trkpt>
      <trkpt lat="45.84839" lon="4.78945">
        <ele>468</ele>
        <time>2015-01-11T10:53:10Z</time>
      </trkpt>
      <trkpt lat="45.84836" lon="4.78942">
        <ele>469</ele>
        <time>2015-01-11T10:53:13Z</time>
      </trkpt>
      <trkpt lat="45.84835" lon="4.78941">
        <ele>469</ele>
        <time>2015-01-11T10:53:14Z</time>
      </trkpt>
      <trkpt lat="45.84831" lon="4.7894">
        <ele>467</ele>
        <time>2015-01-11T10:53:17Z</time>
      </trkpt>
      <trkpt lat="45.84821" lon="4.78939">
        <ele>466</ele>
        <time>2015-01-11T10:53:23Z</time>
      </trkpt>
      <trkpt lat="45.84819" lon="4.78939">
        <ele>466</ele>
        <time>2015-01-11T10:53:24Z</time>
      </trkpt>
      <trkpt lat="45.84804" lon="4.78936">
        <ele>466</ele>
        <time>2015-01-11T10:53:29Z</time>
      </trkpt>
      <trkpt lat="45.84799" lon="4.78935">
        <ele>466</ele>
        <time>2015-01-11T10:53:31Z</time>
      </trkpt>
      <trkpt lat="45.8479" lon="4.78932">
        <ele>465</ele>
        <time>2015-01-11T10:53:34Z</time>
      </trkpt>
      <trkpt lat="45.84781" lon="4.7893">
        <ele>465</ele>
        <time>2015-01-11T10:53:37Z</time>
      </trkpt>
      <trkpt lat="45.84776" lon="4.78926">
        <ele>465</ele>
        <time>2015-01-11T10:53:39Z</time>
      </trkpt>
      <trkpt lat="45.84769" lon="4.78919">
        <ele>465</ele>
        <time>2015-01-11T10:53:44Z</time>
      </trkpt>
      <trkpt lat="45.84766" lon="4.78915">
        <ele>471</ele>
        <time>2015-01-11T10:53:48Z</time>
      </trkpt>
      <trkpt lat="45.84765" lon="4.78914">
        <ele>471</ele>
        <time>2015-01-11T10:53:50Z</time>
      </trkpt>
      <trkpt lat="45.84766" lon="4.78917">
        <ele>465</ele>
        <time>2015-01-11T10:53:57Z</time>
      </trkpt>
      <trkpt lat="45.84767" lon="4.7892">
        <ele>465</ele>
        <time>2015-01-11T10:54:04Z</time>
      </trkpt>
      <trkpt lat="45.84766" lon="4.78916">
        <ele>471</ele>
        <time>2015-01-11T10:54:13Z</time>
      </trkpt>
      <trkpt lat="45.84765" lon="4.78916">
        <ele>470</ele>
        <time>2015-01-11T10:54:21Z</time>
      </trkpt>
      <trkpt lat="45.8476" lon="4.7891">
        <ele>470</ele>
        <time>2015-01-11T10:54:27Z</time>
      </trkpt>
      <trkpt lat="45.84756" lon="4.78907">
        <ele>470</ele>
        <time>2015-01-11T10:54:30Z</time>
      </trkpt>
      <trkpt lat="45.8475" lon="4.78901">
        <ele>471</ele>
        <time>2015-01-11T10:54:34Z</time>
      </trkpt>
      <trkpt lat="45.84741" lon="4.78893">
        <ele>471</ele>
        <time>2015-01-11T10:54:39Z</time>
      </trkpt>
      <trkpt lat="45.84737" lon="4.7889">
        <ele>472</ele>
        <time>2015-01-11T10:54:41Z</time>
      </trkpt>
      <trkpt lat="45.84724" lon="4.78882">
        <ele>473</ele>
        <time>2015-01-11T10:54:47Z</time>
      </trkpt>
      <trkpt lat="45.84712" lon="4.78875">
        <ele>474</ele>
        <time>2015-01-11T10:54:53Z</time>
      </trkpt>
      <trkpt lat="45.84706" lon="4.78872">
        <ele>474</ele>
        <time>2015-01-11T10:54:56Z</time>
      </trkpt>
      <trkpt lat="45.84698" lon="4.78868">
        <ele>474</ele>
        <time>2015-01-11T10:55:00Z</time>
      </trkpt>
      <trkpt lat="45.84688" lon="4.78862">
        <ele>474</ele>
        <time>2015-01-11T10:55:05Z</time>
      </trkpt>
      <trkpt lat="45.84686" lon="4.78861">
        <ele>474</ele>
        <time>2015-01-11T10:55:06Z</time>
      </trkpt>
      <trkpt lat="45.84673" lon="4.78852">
        <ele>475</ele>
        <time>2015-01-11T10:55:13Z</time>
      </trkpt>
      <trkpt lat="45.84672" lon="4.7885">
        <ele>475</ele>
        <time>2015-01-11T10:55:14Z</time>
      </trkpt>
      <trkpt lat="45.84667" lon="4.78846">
        <ele>475</ele>
        <time>2015-01-11T10:55:17Z</time>
      </trkpt>
      <trkpt lat="45.84656" lon="4.78835">
        <ele>475</ele>
        <time>2015-01-11T10:55:24Z</time>
      </trkpt>
      <trkpt lat="45.8465" lon="4.78825">
        <ele>478</ele>
        <time>2015-01-11T10:55:29Z</time>
      </trkpt>
      <trkpt lat="45.84644" lon="4.78814">
        <ele>479</ele>
        <time>2015-01-11T10:55:35Z</time>
      </trkpt>
      <trkpt lat="45.84643" lon="4.78807">
        <ele>479</ele>
        <time>2015-01-11T10:55:39Z</time>
      </trkpt>
      <trkpt lat="45.84641" lon="4.78804">
        <ele>480</ele>
        <time>2015-01-11T10:55:41Z</time>
      </trkpt>
      <trkpt lat="45.84638" lon="4.78796">
        <ele>480</ele>
        <time>2015-01-11T10:55:47Z</time>
      </trkpt>
      <trkpt lat="45.84637" lon="4.78794">
        <ele>480</ele>
        <time>2015-01-11T10:55:48Z</time>
      </trkpt>
      <trkpt lat="45.84636" lon="4.78791">
        <ele>481</ele>
        <time>2015-01-11T10:55:51Z</time>
      </trkpt>
      <trkpt lat="45.84636" lon="4.7879">
        <ele>481</ele>
        <time>2015-01-11T10:55:52Z</time>
      </trkpt>
      <trkpt lat="45.84634" lon="4.78776">
        <ele>482</ele>
        <time>2015-01-11T10:56:00Z</time>
      </trkpt>
      <trkpt lat="45.84632" lon="4.78767">
        <ele>482</ele>
        <time>2015-01-11T10:56:06Z</time>
      </trkpt>
      <trkpt lat="45.84632" lon="4.78762">
        <ele>483</ele>
        <time>2015-01-11T10:56:09Z</time>
      </trkpt>
      <trkpt lat="45.84632" lon="4.78762">
        <ele>483</ele>
        <time>2015-01-11T10:56:10Z</time>
      </trkpt>
      <trkpt lat="45.84631" lon="4.7876">
        <ele>483</ele>
        <time>2015-01-11T10:56:12Z</time>
      </trkpt>
      <trkpt lat="45.84628" lon="4.78758">
        <ele>482</ele>
        <time>2015-01-11T10:56:15Z</time>
      </trkpt>
      <trkpt lat="45.84625" lon="4.78757">
        <ele>482</ele>
        <time>2015-01-11T10:56:17Z</time>
      </trkpt>
      <trkpt lat="45.84622" lon="4.78756">
        <ele>482</ele>
        <time>2015-01-11T10:56:21Z</time>
      </trkpt>
      <trkpt lat="45.84619" lon="4.78755">
        <ele>482</ele>
        <time>2015-01-11T10:56:24Z</time>
      </trkpt>
      <trkpt lat="45.84617" lon="4.78755">
        <ele>481</ele>
        <time>2015-01-11T10:56:32Z</time>
      </trkpt>
      <trkpt lat="45.84615" lon="4.78753">
        <ele>481</ele>
        <time>2015-01-11T10:56:34Z</time>
      </trkpt>
      <trkpt lat="45.84613" lon="4.78753">
        <ele>481</ele>
        <time>2015-01-11T10:56:39Z</time>
      </trkpt>
      <trkpt lat="45.84607" lon="4.78754">
        <ele>481</ele>
        <time>2015-01-11T10:56:45Z</time>
      </trkpt>
      <trkpt lat="45.84607" lon="4.78754">
        <ele>481</ele>
        <time>2015-01-11T10:56:51Z</time>
      </trkpt>
      <trkpt lat="45.84604" lon="4.78752">
        <ele>481</ele>
        <time>2015-01-11T10:56:59Z</time>
      </trkpt>
      <trkpt lat="45.84603" lon="4.78751">
        <ele>481</ele>
        <time>2015-01-11T10:57:09Z</time>
      </trkpt>
      <trkpt lat="45.84602" lon="4.78749">
        <ele>488</ele>
        <time>2015-01-11T10:57:11Z</time>
      </trkpt>
      <trkpt lat="45.846" lon="4.78748">
        <ele>488</ele>
        <time>2015-01-11T10:57:13Z</time>
      </trkpt>
      <trkpt lat="45.84598" lon="4.78748">
        <ele>487</ele>
        <time>2015-01-11T10:57:15Z</time>
      </trkpt>
      <trkpt lat="45.84595" lon="4.78748">
        <ele>486</ele>
        <time>2015-01-11T10:57:17Z</time>
      </trkpt>
      <trkpt lat="45.84589" lon="4.78746">
        <ele>484</ele>
        <time>2015-01-11T10:57:22Z</time>
      </trkpt>
      <trkpt lat="45.84588" lon="4.78746">
        <ele>484</ele>
        <time>2015-01-11T10:57:23Z</time>
      </trkpt>
      <trkpt lat="45.84583" lon="4.78742">
        <ele>483</ele>
        <time>2015-01-11T10:57:27Z</time>
      </trkpt>
      <trkpt lat="45.84582" lon="4.78742">
        <ele>483</ele>
        <time>2015-01-11T10:57:28Z</time>
      </trkpt>
      <trkpt lat="45.84581" lon="4.7874">
        <ele>484</ele>
        <time>2015-01-11T10:57:30Z</time>
      </trkpt>
      <trkpt lat="45.84581" lon="4.7874">
        <ele>484</ele>
        <time>2015-01-11T10:57:32Z</time>
      </trkpt>
      <trkpt lat="45.84581" lon="4.78742">
        <ele>483</ele>
        <time>2015-01-11T10:57:40Z</time>
      </trkpt>
      <trkpt lat="45.84578" lon="4.78745">
        <ele>483</ele>
        <time>2015-01-11T10:57:50Z</time>
      </trkpt>
      <trkpt lat="45.84579" lon="4.78747">
        <ele>482</ele>
        <time>2015-01-11T10:57:57Z</time>
      </trkpt>
      <trkpt lat="45.84579" lon="4.78743">
        <ele>483</ele>
        <time>2015-01-11T10:58:08Z</time>
      </trkpt>
      <trkpt lat="45.84579" lon="4.78743">
        <ele>483</ele>
        <time>2015-01-11T10:58:57Z</time>
      </trkpt>
      <trkpt lat="45.84576" lon="4.78745">
        <ele>483</ele>
        <time>2015-01-11T10:59:01Z</time>
      </trkpt>
      <trkpt lat="45.84573" lon="4.78748">
        <ele>484</ele>
        <time>2015-01-11T10:59:04Z</time>
      </trkpt>
      <trkpt lat="45.84566" lon="4.78749">
        <ele>485</ele>
        <time>2015-01-11T10:59:07Z</time>
      </trkpt>
      <trkpt lat="45.84555" lon="4.78753">
        <ele>480</ele>
        <time>2015-01-11T10:59:11Z</time>
      </trkpt>
      <trkpt lat="45.84552" lon="4.78755">
        <ele>480</ele>
        <time>2015-01-11T10:59:12Z</time>
      </trkpt>
      <trkpt lat="45.8454" lon="4.78761">
        <ele>481</ele>
        <time>2015-01-11T10:59:17Z</time>
      </trkpt>
      <trkpt lat="45.84536" lon="4.78764">
        <ele>481</ele>
        <time>2015-01-11T10:59:19Z</time>
      </trkpt>
      <trkpt lat="45.8453" lon="4.7877">
        <ele>481</ele>
        <time>2015-01-11T10:59:22Z</time>
      </trkpt>
      <trkpt lat="45.84521" lon="4.7878">
        <ele>481</ele>
        <time>2015-01-11T10:59:27Z</time>
      </trkpt>
      <trkpt lat="45.84519" lon="4.78783">
        <ele>481</ele>
        <time>2015-01-11T10:59:28Z</time>
      </trkpt>
      <trkpt lat="45.84509" lon="4.78791">
        <ele>481</ele>
        <time>2015-01-11T10:59:33Z</time>
      </trkpt>
      <trkpt lat="45.84504" lon="4.78794">
        <ele>481</ele>
        <time>2015-01-11T10:59:36Z</time>
      </trkpt>
      <trkpt lat="45.845" lon="4.78796">
        <ele>482</ele>
        <time>2015-01-11T10:59:38Z</time>
      </trkpt>
      <trkpt lat="45.84493" lon="4.78796">
        <ele>493</ele>
        <time>2015-01-11T10:59:45Z</time>
      </trkpt>
      <trkpt lat="45.84487" lon="4.78797">
        <ele>493</ele>
        <time>2015-01-11T10:59:51Z</time>
      </trkpt>
      <trkpt lat="45.84486" lon="4.78798">
        <ele>494</ele>
        <time>2015-01-11T10:59:54Z</time>
      </trkpt>
      <trkpt lat="45.84482" lon="4.78798">
        <ele>494</ele>
        <time>2015-01-11T10:59:57Z</time>
      </trkpt>
      <trkpt lat="45.8448" lon="4.78799">
        <ele>494</ele>
        <time>2015-01-11T11:00:00Z</time>
      </trkpt>
      <trkpt lat="45.84475" lon="4.78802">
        <ele>495</ele>
        <time>2015-01-11T11:00:05Z</time>
      </trkpt>
      <trkpt lat="45.84471" lon="4.78802">
        <ele>496</ele>
        <time>2015-01-11T11:00:09Z</time>
      </trkpt>
      <trkpt lat="45.84468" lon="4.78803">
        <ele>496</ele>
        <time>2015-01-11T11:00:12Z</time>
      </trkpt>
      <trkpt lat="45.84467" lon="4.78803">
        <ele>496</ele>
        <time>2015-01-11T11:00:13Z</time>
      </trkpt>
      <trkpt lat="45.84461" lon="4.78805">
        <ele>497</ele>
        <time>2015-01-11T11:00:20Z</time>
      </trkpt>
      <trkpt lat="45.84453" lon="4.78806">
        <ele>499</ele>
        <time>2015-01-11T11:00:28Z</time>
      </trkpt>
      <trkpt lat="45.8445" lon="4.78806">
        <ele>499</ele>
        <time>2015-01-11T11:00:31Z</time>
      </trkpt>
      <trkpt lat="45.84445" lon="4.78806">
        <ele>500</ele>
        <time>2015-01-11T11:00:36Z</time>
      </trkpt>
      <trkpt lat="45.84437" lon="4.78806">
        <ele>501</ele>
        <time>2015-01-11T11:00:44Z</time>
      </trkpt>
      <trkpt lat="45.84432" lon="4.78806">
        <ele>502</ele>
        <time>2015-01-11T11:00:49Z</time>
      </trkpt>
      <trkpt lat="45.84431" lon="4.78805">
        <ele>502</ele>
        <time>2015-01-11T11:00:50Z</time>
      </trkpt>
      <trkpt lat="45.8443" lon="4.78804">
        <ele>502</ele>
        <time>2015-01-11T11:00:52Z</time>
      </trkpt>
      <trkpt lat="45.84428" lon="4.78804">
        <ele>502</ele>
        <time>2015-01-11T11:00:54Z</time>
      </trkpt>
      <trkpt lat="45.84426" lon="4.78804">
        <ele>503</ele>
        <time>2015-01-11T11:00:57Z</time>
      </trkpt>
      <trkpt lat="45.84424" lon="4.78805">
        <ele>503</ele>
        <time>2015-01-11T11:01:00Z</time>
      </trkpt>
      <trkpt lat="45.84421" lon="4.78805">
        <ele>503</ele>
        <time>2015-01-11T11:01:03Z</time>
      </trkpt>
      <trkpt lat="45.84418" lon="4.78805">
        <ele>503</ele>
        <time>2015-01-11T11:01:07Z</time>
      </trkpt>
      <trkpt lat="45.84416" lon="4.78804">
        <ele>519</ele>
        <time>2015-01-11T11:01:10Z</time>
      </trkpt>
      <trkpt lat="45.84413" lon="4.78804">
        <ele>519</ele>
        <time>2015-01-11T11:01:14Z</time>
      </trkpt>
      <trkpt lat="45.84412" lon="4.78804">
        <ele>519</ele>
        <time>2015-01-11T11:01:16Z</time>
      </trkpt>
      <trkpt lat="45.84406" lon="4.78802">
        <ele>520</ele>
        <time>2015-01-11T11:01:23Z</time>
      </trkpt>
      <trkpt lat="45.844" lon="4.78802">
        <ele>520</ele>
        <time>2015-01-11T11:01:30Z</time>
      </trkpt>
      <trkpt lat="45.84398" lon="4.78801">
        <ele>521</ele>
        <time>2015-01-11T11:01:32Z</time>
      </trkpt>
      <trkpt lat="45.84397" lon="4.788">
        <ele>521</ele>
        <time>2015-01-11T11:01:36Z</time>
      </trkpt>
      <trkpt lat="45.84395" lon="4.78798">
        <ele>521</ele>
        <time>2015-01-11T11:01:38Z</time>
      </trkpt>
      <trkpt lat="45.84392" lon="4.78797">
        <ele>522</ele>
        <time>2015-01-11T11:01:42Z</time>
      </trkpt>
      <trkpt lat="45.84388" lon="4.78795">
        <ele>522</ele>
        <time>2015-01-11T11:01:47Z</time>
      </trkpt>
      <trkpt lat="45.84387" lon="4.78793">
        <ele>522</ele>
        <time>2015-01-11T11:01:49Z</time>
      </trkpt>
      <trkpt lat="45.84383" lon="4.78792">
        <ele>523</ele>
        <time>2015-01-11T11:01:53Z</time>
      </trkpt>
      <trkpt lat="45.8438" lon="4.78787">
        <ele>524</ele>
        <time>2015-01-11T11:02:00Z</time>
      </trkpt>
      <trkpt lat="45.8438" lon="4.78786">
        <ele>524</ele>
        <time>2015-01-11T11:02:01Z</time>
      </trkpt>
      <trkpt lat="45.84379" lon="4.78786">
        <ele>524</ele>
        <time>2015-01-11T11:02:02Z</time>
      </trkpt>
      <trkpt lat="45.84379" lon="4.78783">
        <ele>524</ele>
        <time>2015-01-11T11:02:05Z</time>
      </trkpt>
      <trkpt lat="45.84376" lon="4.78777">
        <ele>524</ele>
        <time>2015-01-11T11:02:11Z</time>
      </trkpt>
      <trkpt lat="45.84377" lon="4.78772">
        <ele>524</ele>
        <time>2015-01-11T11:02:22Z</time>
      </trkpt>
      <trkpt lat="45.84373" lon="4.78766">
        <ele>525</ele>
        <time>2015-01-11T11:02:37Z</time>
      </trkpt>
      <trkpt lat="45.84372" lon="4.78762">
        <ele>525</ele>
        <time>2015-01-11T11:02:40Z</time>
      </trkpt>
      <trkpt lat="45.8437" lon="4.78762">
        <ele>525</ele>
        <time>2015-01-11T11:02:43Z</time>
      </trkpt>
      <trkpt lat="45.84366" lon="4.7876">
        <ele>526</ele>
        <time>2015-01-11T11:02:48Z</time>
      </trkpt>
      <trkpt lat="45.84366" lon="4.78759">
        <ele>526</ele>
        <time>2015-01-11T11:02:49Z</time>
      </trkpt>
      <trkpt lat="45.84365" lon="4.78756">
        <ele>526</ele>
        <time>2015-01-11T11:02:53Z</time>
      </trkpt>
      <trkpt lat="45.84364" lon="4.78758">
        <ele>527</ele>
        <time>2015-01-11T11:02:56Z</time>
      </trkpt>
      <trkpt lat="45.8436" lon="4.78762">
        <ele>527</ele>
        <time>2015-01-11T11:03:01Z</time>
      </trkpt>
      <trkpt lat="45.84359" lon="4.78762">
        <ele>527</ele>
        <time>2015-01-11T11:03:02Z</time>
      </trkpt>
      <trkpt lat="45.84357" lon="4.78761">
        <ele>528</ele>
        <time>2015-01-11T11:03:05Z</time>
      </trkpt>
      <trkpt lat="45.84356" lon="4.7876">
        <ele>528</ele>
        <time>2015-01-11T11:03:07Z</time>
      </trkpt>
      <trkpt lat="45.84354" lon="4.78756">
        <ele>529</ele>
        <time>2015-01-11T11:03:11Z</time>
      </trkpt>
      <trkpt lat="45.84355" lon="4.78754">
        <ele>529</ele>
        <time>2015-01-11T11:03:12Z</time>
      </trkpt>
      <trkpt lat="45.84355" lon="4.78754">
        <ele>529</ele>
        <time>2015-01-11T11:03:13Z</time>
      </trkpt>
      <trkpt lat="45.84349" lon="4.78753">
        <ele>530</ele>
        <time>2015-01-11T11:03:22Z</time>
      </trkpt>
      <trkpt lat="45.84344" lon="4.78758">
        <ele>531</ele>
        <time>2015-01-11T11:03:28Z</time>
      </trkpt>
      <trkpt lat="45.8434" lon="4.7876">
        <ele>532</ele>
        <time>2015-01-11T11:03:34Z</time>
      </trkpt>
      <trkpt lat="45.84338" lon="4.78763">
        <ele>531</ele>
        <time>2015-01-11T11:03:39Z</time>
      </trkpt>
      <trkpt lat="45.84337" lon="4.78759">
        <ele>532</ele>
        <time>2015-01-11T11:03:44Z</time>
      </trkpt>
      <trkpt lat="45.84334" lon="4.78759">
        <ele>533</ele>
        <time>2015-01-11T11:03:49Z</time>
      </trkpt>
      <trkpt lat="45.84328" lon="4.78757">
        <ele>539</ele>
        <time>2015-01-11T11:03:56Z</time>
      </trkpt>
      <trkpt lat="45.84327" lon="4.78756">
        <ele>539</ele>
        <time>2015-01-11T11:03:58Z</time>
      </trkpt>
      <trkpt lat="45.84324" lon="4.78757">
        <ele>540</ele>
        <time>2015-01-11T11:04:02Z</time>
      </trkpt>
      <trkpt lat="45.84322" lon="4.7876">
        <ele>541</ele>
        <time>2015-01-11T11:04:07Z</time>
      </trkpt>
      <trkpt lat="45.84319" lon="4.78761">
        <ele>542</ele>
        <time>2015-01-11T11:04:14Z</time>
      </trkpt>
      <trkpt lat="45.84313" lon="4.78759">
        <ele>543</ele>
        <time>2015-01-11T11:04:22Z</time>
      </trkpt>
      <trkpt lat="45.84309" lon="4.78758">
        <ele>543</ele>
        <time>2015-01-11T11:04:27Z</time>
      </trkpt>
      <trkpt lat="45.84308" lon="4.78758">
        <ele>544</ele>
        <time>2015-01-11T11:04:28Z</time>
      </trkpt>
      <trkpt lat="45.84305" lon="4.78759">
        <ele>544</ele>
        <time>2015-01-11T11:04:32Z</time>
      </trkpt>
      <trkpt lat="45.84304" lon="4.78758">
        <ele>544</ele>
        <time>2015-01-11T11:04:33Z</time>
      </trkpt>
      <trkpt lat="45.84301" lon="4.78759">
        <ele>545</ele>
        <time>2015-01-11T11:04:38Z</time>
      </trkpt>
      <trkpt lat="45.843" lon="4.7876">
        <ele>545</ele>
        <time>2015-01-11T11:04:39Z</time>
      </trkpt>
      <trkpt lat="45.84298" lon="4.78764">
        <ele>546</ele>
        <time>2015-01-11T11:04:44Z</time>
      </trkpt>
      <trkpt lat="45.84297" lon="4.78764">
        <ele>546</ele>
        <time>2015-01-11T11:05:20Z</time>
      </trkpt>
      <trkpt lat="45.84297" lon="4.78765">
        <ele>546</ele>
        <time>2015-01-11T11:05:29Z</time>
      </trkpt>
      <trkpt lat="45.84297" lon="4.78766">
        <ele>546</ele>
        <time>2015-01-11T11:05:30Z</time>
      </trkpt>
      <trkpt lat="45.84296" lon="4.78767">
        <ele>546</ele>
        <time>2015-01-11T11:06:22Z</time>
      </trkpt>
      <trkpt lat="45.84296" lon="4.78765">
        <ele>546</ele>
        <time>2015-01-11T11:06:33Z</time>
      </trkpt>
      <trkpt lat="45.84294" lon="4.78766">
        <ele>546</ele>
        <time>2015-01-11T11:07:10Z</time>
      </trkpt>
      <trkpt lat="45.84292" lon="4.7877">
        <ele>547</ele>
        <time>2015-01-11T11:07:15Z</time>
      </trkpt>
      <trkpt lat="45.84289" lon="4.78771">
        <ele>547</ele>
        <time>2015-01-11T11:07:18Z</time>
      </trkpt>
      <trkpt lat="45.84288" lon="4.7877">
        <ele>547</ele>
        <time>2015-01-11T11:07:19Z</time>
      </trkpt>
      <trkpt lat="45.84282" lon="4.78769">
        <ele>548</ele>
        <time>2015-01-11T11:07:26Z</time>
      </trkpt>
      <trkpt lat="45.84277" lon="4.78768">
        <ele>549</ele>
        <time>2015-01-11T11:07:33Z</time>
      </trkpt>
      <trkpt lat="45.84273" lon="4.78774">
        <ele>549</ele>
        <time>2015-01-11T11:07:40Z</time>
      </trkpt>
      <trkpt lat="45.84273" lon="4.78775">
        <ele>549</ele>
        <time>2015-01-11T11:07:43Z</time>
      </trkpt>
      <trkpt lat="45.84272" lon="4.78776">
        <ele>549</ele>
        <time>2015-01-11T11:07:45Z</time>
      </trkpt>
      <trkpt lat="45.8427" lon="4.78781">
        <ele>549</ele>
        <time>2015-01-11T11:07:50Z</time>
      </trkpt>
      <trkpt lat="45.84265" lon="4.78788">
        <ele>550</ele>
        <time>2015-01-11T11:07:55Z</time>
      </trkpt>
      <trkpt lat="45.84261" lon="4.78793">
        <ele>550</ele>
        <time>2015-01-11T11:08:00Z</time>
      </trkpt>
      <trkpt lat="45.84261" lon="4.78795">
        <ele>550</ele>
        <time>2015-01-11T11:08:01Z</time>
      </trkpt>
      <trkpt lat="45.84258" lon="4.78799">
        <ele>550</ele>
        <time>2015-01-11T11:08:06Z</time>
      </trkpt>
      <trkpt lat="45.84257" lon="4.78799">
        <ele>550</ele>
        <time>2015-01-11T11:08:07Z</time>
      </trkpt>
      <trkpt lat="45.84254" lon="4.78801">
        <ele>550</ele>
        <time>2015-01-11T11:08:11Z</time>
      </trkpt>
      <trkpt lat="45.84253" lon="4.78802">
        <ele>551</ele>
        <time>2015-01-11T11:08:12Z</time>
      </trkpt>
      <trkpt lat="45.84246" lon="4.78807">
        <ele>559</ele>
        <time>2015-01-11T11:08:18Z</time>
      </trkpt>
      <trkpt lat="45.84245" lon="4.78807">
        <ele>559</ele>
        <time>2015-01-11T11:08:19Z</time>
      </trkpt>
      <trkpt lat="45.84242" lon="4.7881">
        <ele>559</ele>
        <time>2015-01-11T11:08:22Z</time>
      </trkpt>
      <trkpt lat="45.84241" lon="4.78813">
        <ele>559</ele>
        <time>2015-01-11T11:08:24Z</time>
      </trkpt>
      <trkpt lat="45.84242" lon="4.78813">
        <ele>559</ele>
        <time>2015-01-11T11:08:25Z</time>
      </trkpt>
      <trkpt lat="45.8424" lon="4.78826">
        <ele>558</ele>
        <time>2015-01-11T11:08:31Z</time>
      </trkpt>
      <trkpt lat="45.84239" lon="4.78831">
        <ele>558</ele>
        <time>2015-01-11T11:08:34Z</time>
      </trkpt>
      <trkpt lat="45.8424" lon="4.78834">
        <ele>557</ele>
        <time>2015-01-11T11:08:37Z</time>
      </trkpt>
      <trkpt lat="45.8424" lon="4.78843">
        <ele>557</ele>
        <time>2015-01-11T11:08:43Z</time>
      </trkpt>
      <trkpt lat="45.84235" lon="4.78855">
        <ele>558</ele>
        <time>2015-01-11T11:08:50Z</time>
      </trkpt>
      <trkpt lat="45.84235" lon="4.78856">
        <ele>558</ele>
        <time>2015-01-11T11:08:51Z</time>
      </trkpt>
      <trkpt lat="45.84232" lon="4.78864">
        <ele>558</ele>
        <time>2015-01-11T11:08:56Z</time>
      </trkpt>
      <trkpt lat="45.84228" lon="4.78879">
        <ele>558</ele>
        <time>2015-01-11T11:09:04Z</time>
      </trkpt>
      <trkpt lat="45.84227" lon="4.78881">
        <ele>558</ele>
        <time>2015-01-11T11:09:05Z</time>
      </trkpt>
      <trkpt lat="45.84223" lon="4.78894">
        <ele>558</ele>
        <time>2015-01-11T11:09:13Z</time>
      </trkpt>
      <trkpt lat="45.84218" lon="4.78905">
        <ele>558</ele>
        <time>2015-01-11T11:09:20Z</time>
      </trkpt>
      <trkpt lat="45.84216" lon="4.78908">
        <ele>558</ele>
        <time>2015-01-11T11:09:22Z</time>
      </trkpt>
      <trkpt lat="45.84212" lon="4.78921">
        <ele>556</ele>
        <time>2015-01-11T11:09:28Z</time>
      </trkpt>
      <trkpt lat="45.84212" lon="4.78923">
        <ele>556</ele>
        <time>2015-01-11T11:09:29Z</time>
      </trkpt>
      <trkpt lat="45.8421" lon="4.78926">
        <ele>556</ele>
        <time>2015-01-11T11:09:32Z</time>
      </trkpt>
      <trkpt lat="45.84209" lon="4.78928">
        <ele>556</ele>
        <time>2015-01-11T11:09:34Z</time>
      </trkpt>
      <trkpt lat="45.84208" lon="4.7893">
        <ele>556</ele>
        <time>2015-01-11T11:09:35Z</time>
      </trkpt>
      <trkpt lat="45.84207" lon="4.78931">
        <ele>556</ele>
        <time>2015-01-11T11:09:36Z</time>
      </trkpt>
      <trkpt lat="45.84204" lon="4.78934">
        <ele>556</ele>
        <time>2015-01-11T11:09:39Z</time>
      </trkpt>
      <trkpt lat="45.84201" lon="4.78938">
        <ele>556</ele>
        <time>2015-01-11T11:09:42Z</time>
      </trkpt>
      <trkpt lat="45.84197" lon="4.78943">
        <ele>555</ele>
        <time>2015-01-11T11:09:46Z</time>
      </trkpt>
      <trkpt lat="45.84196" lon="4.78945">
        <ele>555</ele>
        <time>2015-01-11T11:09:47Z</time>
      </trkpt>
      <trkpt lat="45.84192" lon="4.78949">
        <ele>555</ele>
        <time>2015-01-11T11:09:50Z</time>
      </trkpt>
      <trkpt lat="45.84192" lon="4.7895">
        <ele>555</ele>
        <time>2015-01-11T11:09:51Z</time>
      </trkpt>
      <trkpt lat="45.84192" lon="4.78952">
        <ele>555</ele>
        <time>2015-01-11T11:09:55Z</time>
      </trkpt>
      <trkpt lat="45.84191" lon="4.7895">
        <ele>555</ele>
        <time>2015-01-11T11:10:04Z</time>
      </trkpt>
      <trkpt lat="45.84187" lon="4.78948">
        <ele>555</ele>
        <time>2015-01-11T11:10:37Z</time>
      </trkpt>
      <trkpt lat="45.84186" lon="4.78955">
        <ele>555</ele>
        <time>2015-01-11T11:10:44Z</time>
      </trkpt>
      <trkpt lat="45.84185" lon="4.78957">
        <ele>555</ele>
        <time>2015-01-11T11:10:45Z</time>
      </trkpt>
      <trkpt lat="45.8418" lon="4.78971">
        <ele>554</ele>
        <time>2015-01-11T11:10:49Z</time>
      </trkpt>
      <trkpt lat="45.84177" lon="4.78981">
        <ele>553</ele>
        <time>2015-01-11T11:10:52Z</time>
      </trkpt>
      <trkpt lat="45.84175" lon="4.78987">
        <ele>553</ele>
        <time>2015-01-11T11:10:54Z</time>
      </trkpt>
      <trkpt lat="45.84173" lon="4.79004">
        <ele>550</ele>
        <time>2015-01-11T11:11:00Z</time>
      </trkpt>
      <trkpt lat="45.84173" lon="4.79007">
        <ele>550</ele>
        <time>2015-01-11T11:11:01Z</time>
      </trkpt>
      <trkpt lat="45.84171" lon="4.79024">
        <ele>548</ele>
        <time>2015-01-11T11:11:05Z</time>
      </trkpt>
      <trkpt lat="45.84171" lon="4.79036">
        <ele>547</ele>
        <time>2015-01-11T11:11:08Z</time>
      </trkpt>
      <trkpt lat="45.84171" lon="4.79039">
        <ele>547</ele>
        <time>2015-01-11T11:11:09Z</time>
      </trkpt>
      <trkpt lat="45.84169" lon="4.79059">
        <ele>545</ele>
        <time>2015-01-11T11:11:14Z</time>
      </trkpt>
      <trkpt lat="45.84169" lon="4.79064">
        <ele>544</ele>
        <time>2015-01-11T11:11:15Z</time>
      </trkpt>
      <trkpt lat="45.84167" lon="4.79079">
        <ele>542</ele>
        <time>2015-01-11T11:11:19Z</time>
      </trkpt>
      <trkpt lat="45.84164" lon="4.79094">
        <ele>538</ele>
        <time>2015-01-11T11:11:22Z</time>
      </trkpt>
      <trkpt lat="45.84163" lon="4.79105">
        <ele>536</ele>
        <time>2015-01-11T11:11:24Z</time>
      </trkpt>
      <trkpt lat="45.84162" lon="4.7912">
        <ele>535</ele>
        <time>2015-01-11T11:11:27Z</time>
      </trkpt>
      <trkpt lat="45.84161" lon="4.79125">
        <ele>534</ele>
        <time>2015-01-11T11:11:28Z</time>
      </trkpt>
      <trkpt lat="45.84162" lon="4.79137">
        <ele>533</ele>
        <time>2015-01-11T11:11:31Z</time>
      </trkpt>
      <trkpt lat="45.84165" lon="4.79147">
        <ele>532</ele>
        <time>2015-01-11T11:11:33Z</time>
      </trkpt>
      <trkpt lat="45.84176" lon="4.79169">
        <ele>530</ele>
        <time>2015-01-11T11:11:39Z</time>
      </trkpt>
      <trkpt lat="45.84185" lon="4.79185">
        <ele>529</ele>
        <time>2015-01-11T11:11:44Z</time>
      </trkpt>
      <trkpt lat="45.84187" lon="4.79189">
        <ele>529</ele>
        <time>2015-01-11T11:11:45Z</time>
      </trkpt>
      <trkpt lat="45.84196" lon="4.792">
        <ele>529</ele>
        <time>2015-01-11T11:11:49Z</time>
      </trkpt>
      <trkpt lat="45.84201" lon="4.79206">
        <ele>529</ele>
        <time>2015-01-11T11:11:52Z</time>
      </trkpt>
      <trkpt lat="45.84206" lon="4.79211">
        <ele>529</ele>
        <time>2015-01-11T11:11:54Z</time>
      </trkpt>
      <trkpt lat="45.84217" lon="4.79225">
        <ele>529</ele>
        <time>2015-01-11T11:11:59Z</time>
      </trkpt>
      <trkpt lat="45.84228" lon="4.7924">
        <ele>529</ele>
        <time>2015-01-11T11:12:04Z</time>
      </trkpt>
      <trkpt lat="45.8423" lon="4.79244">
        <ele>529</ele>
        <time>2015-01-11T11:12:05Z</time>
      </trkpt>
      <trkpt lat="45.84238" lon="4.79258">
        <ele>528</ele>
        <time>2015-01-11T11:12:09Z</time>
      </trkpt>
      <trkpt lat="45.8424" lon="4.79265">
        <ele>528</ele>
        <time>2015-01-11T11:12:11Z</time>
      </trkpt>
      <trkpt lat="45.84242" lon="4.79273">
        <ele>527</ele>
        <time>2015-01-11T11:12:13Z</time>
      </trkpt>
      <trkpt lat="45.84241" lon="4.79291">
        <ele>527</ele>
        <time>2015-01-11T11:12:17Z</time>
      </trkpt>
      <trkpt lat="45.8424" lon="4.79295">
        <ele>527</ele>
        <time>2015-01-11T11:12:18Z</time>
      </trkpt>
      <trkpt lat="45.84233" lon="4.79317">
        <ele>527</ele>
        <time>2015-01-11T11:12:24Z</time>
      </trkpt>
      <trkpt lat="45.84235" lon="4.79333">
        <ele>527</ele>
        <time>2015-01-11T11:12:29Z</time>
      </trkpt>
      <trkpt lat="45.84242" lon="4.79337">
        <ele>528</ele>
        <time>2015-01-11T11:12:32Z</time>
      </trkpt>
      <trkpt lat="45.84244" lon="4.79337">
        <ele>528</ele>
        <time>2015-01-11T11:12:33Z</time>
      </trkpt>
      <trkpt lat="45.84247" lon="4.79337">
        <ele>527</ele>
        <time>2015-01-11T11:12:34Z</time>
      </trkpt>
      <trkpt lat="45.84259" lon="4.79337">
        <ele>527</ele>
        <time>2015-01-11T11:12:39Z</time>
      </trkpt>
      <trkpt lat="45.84261" lon="4.79338">
        <ele>527</ele>
        <time>2015-01-11T11:12:40Z</time>
      </trkpt>
      <trkpt lat="45.84268" lon="4.79343">
        <ele>527</ele>
        <time>2015-01-11T11:12:44Z</time>
      </trkpt>
      <trkpt lat="45.84274" lon="4.79347">
        <ele>527</ele>
        <time>2015-01-11T11:12:47Z</time>
      </trkpt>
      <trkpt lat="45.84274" lon="4.79349">
        <ele>527</ele>
        <time>2015-01-11T11:12:48Z</time>
      </trkpt>
      <trkpt lat="45.84274" lon="4.79354">
        <ele>527</ele>
        <time>2015-01-11T11:12:50Z</time>
      </trkpt>
      <trkpt lat="45.84273" lon="4.79357">
        <ele>527</ele>
        <time>2015-01-11T11:12:51Z</time>
      </trkpt>
      <trkpt lat="45.84273" lon="4.79362">
        <ele>527</ele>
        <time>2015-01-11T11:12:53Z</time>
      </trkpt>
      <trkpt lat="45.8427" lon="4.79376">
        <ele>527</ele>
        <time>2015-01-11T11:12:58Z</time>
      </trkpt>
      <trkpt lat="45.84269" lon="4.79382">
        <ele>527</ele>
        <time>2015-01-11T11:13:00Z</time>
      </trkpt>
      <trkpt lat="45.84266" lon="4.79392">
        <ele>528</ele>
        <time>2015-01-11T11:13:04Z</time>
      </trkpt>
      <trkpt lat="45.84262" lon="4.79406">
        <ele>528</ele>
        <time>2015-01-11T11:13:10Z</time>
      </trkpt>
      <trkpt lat="45.8426" lon="4.79416">
        <ele>529</ele>
        <time>2015-01-11T11:13:15Z</time>
      </trkpt>
      <trkpt lat="45.84256" lon="4.79429">
        <ele>531</ele>
        <time>2015-01-11T11:13:22Z</time>
      </trkpt>
      <trkpt lat="45.84256" lon="4.79431">
        <ele>532</ele>
        <time>2015-01-11T11:13:23Z</time>
      </trkpt>
      <trkpt lat="45.84252" lon="4.79444">
        <ele>533</ele>
        <time>2015-01-11T11:13:31Z</time>
      </trkpt>
      <trkpt lat="45.84248" lon="4.79455">
        <ele>539</ele>
        <time>2015-01-11T11:13:38Z</time>
      </trkpt>
      <trkpt lat="45.84249" lon="4.79458">
        <ele>539</ele>
        <time>2015-01-11T11:13:40Z</time>
      </trkpt>
      <trkpt lat="45.84254" lon="4.79474">
        <ele>536</ele>
        <time>2015-01-11T11:13:50Z</time>
      </trkpt>
      <trkpt lat="45.84256" lon="4.79479">
        <ele>537</ele>
        <time>2015-01-11T11:13:53Z</time>
      </trkpt>
      <trkpt lat="45.84259" lon="4.79487">
        <ele>539</ele>
        <time>2015-01-11T11:13:58Z</time>
      </trkpt>
      <trkpt lat="45.84263" lon="4.795">
        <ele>543</ele>
        <time>2015-01-11T11:14:05Z</time>
      </trkpt>
      <trkpt lat="45.84263" lon="4.79502">
        <ele>543</ele>
        <time>2015-01-11T11:14:06Z</time>
      </trkpt>
      <trkpt lat="45.84268" lon="4.79513">
        <ele>543</ele>
        <time>2015-01-11T11:14:12Z</time>
      </trkpt>
      <trkpt lat="45.84272" lon="4.79525">
        <ele>543</ele>
        <time>2015-01-11T11:14:19Z</time>
      </trkpt>
      <trkpt lat="45.84273" lon="4.79527">
        <ele>543</ele>
        <time>2015-01-11T11:14:20Z</time>
      </trkpt>
      <trkpt lat="45.84278" lon="4.79537">
        <ele>543</ele>
        <time>2015-01-11T11:14:26Z</time>
      </trkpt>
      <trkpt lat="45.84278" lon="4.79539">
        <ele>543</ele>
        <time>2015-01-11T11:14:27Z</time>
      </trkpt>
      <trkpt lat="45.84281" lon="4.79547">
        <ele>543</ele>
        <time>2015-01-11T11:14:32Z</time>
      </trkpt>
      <trkpt lat="45.84282" lon="4.79549">
        <ele>543</ele>
        <time>2015-01-11T11:14:33Z</time>
      </trkpt>
      <trkpt lat="45.84285" lon="4.79562">
        <ele>544</ele>
        <time>2015-01-11T11:14:40Z</time>
      </trkpt>
      <trkpt lat="45.84285" lon="4.79576">
        <ele>545</ele>
        <time>2015-01-11T11:14:46Z</time>
      </trkpt>
      <trkpt lat="45.84285" lon="4.79578">
        <ele>545</ele>
        <time>2015-01-11T11:14:47Z</time>
      </trkpt>
      <trkpt lat="45.84283" lon="4.79588">
        <ele>551</ele>
        <time>2015-01-11T11:14:53Z</time>
      </trkpt>
      <trkpt lat="45.84282" lon="4.79589">
        <ele>551</ele>
        <time>2015-01-11T11:14:58Z</time>
      </trkpt>
      <trkpt lat="45.84281" lon="4.7959">
        <ele>552</ele>
        <time>2015-01-11T11:15:05Z</time>
      </trkpt>
      <trkpt lat="45.84278" lon="4.79594">
        <ele>552</ele>
        <time>2015-01-11T11:15:10Z</time>
      </trkpt>
      <trkpt lat="45.84278" lon="4.79595">
        <ele>552</ele>
        <time>2015-01-11T11:15:11Z</time>
      </trkpt>
      <trkpt lat="45.84277" lon="4.79597">
        <ele>553</ele>
        <time>2015-01-11T11:15:12Z</time>
      </trkpt>
      <trkpt lat="45.84277" lon="4.79606">
        <ele>553</ele>
        <time>2015-01-11T11:15:16Z</time>
      </trkpt>
      <trkpt lat="45.84275" lon="4.79616">
        <ele>553</ele>
        <time>2015-01-11T11:15:21Z</time>
      </trkpt>
      <trkpt lat="45.84274" lon="4.79618">
        <ele>553</ele>
        <time>2015-01-11T11:15:22Z</time>
      </trkpt>
      <trkpt lat="45.84274" lon="4.79623">
        <ele>554</ele>
        <time>2015-01-11T11:15:24Z</time>
      </trkpt>
      <trkpt lat="45.84275" lon="4.79629">
        <ele>554</ele>
        <time>2015-01-11T11:15:27Z</time>
      </trkpt>
      <trkpt lat="45.84274" lon="4.79631">
        <ele>554</ele>
        <time>2015-01-11T11:15:28Z</time>
      </trkpt>
      <trkpt lat="45.84276" lon="4.79637">
        <ele>555</ele>
        <time>2015-01-11T11:15:31Z</time>
      </trkpt>
      <trkpt lat="45.84277" lon="4.79643">
        <ele>555</ele>
        <time>2015-01-11T11:15:34Z</time>
      </trkpt>
      <trkpt lat="45.84277" lon="4.79644">
        <ele>555</ele>
        <time>2015-01-11T11:15:35Z</time>
      </trkpt>
      <trkpt lat="45.84277" lon="4.79648">
        <ele>556</ele>
        <time>2015-01-11T11:15:37Z</time>
      </trkpt>
      <trkpt lat="45.84277" lon="4.79653">
        <ele>557</ele>
        <time>2015-01-11T11:15:40Z</time>
      </trkpt>
      <trkpt lat="45.84276" lon="4.79657">
        <ele>557</ele>
        <time>2015-01-11T11:15:42Z</time>
      </trkpt>
      <trkpt lat="45.84276" lon="4.79666">
        <ele>558</ele>
        <time>2015-01-11T11:15:47Z</time>
      </trkpt>
      <trkpt lat="45.84276" lon="4.79667">
        <ele>565</ele>
        <time>2015-01-11T11:15:48Z</time>
      </trkpt>
      <trkpt lat="45.84276" lon="4.79675">
        <ele>565</ele>
        <time>2015-01-11T11:15:52Z</time>
      </trkpt>
      <trkpt lat="45.84278" lon="4.79677">
        <ele>564</ele>
        <time>2015-01-11T11:15:53Z</time>
      </trkpt>
      <trkpt lat="45.84278" lon="4.7968">
        <ele>564</ele>
        <time>2015-01-11T11:15:54Z</time>
      </trkpt>
      <trkpt lat="45.84281" lon="4.79689">
        <ele>564</ele>
        <time>2015-01-11T11:15:57Z</time>
      </trkpt>
      <trkpt lat="45.84282" lon="4.79693">
        <ele>564</ele>
        <time>2015-01-11T11:15:59Z</time>
      </trkpt>
      <trkpt lat="45.84283" lon="4.79698">
        <ele>564</ele>
        <time>2015-01-11T11:16:01Z</time>
      </trkpt>
      <trkpt lat="45.84283" lon="4.797">
        <ele>564</ele>
        <time>2015-01-11T11:16:02Z</time>
      </trkpt>
      <trkpt lat="45.84286" lon="4.7971">
        <ele>564</ele>
        <time>2015-01-11T11:16:07Z</time>
      </trkpt>
      <trkpt lat="45.84288" lon="4.79722">
        <ele>565</ele>
        <time>2015-01-11T11:16:11Z</time>
      </trkpt>
      <trkpt lat="45.84289" lon="4.79723">
        <ele>565</ele>
        <time>2015-01-11T11:16:12Z</time>
      </trkpt>
      <trkpt lat="45.8429" lon="4.79725">
        <ele>564</ele>
        <time>2015-01-11T11:16:13Z</time>
      </trkpt>
      <trkpt lat="45.84293" lon="4.79729">
        <ele>564</ele>
        <time>2015-01-11T11:16:15Z</time>
      </trkpt>
      <trkpt lat="45.84297" lon="4.79738">
        <ele>564</ele>
        <time>2015-01-11T11:16:18Z</time>
      </trkpt>
      <trkpt lat="45.84299" lon="4.79741">
        <ele>563</ele>
        <time>2015-01-11T11:16:20Z</time>
      </trkpt>
      <trkpt lat="45.843" lon="4.79746">
        <ele>563</ele>
        <time>2015-01-11T11:16:22Z</time>
      </trkpt>
      <trkpt lat="45.84306" lon="4.79753">
        <ele>568</ele>
        <time>2015-01-11T11:16:25Z</time>
      </trkpt>
      <trkpt lat="45.84308" lon="4.79755">
        <ele>568</ele>
        <time>2015-01-11T11:16:26Z</time>
      </trkpt>
      <trkpt lat="45.84309" lon="4.79758">
        <ele>567</ele>
        <time>2015-01-11T11:16:27Z</time>
      </trkpt>
      <trkpt lat="45.84312" lon="4.79767">
        <ele>568</ele>
        <time>2015-01-11T11:16:30Z</time>
      </trkpt>
      <trkpt lat="45.84318" lon="4.7978">
        <ele>569</ele>
        <time>2015-01-11T11:16:34Z</time>
      </trkpt>
      <trkpt lat="45.84319" lon="4.79784">
        <ele>569</ele>
        <time>2015-01-11T11:16:35Z</time>
      </trkpt>
      <trkpt lat="45.84323" lon="4.79792">
        <ele>570</ele>
        <time>2015-01-11T11:16:38Z</time>
      </trkpt>
      <trkpt lat="45.84325" lon="4.79799">
        <ele>570</ele>
        <time>2015-01-11T11:16:40Z</time>
      </trkpt>
      <trkpt lat="45.84329" lon="4.79808">
        <ele>570</ele>
        <time>2015-01-11T11:16:44Z</time>
      </trkpt>
      <trkpt lat="45.84334" lon="4.79814">
        <ele>556</ele>
        <time>2015-01-11T11:16:48Z</time>
      </trkpt>
      <trkpt lat="45.84336" lon="4.79816">
        <ele>557</ele>
        <time>2015-01-11T11:16:50Z</time>
      </trkpt>
      <trkpt lat="45.84339" lon="4.79818">
        <ele>557</ele>
        <time>2015-01-11T11:16:52Z</time>
      </trkpt>
      <trkpt lat="45.84343" lon="4.79822">
        <ele>558</ele>
        <time>2015-01-11T11:16:55Z</time>
      </trkpt>
      <trkpt lat="45.84351" lon="4.79826">
        <ele>556</ele>
        <time>2015-01-11T11:16:59Z</time>
      </trkpt>
      <trkpt lat="45.84359" lon="4.79836">
        <ele>560</ele>
        <time>2015-01-11T11:17:03Z</time>
      </trkpt>
      <trkpt lat="45.8436" lon="4.79839">
        <ele>560</ele>
        <time>2015-01-11T11:17:04Z</time>
      </trkpt>
      <trkpt lat="45.84364" lon="4.79845">
        <ele>559</ele>
        <time>2015-01-11T11:17:06Z</time>
      </trkpt>
      <trkpt lat="45.84369" lon="4.79852">
        <ele>558</ele>
        <time>2015-01-11T11:17:09Z</time>
      </trkpt>
      <trkpt lat="45.84379" lon="4.79864">
        <ele>557</ele>
        <time>2015-01-11T11:17:15Z</time>
      </trkpt>
      <trkpt lat="45.8438" lon="4.79867">
        <ele>557</ele>
        <time>2015-01-11T11:17:16Z</time>
      </trkpt>
      <trkpt lat="45.84382" lon="4.79873">
        <ele>557</ele>
        <time>2015-01-11T11:17:18Z</time>
      </trkpt>
      <trkpt lat="45.84383" lon="4.79881">
        <ele>557</ele>
        <time>2015-01-11T11:17:21Z</time>
      </trkpt>
      <trkpt lat="45.8439" lon="4.79884">
        <ele>557</ele>
        <time>2015-01-11T11:17:25Z</time>
      </trkpt>
      <trkpt lat="45.84394" lon="4.79889">
        <ele>556</ele>
        <time>2015-01-11T11:17:28Z</time>
      </trkpt>
      <trkpt lat="45.84399" lon="4.79895">
        <ele>556</ele>
        <time>2015-01-11T11:17:31Z</time>
      </trkpt>
      <trkpt lat="45.84405" lon="4.79904">
        <ele>556</ele>
        <time>2015-01-11T11:17:35Z</time>
      </trkpt>
      <trkpt lat="45.84409" lon="4.79908">
        <ele>555</ele>
        <time>2015-01-11T11:17:37Z</time>
      </trkpt>
      <trkpt lat="45.84419" lon="4.79917">
        <ele>553</ele>
        <time>2015-01-11T11:17:42Z</time>
      </trkpt>
      <trkpt lat="45.84421" lon="4.79919">
        <ele>551</ele>
        <time>2015-01-11T11:17:43Z</time>
      </trkpt>
      <trkpt lat="45.84423" lon="4.79926">
        <ele>549</ele>
        <time>2015-01-11T11:17:45Z</time>
      </trkpt>
      <trkpt lat="45.8443" lon="4.79938">
        <ele>546</ele>
        <time>2015-01-11T11:17:49Z</time>
      </trkpt>
      <trkpt lat="45.84432" lon="4.7994">
        <ele>545</ele>
        <time>2015-01-11T11:17:50Z</time>
      </trkpt>
      <trkpt lat="45.84436" lon="4.79943">
        <ele>545</ele>
        <time>2015-01-11T11:17:52Z</time>
      </trkpt>
      <trkpt lat="45.84439" lon="4.79943">
        <ele>544</ele>
        <time>2015-01-11T11:17:54Z</time>
      </trkpt>
      <trkpt lat="45.84443" lon="4.79944">
        <ele>543</ele>
        <time>2015-01-11T11:17:57Z</time>
      </trkpt>
      <trkpt lat="45.84445" lon="4.79942">
        <ele>543</ele>
        <time>2015-01-11T11:17:59Z</time>
      </trkpt>
      <trkpt lat="45.84452" lon="4.7994">
        <ele>541</ele>
        <time>2015-01-11T11:18:02Z</time>
      </trkpt>
      <trkpt lat="45.84454" lon="4.79939">
        <ele>541</ele>
        <time>2015-01-11T11:18:03Z</time>
      </trkpt>
      <trkpt lat="45.8446" lon="4.79937">
        <ele>539</ele>
        <time>2015-01-11T11:18:08Z</time>
      </trkpt>
      <trkpt lat="45.84462" lon="4.79938">
        <ele>538</ele>
        <time>2015-01-11T11:18:11Z</time>
      </trkpt>
      <trkpt lat="45.84465" lon="4.79942">
        <ele>538</ele>
        <time>2015-01-11T11:18:14Z</time>
      </trkpt>
      <trkpt lat="45.84468" lon="4.79946">
        <ele>538</ele>
        <time>2015-01-11T11:18:17Z</time>
      </trkpt>
      <trkpt lat="45.84467" lon="4.7995">
        <ele>538</ele>
        <time>2015-01-11T11:18:20Z</time>
      </trkpt>
      <trkpt lat="45.84467" lon="4.79953">
        <ele>539</ele>
        <time>2015-01-11T11:18:22Z</time>
      </trkpt>
      <trkpt lat="45.84468" lon="4.79956">
        <ele>539</ele>
        <time>2015-01-11T11:18:25Z</time>
      </trkpt>
      <trkpt lat="45.84468" lon="4.79964">
        <ele>539</ele>
        <time>2015-01-11T11:18:33Z</time>
      </trkpt>
      <trkpt lat="45.84466" lon="4.79967">
        <ele>540</ele>
        <time>2015-01-11T11:18:40Z</time>
      </trkpt>
      <trkpt lat="45.84461" lon="4.79967">
        <ele>541</ele>
        <time>2015-01-11T11:18:54Z</time>
      </trkpt>
      <trkpt lat="45.8446" lon="4.79969">
        <ele>541</ele>
        <time>2015-01-11T11:19:01Z</time>
      </trkpt>
      <trkpt lat="45.84463" lon="4.79963">
        <ele>540</ele>
        <time>2015-01-11T11:20:19Z</time>
      </trkpt>
      <trkpt lat="45.84466" lon="4.79967">
        <ele>540</ele>
        <time>2015-01-11T11:21:14Z</time>
      </trkpt>
      <trkpt lat="45.84461" lon="4.79969">
        <ele>541</ele>
        <time>2015-01-11T11:21:30Z</time>
      </trkpt>
      <trkpt lat="45.84461" lon="4.79973">
        <ele>541</ele>
        <time>2015-01-11T11:21:34Z</time>
      </trkpt>
      <trkpt lat="45.84461" lon="4.79974">
        <ele>541</ele>
        <time>2015-01-11T11:21:35Z</time>
      </trkpt>
      <trkpt lat="45.84461" lon="4.79975">
        <ele>541</ele>
        <time>2015-01-11T11:21:36Z</time>
      </trkpt>
      <trkpt lat="45.84463" lon="4.7998">
        <ele>541</ele>
        <time>2015-01-11T11:21:40Z</time>
      </trkpt>
      <trkpt lat="45.84464" lon="4.7999">
        <ele>541</ele>
        <time>2015-01-11T11:21:45Z</time>
      </trkpt>
      <trkpt lat="45.84466" lon="4.79996">
        <ele>541</ele>
        <time>2015-01-11T11:21:50Z</time>
      </trkpt>
      <trkpt lat="45.84466" lon="4.79997">
        <ele>541</ele>
        <time>2015-01-11T11:21:51Z</time>
      </trkpt>
      <trkpt lat="45.8447" lon="4.80005">
        <ele>547</ele>
        <time>2015-01-11T11:21:56Z</time>
      </trkpt>
      <trkpt lat="45.84472" lon="4.80008">
        <ele>547</ele>
        <time>2015-01-11T11:21:58Z</time>
      </trkpt>
      <trkpt lat="45.84473" lon="4.80014">
        <ele>547</ele>
        <time>2015-01-11T11:22:02Z</time>
      </trkpt>
      <trkpt lat="45.84473" lon="4.80021">
        <ele>548</ele>
        <time>2015-01-11T11:22:07Z</time>
      </trkpt>
      <trkpt lat="45.84473" lon="4.80028">
        <ele>549</ele>
        <time>2015-01-11T11:22:12Z</time>
      </trkpt>
      <trkpt lat="45.84473" lon="4.80029">
        <ele>549</ele>
        <time>2015-01-11T11:22:13Z</time>
      </trkpt>
      <trkpt lat="45.84476" lon="4.80039">
        <ele>549</ele>
        <time>2015-01-11T11:22:19Z</time>
      </trkpt>
      <trkpt lat="45.84478" lon="4.80046">
        <ele>550</ele>
        <time>2015-01-11T11:22:24Z</time>
      </trkpt>
      <trkpt lat="45.8448" lon="4.80049">
        <ele>550</ele>
        <time>2015-01-11T11:22:26Z</time>
      </trkpt>
      <trkpt lat="45.84483" lon="4.80058">
        <ele>550</ele>
        <time>2015-01-11T11:22:32Z</time>
      </trkpt>
      <trkpt lat="45.84485" lon="4.80066">
        <ele>551</ele>
        <time>2015-01-11T11:22:38Z</time>
      </trkpt>
      <trkpt lat="45.84486" lon="4.80069">
        <ele>551</ele>
        <time>2015-01-11T11:22:41Z</time>
      </trkpt>
      <trkpt lat="45.84486" lon="4.80072">
        <ele>551</ele>
        <time>2015-01-11T11:22:43Z</time>
      </trkpt>
      <trkpt lat="45.84485" lon="4.80074">
        <ele>551</ele>
        <time>2015-01-11T11:22:44Z</time>
      </trkpt>
      <trkpt lat="45.84482" lon="4.80081">
        <ele>551</ele>
        <time>2015-01-11T11:22:50Z</time>
      </trkpt>
      <trkpt lat="45.84478" lon="4.80092">
        <ele>554</ele>
        <time>2015-01-11T11:22:57Z</time>
      </trkpt>
      <trkpt lat="45.84477" lon="4.80093">
        <ele>554</ele>
        <time>2015-01-11T11:22:58Z</time>
      </trkpt>
      <trkpt lat="45.84468" lon="4.80103">
        <ele>554</ele>
        <time>2015-01-11T11:23:06Z</time>
      </trkpt>
      <trkpt lat="45.84467" lon="4.80103">
        <ele>555</ele>
        <time>2015-01-11T11:23:07Z</time>
      </trkpt>
      <trkpt lat="45.84464" lon="4.80103">
        <ele>555</ele>
        <time>2015-01-11T11:23:09Z</time>
      </trkpt>
      <trkpt lat="45.84462" lon="4.801">
        <ele>555</ele>
        <time>2015-01-11T11:23:11Z</time>
      </trkpt>
      <trkpt lat="45.84459" lon="4.80088">
        <ele>555</ele>
        <time>2015-01-11T11:23:16Z</time>
      </trkpt>
      <trkpt lat="45.84455" lon="4.80077">
        <ele>553</ele>
        <time>2015-01-11T11:23:21Z</time>
      </trkpt>
      <trkpt lat="45.84454" lon="4.80075">
        <ele>554</ele>
        <time>2015-01-11T11:23:22Z</time>
      </trkpt>
      <trkpt lat="45.84449" lon="4.80066">
        <ele>554</ele>
        <time>2015-01-11T11:23:26Z</time>
      </trkpt>
      <trkpt lat="45.84448" lon="4.80064">
        <ele>554</ele>
        <time>2015-01-11T11:23:27Z</time>
      </trkpt>
      <trkpt lat="45.84445" lon="4.80057">
        <ele>554</ele>
        <time>2015-01-11T11:23:30Z</time>
      </trkpt>
      <trkpt lat="45.84441" lon="4.80054">
        <ele>554</ele>
        <time>2015-01-11T11:23:33Z</time>
      </trkpt>
      <trkpt lat="45.8444" lon="4.80052">
        <ele>554</ele>
        <time>2015-01-11T11:23:34Z</time>
      </trkpt>
      <trkpt lat="45.84439" lon="4.8005">
        <ele>554</ele>
        <time>2015-01-11T11:23:35Z</time>
      </trkpt>
      <trkpt lat="45.84435" lon="4.80047">
        <ele>554</ele>
        <time>2015-01-11T11:23:37Z</time>
      </trkpt>
      <trkpt lat="45.84431" lon="4.80042">
        <ele>554</ele>
        <time>2015-01-11T11:23:40Z</time>
      </trkpt>
      <trkpt lat="45.84426" lon="4.80039">
        <ele>555</ele>
        <time>2015-01-11T11:23:43Z</time>
      </trkpt>
      <trkpt lat="45.84426" lon="4.80037">
        <ele>555</ele>
        <time>2015-01-11T11:23:44Z</time>
      </trkpt>
      <trkpt lat="45.84422" lon="4.80031">
        <ele>555</ele>
        <time>2015-01-11T11:23:47Z</time>
      </trkpt>
      <trkpt lat="45.84422" lon="4.80029">
        <ele>555</ele>
        <time>2015-01-11T11:23:48Z</time>
      </trkpt>
      <trkpt lat="45.84422" lon="4.80024">
        <ele>555</ele>
        <time>2015-01-11T11:23:50Z</time>
      </trkpt>
      <trkpt lat="45.84424" lon="4.80016">
        <ele>556</ele>
        <time>2015-01-11T11:23:53Z</time>
      </trkpt>
      <trkpt lat="45.84423" lon="4.80011">
        <ele>557</ele>
        <time>2015-01-11T11:23:55Z</time>
      </trkpt>
      <trkpt lat="45.84419" lon="4.80005">
        <ele>559</ele>
        <time>2015-01-11T11:23:58Z</time>
      </trkpt>
      <trkpt lat="45.84418" lon="4.80004">
        <ele>560</ele>
        <time>2015-01-11T11:24:00Z</time>
      </trkpt>
      <trkpt lat="45.8442" lon="4.80008">
        <ele>558</ele>
        <time>2015-01-11T11:24:06Z</time>
      </trkpt>
      <trkpt lat="45.8442" lon="4.80012">
        <ele>557</ele>
        <time>2015-01-11T11:24:09Z</time>
      </trkpt>
      <trkpt lat="45.84419" lon="4.80017">
        <ele>556</ele>
        <time>2015-01-11T11:24:12Z</time>
      </trkpt>
      <trkpt lat="45.84419" lon="4.80019">
        <ele>556</ele>
        <time>2015-01-11T11:24:14Z</time>
      </trkpt>
      <trkpt lat="45.8442" lon="4.80014">
        <ele>557</ele>
        <time>2015-01-11T11:24:20Z</time>
      </trkpt>
      <trkpt lat="45.8442" lon="4.8001">
        <ele>558</ele>
        <time>2015-01-11T11:24:22Z</time>
      </trkpt>
      <trkpt lat="45.84417" lon="4.80005">
        <ele>559</ele>
        <time>2015-01-11T11:24:25Z</time>
      </trkpt>
      <trkpt lat="45.84416" lon="4.80003">
        <ele>561</ele>
        <time>2015-01-11T11:24:26Z</time>
      </trkpt>
      <trkpt lat="45.84411" lon="4.79997">
        <ele>562</ele>
        <time>2015-01-11T11:24:29Z</time>
      </trkpt>
      <trkpt lat="45.84408" lon="4.79994">
        <ele>562</ele>
        <time>2015-01-11T11:24:31Z</time>
      </trkpt>
      <trkpt lat="45.84403" lon="4.79984">
        <ele>563</ele>
        <time>2015-01-11T11:24:36Z</time>
      </trkpt>
      <trkpt lat="45.84402" lon="4.79982">
        <ele>563</ele>
        <time>2015-01-11T11:24:37Z</time>
      </trkpt>
      <trkpt lat="45.84395" lon="4.79973">
        <ele>563</ele>
        <time>2015-01-11T11:24:43Z</time>
      </trkpt>
      <trkpt lat="45.8439" lon="4.79964">
        <ele>563</ele>
        <time>2015-01-11T11:24:47Z</time>
      </trkpt>
      <trkpt lat="45.84387" lon="4.79958">
        <ele>563</ele>
        <time>2015-01-11T11:24:49Z</time>
      </trkpt>
      <trkpt lat="45.84382" lon="4.79949">
        <ele>563</ele>
        <time>2015-01-11T11:24:53Z</time>
      </trkpt>
      <trkpt lat="45.8438" lon="4.79948">
        <ele>564</ele>
        <time>2015-01-11T11:24:54Z</time>
      </trkpt>
      <trkpt lat="45.84378" lon="4.79947">
        <ele>564</ele>
        <time>2015-01-11T11:24:56Z</time>
      </trkpt>
      <trkpt lat="45.84376" lon="4.79945">
        <ele>564</ele>
        <time>2015-01-11T11:24:57Z</time>
      </trkpt>
      <trkpt lat="45.84374" lon="4.79942">
        <ele>564</ele>
        <time>2015-01-11T11:24:59Z</time>
      </trkpt>
      <trkpt lat="45.84368" lon="4.79936">
        <ele>565</ele>
        <time>2015-01-11T11:25:04Z</time>
      </trkpt>
      <trkpt lat="45.84367" lon="4.79935">
        <ele>565</ele>
        <time>2015-01-11T11:25:05Z</time>
      </trkpt>
      <trkpt lat="45.84364" lon="4.7993">
        <ele>565</ele>
        <time>2015-01-11T11:25:08Z</time>
      </trkpt>
      <trkpt lat="45.84363" lon="4.79928">
        <ele>566</ele>
        <time>2015-01-11T11:25:09Z</time>
      </trkpt>
      <trkpt lat="45.8436" lon="4.79926">
        <ele>566</ele>
        <time>2015-01-11T11:25:11Z</time>
      </trkpt>
      <trkpt lat="45.84357" lon="4.79924">
        <ele>567</ele>
        <time>2015-01-11T11:25:13Z</time>
      </trkpt>
      <trkpt lat="45.84353" lon="4.79921">
        <ele>567</ele>
        <time>2015-01-11T11:25:15Z</time>
      </trkpt>
      <trkpt lat="45.8435" lon="4.7992">
        <ele>568</ele>
        <time>2015-01-11T11:25:17Z</time>
      </trkpt>
      <trkpt lat="45.8435" lon="4.7992">
        <ele>568</ele>
        <time>2015-01-11T11:25:18Z</time>
      </trkpt>
      <trkpt lat="45.84349" lon="4.79919">
        <ele>568</ele>
        <time>2015-01-11T11:25:19Z</time>
      </trkpt>
      <trkpt lat="45.84346" lon="4.79919">
        <ele>569</ele>
        <time>2015-01-11T11:25:22Z</time>
      </trkpt>
      <trkpt lat="45.84345" lon="4.7992">
        <ele>569</ele>
        <time>2015-01-11T11:25:23Z</time>
      </trkpt>
      <trkpt lat="45.84339" lon="4.79926">
        <ele>569</ele>
        <time>2015-01-11T11:25:29Z</time>
      </trkpt>
      <trkpt lat="45.84332" lon="4.79929">
        <ele>572</ele>
        <time>2015-01-11T11:25:35Z</time>
      </trkpt>
      <trkpt lat="45.84329" lon="4.79927">
        <ele>572</ele>
        <time>2015-01-11T11:25:37Z</time>
      </trkpt>
      <trkpt lat="45.84323" lon="4.79922">
        <ele>572</ele>
        <time>2015-01-11T11:25:41Z</time>
      </trkpt>
      <trkpt lat="45.84314" lon="4.79912">
        <ele>575</ele>
        <time>2015-01-11T11:25:47Z</time>
      </trkpt>
      <trkpt lat="45.84304" lon="4.79901">
        <ele>576</ele>
        <time>2015-01-11T11:25:54Z</time>
      </trkpt>
      <trkpt lat="45.843" lon="4.79897">
        <ele>576</ele>
        <time>2015-01-11T11:25:57Z</time>
      </trkpt>
      <trkpt lat="45.84294" lon="4.79889">
        <ele>577</ele>
        <time>2015-01-11T11:26:01Z</time>
      </trkpt>
      <trkpt lat="45.84284" lon="4.79879">
        <ele>578</ele>
        <time>2015-01-11T11:26:07Z</time>
      </trkpt>
      <trkpt lat="45.84283" lon="4.79877">
        <ele>578</ele>
        <time>2015-01-11T11:26:08Z</time>
      </trkpt>
      <trkpt lat="45.8427" lon="4.79863">
        <ele>580</ele>
        <time>2015-01-11T11:26:16Z</time>
      </trkpt>
      <trkpt lat="45.84261" lon="4.79851">
        <ele>582</ele>
        <time>2015-01-11T11:26:22Z</time>
      </trkpt>
      <trkpt lat="45.84257" lon="4.79845">
        <ele>584</ele>
        <time>2015-01-11T11:26:25Z</time>
      </trkpt>
      <trkpt lat="45.84251" lon="4.79839">
        <ele>587</ele>
        <time>2015-01-11T11:26:28Z</time>
      </trkpt>
      <trkpt lat="45.84242" lon="4.79828">
        <ele>590</ele>
        <time>2015-01-11T11:26:34Z</time>
      </trkpt>
      <trkpt lat="45.84241" lon="4.79827">
        <ele>591</ele>
        <time>2015-01-11T11:26:35Z</time>
      </trkpt>
      <trkpt lat="45.84233" lon="4.79822">
        <ele>591</ele>
        <time>2015-01-11T11:26:41Z</time>
      </trkpt>
      <trkpt lat="45.84227" lon="4.79818">
        <ele>591</ele>
        <time>2015-01-11T11:26:46Z</time>
      </trkpt>
      <trkpt lat="45.84226" lon="4.79817">
        <ele>591</ele>
        <time>2015-01-11T11:26:47Z</time>
      </trkpt>
      <trkpt lat="45.84225" lon="4.79814">
        <ele>591</ele>
        <time>2015-01-11T11:26:49Z</time>
      </trkpt>
      <trkpt lat="45.84223" lon="4.79809">
        <ele>591</ele>
        <time>2015-01-11T11:26:53Z</time>
      </trkpt>
      <trkpt lat="45.84224" lon="4.79808">
        <ele>591</ele>
        <time>2015-01-11T11:27:01Z</time>
      </trkpt>
      <trkpt lat="45.84224" lon="4.79808">
        <ele>591</ele>
        <time>2015-01-11T11:27:10Z</time>
      </trkpt>
      <trkpt lat="45.84224" lon="4.79807">
        <ele>591</ele>
        <time>2015-01-11T11:27:22Z</time>
      </trkpt>
      <trkpt lat="45.84224" lon="4.79811">
        <ele>591</ele>
        <time>2015-01-11T11:27:55Z</time>
      </trkpt>
      <trkpt lat="45.84222" lon="4.79808">
        <ele>591</ele>
        <time>2015-01-11T11:28:04Z</time>
      </trkpt>
      <trkpt lat="45.84222" lon="4.7981">
        <ele>591</ele>
        <time>2015-01-11T11:28:58Z</time>
      </trkpt>
      <trkpt lat="45.84222" lon="4.79809">
        <ele>591</ele>
        <time>2015-01-11T11:29:08Z</time>
      </trkpt>
      <trkpt lat="45.84223" lon="4.79809">
        <ele>591</ele>
        <time>2015-01-11T11:29:17Z</time>
      </trkpt>
      <trkpt lat="45.8422" lon="4.79805">
        <ele>591</ele>
        <time>2015-01-11T11:30:05Z</time>
      </trkpt>
      <trkpt lat="45.8422" lon="4.79805">
        <ele>591</ele>
        <time>2015-01-11T11:30:12Z</time>
      </trkpt>
      <trkpt lat="45.84221" lon="4.79805">
        <ele>591</ele>
        <time>2015-01-11T11:30:57Z</time>
      </trkpt>
      <trkpt lat="45.84222" lon="4.79809">
        <ele>591</ele>
        <time>2015-01-11T11:30:59Z</time>
      </trkpt>
      <trkpt lat="45.84221" lon="4.7981">
        <ele>591</ele>
        <time>2015-01-11T11:31:05Z</time>
      </trkpt>
      <trkpt lat="45.8422" lon="4.79808">
        <ele>591</ele>
        <time>2015-01-11T11:31:11Z</time>
      </trkpt>
      <trkpt lat="45.8422" lon="4.79805">
        <ele>591</ele>
        <time>2015-01-11T11:31:13Z</time>
      </trkpt>
      <trkpt lat="45.84219" lon="4.79805">
        <ele>591</ele>
        <time>2015-01-11T11:31:23Z</time>
      </trkpt>
      <trkpt lat="45.8422" lon="4.79805">
        <ele>591</ele>
        <time>2015-01-11T11:31:27Z</time>
      </trkpt>
      <trkpt lat="45.8422" lon="4.79807">
        <ele>591</ele>
        <time>2015-01-11T11:31:30Z</time>
      </trkpt>
      <trkpt lat="45.84222" lon="4.79809">
        <ele>591</ele>
        <time>2015-01-11T11:32:04Z</time>
      </trkpt>
      <trkpt lat="45.84222" lon="4.7981">
        <ele>591</ele>
        <time>2015-01-11T11:32:09Z</time>
      </trkpt>
      <trkpt lat="45.84221" lon="4.79807">
        <ele>591</ele>
        <time>2015-01-11T11:32:18Z</time>
      </trkpt>
      <trkpt lat="45.8422" lon="4.79805">
        <ele>591</ele>
        <time>2015-01-11T11:32:19Z</time>
      </trkpt>
      <trkpt lat="45.84221" lon="4.79805">
        <ele>591</ele>
        <time>2015-01-11T11:32:21Z</time>
      </trkpt>
      <trkpt lat="45.84222" lon="4.79808">
        <ele>591</ele>
        <time>2015-01-11T11:32:23Z</time>
      </trkpt>
      <trkpt lat="45.84222" lon="4.7981">
        <ele>591</ele>
        <time>2015-01-11T11:32:27Z</time>
      </trkpt>
      <trkpt lat="45.84223" lon="4.79811">
        <ele>591</ele>
        <time>2015-01-11T11:32:35Z</time>
      </trkpt>
      <trkpt lat="45.84225" lon="4.79815">
        <ele>591</ele>
        <time>2015-01-11T11:32:38Z</time>
      </trkpt>
      <trkpt lat="45.84227" lon="4.79825">
        <ele>591</ele>
        <time>2015-01-11T11:32:43Z</time>
      </trkpt>
      <trkpt lat="45.84227" lon="4.7983">
        <ele>591</ele>
        <time>2015-01-11T11:32:45Z</time>
      </trkpt>
      <trkpt lat="45.84228" lon="4.79835">
        <ele>588</ele>
        <time>2015-01-11T11:32:47Z</time>
      </trkpt>
      <trkpt lat="45.84229" lon="4.79842">
        <ele>587</ele>
        <time>2015-01-11T11:32:51Z</time>
      </trkpt>
      <trkpt lat="45.84231" lon="4.79852">
        <ele>587</ele>
        <time>2015-01-11T11:32:57Z</time>
      </trkpt>
      <trkpt lat="45.84233" lon="4.79857">
        <ele>587</ele>
        <time>2015-01-11T11:33:00Z</time>
      </trkpt>
      <trkpt lat="45.84234" lon="4.79861">
        <ele>586</ele>
        <time>2015-01-11T11:33:02Z</time>
      </trkpt>
      <trkpt lat="45.84239" lon="4.79875">
        <ele>585</ele>
        <time>2015-01-11T11:33:07Z</time>
      </trkpt>
      <trkpt lat="45.84241" lon="4.79878">
        <ele>585</ele>
        <time>2015-01-11T11:33:08Z</time>
      </trkpt>
      <trkpt lat="45.84243" lon="4.79885">
        <ele>584</ele>
        <time>2015-01-11T11:33:10Z</time>
      </trkpt>
      <trkpt lat="45.84245" lon="4.79896">
        <ele>583</ele>
        <time>2015-01-11T11:33:13Z</time>
      </trkpt>
      <trkpt lat="45.84247" lon="4.7991">
        <ele>581</ele>
        <time>2015-01-11T11:33:17Z</time>
      </trkpt>
      <trkpt lat="45.84248" lon="4.79918">
        <ele>579</ele>
        <time>2015-01-11T11:33:19Z</time>
      </trkpt>
      <trkpt lat="45.8425" lon="4.79938">
        <ele>576</ele>
        <time>2015-01-11T11:33:24Z</time>
      </trkpt>
      <trkpt lat="45.8425" lon="4.79962">
        <ele>574</ele>
        <time>2015-01-11T11:33:30Z</time>
      </trkpt>
      <trkpt lat="45.8425" lon="4.79967">
        <ele>572</ele>
        <time>2015-01-11T11:33:31Z</time>
      </trkpt>
      <trkpt lat="45.84251" lon="4.79983">
        <ele>571</ele>
        <time>2015-01-11T11:33:35Z</time>
      </trkpt>
      <trkpt lat="45.8425" lon="4.79992">
        <ele>570</ele>
        <time>2015-01-11T11:33:37Z</time>
      </trkpt>
      <trkpt lat="45.84246" lon="4.80005">
        <ele>568</ele>
        <time>2015-01-11T11:33:40Z</time>
      </trkpt>
      <trkpt lat="45.84242" lon="4.80018">
        <ele>566</ele>
        <time>2015-01-11T11:33:43Z</time>
      </trkpt>
      <trkpt lat="45.84241" lon="4.80022">
        <ele>565</ele>
        <time>2015-01-11T11:33:44Z</time>
      </trkpt>
      <trkpt lat="45.84234" lon="4.80037">
        <ele>564</ele>
        <time>2015-01-11T11:33:48Z</time>
      </trkpt>
      <trkpt lat="45.84232" lon="4.8004">
        <ele>564</ele>
        <time>2015-01-11T11:33:49Z</time>
      </trkpt>
      <trkpt lat="45.84223" lon="4.80054">
        <ele>563</ele>
        <time>2015-01-11T11:33:53Z</time>
      </trkpt>
      <trkpt lat="45.84219" lon="4.80062">
        <ele>562</ele>
        <time>2015-01-11T11:33:55Z</time>
      </trkpt>
      <trkpt lat="45.84213" lon="4.80071">
        <ele>562</ele>
        <time>2015-01-11T11:33:58Z</time>
      </trkpt>
      <trkpt lat="45.84211" lon="4.80071">
        <ele>562</ele>
        <time>2015-01-11T11:33:59Z</time>
      </trkpt>
      <trkpt lat="45.84205" lon="4.80078">
        <ele>562</ele>
        <time>2015-01-11T11:34:02Z</time>
      </trkpt>
      <trkpt lat="45.84201" lon="4.8008">
        <ele>562</ele>
        <time>2015-01-11T11:34:03Z</time>
      </trkpt>
      <trkpt lat="45.84187" lon="4.80086">
        <ele>556</ele>
        <time>2015-01-11T11:34:07Z</time>
      </trkpt>
      <trkpt lat="45.84173" lon="4.80082">
        <ele>561</ele>
        <time>2015-01-11T11:34:12Z</time>
      </trkpt>
      <trkpt lat="45.84167" lon="4.8008">
        <ele>560</ele>
        <time>2015-01-11T11:34:14Z</time>
      </trkpt>
      <trkpt lat="45.84157" lon="4.80079">
        <ele>561</ele>
        <time>2015-01-11T11:34:18Z</time>
      </trkpt>
      <trkpt lat="45.84147" lon="4.80083">
        <ele>562</ele>
        <time>2015-01-11T11:34:22Z</time>
      </trkpt>
      <trkpt lat="45.84145" lon="4.80086">
        <ele>557</ele>
        <time>2015-01-11T11:34:23Z</time>
      </trkpt>
      <trkpt lat="45.84135" lon="4.80102">
        <ele>555</ele>
        <time>2015-01-11T11:34:28Z</time>
      </trkpt>
      <trkpt lat="45.84134" lon="4.80104">
        <ele>555</ele>
        <time>2015-01-11T11:34:29Z</time>
      </trkpt>
      <trkpt lat="45.84133" lon="4.80108">
        <ele>555</ele>
        <time>2015-01-11T11:34:30Z</time>
      </trkpt>
      <trkpt lat="45.84132" lon="4.80114">
        <ele>554</ele>
        <time>2015-01-11T11:34:32Z</time>
      </trkpt>
      <trkpt lat="45.84129" lon="4.80129">
        <ele>553</ele>
        <time>2015-01-11T11:34:36Z</time>
      </trkpt>
      <trkpt lat="45.84129" lon="4.80133">
        <ele>553</ele>
        <time>2015-01-11T11:34:37Z</time>
      </trkpt>
      <trkpt lat="45.84129" lon="4.80149">
        <ele>552</ele>
        <time>2015-01-11T11:34:42Z</time>
      </trkpt>
      <trkpt lat="45.84127" lon="4.80157">
        <ele>552</ele>
        <time>2015-01-11T11:34:44Z</time>
      </trkpt>
      <trkpt lat="45.84123" lon="4.80167">
        <ele>544</ele>
        <time>2015-01-11T11:34:47Z</time>
      </trkpt>
      <trkpt lat="45.84118" lon="4.80178">
        <ele>543</ele>
        <time>2015-01-11T11:34:51Z</time>
      </trkpt>
      <trkpt lat="45.84108" lon="4.8018">
        <ele>544</ele>
        <time>2015-01-11T11:34:55Z</time>
      </trkpt>
      <trkpt lat="45.841" lon="4.80185">
        <ele>544</ele>
        <time>2015-01-11T11:34:58Z</time>
      </trkpt>
      <trkpt lat="45.84095" lon="4.80187">
        <ele>544</ele>
        <time>2015-01-11T11:35:00Z</time>
      </trkpt>
      <trkpt lat="45.8408" lon="4.80198">
        <ele>541</ele>
        <time>2015-01-11T11:35:05Z</time>
      </trkpt>
      <trkpt lat="45.84069" lon="4.80207">
        <ele>540</ele>
        <time>2015-01-11T11:35:10Z</time>
      </trkpt>
      <trkpt lat="45.84065" lon="4.80212">
        <ele>540</ele>
        <time>2015-01-11T11:35:12Z</time>
      </trkpt>
      <trkpt lat="45.84062" lon="4.80216">
        <ele>539</ele>
        <time>2015-01-11T11:35:14Z</time>
      </trkpt>
      <trkpt lat="45.84054" lon="4.80232">
        <ele>538</ele>
        <time>2015-01-11T11:35:18Z</time>
      </trkpt>
      <trkpt lat="45.84053" lon="4.80234">
        <ele>538</ele>
        <time>2015-01-11T11:35:19Z</time>
      </trkpt>
      <trkpt lat="45.84052" lon="4.80245">
        <ele>537</ele>
        <time>2015-01-11T11:35:23Z</time>
      </trkpt>
      <trkpt lat="45.84052" lon="4.80247">
        <ele>537</ele>
        <time>2015-01-11T11:35:24Z</time>
      </trkpt>
      <trkpt lat="45.84051" lon="4.80258">
        <ele>530</ele>
        <time>2015-01-11T11:35:27Z</time>
      </trkpt>
      <trkpt lat="45.8405" lon="4.80261">
        <ele>529</ele>
        <time>2015-01-11T11:35:28Z</time>
      </trkpt>
      <trkpt lat="45.84046" lon="4.80273">
        <ele>528</ele>
        <time>2015-01-11T11:35:31Z</time>
      </trkpt>
      <trkpt lat="45.84039" lon="4.80282">
        <ele>528</ele>
        <time>2015-01-11T11:35:34Z</time>
      </trkpt>
      <trkpt lat="45.84037" lon="4.80284">
        <ele>528</ele>
        <time>2015-01-11T11:35:35Z</time>
      </trkpt>
      <trkpt lat="45.84031" lon="4.80285">
        <ele>527</ele>
        <time>2015-01-11T11:35:37Z</time>
      </trkpt>
      <trkpt lat="45.84023" lon="4.8029">
        <ele>527</ele>
        <time>2015-01-11T11:35:40Z</time>
      </trkpt>
      <trkpt lat="45.8402" lon="4.80292">
        <ele>527</ele>
        <time>2015-01-11T11:35:41Z</time>
      </trkpt>
      <trkpt lat="45.8401" lon="4.80297">
        <ele>526</ele>
        <time>2015-01-11T11:35:45Z</time>
      </trkpt>
      <trkpt lat="45.84003" lon="4.80298">
        <ele>526</ele>
        <time>2015-01-11T11:35:48Z</time>
      </trkpt>
      <trkpt lat="45.84" lon="4.803">
        <ele>526</ele>
        <time>2015-01-11T11:35:49Z</time>
      </trkpt>
      <trkpt lat="45.83996" lon="4.80302">
        <ele>521</ele>
        <time>2015-01-11T11:35:51Z</time>
      </trkpt>
      <trkpt lat="45.83992" lon="4.80304">
        <ele>521</ele>
        <time>2015-01-11T11:35:53Z</time>
      </trkpt>
      <trkpt lat="45.8399" lon="4.80309">
        <ele>521</ele>
        <time>2015-01-11T11:35:55Z</time>
      </trkpt>
      <trkpt lat="45.8399" lon="4.80316">
        <ele>520</ele>
        <time>2015-01-11T11:35:57Z</time>
      </trkpt>
      <trkpt lat="45.83994" lon="4.80336">
        <ele>517</ele>
        <time>2015-01-11T11:36:02Z</time>
      </trkpt>
      <trkpt lat="45.83993" lon="4.80345">
        <ele>515</ele>
        <time>2015-01-11T11:36:04Z</time>
      </trkpt>
      <trkpt lat="45.83994" lon="4.80352">
        <ele>514</ele>
        <time>2015-01-11T11:36:06Z</time>
      </trkpt>
      <trkpt lat="45.8399" lon="4.80357">
        <ele>512</ele>
        <time>2015-01-11T11:36:09Z</time>
      </trkpt>
      <trkpt lat="45.83984" lon="4.80361">
        <ele>511</ele>
        <time>2015-01-11T11:36:14Z</time>
      </trkpt>
      <trkpt lat="45.83984" lon="4.80361">
        <ele>511</ele>
        <time>2015-01-11T11:36:15Z</time>
      </trkpt>
      <trkpt lat="45.83983" lon="4.80362">
        <ele>511</ele>
        <time>2015-01-11T11:36:19Z</time>
      </trkpt>
      <trkpt lat="45.83983" lon="4.80362">
        <ele>511</ele>
        <time>2015-01-11T11:36:20Z</time>
      </trkpt>
      <trkpt lat="45.83981" lon="4.80365">
        <ele>511</ele>
        <time>2015-01-11T11:36:25Z</time>
      </trkpt>
      <trkpt lat="45.83979" lon="4.80365">
        <ele>510</ele>
        <time>2015-01-11T11:37:00Z</time>
      </trkpt>
      <trkpt lat="45.83981" lon="4.80364">
        <ele>511</ele>
        <time>2015-01-11T11:37:35Z</time>
      </trkpt>
      <trkpt lat="45.8398" lon="4.80364">
        <ele>511</ele>
        <time>2015-01-11T11:37:45Z</time>
      </trkpt>
      <trkpt lat="45.83979" lon="4.80366">
        <ele>510</ele>
        <time>2015-01-11T11:37:57Z</time>
      </trkpt>
      <trkpt lat="45.83974" lon="4.80369">
        <ele>510</ele>
        <time>2015-01-11T11:37:59Z</time>
      </trkpt>
      <trkpt lat="45.83967" lon="4.80372">
        <ele>509</ele>
        <time>2015-01-11T11:38:01Z</time>
      </trkpt>
      <trkpt lat="45.83954" lon="4.80377">
        <ele>508</ele>
        <time>2015-01-11T11:38:04Z</time>
      </trkpt>
      <trkpt lat="45.8395" lon="4.80378">
        <ele>508</ele>
        <time>2015-01-11T11:38:05Z</time>
      </trkpt>
      <trkpt lat="45.83941" lon="4.80378">
        <ele>507</ele>
        <time>2015-01-11T11:38:09Z</time>
      </trkpt>
      <trkpt lat="45.83936" lon="4.8038">
        <ele>507</ele>
        <time>2015-01-11T11:38:12Z</time>
      </trkpt>
      <trkpt lat="45.83934" lon="4.80383">
        <ele>506</ele>
        <time>2015-01-11T11:38:13Z</time>
      </trkpt>
      <trkpt lat="45.83932" lon="4.80385">
        <ele>506</ele>
        <time>2015-01-11T11:38:14Z</time>
      </trkpt>
      <trkpt lat="45.83922" lon="4.804">
        <ele>503</ele>
        <time>2015-01-11T11:38:19Z</time>
      </trkpt>
      <trkpt lat="45.8392" lon="4.80404">
        <ele>502</ele>
        <time>2015-01-11T11:38:20Z</time>
      </trkpt>
      <trkpt lat="45.83915" lon="4.80416">
        <ele>498</ele>
        <time>2015-01-11T11:38:23Z</time>
      </trkpt>
      <trkpt lat="45.8391" lon="4.80428">
        <ele>492</ele>
        <time>2015-01-11T11:38:26Z</time>
      </trkpt>
      <trkpt lat="45.83908" lon="4.80431">
        <ele>490</ele>
        <time>2015-01-11T11:38:27Z</time>
      </trkpt>
      <trkpt lat="45.83905" lon="4.80439">
        <ele>488</ele>
        <time>2015-01-11T11:38:29Z</time>
      </trkpt>
      <trkpt lat="45.83904" lon="4.80447">
        <ele>487</ele>
        <time>2015-01-11T11:38:31Z</time>
      </trkpt>
      <trkpt lat="45.83902" lon="4.80451">
        <ele>486</ele>
        <time>2015-01-11T11:38:32Z</time>
      </trkpt>
      <trkpt lat="45.83894" lon="4.80456">
        <ele>485</ele>
        <time>2015-01-11T11:38:35Z</time>
      </trkpt>
      <trkpt lat="45.83887" lon="4.80454">
        <ele>484</ele>
        <time>2015-01-11T11:38:37Z</time>
      </trkpt>
      <trkpt lat="45.83883" lon="4.80452">
        <ele>484</ele>
        <time>2015-01-11T11:38:38Z</time>
      </trkpt>
      <trkpt lat="45.8388" lon="4.80449">
        <ele>484</ele>
        <time>2015-01-11T11:38:39Z</time>
      </trkpt>
      <trkpt lat="45.83871" lon="4.80437">
        <ele>483</ele>
        <time>2015-01-11T11:38:43Z</time>
      </trkpt>
      <trkpt lat="45.83869" lon="4.80434">
        <ele>483</ele>
        <time>2015-01-11T11:38:44Z</time>
      </trkpt>
      <trkpt lat="45.83862" lon="4.8043">
        <ele>482</ele>
        <time>2015-01-11T11:38:47Z</time>
      </trkpt>
      <trkpt lat="45.8386" lon="4.8043">
        <ele>481</ele>
        <time>2015-01-11T11:38:48Z</time>
      </trkpt>
      <trkpt lat="45.83856" lon="4.80432">
        <ele>481</ele>
        <time>2015-01-11T11:38:50Z</time>
      </trkpt>
      <trkpt lat="45.83855" lon="4.80435">
        <ele>481</ele>
        <time>2015-01-11T11:38:51Z</time>
      </trkpt>
      <trkpt lat="45.83854" lon="4.80439">
        <ele>481</ele>
        <time>2015-01-11T11:38:52Z</time>
      </trkpt>
      <trkpt lat="45.8385" lon="4.80456">
        <ele>480</ele>
        <time>2015-01-11T11:38:56Z</time>
      </trkpt>
      <trkpt lat="45.83849" lon="4.80465">
        <ele>479</ele>
        <time>2015-01-11T11:38:58Z</time>
      </trkpt>
      <trkpt lat="45.83846" lon="4.80478">
        <ele>477</ele>
        <time>2015-01-11T11:39:01Z</time>
      </trkpt>
      <trkpt lat="45.83844" lon="4.80492">
        <ele>474</ele>
        <time>2015-01-11T11:39:04Z</time>
      </trkpt>
      <trkpt lat="45.83843" lon="4.80502">
        <ele>470</ele>
        <time>2015-01-11T11:39:06Z</time>
      </trkpt>
      <trkpt lat="45.83841" lon="4.80522">
        <ele>470</ele>
        <time>2015-01-11T11:39:10Z</time>
      </trkpt>
      <trkpt lat="45.83841" lon="4.80527">
        <ele>470</ele>
        <time>2015-01-11T11:39:11Z</time>
      </trkpt>
      <trkpt lat="45.83841" lon="4.80546">
        <ele>469</ele>
        <time>2015-01-11T11:39:15Z</time>
      </trkpt>
      <trkpt lat="45.8384" lon="4.80551">
        <ele>469</ele>
        <time>2015-01-11T11:39:16Z</time>
      </trkpt>
      <trkpt lat="45.83838" lon="4.80571">
        <ele>465</ele>
        <time>2015-01-11T11:39:21Z</time>
      </trkpt>
      <trkpt lat="45.83838" lon="4.80577">
        <ele>462</ele>
        <time>2015-01-11T11:39:23Z</time>
      </trkpt>
      <trkpt lat="45.83836" lon="4.80584">
        <ele>459</ele>
        <time>2015-01-11T11:39:26Z</time>
      </trkpt>
      <trkpt lat="45.83834" lon="4.80582">
        <ele>460</ele>
        <time>2015-01-11T11:39:29Z</time>
      </trkpt>
      <trkpt lat="45.83832" lon="4.8058">
        <ele>458</ele>
        <time>2015-01-11T11:39:31Z</time>
      </trkpt>
      <trkpt lat="45.8383" lon="4.80577">
        <ele>458</ele>
        <time>2015-01-11T11:39:35Z</time>
      </trkpt>
      <trkpt lat="45.83829" lon="4.80577">
        <ele>458</ele>
        <time>2015-01-11T11:39:36Z</time>
      </trkpt>
      <trkpt lat="45.8383" lon="4.80576">
        <ele>458</ele>
        <time>2015-01-11T11:39:41Z</time>
      </trkpt>
      <trkpt lat="45.83832" lon="4.80581">
        <ele>458</ele>
        <time>2015-01-11T11:39:53Z</time>
      </trkpt>
      <trkpt lat="45.83835" lon="4.80581">
        <ele>460</ele>
        <time>2015-01-11T11:40:11Z</time>
      </trkpt>
      <trkpt lat="45.83833" lon="4.80583">
        <ele>459</ele>
        <time>2015-01-11T11:40:22Z</time>
      </trkpt>
      <trkpt lat="45.83829" lon="4.80578">
        <ele>458</ele>
        <time>2015-01-11T11:40:25Z</time>
      </trkpt>
      <trkpt lat="45.83825" lon="4.8057">
        <ele>457</ele>
        <time>2015-01-11T11:40:28Z</time>
      </trkpt>
      <trkpt lat="45.8382" lon="4.80563">
        <ele>456</ele>
        <time>2015-01-11T11:40:30Z</time>
      </trkpt>
      <trkpt lat="45.8381" lon="4.8055">
        <ele>456</ele>
        <time>2015-01-11T11:40:35Z</time>
      </trkpt>
      <trkpt lat="45.83808" lon="4.80548">
        <ele>455</ele>
        <time>2015-01-11T11:40:36Z</time>
      </trkpt>
      <trkpt lat="45.83794" lon="4.80535">
        <ele>455</ele>
        <time>2015-01-11T11:40:42Z</time>
      </trkpt>
      <trkpt lat="45.83781" lon="4.80528">
        <ele>453</ele>
        <time>2015-01-11T11:40:47Z</time>
      </trkpt>
      <trkpt lat="45.83777" lon="4.80528">
        <ele>453</ele>
        <time>2015-01-11T11:40:49Z</time>
      </trkpt>
      <trkpt lat="45.83769" lon="4.80531">
        <ele>452</ele>
        <time>2015-01-11T11:40:52Z</time>
      </trkpt>
      <trkpt lat="45.83757" lon="4.80536">
        <ele>451</ele>
        <time>2015-01-11T11:40:56Z</time>
      </trkpt>
      <trkpt lat="45.83754" lon="4.80537">
        <ele>451</ele>
        <time>2015-01-11T11:40:57Z</time>
      </trkpt>
      <trkpt lat="45.8374" lon="4.80546">
        <ele>446</ele>
        <time>2015-01-11T11:41:02Z</time>
      </trkpt>
      <trkpt lat="45.8373" lon="4.8055">
        <ele>446</ele>
        <time>2015-01-11T11:41:06Z</time>
      </trkpt>
      <trkpt lat="45.83722" lon="4.80554">
        <ele>446</ele>
        <time>2015-01-11T11:41:09Z</time>
      </trkpt>
      <trkpt lat="45.83719" lon="4.80556">
        <ele>446</ele>
        <time>2015-01-11T11:41:10Z</time>
      </trkpt>
      <trkpt lat="45.83709" lon="4.80561">
        <ele>446</ele>
        <time>2015-01-11T11:41:14Z</time>
      </trkpt>
      <trkpt lat="45.83708" lon="4.80564">
        <ele>446</ele>
        <time>2015-01-11T11:41:15Z</time>
      </trkpt>
      <trkpt lat="45.83708" lon="4.80567">
        <ele>446</ele>
        <time>2015-01-11T11:41:16Z</time>
      </trkpt>
      <trkpt lat="45.83708" lon="4.80575">
        <ele>445</ele>
        <time>2015-01-11T11:41:19Z</time>
      </trkpt>
      <trkpt lat="45.83709" lon="4.80578">
        <ele>445</ele>
        <time>2015-01-11T11:41:20Z</time>
      </trkpt>
      <trkpt lat="45.8371" lon="4.80581">
        <ele>445</ele>
        <time>2015-01-11T11:41:21Z</time>
      </trkpt>
      <trkpt lat="45.8371" lon="4.80592">
        <ele>436</ele>
        <time>2015-01-11T11:41:24Z</time>
      </trkpt>
      <trkpt lat="45.83711" lon="4.80595">
        <ele>436</ele>
        <time>2015-01-11T11:41:25Z</time>
      </trkpt>
      <trkpt lat="45.83713" lon="4.80614">
        <ele>434</ele>
        <time>2015-01-11T11:41:30Z</time>
      </trkpt>
      <trkpt lat="45.83714" lon="4.80618">
        <ele>434</ele>
        <time>2015-01-11T11:41:31Z</time>
      </trkpt>
      <trkpt lat="45.83717" lon="4.80629">
        <ele>433</ele>
        <time>2015-01-11T11:41:34Z</time>
      </trkpt>
      <trkpt lat="45.83721" lon="4.80642">
        <ele>432</ele>
        <time>2015-01-11T11:41:37Z</time>
      </trkpt>
      <trkpt lat="45.83721" lon="4.80646">
        <ele>431</ele>
        <time>2015-01-11T11:41:38Z</time>
      </trkpt>
      <trkpt lat="45.83724" lon="4.80669">
        <ele>423</ele>
        <time>2015-01-11T11:41:43Z</time>
      </trkpt>
      <trkpt lat="45.83726" lon="4.80689">
        <ele>423</ele>
        <time>2015-01-11T11:41:47Z</time>
      </trkpt>
      <trkpt lat="45.83726" lon="4.80697">
        <ele>422</ele>
        <time>2015-01-11T11:41:49Z</time>
      </trkpt>
      <trkpt lat="45.83725" lon="4.80704">
        <ele>422</ele>
        <time>2015-01-11T11:41:51Z</time>
      </trkpt>
      <trkpt lat="45.83724" lon="4.80707">
        <ele>422</ele>
        <time>2015-01-11T11:41:52Z</time>
      </trkpt>
      <trkpt lat="45.83718" lon="4.80713">
        <ele>421</ele>
        <time>2015-01-11T11:41:55Z</time>
      </trkpt>
      <trkpt lat="45.83714" lon="4.80718">
        <ele>421</ele>
        <time>2015-01-11T11:41:57Z</time>
      </trkpt>
      <trkpt lat="45.83708" lon="4.80725">
        <ele>421</ele>
        <time>2015-01-11T11:42:00Z</time>
      </trkpt>
      <trkpt lat="45.837" lon="4.80734">
        <ele>421</ele>
        <time>2015-01-11T11:42:04Z</time>
      </trkpt>
      <trkpt lat="45.83697" lon="4.8074">
        <ele>421</ele>
        <time>2015-01-11T11:42:06Z</time>
      </trkpt>
      <trkpt lat="45.83687" lon="4.80756">
        <ele>416</ele>
        <time>2015-01-11T11:42:11Z</time>
      </trkpt>
      <trkpt lat="45.83678" lon="4.80774">
        <ele>416</ele>
        <time>2015-01-11T11:42:17Z</time>
      </trkpt>
      <trkpt lat="45.83676" lon="4.80778">
        <ele>415</ele>
        <time>2015-01-11T11:42:18Z</time>
      </trkpt>
      <trkpt lat="45.83669" lon="4.80792">
        <ele>415</ele>
        <time>2015-01-11T11:42:22Z</time>
      </trkpt>
      <trkpt lat="45.83665" lon="4.80803">
        <ele>416</ele>
        <time>2015-01-11T11:42:25Z</time>
      </trkpt>
      <trkpt lat="45.83662" lon="4.80806">
        <ele>416</ele>
        <time>2015-01-11T11:42:26Z</time>
      </trkpt>
      <trkpt lat="45.83657" lon="4.80814">
        <ele>415</ele>
        <time>2015-01-11T11:42:30Z</time>
      </trkpt>
      <trkpt lat="45.83652" lon="4.80823">
        <ele>415</ele>
        <time>2015-01-11T11:42:34Z</time>
      </trkpt>
      <trkpt lat="45.8365" lon="4.80825">
        <ele>415</ele>
        <time>2015-01-11T11:42:35Z</time>
      </trkpt>
      <trkpt lat="45.83641" lon="4.80838">
        <ele>413</ele>
        <time>2015-01-11T11:42:40Z</time>
      </trkpt>
      <trkpt lat="45.83638" lon="4.80844">
        <ele>413</ele>
        <time>2015-01-11T11:42:42Z</time>
      </trkpt>
      <trkpt lat="45.83631" lon="4.80856">
        <ele>413</ele>
        <time>2015-01-11T11:42:46Z</time>
      </trkpt>
      <trkpt lat="45.83625" lon="4.80863">
        <ele>413</ele>
        <time>2015-01-11T11:42:49Z</time>
      </trkpt>
      <trkpt lat="45.83622" lon="4.80868">
        <ele>413</ele>
        <time>2015-01-11T11:42:51Z</time>
      </trkpt>
      <trkpt lat="45.83622" lon="4.80871">
        <ele>413</ele>
        <time>2015-01-11T11:42:52Z</time>
      </trkpt>
      <trkpt lat="45.8362" lon="4.80884">
        <ele>413</ele>
        <time>2015-01-11T11:42:56Z</time>
      </trkpt>
      <trkpt lat="45.83618" lon="4.80888">
        <ele>413</ele>
        <time>2015-01-11T11:42:57Z</time>
      </trkpt>
      <trkpt lat="45.83612" lon="4.809">
        <ele>413</ele>
        <time>2015-01-11T11:43:01Z</time>
      </trkpt>
      <trkpt lat="45.83611" lon="4.80902">
        <ele>413</ele>
        <time>2015-01-11T11:43:02Z</time>
      </trkpt>
      <trkpt lat="45.83606" lon="4.8091">
        <ele>413</ele>
        <time>2015-01-11T11:43:05Z</time>
      </trkpt>
      <trkpt lat="45.83603" lon="4.80916">
        <ele>413</ele>
        <time>2015-01-11T11:43:07Z</time>
      </trkpt>
      <trkpt lat="45.83599" lon="4.80932">
        <ele>408</ele>
        <time>2015-01-11T11:43:12Z</time>
      </trkpt>
      <trkpt lat="45.83597" lon="4.80936">
        <ele>408</ele>
        <time>2015-01-11T11:43:13Z</time>
      </trkpt>
      <trkpt lat="45.83588" lon="4.80948">
        <ele>407</ele>
        <time>2015-01-11T11:43:17Z</time>
      </trkpt>
      <trkpt lat="45.83583" lon="4.80954">
        <ele>405</ele>
        <time>2015-01-11T11:43:20Z</time>
      </trkpt>
      <trkpt lat="45.83579" lon="4.80958">
        <ele>405</ele>
        <time>2015-01-11T11:43:22Z</time>
      </trkpt>
      <trkpt lat="45.83573" lon="4.80964">
        <ele>404</ele>
        <time>2015-01-11T11:43:25Z</time>
      </trkpt>
      <trkpt lat="45.83569" lon="4.80966">
        <ele>404</ele>
        <time>2015-01-11T11:43:27Z</time>
      </trkpt>
      <trkpt lat="45.83566" lon="4.80968">
        <ele>403</ele>
        <time>2015-01-11T11:43:28Z</time>
      </trkpt>
      <trkpt lat="45.83559" lon="4.80977">
        <ele>403</ele>
        <time>2015-01-11T11:43:31Z</time>
      </trkpt>
      <trkpt lat="45.83553" lon="4.80988">
        <ele>402</ele>
        <time>2015-01-11T11:43:35Z</time>
      </trkpt>
      <trkpt lat="45.83552" lon="4.80992">
        <ele>402</ele>
        <time>2015-01-11T11:43:36Z</time>
      </trkpt>
      <trkpt lat="45.83544" lon="4.81">
        <ele>394</ele>
        <time>2015-01-11T11:43:40Z</time>
      </trkpt>
      <trkpt lat="45.83538" lon="4.81007">
        <ele>394</ele>
        <time>2015-01-11T11:43:43Z</time>
      </trkpt>
      <trkpt lat="45.83532" lon="4.81013">
        <ele>393</ele>
        <time>2015-01-11T11:43:46Z</time>
      </trkpt>
      <trkpt lat="45.83522" lon="4.81024">
        <ele>393</ele>
        <time>2015-01-11T11:43:51Z</time>
      </trkpt>
      <trkpt lat="45.8352" lon="4.81026">
        <ele>393</ele>
        <time>2015-01-11T11:43:52Z</time>
      </trkpt>
      <trkpt lat="45.83507" lon="4.81039">
        <ele>392</ele>
        <time>2015-01-11T11:43:58Z</time>
      </trkpt>
      <trkpt lat="45.83498" lon="4.81046">
        <ele>390</ele>
        <time>2015-01-11T11:44:02Z</time>
      </trkpt>
      <trkpt lat="45.8349" lon="4.81051">
        <ele>390</ele>
        <time>2015-01-11T11:44:05Z</time>
      </trkpt>
      <trkpt lat="45.83486" lon="4.81054">
        <ele>390</ele>
        <time>2015-01-11T11:44:07Z</time>
      </trkpt>
      <trkpt lat="45.83473" lon="4.81062">
        <ele>389</ele>
        <time>2015-01-11T11:44:14Z</time>
      </trkpt>
      <trkpt lat="45.83463" lon="4.81067">
        <ele>389</ele>
        <time>2015-01-11T11:44:18Z</time>
      </trkpt>
      <trkpt lat="45.83454" lon="4.8107">
        <ele>388</ele>
        <time>2015-01-11T11:44:22Z</time>
      </trkpt>
      <trkpt lat="45.83452" lon="4.81071">
        <ele>388</ele>
        <time>2015-01-11T11:44:23Z</time>
      </trkpt>
      <trkpt lat="45.83447" lon="4.81074">
        <ele>388</ele>
        <time>2015-01-11T11:44:26Z</time>
      </trkpt>
      <trkpt lat="45.83446" lon="4.81074">
        <ele>388</ele>
        <time>2015-01-11T11:44:27Z</time>
      </trkpt>
      <trkpt lat="45.83444" lon="4.81074">
        <ele>388</ele>
        <time>2015-01-11T11:44:31Z</time>
      </trkpt>
      <trkpt lat="45.83442" lon="4.81074">
        <ele>388</ele>
        <time>2015-01-11T11:44:36Z</time>
      </trkpt>
      <trkpt lat="45.83438" lon="4.81075">
        <ele>387</ele>
        <time>2015-01-11T11:44:42Z</time>
      </trkpt>
      <trkpt lat="45.83436" lon="4.81076">
        <ele>387</ele>
        <time>2015-01-11T11:44:44Z</time>
      </trkpt>
      <trkpt lat="45.83429" lon="4.81077">
        <ele>387</ele>
        <time>2015-01-11T11:44:47Z</time>
      </trkpt>
      <trkpt lat="45.83422" lon="4.8108">
        <ele>386</ele>
        <time>2015-01-11T11:44:50Z</time>
      </trkpt>
      <trkpt lat="45.83417" lon="4.81083">
        <ele>385</ele>
        <time>2015-01-11T11:44:52Z</time>
      </trkpt>
      <trkpt lat="45.83408" lon="4.81089">
        <ele>383</ele>
        <time>2015-01-11T11:44:56Z</time>
      </trkpt>
      <trkpt lat="45.834" lon="4.81098">
        <ele>381</ele>
        <time>2015-01-11T11:45:00Z</time>
      </trkpt>
      <trkpt lat="45.83398" lon="4.811">
        <ele>381</ele>
        <time>2015-01-11T11:45:01Z</time>
      </trkpt>
      <trkpt lat="45.83384" lon="4.81112">
        <ele>379</ele>
        <time>2015-01-11T11:45:07Z</time>
      </trkpt>
      <trkpt lat="45.83374" lon="4.81124">
        <ele>378</ele>
        <time>2015-01-11T11:45:12Z</time>
      </trkpt>
      <trkpt lat="45.83371" lon="4.81134">
        <ele>378</ele>
        <time>2015-01-11T11:45:15Z</time>
      </trkpt>
      <trkpt lat="45.83369" lon="4.81141">
        <ele>378</ele>
        <time>2015-01-11T11:45:17Z</time>
      </trkpt>
      <trkpt lat="45.83363" lon="4.8115">
        <ele>377</ele>
        <time>2015-01-11T11:45:20Z</time>
      </trkpt>
      <trkpt lat="45.83358" lon="4.81152">
        <ele>377</ele>
        <time>2015-01-11T11:45:22Z</time>
      </trkpt>
      <trkpt lat="45.83353" lon="4.81153">
        <ele>377</ele>
        <time>2015-01-11T11:45:24Z</time>
      </trkpt>
      <trkpt lat="45.83346" lon="4.81151">
        <ele>376</ele>
        <time>2015-01-11T11:45:27Z</time>
      </trkpt>
      <trkpt lat="45.8334" lon="4.81149">
        <ele>376</ele>
        <time>2015-01-11T11:45:29Z</time>
      </trkpt>
      <trkpt lat="45.83331" lon="4.81146">
        <ele>374</ele>
        <time>2015-01-11T11:45:32Z</time>
      </trkpt>
      <trkpt lat="45.83325" lon="4.81144">
        <ele>374</ele>
        <time>2015-01-11T11:45:35Z</time>
      </trkpt>
      <trkpt lat="45.83321" lon="4.81145">
        <ele>373</ele>
        <time>2015-01-11T11:45:37Z</time>
      </trkpt>
      <trkpt lat="45.8331" lon="4.81144">
        <ele>373</ele>
        <time>2015-01-11T11:45:41Z</time>
      </trkpt>
      <trkpt lat="45.83304" lon="4.81145">
        <ele>373</ele>
        <time>2015-01-11T11:45:43Z</time>
      </trkpt>
      <trkpt lat="45.833" lon="4.81146">
        <ele>373</ele>
        <time>2015-01-11T11:45:44Z</time>
      </trkpt>
      <trkpt lat="45.83295" lon="4.81148">
        <ele>373</ele>
        <time>2015-01-11T11:45:46Z</time>
      </trkpt>
      <trkpt lat="45.83284" lon="4.81149">
        <ele>372</ele>
        <time>2015-01-11T11:45:50Z</time>
      </trkpt>
      <trkpt lat="45.83282" lon="4.81149">
        <ele>372</ele>
        <time>2015-01-11T11:45:51Z</time>
      </trkpt>
      <trkpt lat="45.83266" lon="4.8115">
        <ele>371</ele>
        <time>2015-01-11T11:45:56Z</time>
      </trkpt>
      <trkpt lat="45.83256" lon="4.81148">
        <ele>370</ele>
        <time>2015-01-11T11:46:00Z</time>
      </trkpt>
      <trkpt lat="45.83255" lon="4.8115">
        <ele>370</ele>
        <time>2015-01-11T11:46:01Z</time>
      </trkpt>
      <trkpt lat="45.83251" lon="4.81159">
        <ele>368</ele>
        <time>2015-01-11T11:46:04Z</time>
      </trkpt>
      <trkpt lat="45.8325" lon="4.81162">
        <ele>367</ele>
        <time>2015-01-11T11:46:05Z</time>
      </trkpt>
      <trkpt lat="45.83249" lon="4.81165">
        <ele>366</ele>
        <time>2015-01-11T11:46:09Z</time>
      </trkpt>
      <trkpt lat="45.83251" lon="4.81165">
        <ele>367</ele>
        <time>2015-01-11T11:46:17Z</time>
      </trkpt>
      <trkpt lat="45.83253" lon="4.81165">
        <ele>367</ele>
        <time>2015-01-11T11:46:22Z</time>
      </trkpt>
      <trkpt lat="45.83248" lon="4.81161">
        <ele>367</ele>
        <time>2015-01-11T11:46:53Z</time>
      </trkpt>
      <trkpt lat="45.83247" lon="4.81153">
        <ele>368</ele>
        <time>2015-01-11T11:46:59Z</time>
      </trkpt>
      <trkpt lat="45.83246" lon="4.81151">
        <ele>368</ele>
        <time>2015-01-11T11:47:00Z</time>
      </trkpt>
      <trkpt lat="45.83244" lon="4.81145">
        <ele>369</ele>
        <time>2015-01-11T11:47:06Z</time>
      </trkpt>
      <trkpt lat="45.83242" lon="4.8114">
        <ele>369</ele>
        <time>2015-01-11T11:47:14Z</time>
      </trkpt>
      <trkpt lat="45.83238" lon="4.81143">
        <ele>369</ele>
        <time>2015-01-11T11:47:20Z</time>
      </trkpt>
      <trkpt lat="45.83237" lon="4.81147">
        <ele>368</ele>
        <time>2015-01-11T11:47:22Z</time>
      </trkpt>
      <trkpt lat="45.83237" lon="4.81148">
        <ele>368</ele>
        <time>2015-01-11T11:47:23Z</time>
      </trkpt>
      <trkpt lat="45.83236" lon="4.8115">
        <ele>368</ele>
        <time>2015-01-11T11:47:24Z</time>
      </trkpt>
      <trkpt lat="45.83235" lon="4.81157">
        <ele>368</ele>
        <time>2015-01-11T11:47:28Z</time>
      </trkpt>
      <trkpt lat="45.83235" lon="4.81158">
        <ele>368</ele>
        <time>2015-01-11T11:47:29Z</time>
      </trkpt>
      <trkpt lat="45.83236" lon="4.81175">
        <ele>362</ele>
        <time>2015-01-11T11:47:34Z</time>
      </trkpt>
      <trkpt lat="45.83237" lon="4.81178">
        <ele>362</ele>
        <time>2015-01-11T11:47:35Z</time>
      </trkpt>
      <trkpt lat="45.83238" lon="4.81182">
        <ele>361</ele>
        <time>2015-01-11T11:47:36Z</time>
      </trkpt>
      <trkpt lat="45.83236" lon="4.81194">
        <ele>360</ele>
        <time>2015-01-11T11:47:39Z</time>
      </trkpt>
      <trkpt lat="45.83236" lon="4.81201">
        <ele>359</ele>
        <time>2015-01-11T11:47:41Z</time>
      </trkpt>
      <trkpt lat="45.83236" lon="4.81208">
        <ele>358</ele>
        <time>2015-01-11T11:47:43Z</time>
      </trkpt>
      <trkpt lat="45.83235" lon="4.81212">
        <ele>358</ele>
        <time>2015-01-11T11:47:44Z</time>
      </trkpt>
      <trkpt lat="45.83236" lon="4.81227">
        <ele>357</ele>
        <time>2015-01-11T11:47:49Z</time>
      </trkpt>
      <trkpt lat="45.83235" lon="4.81245">
        <ele>356</ele>
        <time>2015-01-11T11:47:54Z</time>
      </trkpt>
      <trkpt lat="45.83235" lon="4.81255">
        <ele>351</ele>
        <time>2015-01-11T11:47:57Z</time>
      </trkpt>
      <trkpt lat="45.83236" lon="4.81261">
        <ele>350</ele>
        <time>2015-01-11T11:47:59Z</time>
      </trkpt>
      <trkpt lat="45.83238" lon="4.81274">
        <ele>348</ele>
        <time>2015-01-11T11:48:03Z</time>
      </trkpt>
      <trkpt lat="45.83238" lon="4.81277">
        <ele>348</ele>
        <time>2015-01-11T11:48:04Z</time>
      </trkpt>
      <trkpt lat="45.8324" lon="4.81281">
        <ele>347</ele>
        <time>2015-01-11T11:48:06Z</time>
      </trkpt>
      <trkpt lat="45.83242" lon="4.81287">
        <ele>347</ele>
        <time>2015-01-11T11:48:09Z</time>
      </trkpt>
      <trkpt lat="45.83245" lon="4.81294">
        <ele>346</ele>
        <time>2015-01-11T11:48:13Z</time>
      </trkpt>
      <trkpt lat="45.83246" lon="4.81297">
        <ele>346</ele>
        <time>2015-01-11T11:48:14Z</time>
      </trkpt>
      <trkpt lat="45.83248" lon="4.81304">
        <ele>345</ele>
        <time>2015-01-11T11:48:17Z</time>
      </trkpt>
      <trkpt lat="45.83249" lon="4.81308">
        <ele>345</ele>
        <time>2015-01-11T11:48:18Z</time>
      </trkpt>
      <trkpt lat="45.83254" lon="4.81322">
        <ele>347</ele>
        <time>2015-01-11T11:48:23Z</time>
      </trkpt>
      <trkpt lat="45.83258" lon="4.81326">
        <ele>347</ele>
        <time>2015-01-11T11:48:25Z</time>
      </trkpt>
      <trkpt lat="45.83262" lon="4.8133">
        <ele>347</ele>
        <time>2015-01-11T11:48:27Z</time>
      </trkpt>
      <trkpt lat="45.83271" lon="4.81339">
        <ele>340</ele>
        <time>2015-01-11T11:48:32Z</time>
      </trkpt>
      <trkpt lat="45.83274" lon="4.81342">
        <ele>340</ele>
        <time>2015-01-11T11:48:34Z</time>
      </trkpt>
      <trkpt lat="45.83279" lon="4.81353">
        <ele>339</ele>
        <time>2015-01-11T11:48:38Z</time>
      </trkpt>
      <trkpt lat="45.83283" lon="4.81365">
        <ele>338</ele>
        <time>2015-01-11T11:48:42Z</time>
      </trkpt>
      <trkpt lat="45.83285" lon="4.8137">
        <ele>337</ele>
        <time>2015-01-11T11:48:44Z</time>
      </trkpt>
      <trkpt lat="45.83292" lon="4.81384">
        <ele>336</ele>
        <time>2015-01-11T11:48:49Z</time>
      </trkpt>
      <trkpt lat="45.83293" lon="4.81387">
        <ele>336</ele>
        <time>2015-01-11T11:48:50Z</time>
      </trkpt>
      <trkpt lat="45.83301" lon="4.81399">
        <ele>335</ele>
        <time>2015-01-11T11:48:54Z</time>
      </trkpt>
      <trkpt lat="45.83304" lon="4.81412">
        <ele>335</ele>
        <time>2015-01-11T11:48:56Z</time>
      </trkpt>
      <trkpt lat="45.83305" lon="4.81415">
        <ele>335</ele>
        <time>2015-01-11T11:48:57Z</time>
      </trkpt>
      <trkpt lat="45.83306" lon="4.81418">
        <ele>327</ele>
        <time>2015-01-11T11:48:59Z</time>
      </trkpt>
      <trkpt lat="45.83311" lon="4.81431">
        <ele>327</ele>
        <time>2015-01-11T11:49:02Z</time>
      </trkpt>
      <trkpt lat="45.83312" lon="4.81435">
        <ele>326</ele>
        <time>2015-01-11T11:49:04Z</time>
      </trkpt>
      <trkpt lat="45.83314" lon="4.81448">
        <ele>325</ele>
        <time>2015-01-11T11:49:07Z</time>
      </trkpt>
      <trkpt lat="45.83314" lon="4.81452">
        <ele>325</ele>
        <time>2015-01-11T11:49:08Z</time>
      </trkpt>
      <trkpt lat="45.83316" lon="4.81463">
        <ele>324</ele>
        <time>2015-01-11T11:49:11Z</time>
      </trkpt>
      <trkpt lat="45.83317" lon="4.81469">
        <ele>324</ele>
        <time>2015-01-11T11:49:14Z</time>
      </trkpt>
      <trkpt lat="45.83318" lon="4.81479">
        <ele>324</ele>
        <time>2015-01-11T11:49:17Z</time>
      </trkpt>
      <trkpt lat="45.83318" lon="4.81482">
        <ele>324</ele>
        <time>2015-01-11T11:49:18Z</time>
      </trkpt>
      <trkpt lat="45.83319" lon="4.81491">
        <ele>324</ele>
        <time>2015-01-11T11:49:20Z</time>
      </trkpt>
      <trkpt lat="45.8332" lon="4.81498">
        <ele>324</ele>
        <time>2015-01-11T11:49:23Z</time>
      </trkpt>
      <trkpt lat="45.8332" lon="4.81502">
        <ele>319</ele>
        <time>2015-01-11T11:49:24Z</time>
      </trkpt>
      <trkpt lat="45.83322" lon="4.81509">
        <ele>319</ele>
        <time>2015-01-11T11:49:26Z</time>
      </trkpt>
      <trkpt lat="45.83323" lon="4.81515">
        <ele>317</ele>
        <time>2015-01-11T11:49:28Z</time>
      </trkpt>
      <trkpt lat="45.83323" lon="4.81518">
        <ele>317</ele>
        <time>2015-01-11T11:49:29Z</time>
      </trkpt>
      <trkpt lat="45.83324" lon="4.81526">
        <ele>315</ele>
        <time>2015-01-11T11:49:31Z</time>
      </trkpt>
      <trkpt lat="45.83325" lon="4.81535">
        <ele>313</ele>
        <time>2015-01-11T11:49:32Z</time>
      </trkpt>
      <trkpt lat="45.83327" lon="4.81543">
        <ele>312</ele>
        <time>2015-01-11T11:49:35Z</time>
      </trkpt>
      <trkpt lat="45.83333" lon="4.81553">
        <ele>312</ele>
        <time>2015-01-11T11:49:38Z</time>
      </trkpt>
      <trkpt lat="45.8334" lon="4.8157">
        <ele>317</ele>
        <time>2015-01-11T11:49:42Z</time>
      </trkpt>
      <trkpt lat="45.83346" lon="4.81587">
        <ele>312</ele>
        <time>2015-01-11T11:49:48Z</time>
      </trkpt>
      <trkpt lat="45.83348" lon="4.8159">
        <ele>312</ele>
        <time>2015-01-11T11:49:49Z</time>
      </trkpt>
      <trkpt lat="45.83354" lon="4.81605">
        <ele>311</ele>
        <time>2015-01-11T11:49:52Z</time>
      </trkpt>
      <trkpt lat="45.83358" lon="4.81613">
        <ele>311</ele>
        <time>2015-01-11T11:49:55Z</time>
      </trkpt>
      <trkpt lat="45.83364" lon="4.81628">
        <ele>310</ele>
        <time>2015-01-11T11:49:59Z</time>
      </trkpt>
      <trkpt lat="45.83367" lon="4.81636">
        <ele>309</ele>
        <time>2015-01-11T11:50:01Z</time>
      </trkpt>
      <trkpt lat="45.8337" lon="4.81645">
        <ele>309</ele>
        <time>2015-01-11T11:50:04Z</time>
      </trkpt>
      <trkpt lat="45.83377" lon="4.81663">
        <ele>309</ele>
        <time>2015-01-11T11:50:08Z</time>
      </trkpt>
      <trkpt lat="45.83381" lon="4.81679">
        <ele>299</ele>
        <time>2015-01-11T11:50:14Z</time>
      </trkpt>
      <trkpt lat="45.83381" lon="4.81686">
        <ele>299</ele>
        <time>2015-01-11T11:50:17Z</time>
      </trkpt>
      <trkpt lat="45.83382" lon="4.81694">
        <ele>298</ele>
        <time>2015-01-11T11:50:20Z</time>
      </trkpt>
      <trkpt lat="45.83383" lon="4.81695">
        <ele>298</ele>
        <time>2015-01-11T11:50:22Z</time>
      </trkpt>
      <trkpt lat="45.83384" lon="4.817">
        <ele>298</ele>
        <time>2015-01-11T11:50:26Z</time>
      </trkpt>
      <trkpt lat="45.83386" lon="4.81703">
        <ele>298</ele>
        <time>2015-01-11T11:50:30Z</time>
      </trkpt>
      <trkpt lat="45.83387" lon="4.81708">
        <ele>297</ele>
        <time>2015-01-11T11:50:34Z</time>
      </trkpt>
      <trkpt lat="45.83387" lon="4.8171">
        <ele>297</ele>
        <time>2015-01-11T11:50:35Z</time>
      </trkpt>
      <trkpt lat="45.83388" lon="4.81717">
        <ele>296</ele>
        <time>2015-01-11T11:50:39Z</time>
      </trkpt>
      <trkpt lat="45.83389" lon="4.8172">
        <ele>296</ele>
        <time>2015-01-11T11:50:41Z</time>
      </trkpt>
      <trkpt lat="45.8339" lon="4.81726">
        <ele>296</ele>
        <time>2015-01-11T11:50:44Z</time>
      </trkpt>
      <trkpt lat="45.8339" lon="4.81736">
        <ele>295</ele>
        <time>2015-01-11T11:50:47Z</time>
      </trkpt>
      <trkpt lat="45.8339" lon="4.81739">
        <ele>295</ele>
        <time>2015-01-11T11:50:48Z</time>
      </trkpt>
      <trkpt lat="45.83391" lon="4.81746">
        <ele>294</ele>
        <time>2015-01-11T11:50:50Z</time>
      </trkpt>
      <trkpt lat="45.83392" lon="4.81751">
        <ele>285</ele>
        <time>2015-01-11T11:50:52Z</time>
      </trkpt>
      <trkpt lat="45.83392" lon="4.81763">
        <ele>284</ele>
        <time>2015-01-11T11:50:56Z</time>
      </trkpt>
      <trkpt lat="45.83393" lon="4.81768">
        <ele>284</ele>
        <time>2015-01-11T11:51:00Z</time>
      </trkpt>
      <trkpt lat="45.83393" lon="4.8177">
        <ele>283</ele>
        <time>2015-01-11T11:51:01Z</time>
      </trkpt>
      <trkpt lat="45.83395" lon="4.81783">
        <ele>282</ele>
        <time>2015-01-11T11:51:05Z</time>
      </trkpt>
      <trkpt lat="45.83394" lon="4.81787">
        <ele>281</ele>
        <time>2015-01-11T11:51:06Z</time>
      </trkpt>
      <trkpt lat="45.83392" lon="4.81793">
        <ele>280</ele>
        <time>2015-01-11T11:51:08Z</time>
      </trkpt>
      <trkpt lat="45.83391" lon="4.81793">
        <ele>280</ele>
        <time>2015-01-11T11:51:09Z</time>
      </trkpt>
      <trkpt lat="45.83389" lon="4.81795">
        <ele>280</ele>
        <time>2015-01-11T11:51:12Z</time>
      </trkpt>
      <trkpt lat="45.8339" lon="4.81796">
        <ele>280</ele>
        <time>2015-01-11T11:51:14Z</time>
      </trkpt>
      <trkpt lat="45.8339" lon="4.81799">
        <ele>279</ele>
        <time>2015-01-11T11:51:16Z</time>
      </trkpt>
      <trkpt lat="45.8339" lon="4.81801">
        <ele>279</ele>
        <time>2015-01-11T11:51:18Z</time>
      </trkpt>
      <trkpt lat="45.83389" lon="4.8181">
        <ele>278</ele>
        <time>2015-01-11T11:51:23Z</time>
      </trkpt>
      <trkpt lat="45.83389" lon="4.81812">
        <ele>278</ele>
        <time>2015-01-11T11:51:24Z</time>
      </trkpt>
      <trkpt lat="45.83386" lon="4.81824">
        <ele>277</ele>
        <time>2015-01-11T11:51:29Z</time>
      </trkpt>
      <trkpt lat="45.83385" lon="4.81829">
        <ele>277</ele>
        <time>2015-01-11T11:51:31Z</time>
      </trkpt>
      <trkpt lat="45.83385" lon="4.81837">
        <ele>266</ele>
        <time>2015-01-11T11:51:34Z</time>
      </trkpt>
      <trkpt lat="45.83385" lon="4.81846">
        <ele>266</ele>
        <time>2015-01-11T11:51:37Z</time>
      </trkpt>
      <trkpt lat="45.83386" lon="4.81863">
        <ele>264</ele>
        <time>2015-01-11T11:51:43Z</time>
      </trkpt>
      <trkpt lat="45.83385" lon="4.8187">
        <ele>263</ele>
        <time>2015-01-11T11:51:45Z</time>
      </trkpt>
      <trkpt lat="45.83385" lon="4.8188">
        <ele>262</ele>
        <time>2015-01-11T11:51:48Z</time>
      </trkpt>
      <trkpt lat="45.83383" lon="4.81891">
        <ele>261</ele>
        <time>2015-01-11T11:51:52Z</time>
      </trkpt>
      <trkpt lat="45.83382" lon="4.81894">
        <ele>261</ele>
        <time>2015-01-11T11:51:53Z</time>
      </trkpt>
      <trkpt lat="45.83383" lon="4.8191">
        <ele>260</ele>
        <time>2015-01-11T11:51:58Z</time>
      </trkpt>
      <trkpt lat="45.83385" lon="4.81917">
        <ele>251</ele>
        <time>2015-01-11T11:52:00Z</time>
      </trkpt>
      <trkpt lat="45.83387" lon="4.81928">
        <ele>251</ele>
        <time>2015-01-11T11:52:03Z</time>
      </trkpt>
      <trkpt lat="45.8339" lon="4.81944">
        <ele>250</ele>
        <time>2015-01-11T11:52:08Z</time>
      </trkpt>
      <trkpt lat="45.83395" lon="4.81956">
        <ele>249</ele>
        <time>2015-01-11T11:52:12Z</time>
      </trkpt>
      <trkpt lat="45.83401" lon="4.81965">
        <ele>248</ele>
        <time>2015-01-11T11:52:15Z</time>
      </trkpt>
      <trkpt lat="45.83404" lon="4.8197">
        <ele>247</ele>
        <time>2015-01-11T11:52:17Z</time>
      </trkpt>
      <trkpt lat="45.8341" lon="4.81983">
        <ele>245</ele>
        <time>2015-01-11T11:52:22Z</time>
      </trkpt>
      <trkpt lat="45.83411" lon="4.81987">
        <ele>245</ele>
        <time>2015-01-11T11:52:23Z</time>
      </trkpt>
      <trkpt lat="45.83414" lon="4.81994">
        <ele>244</ele>
        <time>2015-01-11T11:52:26Z</time>
      </trkpt>
      <trkpt lat="45.83414" lon="4.81995">
        <ele>243</ele>
        <time>2015-01-11T11:52:27Z</time>
      </trkpt>
      <trkpt lat="45.83415" lon="4.81999">
        <ele>242</ele>
        <time>2015-01-11T11:52:30Z</time>
      </trkpt>
      <trkpt lat="45.83416" lon="4.82002">
        <ele>242</ele>
        <time>2015-01-11T11:52:32Z</time>
      </trkpt>
      <trkpt lat="45.8342" lon="4.82006">
        <ele>240</ele>
        <time>2015-01-11T11:52:52Z</time>
      </trkpt>
      <trkpt lat="45.83419" lon="4.82008">
        <ele>240</ele>
        <time>2015-01-11T11:52:54Z</time>
      </trkpt>
      <trkpt lat="45.83419" lon="4.82009">
        <ele>240</ele>
        <time>2015-01-11T11:52:56Z</time>
      </trkpt>
      <trkpt lat="45.8342" lon="4.82006">
        <ele>240</ele>
        <time>2015-01-11T11:53:04Z</time>
      </trkpt>
      <trkpt lat="45.83418" lon="4.82004">
        <ele>241</ele>
        <time>2015-01-11T11:53:17Z</time>
      </trkpt>
      <trkpt lat="45.83419" lon="4.82004">
        <ele>241</ele>
        <time>2015-01-11T11:53:34Z</time>
      </trkpt>
      <trkpt lat="45.83418" lon="4.82002">
        <ele>241</ele>
        <time>2015-01-11T11:54:15Z</time>
      </trkpt>
      <trkpt lat="45.83418" lon="4.82004">
        <ele>241</ele>
        <time>2015-01-11T11:54:20Z</time>
      </trkpt>
      <trkpt lat="45.83419" lon="4.82011">
        <ele>239</ele>
        <time>2015-01-11T11:54:28Z</time>
      </trkpt>
      <trkpt lat="45.8342" lon="4.82018">
        <ele>238</ele>
        <time>2015-01-11T11:54:31Z</time>
      </trkpt>
      <trkpt lat="45.8342" lon="4.8203">
        <ele>236</ele>
        <time>2015-01-11T11:54:35Z</time>
      </trkpt>
      <trkpt lat="45.83421" lon="4.82046">
        <ele>235</ele>
        <time>2015-01-11T11:54:40Z</time>
      </trkpt>
      <trkpt lat="45.83421" lon="4.82049">
        <ele>235</ele>
        <time>2015-01-11T11:54:41Z</time>
      </trkpt>
      <trkpt lat="45.83419" lon="4.82073">
        <ele>233</ele>
        <time>2015-01-11T11:54:48Z</time>
      </trkpt>
      <trkpt lat="45.83417" lon="4.82081">
        <ele>233</ele>
        <time>2015-01-11T11:54:50Z</time>
      </trkpt>
      <trkpt lat="45.83415" lon="4.82085">
        <ele>234</ele>
        <time>2015-01-11T11:54:52Z</time>
      </trkpt>
      <trkpt lat="45.83411" lon="4.82085">
        <ele>235</ele>
        <time>2015-01-11T11:54:54Z</time>
      </trkpt>
      <trkpt lat="45.83406" lon="4.82083">
        <ele>236</ele>
        <time>2015-01-11T11:54:56Z</time>
      </trkpt>
      <trkpt lat="45.83395" lon="4.82076">
        <ele>238</ele>
        <time>2015-01-11T11:55:01Z</time>
      </trkpt>
      <trkpt lat="45.83393" lon="4.82076">
        <ele>238</ele>
        <time>2015-01-11T11:55:03Z</time>
      </trkpt>
      <trkpt lat="45.83394" lon="4.82079">
        <ele>238</ele>
        <time>2015-01-11T11:55:04Z</time>
      </trkpt>
      <trkpt lat="45.83394" lon="4.82082">
        <ele>238</ele>
        <time>2015-01-11T11:55:05Z</time>
      </trkpt>
      <trkpt lat="45.83394" lon="4.82085">
        <ele>239</ele>
        <time>2015-01-11T11:55:08Z</time>
      </trkpt>
      <trkpt lat="45.83391" lon="4.8209">
        <ele>240</ele>
        <time>2015-01-11T11:55:13Z</time>
      </trkpt>
      <trkpt lat="45.83386" lon="4.82101">
        <ele>242</ele>
        <time>2015-01-11T11:55:17Z</time>
      </trkpt>
      <trkpt lat="45.83384" lon="4.82104">
        <ele>242</ele>
        <time>2015-01-11T11:55:19Z</time>
      </trkpt>
      <trkpt lat="45.8338" lon="4.8211">
        <ele>243</ele>
        <time>2015-01-11T11:55:23Z</time>
      </trkpt>
      <trkpt lat="45.8338" lon="4.82111">
        <ele>243</ele>
        <time>2015-01-11T11:55:24Z</time>
      </trkpt>
      <trkpt lat="45.8338" lon="4.82115">
        <ele>243</ele>
        <time>2015-01-11T11:55:28Z</time>
      </trkpt>
      <trkpt lat="45.83374" lon="4.82122">
        <ele>244</ele>
        <time>2015-01-11T11:55:34Z</time>
      </trkpt>
      <trkpt lat="45.83372" lon="4.82124">
        <ele>244</ele>
        <time>2015-01-11T11:55:36Z</time>
      </trkpt>
      <trkpt lat="45.83372" lon="4.82125">
        <ele>245</ele>
        <time>2015-01-11T11:55:37Z</time>
      </trkpt>
      <trkpt lat="45.83369" lon="4.8213">
        <ele>245</ele>
        <time>2015-01-11T11:55:42Z</time>
      </trkpt>
      <trkpt lat="45.83366" lon="4.82135">
        <ele>246</ele>
        <time>2015-01-11T11:55:47Z</time>
      </trkpt>
      <trkpt lat="45.83365" lon="4.82137">
        <ele>246</ele>
        <time>2015-01-11T11:55:49Z</time>
      </trkpt>
      <trkpt lat="45.83364" lon="4.82141">
        <ele>247</ele>
        <time>2015-01-11T11:55:53Z</time>
      </trkpt>
      <trkpt lat="45.83363" lon="4.82142">
        <ele>247</ele>
        <time>2015-01-11T11:55:54Z</time>
      </trkpt>
      <trkpt lat="45.83362" lon="4.82146">
        <ele>247</ele>
        <time>2015-01-11T11:55:58Z</time>
      </trkpt>
      <trkpt lat="45.83362" lon="4.82146">
        <ele>248</ele>
        <time>2015-01-11T11:55:59Z</time>
      </trkpt>
      <trkpt lat="45.83361" lon="4.82147">
        <ele>248</ele>
        <time>2015-01-11T11:56:00Z</time>
      </trkpt>
      <trkpt lat="45.8336" lon="4.82149">
        <ele>248</ele>
        <time>2015-01-11T11:56:04Z</time>
      </trkpt>
      <trkpt lat="45.83358" lon="4.82152">
        <ele>249</ele>
        <time>2015-01-11T11:56:11Z</time>
      </trkpt>
      <trkpt lat="45.83352" lon="4.82157">
        <ele>251</ele>
        <time>2015-01-11T11:56:15Z</time>
      </trkpt>
      <trkpt lat="45.83348" lon="4.82159">
        <ele>252</ele>
        <time>2015-01-11T11:56:19Z</time>
      </trkpt>
      <trkpt lat="45.83345" lon="4.8216">
        <ele>253</ele>
        <time>2015-01-11T11:56:22Z</time>
      </trkpt>
      <trkpt lat="45.83344" lon="4.8216">
        <ele>253</ele>
        <time>2015-01-11T11:56:23Z</time>
      </trkpt>
      <trkpt lat="45.83343" lon="4.82159">
        <ele>254</ele>
        <time>2015-01-11T11:56:24Z</time>
      </trkpt>
      <trkpt lat="45.83336" lon="4.82158">
        <ele>255</ele>
        <time>2015-01-11T11:56:31Z</time>
      </trkpt>
      <trkpt lat="45.83329" lon="4.82159">
        <ele>262</ele>
        <time>2015-01-11T11:56:38Z</time>
      </trkpt>
      <trkpt lat="45.83325" lon="4.8216">
        <ele>262</ele>
        <time>2015-01-11T11:56:42Z</time>
      </trkpt>
      <trkpt lat="45.8332" lon="4.8216">
        <ele>263</ele>
        <time>2015-01-11T11:56:47Z</time>
      </trkpt>
      <trkpt lat="45.83309" lon="4.82162">
        <ele>266</ele>
        <time>2015-01-11T11:56:56Z</time>
      </trkpt>
      <trkpt lat="45.83306" lon="4.82163">
        <ele>266</ele>
        <time>2015-01-11T11:56:58Z</time>
      </trkpt>
      <trkpt lat="45.83313" lon="4.82169">
        <ele>275</ele>
        <time>2015-01-11T11:57:19Z</time>
      </trkpt>
      <trkpt lat="45.83316" lon="4.82167">
        <ele>273</ele>
        <time>2015-01-11T11:57:24Z</time>
      </trkpt>
      <trkpt lat="45.83311" lon="4.82162">
        <ele>265</ele>
        <time>2015-01-11T11:57:46Z</time>
      </trkpt>
      <trkpt lat="45.83309" lon="4.82159">
        <ele>265</ele>
        <time>2015-01-11T11:57:56Z</time>
      </trkpt>
      <trkpt lat="45.83307" lon="4.82159">
        <ele>266</ele>
        <time>2015-01-11T11:58:03Z</time>
      </trkpt>
      <trkpt lat="45.83307" lon="4.82159">
        <ele>266</ele>
        <time>2015-01-11T11:58:08Z</time>
      </trkpt>
      <trkpt lat="45.83305" lon="4.82161">
        <ele>266</ele>
        <time>2015-01-11T11:58:11Z</time>
      </trkpt>
      <trkpt lat="45.83307" lon="4.82167">
        <ele>277</ele>
        <time>2015-01-11T11:58:18Z</time>
      </trkpt>
      <trkpt lat="45.83308" lon="4.82169">
        <ele>276</ele>
        <time>2015-01-11T11:58:19Z</time>
      </trkpt>
      <trkpt lat="45.83309" lon="4.82171">
        <ele>276</ele>
        <time>2015-01-11T11:58:22Z</time>
      </trkpt>
      <trkpt lat="45.83314" lon="4.82176">
        <ele>275</ele>
        <time>2015-01-11T11:58:28Z</time>
      </trkpt>
      <trkpt lat="45.83315" lon="4.82176">
        <ele>275</ele>
        <time>2015-01-11T11:58:30Z</time>
      </trkpt>
      <trkpt lat="45.83318" lon="4.82178">
        <ele>274</ele>
        <time>2015-01-11T11:58:33Z</time>
      </trkpt>
      <trkpt lat="45.8332" lon="4.82181">
        <ele>274</ele>
        <time>2015-01-11T11:58:35Z</time>
      </trkpt>
      <trkpt lat="45.83327" lon="4.8219">
        <ele>276</ele>
        <time>2015-01-11T11:58:43Z</time>
      </trkpt>
      <trkpt lat="45.83329" lon="4.82194">
        <ele>277</ele>
        <time>2015-01-11T11:58:46Z</time>
      </trkpt>
      <trkpt lat="45.83331" lon="4.82197">
        <ele>278</ele>
        <time>2015-01-11T11:58:49Z</time>
      </trkpt>
      <trkpt lat="45.83339" lon="4.82207">
        <ele>262</ele>
        <time>2015-01-11T11:58:56Z</time>
      </trkpt>
      <trkpt lat="45.83343" lon="4.82211">
        <ele>263</ele>
        <time>2015-01-11T11:58:59Z</time>
      </trkpt>
      <trkpt lat="45.83345" lon="4.82214">
        <ele>263</ele>
        <time>2015-01-11T11:59:02Z</time>
      </trkpt>
      <trkpt lat="45.83351" lon="4.82223">
        <ele>264</ele>
        <time>2015-01-11T11:59:08Z</time>
      </trkpt>
      <trkpt lat="45.83354" lon="4.82227">
        <ele>265</ele>
        <time>2015-01-11T11:59:14Z</time>
      </trkpt>
      <trkpt lat="45.83356" lon="4.8223">
        <ele>265</ele>
        <time>2015-01-11T11:59:21Z</time>
      </trkpt>
      <trkpt lat="45.83358" lon="4.82233">
        <ele>265</ele>
        <time>2015-01-11T11:59:23Z</time>
      </trkpt>
      <trkpt lat="45.83366" lon="4.82241">
        <ele>263</ele>
        <time>2015-01-11T11:59:29Z</time>
      </trkpt>
      <trkpt lat="45.83368" lon="4.82242">
        <ele>263</ele>
        <time>2015-01-11T11:59:31Z</time>
      </trkpt>
      <trkpt lat="45.83369" lon="4.82243">
        <ele>263</ele>
        <time>2015-01-11T11:59:33Z</time>
      </trkpt>
      <trkpt lat="45.8337" lon="4.82244">
        <ele>262</ele>
        <time>2015-01-11T11:59:34Z</time>
      </trkpt>
      <trkpt lat="45.83377" lon="4.82254">
        <ele>271</ele>
        <time>2015-01-11T11:59:41Z</time>
      </trkpt>
      <trkpt lat="45.83381" lon="4.82262">
        <ele>270</ele>
        <time>2015-01-11T11:59:45Z</time>
      </trkpt>
      <trkpt lat="45.83383" lon="4.82264">
        <ele>270</ele>
        <time>2015-01-11T11:59:46Z</time>
      </trkpt>
      <trkpt lat="45.83384" lon="4.82266">
        <ele>270</ele>
        <time>2015-01-11T11:59:47Z</time>
      </trkpt>
      <trkpt lat="45.83387" lon="4.82271">
        <ele>270</ele>
        <time>2015-01-11T11:59:49Z</time>
      </trkpt>
      <trkpt lat="45.83397" lon="4.82278">
        <ele>268</ele>
        <time>2015-01-11T11:59:53Z</time>
      </trkpt>
      <trkpt lat="45.83409" lon="4.82283">
        <ele>268</ele>
        <time>2015-01-11T11:59:58Z</time>
      </trkpt>
      <trkpt lat="45.83416" lon="4.82287">
        <ele>268</ele>
        <time>2015-01-11T12:00:01Z</time>
      </trkpt>
      <trkpt lat="45.83423" lon="4.82289">
        <ele>252</ele>
        <time>2015-01-11T12:00:04Z</time>
      </trkpt>
      <trkpt lat="45.83431" lon="4.82294">
        <ele>252</ele>
        <time>2015-01-11T12:00:09Z</time>
      </trkpt>
      <trkpt lat="45.83434" lon="4.82298">
        <ele>252</ele>
        <time>2015-01-11T12:00:12Z</time>
      </trkpt>
      <trkpt lat="45.83435" lon="4.82299">
        <ele>252</ele>
        <time>2015-01-11T12:00:13Z</time>
      </trkpt>
      <trkpt lat="45.83437" lon="4.82303">
        <ele>253</ele>
        <time>2015-01-11T12:00:15Z</time>
      </trkpt>
      <trkpt lat="45.8344" lon="4.82309">
        <ele>253</ele>
        <time>2015-01-11T12:00:19Z</time>
      </trkpt>
      <trkpt lat="45.83441" lon="4.82312">
        <ele>253</ele>
        <time>2015-01-11T12:00:21Z</time>
      </trkpt>
      <trkpt lat="45.83444" lon="4.82319">
        <ele>253</ele>
        <time>2015-01-11T12:00:26Z</time>
      </trkpt>
      <trkpt lat="45.83446" lon="4.82323">
        <ele>253</ele>
        <time>2015-01-11T12:00:28Z</time>
      </trkpt>
    </trkseg>
  </trk>
</gpx>